<?xml version="1.0" encoding="UTF-8" standalone="no"?>
<gpx xmlns="http://www.topografix.com/GPX/1/1" creator="GPS TrackMaker" version="1.1" xmlns:xsi="http://www.w3.org/2001/XMLSchema-instance" xsi:schemaLocation="http://www.topografix.com/GPX/1/1 http://www.topografix.com/GPX/1/1/gpx.xsd"><metadata><link href="http://www.gpstm.com"><text>Geo Studio Tecnology Ltd</text></link><time>2009-07-30T15:08:04Z</time><bounds minlat="43.505107" minlon="12.917929" maxlat="43.527256" maxlon="12.939677"/></metadata><wpt lat="43.509484000" lon="12.919774000"><ele>744.362000</ele><time>2009-07-28T07:33:11Z</time><name>wpt-2009-0</name><cmt></cmt><desc></desc><sym>Waypoint</sym></wpt><wpt lat="43.508618000" lon="12.919570000"><ele>765.372000</ele><time>2009-07-28T07:35:19Z</time><name>wpt-2009-0</name><cmt></cmt><desc></desc><sym>Waypoint</sym></wpt><wpt lat="43.506092000" lon="12.924232000"><ele>665.385000</ele><time>2009-07-28T08:27:59Z</time><name>wpt-2009-0</name><cmt></cmt><desc></desc><sym>Waypoint</sym></wpt><wpt lat="43.515743000" lon="12.934031000"><ele>568.544000</ele><time>2009-07-28T10:02:57Z</time><name>wpt-2009-0</name><cmt></cmt><desc></desc><sym>Waypoint</sym></wpt><wpt lat="43.516180000" lon="12.935115000"><ele>552.929000</ele><time>2009-07-28T10:04:22Z</time><name>wpt-2009-0</name><cmt></cmt><desc></desc><sym>Waypoint</sym></wpt><trk><name>Unbenannt-Erweitert</name><trkseg><trkpt lat="43.524909000" lon="12.939292000"><ele>397.401000</ele><time>2009-07-28T06:10:52Z</time></trkpt><trkpt lat="43.524828000" lon="12.939248000"><ele>377.776000</ele><time>2009-07-28T06:10:53Z</time></trkpt><trkpt lat="43.524966000" lon="12.939293000"><ele>416.857000</ele><time>2009-07-28T06:10:54Z</time></trkpt><trkpt lat="43.524725000" lon="12.939401000"><ele>387.035000</ele><time>2009-07-28T06:10:57Z</time></trkpt><trkpt lat="43.524756000" lon="12.939380000"><ele>386.171000</ele><time>2009-07-28T06:10:59Z</time></trkpt><trkpt lat="43.524788000" lon="12.939344000"><ele>384.756000</ele><time>2009-07-28T06:11:03Z</time></trkpt><trkpt lat="43.524828000" lon="12.939317000"><ele>384.658000</ele><time>2009-07-28T06:11:05Z</time></trkpt><trkpt lat="43.524890000" lon="12.939281000"><ele>388.043000</ele><time>2009-07-28T06:11:09Z</time></trkpt><trkpt lat="43.524919000" lon="12.939269000"><ele>388.517000</ele><time>2009-07-28T06:11:11Z</time></trkpt><trkpt lat="43.524933000" lon="12.939242000"><ele>391.649000</ele><time>2009-07-28T06:11:15Z</time></trkpt><trkpt lat="43.524944000" lon="12.939224000"><ele>391.430000</ele><time>2009-07-28T06:11:17Z</time></trkpt><trkpt lat="43.524979000" lon="12.939198000"><ele>391.710000</ele><time>2009-07-28T06:11:21Z</time></trkpt><trkpt lat="43.525006000" lon="12.939175000"><ele>393.341000</ele><time>2009-07-28T06:11:23Z</time></trkpt><trkpt lat="43.525066000" lon="12.939172000"><ele>394.788000</ele><time>2009-07-28T06:11:27Z</time></trkpt><trkpt lat="43.525087000" lon="12.939172000"><ele>395.123000</ele><time>2009-07-28T06:11:29Z</time></trkpt><trkpt lat="43.525141000" lon="12.939188000"><ele>395.167000</ele><time>2009-07-28T06:11:33Z</time></trkpt><trkpt lat="43.525157000" lon="12.939189000"><ele>396.404000</ele><time>2009-07-28T06:11:35Z</time></trkpt><trkpt lat="43.525170000" lon="12.939171000"><ele>397.276000</ele><time>2009-07-28T06:11:39Z</time></trkpt><trkpt lat="43.525178000" lon="12.939162000"><ele>397.667000</ele><time>2009-07-28T06:11:41Z</time></trkpt><trkpt lat="43.525215000" lon="12.939105000"><ele>399.351000</ele><time>2009-07-28T06:11:45Z</time></trkpt><trkpt lat="43.525238000" lon="12.939083000"><ele>399.550000</ele><time>2009-07-28T06:11:47Z</time></trkpt><trkpt lat="43.525268000" lon="12.939034000"><ele>400.023000</ele><time>2009-07-28T06:11:51Z</time></trkpt><trkpt lat="43.525271000" lon="12.939015000"><ele>399.942000</ele><time>2009-07-28T06:11:53Z</time></trkpt><trkpt lat="43.525296000" lon="12.938961000"><ele>400.692000</ele><time>2009-07-28T06:11:57Z</time></trkpt><trkpt lat="43.525289000" lon="12.938937000"><ele>400.887000</ele><time>2009-07-28T06:11:59Z</time></trkpt><trkpt lat="43.525285000" lon="12.938884000"><ele>401.205000</ele><time>2009-07-28T06:12:03Z</time></trkpt><trkpt lat="43.525280000" lon="12.938854000"><ele>401.291000</ele><time>2009-07-28T06:12:05Z</time></trkpt><trkpt lat="43.525273000" lon="12.938800000"><ele>401.504000</ele><time>2009-07-28T06:12:09Z</time></trkpt><trkpt lat="43.525262000" lon="12.938769000"><ele>401.557000</ele><time>2009-07-28T06:12:11Z</time></trkpt><trkpt lat="43.525253000" lon="12.938718000"><ele>401.858000</ele><time>2009-07-28T06:12:15Z</time></trkpt><trkpt lat="43.525244000" lon="12.938686000"><ele>402.117000</ele><time>2009-07-28T06:12:17Z</time></trkpt><trkpt lat="43.525235000" lon="12.938614000"><ele>402.802000</ele><time>2009-07-28T06:12:21Z</time></trkpt><trkpt lat="43.525233000" lon="12.938577000"><ele>403.685000</ele><time>2009-07-28T06:12:23Z</time></trkpt><trkpt lat="43.525214000" lon="12.938513000"><ele>404.525000</ele><time>2009-07-28T06:12:27Z</time></trkpt><trkpt lat="43.525202000" lon="12.938480000"><ele>404.783000</ele><time>2009-07-28T06:12:29Z</time></trkpt><trkpt lat="43.525198000" lon="12.938439000"><ele>405.254000</ele><time>2009-07-28T06:12:33Z</time></trkpt><trkpt lat="43.525168000" lon="12.938424000"><ele>403.018000</ele><time>2009-07-28T06:12:35Z</time></trkpt><trkpt lat="43.525144000" lon="12.938377000"><ele>402.060000</ele><time>2009-07-28T06:12:39Z</time></trkpt><trkpt lat="43.525139000" lon="12.938346000"><ele>402.104000</ele><time>2009-07-28T06:12:41Z</time></trkpt><trkpt lat="43.525106000" lon="12.938281000"><ele>400.757000</ele><time>2009-07-28T06:12:45Z</time></trkpt><trkpt lat="43.525101000" lon="12.938248000"><ele>400.190000</ele><time>2009-07-28T06:12:47Z</time></trkpt><trkpt lat="43.525090000" lon="12.938188000"><ele>399.264000</ele><time>2009-07-28T06:12:51Z</time></trkpt><trkpt lat="43.525088000" lon="12.938152000"><ele>399.043000</ele><time>2009-07-28T06:12:53Z</time></trkpt><trkpt lat="43.525075000" lon="12.938090000"><ele>398.675000</ele><time>2009-07-28T06:12:57Z</time></trkpt><trkpt lat="43.525058000" lon="12.938055000"><ele>398.571000</ele><time>2009-07-28T06:12:59Z</time></trkpt><trkpt lat="43.525035000" lon="12.938008000"><ele>400.412000</ele><time>2009-07-28T06:13:03Z</time></trkpt><trkpt lat="43.525026000" lon="12.937971000"><ele>400.760000</ele><time>2009-07-28T06:13:05Z</time></trkpt><trkpt lat="43.525017000" lon="12.937900000"><ele>401.180000</ele><time>2009-07-28T06:13:09Z</time></trkpt><trkpt lat="43.525013000" lon="12.937868000"><ele>401.403000</ele><time>2009-07-28T06:13:11Z</time></trkpt><trkpt lat="43.524999000" lon="12.937801000"><ele>402.369000</ele><time>2009-07-28T06:13:15Z</time></trkpt><trkpt lat="43.524988000" lon="12.937761000"><ele>402.845000</ele><time>2009-07-28T06:13:17Z</time></trkpt><trkpt lat="43.524955000" lon="12.937698000"><ele>404.441000</ele><time>2009-07-28T06:13:21Z</time></trkpt><trkpt lat="43.524948000" lon="12.937671000"><ele>404.903000</ele><time>2009-07-28T06:13:23Z</time></trkpt><trkpt lat="43.524931000" lon="12.937616000"><ele>405.382000</ele><time>2009-07-28T06:13:27Z</time></trkpt><trkpt lat="43.524920000" lon="12.937586000"><ele>405.013000</ele><time>2009-07-28T06:13:29Z</time></trkpt><trkpt lat="43.524910000" lon="12.937520000"><ele>405.747000</ele><time>2009-07-28T06:13:33Z</time></trkpt><trkpt lat="43.524902000" lon="12.937479000"><ele>407.642000</ele><time>2009-07-28T06:13:35Z</time></trkpt><trkpt lat="43.524891000" lon="12.937421000"><ele>407.772000</ele><time>2009-07-28T06:13:39Z</time></trkpt><trkpt lat="43.524879000" lon="12.937387000"><ele>407.679000</ele><time>2009-07-28T06:13:41Z</time></trkpt><trkpt lat="43.524863000" lon="12.937325000"><ele>407.753000</ele><time>2009-07-28T06:13:45Z</time></trkpt><trkpt lat="43.524856000" lon="12.937304000"><ele>408.022000</ele><time>2009-07-28T06:13:47Z</time></trkpt><trkpt lat="43.524844000" lon="12.937221000"><ele>408.618000</ele><time>2009-07-28T06:13:51Z</time></trkpt><trkpt lat="43.524847000" lon="12.937192000"><ele>408.696000</ele><time>2009-07-28T06:13:53Z</time></trkpt><trkpt lat="43.524851000" lon="12.937121000"><ele>408.438000</ele><time>2009-07-28T06:13:57Z</time></trkpt><trkpt lat="43.524866000" lon="12.937092000"><ele>408.674000</ele><time>2009-07-28T06:13:59Z</time></trkpt><trkpt lat="43.524885000" lon="12.937014000"><ele>408.554000</ele><time>2009-07-28T06:14:03Z</time></trkpt><trkpt lat="43.524912000" lon="12.936989000"><ele>408.744000</ele><time>2009-07-28T06:14:05Z</time></trkpt><trkpt lat="43.524964000" lon="12.936982000"><ele>406.788000</ele><time>2009-07-28T06:14:09Z</time></trkpt><trkpt lat="43.524997000" lon="12.936970000"><ele>405.560000</ele><time>2009-07-28T06:14:11Z</time></trkpt><trkpt lat="43.525059000" lon="12.936971000"><ele>405.757000</ele><time>2009-07-28T06:14:15Z</time></trkpt><trkpt lat="43.525074000" lon="12.936992000"><ele>402.901000</ele><time>2009-07-28T06:14:17Z</time></trkpt><trkpt lat="43.525114000" lon="12.937073000"><ele>401.064000</ele><time>2009-07-28T06:14:21Z</time></trkpt><trkpt lat="43.525118000" lon="12.937107000"><ele>400.697000</ele><time>2009-07-28T06:14:23Z</time></trkpt><trkpt lat="43.525139000" lon="12.937193000"><ele>399.872000</ele><time>2009-07-28T06:14:27Z</time></trkpt><trkpt lat="43.525159000" lon="12.937219000"><ele>400.170000</ele><time>2009-07-28T06:14:29Z</time></trkpt><trkpt lat="43.525185000" lon="12.937277000"><ele>401.183000</ele><time>2009-07-28T06:14:33Z</time></trkpt><trkpt lat="43.525217000" lon="12.937310000"><ele>401.697000</ele><time>2009-07-28T06:14:35Z</time></trkpt><trkpt lat="43.525244000" lon="12.937385000"><ele>401.183000</ele><time>2009-07-28T06:14:39Z</time></trkpt><trkpt lat="43.525259000" lon="12.937422000"><ele>401.277000</ele><time>2009-07-28T06:14:41Z</time></trkpt><trkpt lat="43.525280000" lon="12.937485000"><ele>402.443000</ele><time>2009-07-28T06:14:45Z</time></trkpt><trkpt lat="43.525292000" lon="12.937521000"><ele>402.864000</ele><time>2009-07-28T06:14:47Z</time></trkpt><trkpt lat="43.525326000" lon="12.937578000"><ele>403.122000</ele><time>2009-07-28T06:14:51Z</time></trkpt><trkpt lat="43.525337000" lon="12.937607000"><ele>403.211000</ele><time>2009-07-28T06:14:53Z</time></trkpt><trkpt lat="43.525374000" lon="12.937658000"><ele>403.518000</ele><time>2009-07-28T06:14:57Z</time></trkpt><trkpt lat="43.525382000" lon="12.937685000"><ele>403.684000</ele><time>2009-07-28T06:14:59Z</time></trkpt><trkpt lat="43.525407000" lon="12.937755000"><ele>404.610000</ele><time>2009-07-28T06:15:03Z</time></trkpt><trkpt lat="43.525413000" lon="12.937782000"><ele>405.321000</ele><time>2009-07-28T06:15:05Z</time></trkpt><trkpt lat="43.525440000" lon="12.937839000"><ele>406.664000</ele><time>2009-07-28T06:15:09Z</time></trkpt><trkpt lat="43.525435000" lon="12.937874000"><ele>406.833000</ele><time>2009-07-28T06:15:11Z</time></trkpt><trkpt lat="43.525469000" lon="12.937951000"><ele>406.545000</ele><time>2009-07-28T06:15:15Z</time></trkpt><trkpt lat="43.525480000" lon="12.937985000"><ele>406.711000</ele><time>2009-07-28T06:15:17Z</time></trkpt><trkpt lat="43.525507000" lon="12.938034000"><ele>405.192000</ele><time>2009-07-28T06:15:21Z</time></trkpt><trkpt lat="43.525516000" lon="12.938073000"><ele>404.829000</ele><time>2009-07-28T06:15:23Z</time></trkpt><trkpt lat="43.525544000" lon="12.938135000"><ele>405.656000</ele><time>2009-07-28T06:15:27Z</time></trkpt><trkpt lat="43.525550000" lon="12.938177000"><ele>406.058000</ele><time>2009-07-28T06:15:29Z</time></trkpt><trkpt lat="43.525550000" lon="12.938241000"><ele>407.548000</ele><time>2009-07-28T06:15:33Z</time></trkpt><trkpt lat="43.525541000" lon="12.938274000"><ele>409.101000</ele><time>2009-07-28T06:15:35Z</time></trkpt><trkpt lat="43.525562000" lon="12.938331000"><ele>409.758000</ele><time>2009-07-28T06:15:39Z</time></trkpt><trkpt lat="43.525567000" lon="12.938359000"><ele>410.040000</ele><time>2009-07-28T06:15:41Z</time></trkpt><trkpt lat="43.525591000" lon="12.938411000"><ele>411.144000</ele><time>2009-07-28T06:15:45Z</time></trkpt><trkpt lat="43.525609000" lon="12.938438000"><ele>411.393000</ele><time>2009-07-28T06:15:47Z</time></trkpt><trkpt lat="43.525646000" lon="12.938496000"><ele>412.612000</ele><time>2009-07-28T06:15:51Z</time></trkpt><trkpt lat="43.525666000" lon="12.938515000"><ele>413.032000</ele><time>2009-07-28T06:15:53Z</time></trkpt><trkpt lat="43.525705000" lon="12.938551000"><ele>413.195000</ele><time>2009-07-28T06:15:57Z</time></trkpt><trkpt lat="43.525719000" lon="12.938574000"><ele>412.761000</ele><time>2009-07-28T06:15:59Z</time></trkpt><trkpt lat="43.525777000" lon="12.938606000"><ele>412.607000</ele><time>2009-07-28T06:16:03Z</time></trkpt><trkpt lat="43.525807000" lon="12.938626000"><ele>411.748000</ele><time>2009-07-28T06:16:05Z</time></trkpt><trkpt lat="43.525853000" lon="12.938639000"><ele>411.942000</ele><time>2009-07-28T06:16:09Z</time></trkpt><trkpt lat="43.525880000" lon="12.938638000"><ele>412.475000</ele><time>2009-07-28T06:16:11Z</time></trkpt><trkpt lat="43.525932000" lon="12.938651000"><ele>413.800000</ele><time>2009-07-28T06:16:15Z</time></trkpt><trkpt lat="43.525955000" lon="12.938639000"><ele>413.638000</ele><time>2009-07-28T06:16:17Z</time></trkpt><trkpt lat="43.526026000" lon="12.938629000"><ele>413.967000</ele><time>2009-07-28T06:16:21Z</time></trkpt><trkpt lat="43.526035000" lon="12.938622000"><ele>410.596000</ele><time>2009-07-28T06:16:23Z</time></trkpt><trkpt lat="43.526097000" lon="12.938609000"><ele>411.880000</ele><time>2009-07-28T06:16:27Z</time></trkpt><trkpt lat="43.526120000" lon="12.938594000"><ele>411.834000</ele><time>2009-07-28T06:16:29Z</time></trkpt><trkpt lat="43.526172000" lon="12.938599000"><ele>413.737000</ele><time>2009-07-28T06:16:33Z</time></trkpt><trkpt lat="43.526183000" lon="12.938593000"><ele>414.267000</ele><time>2009-07-28T06:16:35Z</time></trkpt><trkpt lat="43.526213000" lon="12.938582000"><ele>415.330000</ele><time>2009-07-28T06:16:39Z</time></trkpt><trkpt lat="43.526228000" lon="12.938560000"><ele>416.169000</ele><time>2009-07-28T06:16:41Z</time></trkpt><trkpt lat="43.526260000" lon="12.938497000"><ele>418.173000</ele><time>2009-07-28T06:16:45Z</time></trkpt><trkpt lat="43.526252000" lon="12.938467000"><ele>418.801000</ele><time>2009-07-28T06:16:47Z</time></trkpt><trkpt lat="43.526231000" lon="12.938426000"><ele>420.489000</ele><time>2009-07-28T06:16:51Z</time></trkpt><trkpt lat="43.526218000" lon="12.938396000"><ele>420.975000</ele><time>2009-07-28T06:16:53Z</time></trkpt><trkpt lat="43.526190000" lon="12.938351000"><ele>421.902000</ele><time>2009-07-28T06:16:57Z</time></trkpt><trkpt lat="43.526181000" lon="12.938322000"><ele>422.271000</ele><time>2009-07-28T06:16:59Z</time></trkpt><trkpt lat="43.526150000" lon="12.938275000"><ele>423.789000</ele><time>2009-07-28T06:17:03Z</time></trkpt><trkpt lat="43.526137000" lon="12.938241000"><ele>424.082000</ele><time>2009-07-28T06:17:05Z</time></trkpt><trkpt lat="43.526107000" lon="12.938193000"><ele>424.832000</ele><time>2009-07-28T06:17:09Z</time></trkpt><trkpt lat="43.526090000" lon="12.938173000"><ele>424.672000</ele><time>2009-07-28T06:17:11Z</time></trkpt><trkpt lat="43.526070000" lon="12.938121000"><ele>425.602000</ele><time>2009-07-28T06:17:15Z</time></trkpt><trkpt lat="43.526063000" lon="12.938105000"><ele>425.576000</ele><time>2009-07-28T06:17:17Z</time></trkpt><trkpt lat="43.526078000" lon="12.938055000"><ele>426.053000</ele><time>2009-07-28T06:17:21Z</time></trkpt><trkpt lat="43.526088000" lon="12.938028000"><ele>425.844000</ele><time>2009-07-28T06:17:23Z</time></trkpt><trkpt lat="43.526129000" lon="12.937992000"><ele>426.102000</ele><time>2009-07-28T06:17:27Z</time></trkpt><trkpt lat="43.526145000" lon="12.937980000"><ele>426.382000</ele><time>2009-07-28T06:17:29Z</time></trkpt><trkpt lat="43.526200000" lon="12.937965000"><ele>425.996000</ele><time>2009-07-28T06:17:33Z</time></trkpt><trkpt lat="43.526226000" lon="12.937964000"><ele>425.676000</ele><time>2009-07-28T06:17:35Z</time></trkpt><trkpt lat="43.526276000" lon="12.937938000"><ele>426.878000</ele><time>2009-07-28T06:17:39Z</time></trkpt><trkpt lat="43.526298000" lon="12.937934000"><ele>427.135000</ele><time>2009-07-28T06:17:41Z</time></trkpt><trkpt lat="43.526336000" lon="12.937929000"><ele>427.602000</ele><time>2009-07-28T06:17:45Z</time></trkpt><trkpt lat="43.526359000" lon="12.937922000"><ele>426.453000</ele><time>2009-07-28T06:17:47Z</time></trkpt><trkpt lat="43.526408000" lon="12.937901000"><ele>429.164000</ele><time>2009-07-28T06:17:51Z</time></trkpt><trkpt lat="43.526426000" lon="12.937891000"><ele>428.818000</ele><time>2009-07-28T06:17:53Z</time></trkpt><trkpt lat="43.526463000" lon="12.937895000"><ele>432.066000</ele><time>2009-07-28T06:17:57Z</time></trkpt><trkpt lat="43.526479000" lon="12.937882000"><ele>431.572000</ele><time>2009-07-28T06:17:59Z</time></trkpt><trkpt lat="43.526522000" lon="12.937877000"><ele>433.874000</ele><time>2009-07-28T06:18:03Z</time></trkpt><trkpt lat="43.526545000" lon="12.937877000"><ele>435.193000</ele><time>2009-07-28T06:18:05Z</time></trkpt><trkpt lat="43.526578000" lon="12.937870000"><ele>436.556000</ele><time>2009-07-28T06:18:09Z</time></trkpt><trkpt lat="43.526595000" lon="12.937867000"><ele>436.803000</ele><time>2009-07-28T06:18:11Z</time></trkpt><trkpt lat="43.526638000" lon="12.937856000"><ele>438.877000</ele><time>2009-07-28T06:18:15Z</time></trkpt><trkpt lat="43.526659000" lon="12.937854000"><ele>439.871000</ele><time>2009-07-28T06:18:17Z</time></trkpt><trkpt lat="43.526700000" lon="12.937848000"><ele>442.048000</ele><time>2009-07-28T06:18:21Z</time></trkpt><trkpt lat="43.526716000" lon="12.937847000"><ele>443.069000</ele><time>2009-07-28T06:18:23Z</time></trkpt><trkpt lat="43.526747000" lon="12.937835000"><ele>442.251000</ele><time>2009-07-28T06:18:27Z</time></trkpt><trkpt lat="43.526769000" lon="12.937821000"><ele>442.464000</ele><time>2009-07-28T06:18:29Z</time></trkpt><trkpt lat="43.526805000" lon="12.937809000"><ele>443.200000</ele><time>2009-07-28T06:18:33Z</time></trkpt><trkpt lat="43.526827000" lon="12.937803000"><ele>443.514000</ele><time>2009-07-28T06:18:35Z</time></trkpt><trkpt lat="43.526862000" lon="12.937804000"><ele>444.198000</ele><time>2009-07-28T06:18:39Z</time></trkpt><trkpt lat="43.526885000" lon="12.937799000"><ele>444.640000</ele><time>2009-07-28T06:18:41Z</time></trkpt><trkpt lat="43.526926000" lon="12.937774000"><ele>442.518000</ele><time>2009-07-28T06:18:45Z</time></trkpt><trkpt lat="43.526951000" lon="12.937768000"><ele>442.651000</ele><time>2009-07-28T06:18:47Z</time></trkpt><trkpt lat="43.527003000" lon="12.937754000"><ele>443.402000</ele><time>2009-07-28T06:18:51Z</time></trkpt><trkpt lat="43.527030000" lon="12.937747000"><ele>443.718000</ele><time>2009-07-28T06:18:53Z</time></trkpt><trkpt lat="43.527070000" lon="12.937718000"><ele>442.847000</ele><time>2009-07-28T06:18:57Z</time></trkpt><trkpt lat="43.527099000" lon="12.937712000"><ele>441.833000</ele><time>2009-07-28T06:18:59Z</time></trkpt><trkpt lat="43.527149000" lon="12.937696000"><ele>442.212000</ele><time>2009-07-28T06:19:03Z</time></trkpt><trkpt lat="43.527168000" lon="12.937692000"><ele>440.218000</ele><time>2009-07-28T06:19:05Z</time></trkpt><trkpt lat="43.527215000" lon="12.937642000"><ele>440.123000</ele><time>2009-07-28T06:19:09Z</time></trkpt><trkpt lat="43.527237000" lon="12.937623000"><ele>439.743000</ele><time>2009-07-28T06:19:11Z</time></trkpt><trkpt lat="43.527253000" lon="12.937558000"><ele>440.997000</ele><time>2009-07-28T06:19:15Z</time></trkpt><trkpt lat="43.527256000" lon="12.937529000"><ele>441.349000</ele><time>2009-07-28T06:19:17Z</time></trkpt><trkpt lat="43.527250000" lon="12.937494000"><ele>442.976000</ele><time>2009-07-28T06:19:21Z</time></trkpt><trkpt lat="43.527241000" lon="12.937463000"><ele>443.291000</ele><time>2009-07-28T06:19:23Z</time></trkpt><trkpt lat="43.527227000" lon="12.937407000"><ele>443.957000</ele><time>2009-07-28T06:19:27Z</time></trkpt><trkpt lat="43.527213000" lon="12.937379000"><ele>444.554000</ele><time>2009-07-28T06:19:29Z</time></trkpt><trkpt lat="43.527196000" lon="12.937315000"><ele>444.773000</ele><time>2009-07-28T06:19:33Z</time></trkpt><trkpt lat="43.527192000" lon="12.937287000"><ele>445.086000</ele><time>2009-07-28T06:19:35Z</time></trkpt><trkpt lat="43.527176000" lon="12.937229000"><ele>445.109000</ele><time>2009-07-28T06:19:39Z</time></trkpt><trkpt lat="43.527164000" lon="12.937192000"><ele>445.131000</ele><time>2009-07-28T06:19:41Z</time></trkpt><trkpt lat="43.527154000" lon="12.937120000"><ele>445.179000</ele><time>2009-07-28T06:19:45Z</time></trkpt><trkpt lat="43.527147000" lon="12.937087000"><ele>445.339000</ele><time>2009-07-28T06:19:47Z</time></trkpt><trkpt lat="43.527123000" lon="12.937016000"><ele>446.276000</ele><time>2009-07-28T06:19:51Z</time></trkpt><trkpt lat="43.527118000" lon="12.936990000"><ele>446.540000</ele><time>2009-07-28T06:19:53Z</time></trkpt><trkpt lat="43.527107000" lon="12.936923000"><ele>446.044000</ele><time>2009-07-28T06:19:57Z</time></trkpt><trkpt lat="43.527098000" lon="12.936885000"><ele>446.822000</ele><time>2009-07-28T06:19:59Z</time></trkpt><trkpt lat="43.527083000" lon="12.936823000"><ele>447.914000</ele><time>2009-07-28T06:20:03Z</time></trkpt><trkpt lat="43.527075000" lon="12.936794000"><ele>448.846000</ele><time>2009-07-28T06:20:05Z</time></trkpt><trkpt lat="43.527071000" lon="12.936728000"><ele>449.795000</ele><time>2009-07-28T06:20:09Z</time></trkpt><trkpt lat="43.527065000" lon="12.936688000"><ele>450.628000</ele><time>2009-07-28T06:20:11Z</time></trkpt><trkpt lat="43.527068000" lon="12.936627000"><ele>451.280000</ele><time>2009-07-28T06:20:15Z</time></trkpt><trkpt lat="43.527062000" lon="12.936584000"><ele>451.101000</ele><time>2009-07-28T06:20:17Z</time></trkpt><trkpt lat="43.527052000" lon="12.936527000"><ele>452.607000</ele><time>2009-07-28T06:20:21Z</time></trkpt><trkpt lat="43.527040000" lon="12.936496000"><ele>452.789000</ele><time>2009-07-28T06:20:23Z</time></trkpt><trkpt lat="43.527033000" lon="12.936444000"><ele>453.781000</ele><time>2009-07-28T06:20:27Z</time></trkpt><trkpt lat="43.527022000" lon="12.936406000"><ele>453.390000</ele><time>2009-07-28T06:20:29Z</time></trkpt><trkpt lat="43.527001000" lon="12.936350000"><ele>454.525000</ele><time>2009-07-28T06:20:33Z</time></trkpt><trkpt lat="43.526993000" lon="12.936321000"><ele>454.779000</ele><time>2009-07-28T06:20:35Z</time></trkpt><trkpt lat="43.526986000" lon="12.936271000"><ele>455.429000</ele><time>2009-07-28T06:20:39Z</time></trkpt><trkpt lat="43.526975000" lon="12.936234000"><ele>455.357000</ele><time>2009-07-28T06:20:41Z</time></trkpt><trkpt lat="43.526967000" lon="12.936182000"><ele>456.161000</ele><time>2009-07-28T06:20:45Z</time></trkpt><trkpt lat="43.526962000" lon="12.936148000"><ele>455.958000</ele><time>2009-07-28T06:20:47Z</time></trkpt><trkpt lat="43.526958000" lon="12.936090000"><ele>456.675000</ele><time>2009-07-28T06:20:51Z</time></trkpt><trkpt lat="43.526948000" lon="12.936064000"><ele>457.379000</ele><time>2009-07-28T06:20:53Z</time></trkpt><trkpt lat="43.526935000" lon="12.936013000"><ele>458.395000</ele><time>2009-07-28T06:20:57Z</time></trkpt><trkpt lat="43.526930000" lon="12.935995000"><ele>458.964000</ele><time>2009-07-28T06:20:59Z</time></trkpt><trkpt lat="43.526909000" lon="12.935950000"><ele>459.857000</ele><time>2009-07-28T06:21:03Z</time></trkpt><trkpt lat="43.526892000" lon="12.935930000"><ele>461.213000</ele><time>2009-07-28T06:21:05Z</time></trkpt><trkpt lat="43.526856000" lon="12.935918000"><ele>460.292000</ele><time>2009-07-28T06:21:09Z</time></trkpt><trkpt lat="43.526836000" lon="12.935912000"><ele>460.159000</ele><time>2009-07-28T06:21:11Z</time></trkpt><trkpt lat="43.526784000" lon="12.935919000"><ele>459.465000</ele><time>2009-07-28T06:21:15Z</time></trkpt><trkpt lat="43.526759000" lon="12.935922000"><ele>459.492000</ele><time>2009-07-28T06:21:17Z</time></trkpt><trkpt lat="43.526713000" lon="12.935935000"><ele>459.774000</ele><time>2009-07-28T06:21:21Z</time></trkpt><trkpt lat="43.526686000" lon="12.935941000"><ele>458.219000</ele><time>2009-07-28T06:21:23Z</time></trkpt><trkpt lat="43.526637000" lon="12.935947000"><ele>456.634000</ele><time>2009-07-28T06:21:27Z</time></trkpt><trkpt lat="43.526613000" lon="12.935947000"><ele>456.348000</ele><time>2009-07-28T06:21:29Z</time></trkpt><trkpt lat="43.526566000" lon="12.935958000"><ele>456.608000</ele><time>2009-07-28T06:21:33Z</time></trkpt><trkpt lat="43.526538000" lon="12.935958000"><ele>456.015000</ele><time>2009-07-28T06:21:35Z</time></trkpt><trkpt lat="43.526500000" lon="12.935958000"><ele>456.614000</ele><time>2009-07-28T06:21:39Z</time></trkpt><trkpt lat="43.526480000" lon="12.935945000"><ele>456.310000</ele><time>2009-07-28T06:21:41Z</time></trkpt><trkpt lat="43.526435000" lon="12.935932000"><ele>456.852000</ele><time>2009-07-28T06:21:45Z</time></trkpt><trkpt lat="43.526413000" lon="12.935927000"><ele>457.373000</ele><time>2009-07-28T06:21:47Z</time></trkpt><trkpt lat="43.526377000" lon="12.935922000"><ele>457.765000</ele><time>2009-07-28T06:21:51Z</time></trkpt><trkpt lat="43.526357000" lon="12.935906000"><ele>458.326000</ele><time>2009-07-28T06:21:53Z</time></trkpt><trkpt lat="43.526323000" lon="12.935890000"><ele>459.475000</ele><time>2009-07-28T06:21:57Z</time></trkpt><trkpt lat="43.526312000" lon="12.935882000"><ele>460.146000</ele><time>2009-07-28T06:21:59Z</time></trkpt><trkpt lat="43.526286000" lon="12.935863000"><ele>461.395000</ele><time>2009-07-28T06:22:03Z</time></trkpt><trkpt lat="43.526279000" lon="12.935850000"><ele>462.192000</ele><time>2009-07-28T06:22:05Z</time></trkpt><trkpt lat="43.526266000" lon="12.935824000"><ele>462.379000</ele><time>2009-07-28T06:22:09Z</time></trkpt><trkpt lat="43.526261000" lon="12.935820000"><ele>462.626000</ele><time>2009-07-28T06:22:11Z</time></trkpt><trkpt lat="43.526257000" lon="12.935821000"><ele>463.177000</ele><time>2009-07-28T06:22:15Z</time></trkpt><trkpt lat="43.526258000" lon="12.935820000"><ele>463.203000</ele><time>2009-07-28T06:22:17Z</time></trkpt><trkpt lat="43.526261000" lon="12.935822000"><ele>463.340000</ele><time>2009-07-28T06:22:21Z</time></trkpt><trkpt lat="43.526257000" lon="12.935797000"><ele>463.935000</ele><time>2009-07-28T06:22:23Z</time></trkpt><trkpt lat="43.526281000" lon="12.935751000"><ele>464.705000</ele><time>2009-07-28T06:22:27Z</time></trkpt><trkpt lat="43.526282000" lon="12.935745000"><ele>464.821000</ele><time>2009-07-28T06:22:29Z</time></trkpt><trkpt lat="43.526277000" lon="12.935762000"><ele>464.625000</ele><time>2009-07-28T06:22:33Z</time></trkpt><trkpt lat="43.526279000" lon="12.935763000"><ele>464.174000</ele><time>2009-07-28T06:22:35Z</time></trkpt><trkpt lat="43.526282000" lon="12.935764000"><ele>464.227000</ele><time>2009-07-28T06:22:39Z</time></trkpt><trkpt lat="43.526287000" lon="12.935756000"><ele>464.403000</ele><time>2009-07-28T06:22:41Z</time></trkpt><trkpt lat="43.526284000" lon="12.935739000"><ele>464.468000</ele><time>2009-07-28T06:22:45Z</time></trkpt><trkpt lat="43.526282000" lon="12.935738000"><ele>464.544000</ele><time>2009-07-28T06:22:47Z</time></trkpt><trkpt lat="43.526293000" lon="12.935719000"><ele>464.885000</ele><time>2009-07-28T06:22:51Z</time></trkpt><trkpt lat="43.526301000" lon="12.935719000"><ele>464.972000</ele><time>2009-07-28T06:22:53Z</time></trkpt><trkpt lat="43.526302000" lon="12.935721000"><ele>464.553000</ele><time>2009-07-28T06:22:57Z</time></trkpt><trkpt lat="43.526301000" lon="12.935720000"><ele>464.544000</ele><time>2009-07-28T06:22:59Z</time></trkpt><trkpt lat="43.526300000" lon="12.935720000"><ele>464.544000</ele><time>2009-07-28T06:23:03Z</time></trkpt><trkpt lat="43.526302000" lon="12.935720000"><ele>464.536000</ele><time>2009-07-28T06:23:05Z</time></trkpt><trkpt lat="43.526325000" lon="12.935692000"><ele>464.305000</ele><time>2009-07-28T06:23:09Z</time></trkpt><trkpt lat="43.526340000" lon="12.935662000"><ele>464.196000</ele><time>2009-07-28T06:23:11Z</time></trkpt><trkpt lat="43.526376000" lon="12.935616000"><ele>463.962000</ele><time>2009-07-28T06:23:15Z</time></trkpt><trkpt lat="43.526399000" lon="12.935592000"><ele>464.546000</ele><time>2009-07-28T06:23:17Z</time></trkpt><trkpt lat="43.526420000" lon="12.935553000"><ele>465.049000</ele><time>2009-07-28T06:23:21Z</time></trkpt><trkpt lat="43.526429000" lon="12.935534000"><ele>465.056000</ele><time>2009-07-28T06:23:23Z</time></trkpt><trkpt lat="43.526453000" lon="12.935495000"><ele>466.311000</ele><time>2009-07-28T06:23:27Z</time></trkpt><trkpt lat="43.526470000" lon="12.935484000"><ele>467.022000</ele><time>2009-07-28T06:23:29Z</time></trkpt><trkpt lat="43.526497000" lon="12.935443000"><ele>468.066000</ele><time>2009-07-28T06:23:33Z</time></trkpt><trkpt lat="43.526507000" lon="12.935436000"><ele>468.537000</ele><time>2009-07-28T06:23:35Z</time></trkpt><trkpt lat="43.526506000" lon="12.935444000"><ele>469.570000</ele><time>2009-07-28T06:23:39Z</time></trkpt><trkpt lat="43.526506000" lon="12.935444000"><ele>469.602000</ele><time>2009-07-28T06:23:41Z</time></trkpt><trkpt lat="43.526509000" lon="12.935437000"><ele>469.993000</ele><time>2009-07-28T06:23:45Z</time></trkpt><trkpt lat="43.526522000" lon="12.935417000"><ele>470.251000</ele><time>2009-07-28T06:23:47Z</time></trkpt><trkpt lat="43.526551000" lon="12.935367000"><ele>470.967000</ele><time>2009-07-28T06:23:51Z</time></trkpt><trkpt lat="43.526561000" lon="12.935356000"><ele>471.177000</ele><time>2009-07-28T06:23:53Z</time></trkpt><trkpt lat="43.526582000" lon="12.935314000"><ele>471.891000</ele><time>2009-07-28T06:23:57Z</time></trkpt><trkpt lat="43.526601000" lon="12.935291000"><ele>472.399000</ele><time>2009-07-28T06:23:59Z</time></trkpt><trkpt lat="43.526619000" lon="12.935235000"><ele>472.462000</ele><time>2009-07-28T06:24:03Z</time></trkpt><trkpt lat="43.526637000" lon="12.935211000"><ele>472.805000</ele><time>2009-07-28T06:24:05Z</time></trkpt><trkpt lat="43.526658000" lon="12.935171000"><ele>473.689000</ele><time>2009-07-28T06:24:09Z</time></trkpt><trkpt lat="43.526672000" lon="12.935143000"><ele>474.268000</ele><time>2009-07-28T06:24:11Z</time></trkpt><trkpt lat="43.526697000" lon="12.935089000"><ele>475.723000</ele><time>2009-07-28T06:24:15Z</time></trkpt><trkpt lat="43.526709000" lon="12.935068000"><ele>476.581000</ele><time>2009-07-28T06:24:17Z</time></trkpt><trkpt lat="43.526730000" lon="12.935021000"><ele>478.220000</ele><time>2009-07-28T06:24:21Z</time></trkpt><trkpt lat="43.526742000" lon="12.935000000"><ele>478.956000</ele><time>2009-07-28T06:24:23Z</time></trkpt><trkpt lat="43.526751000" lon="12.934953000"><ele>480.746000</ele><time>2009-07-28T06:24:27Z</time></trkpt><trkpt lat="43.526757000" lon="12.934931000"><ele>481.825000</ele><time>2009-07-28T06:24:29Z</time></trkpt><trkpt lat="43.526762000" lon="12.934883000"><ele>483.723000</ele><time>2009-07-28T06:24:33Z</time></trkpt><trkpt lat="43.526770000" lon="12.934854000"><ele>484.368000</ele><time>2009-07-28T06:24:35Z</time></trkpt><trkpt lat="43.526772000" lon="12.934799000"><ele>486.305000</ele><time>2009-07-28T06:24:39Z</time></trkpt><trkpt lat="43.526778000" lon="12.934776000"><ele>487.391000</ele><time>2009-07-28T06:24:41Z</time></trkpt><trkpt lat="43.526781000" lon="12.934764000"><ele>487.092000</ele><time>2009-07-28T06:24:45Z</time></trkpt><trkpt lat="43.526782000" lon="12.934745000"><ele>487.260000</ele><time>2009-07-28T06:24:47Z</time></trkpt><trkpt lat="43.526779000" lon="12.934717000"><ele>487.531000</ele><time>2009-07-28T06:24:51Z</time></trkpt><trkpt lat="43.526786000" lon="12.934701000"><ele>487.556000</ele><time>2009-07-28T06:24:53Z</time></trkpt><trkpt lat="43.526786000" lon="12.934678000"><ele>487.440000</ele><time>2009-07-28T06:24:57Z</time></trkpt><trkpt lat="43.526785000" lon="12.934678000"><ele>487.327000</ele><time>2009-07-28T06:24:59Z</time></trkpt><trkpt lat="43.526783000" lon="12.934678000"><ele>488.296000</ele><time>2009-07-28T06:25:03Z</time></trkpt><trkpt lat="43.526786000" lon="12.934676000"><ele>488.195000</ele><time>2009-07-28T06:25:05Z</time></trkpt><trkpt lat="43.526796000" lon="12.934676000"><ele>488.792000</ele><time>2009-07-28T06:25:09Z</time></trkpt><trkpt lat="43.526796000" lon="12.934684000"><ele>488.860000</ele><time>2009-07-28T06:25:11Z</time></trkpt><trkpt lat="43.526798000" lon="12.934680000"><ele>488.913000</ele><time>2009-07-28T06:25:15Z</time></trkpt><trkpt lat="43.526800000" lon="12.934676000"><ele>488.944000</ele><time>2009-07-28T06:25:17Z</time></trkpt><trkpt lat="43.526807000" lon="12.934649000"><ele>488.132000</ele><time>2009-07-28T06:25:21Z</time></trkpt><trkpt lat="43.526813000" lon="12.934648000"><ele>487.703000</ele><time>2009-07-28T06:25:23Z</time></trkpt><trkpt lat="43.526816000" lon="12.934655000"><ele>487.366000</ele><time>2009-07-28T06:25:27Z</time></trkpt><trkpt lat="43.526813000" lon="12.934648000"><ele>487.379000</ele><time>2009-07-28T06:25:29Z</time></trkpt><trkpt lat="43.526814000" lon="12.934603000"><ele>487.053000</ele><time>2009-07-28T06:25:33Z</time></trkpt><trkpt lat="43.526808000" lon="12.934603000"><ele>484.674000</ele><time>2009-07-28T06:25:35Z</time></trkpt><trkpt lat="43.526802000" lon="12.934642000"><ele>482.301000</ele><time>2009-07-28T06:25:39Z</time></trkpt><trkpt lat="43.526795000" lon="12.934650000"><ele>482.008000</ele><time>2009-07-28T06:25:41Z</time></trkpt><trkpt lat="43.526801000" lon="12.934657000"><ele>482.305000</ele><time>2009-07-28T06:25:45Z</time></trkpt><trkpt lat="43.526799000" lon="12.934660000"><ele>482.313000</ele><time>2009-07-28T06:25:47Z</time></trkpt><trkpt lat="43.526799000" lon="12.934660000"><ele>482.303000</ele><time>2009-07-28T06:25:51Z</time></trkpt><trkpt lat="43.526800000" lon="12.934659000"><ele>482.307000</ele><time>2009-07-28T06:25:53Z</time></trkpt><trkpt lat="43.526800000" lon="12.934659000"><ele>482.304000</ele><time>2009-07-28T06:25:57Z</time></trkpt><trkpt lat="43.526799000" lon="12.934659000"><ele>482.309000</ele><time>2009-07-28T06:25:59Z</time></trkpt><trkpt lat="43.526800000" lon="12.934660000"><ele>482.317000</ele><time>2009-07-28T06:26:03Z</time></trkpt><trkpt lat="43.526800000" lon="12.934659000"><ele>482.326000</ele><time>2009-07-28T06:26:05Z</time></trkpt><trkpt lat="43.526800000" lon="12.934659000"><ele>482.327000</ele><time>2009-07-28T06:26:09Z</time></trkpt><trkpt lat="43.526800000" lon="12.934659000"><ele>482.329000</ele><time>2009-07-28T06:26:11Z</time></trkpt><trkpt lat="43.526800000" lon="12.934624000"><ele>483.362000</ele><time>2009-07-28T06:26:15Z</time></trkpt><trkpt lat="43.526809000" lon="12.934591000"><ele>483.369000</ele><time>2009-07-28T06:26:17Z</time></trkpt><trkpt lat="43.526809000" lon="12.934532000"><ele>483.643000</ele><time>2009-07-28T06:26:21Z</time></trkpt><trkpt lat="43.526813000" lon="12.934504000"><ele>484.297000</ele><time>2009-07-28T06:26:23Z</time></trkpt><trkpt lat="43.526814000" lon="12.934443000"><ele>485.514000</ele><time>2009-07-28T06:26:27Z</time></trkpt><trkpt lat="43.526816000" lon="12.934423000"><ele>486.058000</ele><time>2009-07-28T06:26:29Z</time></trkpt><trkpt lat="43.526819000" lon="12.934376000"><ele>487.386000</ele><time>2009-07-28T06:26:33Z</time></trkpt><trkpt lat="43.526823000" lon="12.934352000"><ele>488.016000</ele><time>2009-07-28T06:26:35Z</time></trkpt><trkpt lat="43.526815000" lon="12.934320000"><ele>490.294000</ele><time>2009-07-28T06:26:39Z</time></trkpt><trkpt lat="43.526802000" lon="12.934304000"><ele>489.605000</ele><time>2009-07-28T06:26:41Z</time></trkpt><trkpt lat="43.526781000" lon="12.934283000"><ele>490.281000</ele><time>2009-07-28T06:26:45Z</time></trkpt><trkpt lat="43.526775000" lon="12.934263000"><ele>490.896000</ele><time>2009-07-28T06:26:47Z</time></trkpt><trkpt lat="43.526773000" lon="12.934233000"><ele>491.789000</ele><time>2009-07-28T06:26:51Z</time></trkpt><trkpt lat="43.526769000" lon="12.934220000"><ele>492.219000</ele><time>2009-07-28T06:26:53Z</time></trkpt><trkpt lat="43.526765000" lon="12.934195000"><ele>493.168000</ele><time>2009-07-28T06:26:57Z</time></trkpt><trkpt lat="43.526763000" lon="12.934186000"><ele>493.227000</ele><time>2009-07-28T06:26:59Z</time></trkpt><trkpt lat="43.526751000" lon="12.934153000"><ele>493.969000</ele><time>2009-07-28T06:27:03Z</time></trkpt><trkpt lat="43.526745000" lon="12.934129000"><ele>494.442000</ele><time>2009-07-28T06:27:05Z</time></trkpt><trkpt lat="43.526736000" lon="12.934113000"><ele>495.116000</ele><time>2009-07-28T06:27:09Z</time></trkpt><trkpt lat="43.526736000" lon="12.934121000"><ele>494.921000</ele><time>2009-07-28T06:27:11Z</time></trkpt><trkpt lat="43.526737000" lon="12.934117000"><ele>495.194000</ele><time>2009-07-28T06:27:15Z</time></trkpt><trkpt lat="43.526737000" lon="12.934117000"><ele>495.251000</ele><time>2009-07-28T06:27:17Z</time></trkpt><trkpt lat="43.526737000" lon="12.934117000"><ele>495.291000</ele><time>2009-07-28T06:27:21Z</time></trkpt><trkpt lat="43.526736000" lon="12.934106000"><ele>495.317000</ele><time>2009-07-28T06:27:23Z</time></trkpt><trkpt lat="43.526727000" lon="12.934097000"><ele>493.191000</ele><time>2009-07-28T06:27:27Z</time></trkpt><trkpt lat="43.526724000" lon="12.934093000"><ele>492.535000</ele><time>2009-07-28T06:27:29Z</time></trkpt><trkpt lat="43.526723000" lon="12.934094000"><ele>492.266000</ele><time>2009-07-28T06:27:33Z</time></trkpt><trkpt lat="43.526723000" lon="12.934093000"><ele>492.228000</ele><time>2009-07-28T06:27:35Z</time></trkpt><trkpt lat="43.526724000" lon="12.934091000"><ele>492.222000</ele><time>2009-07-28T06:27:39Z</time></trkpt><trkpt lat="43.526723000" lon="12.934092000"><ele>492.240000</ele><time>2009-07-28T06:27:41Z</time></trkpt><trkpt lat="43.526723000" lon="12.934093000"><ele>492.205000</ele><time>2009-07-28T06:27:45Z</time></trkpt><trkpt lat="43.526723000" lon="12.934094000"><ele>492.138000</ele><time>2009-07-28T06:27:47Z</time></trkpt><trkpt lat="43.526723000" lon="12.934093000"><ele>492.045000</ele><time>2009-07-28T06:27:51Z</time></trkpt><trkpt lat="43.526723000" lon="12.934093000"><ele>492.006000</ele><time>2009-07-28T06:27:53Z</time></trkpt><trkpt lat="43.526724000" lon="12.934090000"><ele>492.061000</ele><time>2009-07-28T06:27:57Z</time></trkpt><trkpt lat="43.526723000" lon="12.934091000"><ele>492.097000</ele><time>2009-07-28T06:27:59Z</time></trkpt><trkpt lat="43.526723000" lon="12.934092000"><ele>492.083000</ele><time>2009-07-28T06:28:03Z</time></trkpt><trkpt lat="43.526723000" lon="12.934092000"><ele>492.083000</ele><time>2009-07-28T06:28:05Z</time></trkpt><trkpt lat="43.526723000" lon="12.934092000"><ele>492.096000</ele><time>2009-07-28T06:28:09Z</time></trkpt><trkpt lat="43.526723000" lon="12.934092000"><ele>492.103000</ele><time>2009-07-28T06:28:11Z</time></trkpt><trkpt lat="43.526722000" lon="12.934090000"><ele>492.109000</ele><time>2009-07-28T06:28:15Z</time></trkpt><trkpt lat="43.526716000" lon="12.934066000"><ele>492.193000</ele><time>2009-07-28T06:28:17Z</time></trkpt><trkpt lat="43.526687000" lon="12.934025000"><ele>492.259000</ele><time>2009-07-28T06:28:21Z</time></trkpt><trkpt lat="43.526679000" lon="12.934005000"><ele>492.734000</ele><time>2009-07-28T06:28:23Z</time></trkpt><trkpt lat="43.526661000" lon="12.933960000"><ele>493.795000</ele><time>2009-07-28T06:28:27Z</time></trkpt><trkpt lat="43.526664000" lon="12.933931000"><ele>494.549000</ele><time>2009-07-28T06:28:29Z</time></trkpt><trkpt lat="43.526659000" lon="12.933880000"><ele>495.621000</ele><time>2009-07-28T06:28:33Z</time></trkpt><trkpt lat="43.526659000" lon="12.933859000"><ele>495.746000</ele><time>2009-07-28T06:28:35Z</time></trkpt><trkpt lat="43.526646000" lon="12.933808000"><ele>496.335000</ele><time>2009-07-28T06:28:39Z</time></trkpt><trkpt lat="43.526644000" lon="12.933782000"><ele>496.860000</ele><time>2009-07-28T06:28:41Z</time></trkpt><trkpt lat="43.526630000" lon="12.933735000"><ele>498.199000</ele><time>2009-07-28T06:28:45Z</time></trkpt><trkpt lat="43.526626000" lon="12.933712000"><ele>498.865000</ele><time>2009-07-28T06:28:47Z</time></trkpt><trkpt lat="43.526624000" lon="12.933666000"><ele>500.666000</ele><time>2009-07-28T06:28:51Z</time></trkpt><trkpt lat="43.526620000" lon="12.933640000"><ele>501.333000</ele><time>2009-07-28T06:28:53Z</time></trkpt><trkpt lat="43.526609000" lon="12.933581000"><ele>503.027000</ele><time>2009-07-28T06:28:57Z</time></trkpt><trkpt lat="43.526607000" lon="12.933553000"><ele>503.539000</ele><time>2009-07-28T06:28:59Z</time></trkpt><trkpt lat="43.526593000" lon="12.933537000"><ele>504.919000</ele><time>2009-07-28T06:29:03Z</time></trkpt><trkpt lat="43.526585000" lon="12.933524000"><ele>504.348000</ele><time>2009-07-28T06:29:05Z</time></trkpt><trkpt lat="43.526564000" lon="12.933519000"><ele>505.064000</ele><time>2009-07-28T06:29:09Z</time></trkpt><trkpt lat="43.526544000" lon="12.933522000"><ele>504.092000</ele><time>2009-07-28T06:29:11Z</time></trkpt><trkpt lat="43.526513000" lon="12.933540000"><ele>503.334000</ele><time>2009-07-28T06:29:15Z</time></trkpt><trkpt lat="43.526492000" lon="12.933558000"><ele>502.521000</ele><time>2009-07-28T06:29:17Z</time></trkpt><trkpt lat="43.526460000" lon="12.933576000"><ele>503.202000</ele><time>2009-07-28T06:29:21Z</time></trkpt><trkpt lat="43.526448000" lon="12.933578000"><ele>502.867000</ele><time>2009-07-28T06:29:23Z</time></trkpt><trkpt lat="43.526414000" lon="12.933593000"><ele>502.996000</ele><time>2009-07-28T06:29:27Z</time></trkpt><trkpt lat="43.526394000" lon="12.933593000"><ele>503.578000</ele><time>2009-07-28T06:29:29Z</time></trkpt><trkpt lat="43.526360000" lon="12.933624000"><ele>504.484000</ele><time>2009-07-28T06:29:33Z</time></trkpt><trkpt lat="43.526351000" lon="12.933630000"><ele>503.845000</ele><time>2009-07-28T06:29:35Z</time></trkpt><trkpt lat="43.526326000" lon="12.933647000"><ele>503.701000</ele><time>2009-07-28T06:29:39Z</time></trkpt><trkpt lat="43.526308000" lon="12.933653000"><ele>503.382000</ele><time>2009-07-28T06:29:41Z</time></trkpt><trkpt lat="43.526287000" lon="12.933661000"><ele>503.608000</ele><time>2009-07-28T06:29:45Z</time></trkpt><trkpt lat="43.526270000" lon="12.933669000"><ele>503.914000</ele><time>2009-07-28T06:29:47Z</time></trkpt><trkpt lat="43.526240000" lon="12.933675000"><ele>504.420000</ele><time>2009-07-28T06:29:51Z</time></trkpt><trkpt lat="43.526228000" lon="12.933681000"><ele>505.292000</ele><time>2009-07-28T06:29:53Z</time></trkpt><trkpt lat="43.526207000" lon="12.933672000"><ele>506.470000</ele><time>2009-07-28T06:29:57Z</time></trkpt><trkpt lat="43.526191000" lon="12.933673000"><ele>506.972000</ele><time>2009-07-28T06:29:59Z</time></trkpt><trkpt lat="43.526157000" lon="12.933668000"><ele>507.434000</ele><time>2009-07-28T06:30:03Z</time></trkpt><trkpt lat="43.526144000" lon="12.933664000"><ele>508.015000</ele><time>2009-07-28T06:30:05Z</time></trkpt><trkpt lat="43.526126000" lon="12.933650000"><ele>508.907000</ele><time>2009-07-28T06:30:09Z</time></trkpt><trkpt lat="43.526116000" lon="12.933639000"><ele>509.293000</ele><time>2009-07-28T06:30:11Z</time></trkpt><trkpt lat="43.526092000" lon="12.933621000"><ele>510.889000</ele><time>2009-07-28T06:30:15Z</time></trkpt><trkpt lat="43.526080000" lon="12.933609000"><ele>511.387000</ele><time>2009-07-28T06:30:17Z</time></trkpt><trkpt lat="43.526058000" lon="12.933598000"><ele>511.921000</ele><time>2009-07-28T06:30:21Z</time></trkpt><trkpt lat="43.526044000" lon="12.933592000"><ele>511.581000</ele><time>2009-07-28T06:30:23Z</time></trkpt><trkpt lat="43.526033000" lon="12.933569000"><ele>512.245000</ele><time>2009-07-28T06:30:27Z</time></trkpt><trkpt lat="43.526024000" lon="12.933568000"><ele>512.537000</ele><time>2009-07-28T06:30:29Z</time></trkpt><trkpt lat="43.526013000" lon="12.933550000"><ele>513.231000</ele><time>2009-07-28T06:30:33Z</time></trkpt><trkpt lat="43.526000000" lon="12.933547000"><ele>513.392000</ele><time>2009-07-28T06:30:35Z</time></trkpt><trkpt lat="43.525985000" lon="12.933533000"><ele>513.921000</ele><time>2009-07-28T06:30:39Z</time></trkpt><trkpt lat="43.525982000" lon="12.933518000"><ele>514.072000</ele><time>2009-07-28T06:30:41Z</time></trkpt><trkpt lat="43.525960000" lon="12.933488000"><ele>513.297000</ele><time>2009-07-28T06:30:45Z</time></trkpt><trkpt lat="43.525954000" lon="12.933481000"><ele>513.464000</ele><time>2009-07-28T06:30:47Z</time></trkpt><trkpt lat="43.525951000" lon="12.933442000"><ele>514.057000</ele><time>2009-07-28T06:30:51Z</time></trkpt><trkpt lat="43.525944000" lon="12.933418000"><ele>514.300000</ele><time>2009-07-28T06:30:53Z</time></trkpt><trkpt lat="43.525937000" lon="12.933369000"><ele>514.143000</ele><time>2009-07-28T06:30:57Z</time></trkpt><trkpt lat="43.525929000" lon="12.933357000"><ele>514.188000</ele><time>2009-07-28T06:30:59Z</time></trkpt><trkpt lat="43.525907000" lon="12.933330000"><ele>514.403000</ele><time>2009-07-28T06:31:03Z</time></trkpt><trkpt lat="43.525876000" lon="12.933318000"><ele>514.626000</ele><time>2009-07-28T06:31:05Z</time></trkpt><trkpt lat="43.525848000" lon="12.933293000"><ele>514.803000</ele><time>2009-07-28T06:31:09Z</time></trkpt><trkpt lat="43.525846000" lon="12.933275000"><ele>514.905000</ele><time>2009-07-28T06:31:11Z</time></trkpt><trkpt lat="43.525848000" lon="12.933231000"><ele>515.412000</ele><time>2009-07-28T06:31:15Z</time></trkpt><trkpt lat="43.525846000" lon="12.933218000"><ele>515.658000</ele><time>2009-07-28T06:31:17Z</time></trkpt><trkpt lat="43.525864000" lon="12.933174000"><ele>516.733000</ele><time>2009-07-28T06:31:21Z</time></trkpt><trkpt lat="43.525853000" lon="12.933156000"><ele>516.880000</ele><time>2009-07-28T06:31:23Z</time></trkpt><trkpt lat="43.525848000" lon="12.933123000"><ele>517.763000</ele><time>2009-07-28T06:31:27Z</time></trkpt><trkpt lat="43.525842000" lon="12.933105000"><ele>517.948000</ele><time>2009-07-28T06:31:29Z</time></trkpt><trkpt lat="43.525832000" lon="12.933071000"><ele>518.327000</ele><time>2009-07-28T06:31:33Z</time></trkpt><trkpt lat="43.525830000" lon="12.933067000"><ele>518.662000</ele><time>2009-07-28T06:31:35Z</time></trkpt><trkpt lat="43.525827000" lon="12.933029000"><ele>519.573000</ele><time>2009-07-28T06:31:39Z</time></trkpt><trkpt lat="43.525833000" lon="12.933019000"><ele>520.101000</ele><time>2009-07-28T06:31:41Z</time></trkpt><trkpt lat="43.525824000" lon="12.932990000"><ele>520.500000</ele><time>2009-07-28T06:31:45Z</time></trkpt><trkpt lat="43.525814000" lon="12.932961000"><ele>520.768000</ele><time>2009-07-28T06:31:47Z</time></trkpt><trkpt lat="43.525825000" lon="12.932907000"><ele>521.238000</ele><time>2009-07-28T06:31:51Z</time></trkpt><trkpt lat="43.525817000" lon="12.932878000"><ele>521.344000</ele><time>2009-07-28T06:31:53Z</time></trkpt><trkpt lat="43.525804000" lon="12.932835000"><ele>522.137000</ele><time>2009-07-28T06:31:57Z</time></trkpt><trkpt lat="43.525798000" lon="12.932805000"><ele>522.909000</ele><time>2009-07-28T06:31:59Z</time></trkpt><trkpt lat="43.525797000" lon="12.932766000"><ele>523.540000</ele><time>2009-07-28T06:32:03Z</time></trkpt><trkpt lat="43.525799000" lon="12.932738000"><ele>523.815000</ele><time>2009-07-28T06:32:05Z</time></trkpt><trkpt lat="43.525788000" lon="12.932685000"><ele>524.574000</ele><time>2009-07-28T06:32:09Z</time></trkpt><trkpt lat="43.525770000" lon="12.932676000"><ele>524.894000</ele><time>2009-07-28T06:32:11Z</time></trkpt><trkpt lat="43.525751000" lon="12.932633000"><ele>525.632000</ele><time>2009-07-28T06:32:15Z</time></trkpt><trkpt lat="43.525736000" lon="12.932615000"><ele>526.036000</ele><time>2009-07-28T06:32:17Z</time></trkpt><trkpt lat="43.525730000" lon="12.932571000"><ele>526.695000</ele><time>2009-07-28T06:32:21Z</time></trkpt><trkpt lat="43.525736000" lon="12.932541000"><ele>526.999000</ele><time>2009-07-28T06:32:23Z</time></trkpt><trkpt lat="43.525770000" lon="12.932494000"><ele>527.963000</ele><time>2009-07-28T06:32:27Z</time></trkpt><trkpt lat="43.525755000" lon="12.932478000"><ele>528.563000</ele><time>2009-07-28T06:32:29Z</time></trkpt><trkpt lat="43.525747000" lon="12.932440000"><ele>529.480000</ele><time>2009-07-28T06:32:33Z</time></trkpt><trkpt lat="43.525748000" lon="12.932417000"><ele>530.200000</ele><time>2009-07-28T06:32:35Z</time></trkpt><trkpt lat="43.525736000" lon="12.932375000"><ele>531.044000</ele><time>2009-07-28T06:32:39Z</time></trkpt><trkpt lat="43.525719000" lon="12.932338000"><ele>531.970000</ele><time>2009-07-28T06:32:41Z</time></trkpt><trkpt lat="43.525693000" lon="12.932306000"><ele>533.264000</ele><time>2009-07-28T06:32:45Z</time></trkpt><trkpt lat="43.525682000" lon="12.932297000"><ele>533.700000</ele><time>2009-07-28T06:32:47Z</time></trkpt><trkpt lat="43.525672000" lon="12.932271000"><ele>533.883000</ele><time>2009-07-28T06:32:51Z</time></trkpt><trkpt lat="43.525655000" lon="12.932261000"><ele>534.497000</ele><time>2009-07-28T06:32:53Z</time></trkpt><trkpt lat="43.525651000" lon="12.932230000"><ele>535.338000</ele><time>2009-07-28T06:32:57Z</time></trkpt><trkpt lat="43.525646000" lon="12.932216000"><ele>536.047000</ele><time>2009-07-28T06:32:59Z</time></trkpt><trkpt lat="43.525624000" lon="12.932183000"><ele>536.039000</ele><time>2009-07-28T06:33:03Z</time></trkpt><trkpt lat="43.525608000" lon="12.932153000"><ele>536.724000</ele><time>2009-07-28T06:33:05Z</time></trkpt><trkpt lat="43.525595000" lon="12.932122000"><ele>537.025000</ele><time>2009-07-28T06:33:09Z</time></trkpt><trkpt lat="43.525592000" lon="12.932093000"><ele>537.629000</ele><time>2009-07-28T06:33:11Z</time></trkpt><trkpt lat="43.525586000" lon="12.932059000"><ele>538.631000</ele><time>2009-07-28T06:33:15Z</time></trkpt><trkpt lat="43.525580000" lon="12.932035000"><ele>539.315000</ele><time>2009-07-28T06:33:17Z</time></trkpt><trkpt lat="43.525540000" lon="12.931998000"><ele>540.474000</ele><time>2009-07-28T06:33:21Z</time></trkpt><trkpt lat="43.525533000" lon="12.931981000"><ele>541.028000</ele><time>2009-07-28T06:33:23Z</time></trkpt><trkpt lat="43.525522000" lon="12.931938000"><ele>542.276000</ele><time>2009-07-28T06:33:27Z</time></trkpt><trkpt lat="43.525504000" lon="12.931915000"><ele>542.818000</ele><time>2009-07-28T06:33:29Z</time></trkpt><trkpt lat="43.525499000" lon="12.931867000"><ele>543.885000</ele><time>2009-07-28T06:33:33Z</time></trkpt><trkpt lat="43.525501000" lon="12.931846000"><ele>544.482000</ele><time>2009-07-28T06:33:35Z</time></trkpt><trkpt lat="43.525497000" lon="12.931809000"><ele>545.506000</ele><time>2009-07-28T06:33:39Z</time></trkpt><trkpt lat="43.525490000" lon="12.931785000"><ele>545.966000</ele><time>2009-07-28T06:33:41Z</time></trkpt><trkpt lat="43.525475000" lon="12.931730000"><ele>547.018000</ele><time>2009-07-28T06:33:45Z</time></trkpt><trkpt lat="43.525463000" lon="12.931708000"><ele>547.312000</ele><time>2009-07-28T06:33:47Z</time></trkpt><trkpt lat="43.525453000" lon="12.931677000"><ele>547.486000</ele><time>2009-07-28T06:33:51Z</time></trkpt><trkpt lat="43.525442000" lon="12.931659000"><ele>547.535000</ele><time>2009-07-28T06:33:53Z</time></trkpt><trkpt lat="43.525411000" lon="12.931634000"><ele>547.075000</ele><time>2009-07-28T06:33:57Z</time></trkpt><trkpt lat="43.525404000" lon="12.931618000"><ele>546.178000</ele><time>2009-07-28T06:33:59Z</time></trkpt><trkpt lat="43.525394000" lon="12.931573000"><ele>546.278000</ele><time>2009-07-28T06:34:03Z</time></trkpt><trkpt lat="43.525384000" lon="12.931554000"><ele>545.967000</ele><time>2009-07-28T06:34:05Z</time></trkpt><trkpt lat="43.525353000" lon="12.931509000"><ele>545.958000</ele><time>2009-07-28T06:34:09Z</time></trkpt><trkpt lat="43.525337000" lon="12.931481000"><ele>545.768000</ele><time>2009-07-28T06:34:11Z</time></trkpt><trkpt lat="43.525326000" lon="12.931406000"><ele>546.309000</ele><time>2009-07-28T06:34:15Z</time></trkpt><trkpt lat="43.525338000" lon="12.931391000"><ele>546.505000</ele><time>2009-07-28T06:34:17Z</time></trkpt><trkpt lat="43.525334000" lon="12.931327000"><ele>547.997000</ele><time>2009-07-28T06:34:21Z</time></trkpt><trkpt lat="43.525321000" lon="12.931303000"><ele>548.570000</ele><time>2009-07-28T06:34:23Z</time></trkpt><trkpt lat="43.525306000" lon="12.931252000"><ele>550.002000</ele><time>2009-07-28T06:34:27Z</time></trkpt><trkpt lat="43.525304000" lon="12.931223000"><ele>550.287000</ele><time>2009-07-28T06:34:29Z</time></trkpt><trkpt lat="43.525287000" lon="12.931171000"><ele>550.672000</ele><time>2009-07-28T06:34:33Z</time></trkpt><trkpt lat="43.525287000" lon="12.931143000"><ele>551.195000</ele><time>2009-07-28T06:34:35Z</time></trkpt><trkpt lat="43.525287000" lon="12.931069000"><ele>552.157000</ele><time>2009-07-28T06:34:39Z</time></trkpt><trkpt lat="43.525284000" lon="12.931037000"><ele>552.017000</ele><time>2009-07-28T06:34:41Z</time></trkpt><trkpt lat="43.525286000" lon="12.930994000"><ele>552.152000</ele><time>2009-07-28T06:34:45Z</time></trkpt><trkpt lat="43.525288000" lon="12.930975000"><ele>552.229000</ele><time>2009-07-28T06:34:47Z</time></trkpt><trkpt lat="43.525285000" lon="12.930921000"><ele>552.723000</ele><time>2009-07-28T06:34:51Z</time></trkpt><trkpt lat="43.525287000" lon="12.930894000"><ele>553.320000</ele><time>2009-07-28T06:34:53Z</time></trkpt><trkpt lat="43.525296000" lon="12.930847000"><ele>554.825000</ele><time>2009-07-28T06:34:57Z</time></trkpt><trkpt lat="43.525311000" lon="12.930821000"><ele>555.711000</ele><time>2009-07-28T06:34:59Z</time></trkpt><trkpt lat="43.525325000" lon="12.930758000"><ele>556.864000</ele><time>2009-07-28T06:35:03Z</time></trkpt><trkpt lat="43.525327000" lon="12.930732000"><ele>557.679000</ele><time>2009-07-28T06:35:05Z</time></trkpt><trkpt lat="43.525331000" lon="12.930682000"><ele>558.646000</ele><time>2009-07-28T06:35:09Z</time></trkpt><trkpt lat="43.525329000" lon="12.930648000"><ele>559.381000</ele><time>2009-07-28T06:35:11Z</time></trkpt><trkpt lat="43.525322000" lon="12.930591000"><ele>560.739000</ele><time>2009-07-28T06:35:15Z</time></trkpt><trkpt lat="43.525325000" lon="12.930570000"><ele>561.048000</ele><time>2009-07-28T06:35:17Z</time></trkpt><trkpt lat="43.525325000" lon="12.930507000"><ele>562.644000</ele><time>2009-07-28T06:35:21Z</time></trkpt><trkpt lat="43.525327000" lon="12.930469000"><ele>562.853000</ele><time>2009-07-28T06:35:23Z</time></trkpt><trkpt lat="43.525339000" lon="12.930427000"><ele>563.795000</ele><time>2009-07-28T06:35:27Z</time></trkpt><trkpt lat="43.525341000" lon="12.930402000"><ele>564.149000</ele><time>2009-07-28T06:35:29Z</time></trkpt><trkpt lat="43.525334000" lon="12.930354000"><ele>566.312000</ele><time>2009-07-28T06:35:33Z</time></trkpt><trkpt lat="43.525336000" lon="12.930339000"><ele>567.128000</ele><time>2009-07-28T06:35:35Z</time></trkpt><trkpt lat="43.525340000" lon="12.930283000"><ele>568.410000</ele><time>2009-07-28T06:35:39Z</time></trkpt><trkpt lat="43.525342000" lon="12.930256000"><ele>568.906000</ele><time>2009-07-28T06:35:41Z</time></trkpt><trkpt lat="43.525346000" lon="12.930200000"><ele>569.965000</ele><time>2009-07-28T06:35:45Z</time></trkpt><trkpt lat="43.525344000" lon="12.930184000"><ele>570.166000</ele><time>2009-07-28T06:35:47Z</time></trkpt><trkpt lat="43.525341000" lon="12.930154000"><ele>570.254000</ele><time>2009-07-28T06:35:51Z</time></trkpt><trkpt lat="43.525335000" lon="12.930132000"><ele>570.741000</ele><time>2009-07-28T06:35:53Z</time></trkpt><trkpt lat="43.525331000" lon="12.930119000"><ele>570.506000</ele><time>2009-07-28T06:35:57Z</time></trkpt><trkpt lat="43.525330000" lon="12.930123000"><ele>569.985000</ele><time>2009-07-28T06:35:59Z</time></trkpt><trkpt lat="43.525329000" lon="12.930119000"><ele>570.065000</ele><time>2009-07-28T06:36:03Z</time></trkpt><trkpt lat="43.525328000" lon="12.930091000"><ele>570.243000</ele><time>2009-07-28T06:36:05Z</time></trkpt><trkpt lat="43.525314000" lon="12.930038000"><ele>569.795000</ele><time>2009-07-28T06:36:09Z</time></trkpt><trkpt lat="43.525304000" lon="12.930025000"><ele>569.544000</ele><time>2009-07-28T06:36:11Z</time></trkpt><trkpt lat="43.525286000" lon="12.929975000"><ele>569.201000</ele><time>2009-07-28T06:36:15Z</time></trkpt><trkpt lat="43.525274000" lon="12.929963000"><ele>569.157000</ele><time>2009-07-28T06:36:17Z</time></trkpt><trkpt lat="43.525256000" lon="12.929933000"><ele>568.990000</ele><time>2009-07-28T06:36:21Z</time></trkpt><trkpt lat="43.525258000" lon="12.929912000"><ele>569.239000</ele><time>2009-07-28T06:36:23Z</time></trkpt><trkpt lat="43.525246000" lon="12.929878000"><ele>568.780000</ele><time>2009-07-28T06:36:27Z</time></trkpt><trkpt lat="43.525243000" lon="12.929854000"><ele>569.394000</ele><time>2009-07-28T06:36:29Z</time></trkpt><trkpt lat="43.525232000" lon="12.929818000"><ele>570.751000</ele><time>2009-07-28T06:36:33Z</time></trkpt><trkpt lat="43.525223000" lon="12.929799000"><ele>571.174000</ele><time>2009-07-28T06:36:35Z</time></trkpt><trkpt lat="43.525213000" lon="12.929767000"><ele>570.684000</ele><time>2009-07-28T06:36:39Z</time></trkpt><trkpt lat="43.525208000" lon="12.929744000"><ele>570.164000</ele><time>2009-07-28T06:36:41Z</time></trkpt><trkpt lat="43.525195000" lon="12.929697000"><ele>570.306000</ele><time>2009-07-28T06:36:45Z</time></trkpt><trkpt lat="43.525186000" lon="12.929681000"><ele>570.294000</ele><time>2009-07-28T06:36:47Z</time></trkpt><trkpt lat="43.525167000" lon="12.929660000"><ele>569.665000</ele><time>2009-07-28T06:36:51Z</time></trkpt><trkpt lat="43.525148000" lon="12.929640000"><ele>569.594000</ele><time>2009-07-28T06:36:53Z</time></trkpt><trkpt lat="43.525140000" lon="12.929602000"><ele>570.085000</ele><time>2009-07-28T06:36:57Z</time></trkpt><trkpt lat="43.525125000" lon="12.929587000"><ele>569.955000</ele><time>2009-07-28T06:36:59Z</time></trkpt><trkpt lat="43.525111000" lon="12.929551000"><ele>569.608000</ele><time>2009-07-28T06:37:03Z</time></trkpt><trkpt lat="43.525104000" lon="12.929528000"><ele>569.249000</ele><time>2009-07-28T06:37:05Z</time></trkpt><trkpt lat="43.525087000" lon="12.929491000"><ele>569.521000</ele><time>2009-07-28T06:37:09Z</time></trkpt><trkpt lat="43.525083000" lon="12.929475000"><ele>569.111000</ele><time>2009-07-28T06:37:11Z</time></trkpt><trkpt lat="43.525054000" lon="12.929433000"><ele>568.867000</ele><time>2009-07-28T06:37:15Z</time></trkpt><trkpt lat="43.525046000" lon="12.929413000"><ele>567.975000</ele><time>2009-07-28T06:37:17Z</time></trkpt><trkpt lat="43.525015000" lon="12.929376000"><ele>568.006000</ele><time>2009-07-28T06:37:21Z</time></trkpt><trkpt lat="43.525000000" lon="12.929363000"><ele>567.849000</ele><time>2009-07-28T06:37:23Z</time></trkpt><trkpt lat="43.524978000" lon="12.929334000"><ele>568.047000</ele><time>2009-07-28T06:37:27Z</time></trkpt><trkpt lat="43.524971000" lon="12.929312000"><ele>568.325000</ele><time>2009-07-28T06:37:29Z</time></trkpt><trkpt lat="43.524945000" lon="12.929277000"><ele>568.601000</ele><time>2009-07-28T06:37:33Z</time></trkpt><trkpt lat="43.524928000" lon="12.929262000"><ele>568.876000</ele><time>2009-07-28T06:37:35Z</time></trkpt><trkpt lat="43.524911000" lon="12.929226000"><ele>569.307000</ele><time>2009-07-28T06:37:39Z</time></trkpt><trkpt lat="43.524907000" lon="12.929211000"><ele>569.341000</ele><time>2009-07-28T06:37:41Z</time></trkpt><trkpt lat="43.524875000" lon="12.929178000"><ele>569.478000</ele><time>2009-07-28T06:37:45Z</time></trkpt><trkpt lat="43.524867000" lon="12.929162000"><ele>569.739000</ele><time>2009-07-28T06:37:47Z</time></trkpt><trkpt lat="43.524847000" lon="12.929120000"><ele>569.891000</ele><time>2009-07-28T06:37:51Z</time></trkpt><trkpt lat="43.524835000" lon="12.929097000"><ele>569.827000</ele><time>2009-07-28T06:37:53Z</time></trkpt><trkpt lat="43.524802000" lon="12.929055000"><ele>570.018000</ele><time>2009-07-28T06:37:57Z</time></trkpt><trkpt lat="43.524791000" lon="12.929032000"><ele>570.212000</ele><time>2009-07-28T06:37:59Z</time></trkpt><trkpt lat="43.524770000" lon="12.928988000"><ele>571.025000</ele><time>2009-07-28T06:38:03Z</time></trkpt><trkpt lat="43.524756000" lon="12.928961000"><ele>571.457000</ele><time>2009-07-28T06:38:05Z</time></trkpt><trkpt lat="43.524725000" lon="12.928937000"><ele>573.277000</ele><time>2009-07-28T06:38:09Z</time></trkpt><trkpt lat="43.524715000" lon="12.928921000"><ele>574.068000</ele><time>2009-07-28T06:38:11Z</time></trkpt><trkpt lat="43.524691000" lon="12.928878000"><ele>576.262000</ele><time>2009-07-28T06:38:15Z</time></trkpt><trkpt lat="43.524680000" lon="12.928854000"><ele>576.397000</ele><time>2009-07-28T06:38:17Z</time></trkpt><trkpt lat="43.524649000" lon="12.928826000"><ele>578.087000</ele><time>2009-07-28T06:38:21Z</time></trkpt><trkpt lat="43.524641000" lon="12.928811000"><ele>577.847000</ele><time>2009-07-28T06:38:23Z</time></trkpt><trkpt lat="43.524601000" lon="12.928783000"><ele>579.078000</ele><time>2009-07-28T06:38:27Z</time></trkpt><trkpt lat="43.524582000" lon="12.928759000"><ele>578.919000</ele><time>2009-07-28T06:38:29Z</time></trkpt><trkpt lat="43.524542000" lon="12.928738000"><ele>579.407000</ele><time>2009-07-28T06:38:33Z</time></trkpt><trkpt lat="43.524529000" lon="12.928729000"><ele>579.271000</ele><time>2009-07-28T06:38:35Z</time></trkpt><trkpt lat="43.524497000" lon="12.928715000"><ele>579.952000</ele><time>2009-07-28T06:38:39Z</time></trkpt><trkpt lat="43.524478000" lon="12.928706000"><ele>580.287000</ele><time>2009-07-28T06:38:41Z</time></trkpt><trkpt lat="43.524444000" lon="12.928675000"><ele>580.687000</ele><time>2009-07-28T06:38:45Z</time></trkpt><trkpt lat="43.524433000" lon="12.928661000"><ele>581.041000</ele><time>2009-07-28T06:38:47Z</time></trkpt><trkpt lat="43.524388000" lon="12.928648000"><ele>582.266000</ele><time>2009-07-28T06:38:51Z</time></trkpt><trkpt lat="43.524364000" lon="12.928643000"><ele>582.628000</ele><time>2009-07-28T06:38:53Z</time></trkpt><trkpt lat="43.524332000" lon="12.928629000"><ele>583.428000</ele><time>2009-07-28T06:38:57Z</time></trkpt><trkpt lat="43.524319000" lon="12.928612000"><ele>583.870000</ele><time>2009-07-28T06:38:59Z</time></trkpt><trkpt lat="43.524276000" lon="12.928601000"><ele>584.342000</ele><time>2009-07-28T06:39:03Z</time></trkpt><trkpt lat="43.524248000" lon="12.928596000"><ele>584.380000</ele><time>2009-07-28T06:39:05Z</time></trkpt><trkpt lat="43.524205000" lon="12.928581000"><ele>584.508000</ele><time>2009-07-28T06:39:09Z</time></trkpt><trkpt lat="43.524191000" lon="12.928559000"><ele>584.824000</ele><time>2009-07-28T06:39:11Z</time></trkpt><trkpt lat="43.524167000" lon="12.928535000"><ele>584.959000</ele><time>2009-07-28T06:39:15Z</time></trkpt><trkpt lat="43.524141000" lon="12.928528000"><ele>585.211000</ele><time>2009-07-28T06:39:17Z</time></trkpt><trkpt lat="43.524107000" lon="12.928492000"><ele>585.841000</ele><time>2009-07-28T06:39:21Z</time></trkpt><trkpt lat="43.524076000" lon="12.928486000"><ele>586.044000</ele><time>2009-07-28T06:39:23Z</time></trkpt><trkpt lat="43.524041000" lon="12.928437000"><ele>586.586000</ele><time>2009-07-28T06:39:27Z</time></trkpt><trkpt lat="43.524022000" lon="12.928414000"><ele>586.183000</ele><time>2009-07-28T06:39:29Z</time></trkpt><trkpt lat="43.523983000" lon="12.928398000"><ele>585.721000</ele><time>2009-07-28T06:39:33Z</time></trkpt><trkpt lat="43.523971000" lon="12.928374000"><ele>584.613000</ele><time>2009-07-28T06:39:35Z</time></trkpt><trkpt lat="43.523958000" lon="12.928301000"><ele>583.951000</ele><time>2009-07-28T06:39:39Z</time></trkpt><trkpt lat="43.523950000" lon="12.928274000"><ele>583.616000</ele><time>2009-07-28T06:39:41Z</time></trkpt><trkpt lat="43.523914000" lon="12.928229000"><ele>582.893000</ele><time>2009-07-28T06:39:45Z</time></trkpt><trkpt lat="43.523885000" lon="12.928225000"><ele>582.406000</ele><time>2009-07-28T06:39:47Z</time></trkpt><trkpt lat="43.523854000" lon="12.928173000"><ele>581.497000</ele><time>2009-07-28T06:39:51Z</time></trkpt><trkpt lat="43.523846000" lon="12.928142000"><ele>581.399000</ele><time>2009-07-28T06:39:53Z</time></trkpt><trkpt lat="43.523828000" lon="12.928099000"><ele>581.493000</ele><time>2009-07-28T06:39:57Z</time></trkpt><trkpt lat="43.523808000" lon="12.928080000"><ele>581.277000</ele><time>2009-07-28T06:39:59Z</time></trkpt><trkpt lat="43.523775000" lon="12.928028000"><ele>580.412000</ele><time>2009-07-28T06:40:03Z</time></trkpt><trkpt lat="43.523757000" lon="12.927989000"><ele>580.167000</ele><time>2009-07-28T06:40:05Z</time></trkpt><trkpt lat="43.523705000" lon="12.927960000"><ele>579.439000</ele><time>2009-07-28T06:40:09Z</time></trkpt><trkpt lat="43.523690000" lon="12.927936000"><ele>579.558000</ele><time>2009-07-28T06:40:11Z</time></trkpt><trkpt lat="43.523674000" lon="12.927886000"><ele>579.242000</ele><time>2009-07-28T06:40:15Z</time></trkpt><trkpt lat="43.523655000" lon="12.927864000"><ele>578.770000</ele><time>2009-07-28T06:40:17Z</time></trkpt><trkpt lat="43.523625000" lon="12.927820000"><ele>578.504000</ele><time>2009-07-28T06:40:21Z</time></trkpt><trkpt lat="43.523610000" lon="12.927791000"><ele>578.335000</ele><time>2009-07-28T06:40:23Z</time></trkpt><trkpt lat="43.523587000" lon="12.927736000"><ele>578.371000</ele><time>2009-07-28T06:40:27Z</time></trkpt><trkpt lat="43.523570000" lon="12.927709000"><ele>578.274000</ele><time>2009-07-28T06:40:29Z</time></trkpt><trkpt lat="43.523541000" lon="12.927673000"><ele>577.976000</ele><time>2009-07-28T06:40:33Z</time></trkpt><trkpt lat="43.523535000" lon="12.927677000"><ele>578.179000</ele><time>2009-07-28T06:40:35Z</time></trkpt><trkpt lat="43.523512000" lon="12.927646000"><ele>578.235000</ele><time>2009-07-28T06:40:39Z</time></trkpt><trkpt lat="43.523498000" lon="12.927632000"><ele>578.444000</ele><time>2009-07-28T06:40:41Z</time></trkpt><trkpt lat="43.523489000" lon="12.927577000"><ele>577.631000</ele><time>2009-07-28T06:40:45Z</time></trkpt><trkpt lat="43.523485000" lon="12.927548000"><ele>577.658000</ele><time>2009-07-28T06:40:47Z</time></trkpt><trkpt lat="43.523455000" lon="12.927490000"><ele>577.743000</ele><time>2009-07-28T06:40:51Z</time></trkpt><trkpt lat="43.523440000" lon="12.927473000"><ele>577.950000</ele><time>2009-07-28T06:40:53Z</time></trkpt><trkpt lat="43.523404000" lon="12.927412000"><ele>579.447000</ele><time>2009-07-28T06:40:57Z</time></trkpt><trkpt lat="43.523388000" lon="12.927404000"><ele>579.562000</ele><time>2009-07-28T06:40:59Z</time></trkpt><trkpt lat="43.523342000" lon="12.927364000"><ele>580.661000</ele><time>2009-07-28T06:41:03Z</time></trkpt><trkpt lat="43.523318000" lon="12.927348000"><ele>580.928000</ele><time>2009-07-28T06:41:05Z</time></trkpt><trkpt lat="43.523282000" lon="12.927312000"><ele>581.035000</ele><time>2009-07-28T06:41:09Z</time></trkpt><trkpt lat="43.523258000" lon="12.927293000"><ele>581.340000</ele><time>2009-07-28T06:41:11Z</time></trkpt><trkpt lat="43.523227000" lon="12.927250000"><ele>580.797000</ele><time>2009-07-28T06:41:15Z</time></trkpt><trkpt lat="43.523206000" lon="12.927221000"><ele>580.575000</ele><time>2009-07-28T06:41:17Z</time></trkpt><trkpt lat="43.523178000" lon="12.927181000"><ele>579.860000</ele><time>2009-07-28T06:41:21Z</time></trkpt><trkpt lat="43.523158000" lon="12.927167000"><ele>579.523000</ele><time>2009-07-28T06:41:23Z</time></trkpt><trkpt lat="43.523090000" lon="12.927158000"><ele>579.271000</ele><time>2009-07-28T06:41:27Z</time></trkpt><trkpt lat="43.523097000" lon="12.927133000"><ele>579.611000</ele><time>2009-07-28T06:41:29Z</time></trkpt><trkpt lat="43.523056000" lon="12.927088000"><ele>580.695000</ele><time>2009-07-28T06:41:33Z</time></trkpt><trkpt lat="43.523051000" lon="12.927061000"><ele>581.459000</ele><time>2009-07-28T06:41:35Z</time></trkpt><trkpt lat="43.523033000" lon="12.927023000"><ele>581.284000</ele><time>2009-07-28T06:41:39Z</time></trkpt><trkpt lat="43.523016000" lon="12.926995000"><ele>581.753000</ele><time>2009-07-28T06:41:41Z</time></trkpt><trkpt lat="43.523004000" lon="12.926953000"><ele>581.659000</ele><time>2009-07-28T06:41:45Z</time></trkpt><trkpt lat="43.522991000" lon="12.926944000"><ele>581.687000</ele><time>2009-07-28T06:41:47Z</time></trkpt><trkpt lat="43.522968000" lon="12.926916000"><ele>581.441000</ele><time>2009-07-28T06:41:51Z</time></trkpt><trkpt lat="43.522949000" lon="12.926892000"><ele>581.664000</ele><time>2009-07-28T06:41:53Z</time></trkpt><trkpt lat="43.522922000" lon="12.926843000"><ele>582.348000</ele><time>2009-07-28T06:41:57Z</time></trkpt><trkpt lat="43.522917000" lon="12.926807000"><ele>582.706000</ele><time>2009-07-28T06:41:59Z</time></trkpt><trkpt lat="43.522903000" lon="12.926775000"><ele>582.815000</ele><time>2009-07-28T06:42:03Z</time></trkpt><trkpt lat="43.522902000" lon="12.926755000"><ele>582.753000</ele><time>2009-07-28T06:42:05Z</time></trkpt><trkpt lat="43.522882000" lon="12.926703000"><ele>583.144000</ele><time>2009-07-28T06:42:09Z</time></trkpt><trkpt lat="43.522870000" lon="12.926673000"><ele>583.471000</ele><time>2009-07-28T06:42:11Z</time></trkpt><trkpt lat="43.522841000" lon="12.926640000"><ele>584.344000</ele><time>2009-07-28T06:42:15Z</time></trkpt><trkpt lat="43.522843000" lon="12.926606000"><ele>585.572000</ele><time>2009-07-28T06:42:17Z</time></trkpt><trkpt lat="43.522820000" lon="12.926548000"><ele>587.104000</ele><time>2009-07-28T06:42:21Z</time></trkpt><trkpt lat="43.522808000" lon="12.926532000"><ele>587.640000</ele><time>2009-07-28T06:42:23Z</time></trkpt><trkpt lat="43.522793000" lon="12.926499000"><ele>588.900000</ele><time>2009-07-28T06:42:27Z</time></trkpt><trkpt lat="43.522771000" lon="12.926486000"><ele>589.428000</ele><time>2009-07-28T06:42:29Z</time></trkpt><trkpt lat="43.522750000" lon="12.926456000"><ele>591.097000</ele><time>2009-07-28T06:42:33Z</time></trkpt><trkpt lat="43.522743000" lon="12.926451000"><ele>591.544000</ele><time>2009-07-28T06:42:35Z</time></trkpt><trkpt lat="43.522722000" lon="12.926450000"><ele>591.331000</ele><time>2009-07-28T06:42:39Z</time></trkpt><trkpt lat="43.522708000" lon="12.926449000"><ele>591.825000</ele><time>2009-07-28T06:42:41Z</time></trkpt><trkpt lat="43.522704000" lon="12.926419000"><ele>591.765000</ele><time>2009-07-28T06:42:45Z</time></trkpt><trkpt lat="43.522696000" lon="12.926411000"><ele>591.503000</ele><time>2009-07-28T06:42:47Z</time></trkpt><trkpt lat="43.522705000" lon="12.926365000"><ele>592.116000</ele><time>2009-07-28T06:42:51Z</time></trkpt><trkpt lat="43.522698000" lon="12.926353000"><ele>592.388000</ele><time>2009-07-28T06:42:53Z</time></trkpt><trkpt lat="43.522693000" lon="12.926332000"><ele>592.470000</ele><time>2009-07-28T06:42:57Z</time></trkpt><trkpt lat="43.522685000" lon="12.926314000"><ele>592.664000</ele><time>2009-07-28T06:42:59Z</time></trkpt><trkpt lat="43.522679000" lon="12.926272000"><ele>593.067000</ele><time>2009-07-28T06:43:03Z</time></trkpt><trkpt lat="43.522672000" lon="12.926254000"><ele>593.058000</ele><time>2009-07-28T06:43:05Z</time></trkpt><trkpt lat="43.522663000" lon="12.926224000"><ele>593.155000</ele><time>2009-07-28T06:43:09Z</time></trkpt><trkpt lat="43.522659000" lon="12.926205000"><ele>593.085000</ele><time>2009-07-28T06:43:11Z</time></trkpt><trkpt lat="43.522640000" lon="12.926170000"><ele>593.490000</ele><time>2009-07-28T06:43:15Z</time></trkpt><trkpt lat="43.522626000" lon="12.926153000"><ele>593.456000</ele><time>2009-07-28T06:43:17Z</time></trkpt><trkpt lat="43.522617000" lon="12.926152000"><ele>593.130000</ele><time>2009-07-28T06:43:21Z</time></trkpt><trkpt lat="43.522615000" lon="12.926150000"><ele>593.233000</ele><time>2009-07-28T06:43:23Z</time></trkpt><trkpt lat="43.522616000" lon="12.926151000"><ele>593.317000</ele><time>2009-07-28T06:43:27Z</time></trkpt><trkpt lat="43.522610000" lon="12.926151000"><ele>593.233000</ele><time>2009-07-28T06:43:29Z</time></trkpt><trkpt lat="43.522605000" lon="12.926147000"><ele>594.311000</ele><time>2009-07-28T06:43:33Z</time></trkpt><trkpt lat="43.522605000" lon="12.926147000"><ele>594.344000</ele><time>2009-07-28T06:43:35Z</time></trkpt><trkpt lat="43.522612000" lon="12.926153000"><ele>594.564000</ele><time>2009-07-28T06:43:39Z</time></trkpt><trkpt lat="43.522617000" lon="12.926145000"><ele>594.581000</ele><time>2009-07-28T06:43:41Z</time></trkpt><trkpt lat="43.522609000" lon="12.926155000"><ele>594.805000</ele><time>2009-07-28T06:43:45Z</time></trkpt><trkpt lat="43.522609000" lon="12.926155000"><ele>594.858000</ele><time>2009-07-28T06:43:47Z</time></trkpt><trkpt lat="43.522609000" lon="12.926155000"><ele>594.919000</ele><time>2009-07-28T06:43:51Z</time></trkpt><trkpt lat="43.522609000" lon="12.926156000"><ele>594.933000</ele><time>2009-07-28T06:43:53Z</time></trkpt><trkpt lat="43.522606000" lon="12.926152000"><ele>594.911000</ele><time>2009-07-28T06:43:57Z</time></trkpt><trkpt lat="43.522603000" lon="12.926148000"><ele>594.884000</ele><time>2009-07-28T06:43:59Z</time></trkpt><trkpt lat="43.522595000" lon="12.926135000"><ele>595.640000</ele><time>2009-07-28T06:44:03Z</time></trkpt><trkpt lat="43.522602000" lon="12.926135000"><ele>595.281000</ele><time>2009-07-28T06:44:05Z</time></trkpt><trkpt lat="43.522601000" lon="12.926140000"><ele>595.255000</ele><time>2009-07-28T06:44:09Z</time></trkpt><trkpt lat="43.522616000" lon="12.926104000"><ele>595.247000</ele><time>2009-07-28T06:44:11Z</time></trkpt><trkpt lat="43.522604000" lon="12.926060000"><ele>595.463000</ele><time>2009-07-28T06:44:15Z</time></trkpt><trkpt lat="43.522604000" lon="12.926027000"><ele>595.684000</ele><time>2009-07-28T06:44:17Z</time></trkpt><trkpt lat="43.522568000" lon="12.925996000"><ele>596.329000</ele><time>2009-07-28T06:44:21Z</time></trkpt><trkpt lat="43.522550000" lon="12.925982000"><ele>596.483000</ele><time>2009-07-28T06:44:23Z</time></trkpt><trkpt lat="43.522548000" lon="12.925930000"><ele>597.131000</ele><time>2009-07-28T06:44:27Z</time></trkpt><trkpt lat="43.522545000" lon="12.925903000"><ele>597.098000</ele><time>2009-07-28T06:44:29Z</time></trkpt><trkpt lat="43.522527000" lon="12.925869000"><ele>597.103000</ele><time>2009-07-28T06:44:33Z</time></trkpt><trkpt lat="43.522522000" lon="12.925845000"><ele>597.105000</ele><time>2009-07-28T06:44:35Z</time></trkpt><trkpt lat="43.522495000" lon="12.925800000"><ele>597.770000</ele><time>2009-07-28T06:44:39Z</time></trkpt><trkpt lat="43.522484000" lon="12.925771000"><ele>597.666000</ele><time>2009-07-28T06:44:41Z</time></trkpt><trkpt lat="43.522464000" lon="12.925703000"><ele>598.100000</ele><time>2009-07-28T06:44:45Z</time></trkpt><trkpt lat="43.522441000" lon="12.925682000"><ele>598.262000</ele><time>2009-07-28T06:44:47Z</time></trkpt><trkpt lat="43.522416000" lon="12.925646000"><ele>598.189000</ele><time>2009-07-28T06:44:51Z</time></trkpt><trkpt lat="43.522406000" lon="12.925623000"><ele>598.033000</ele><time>2009-07-28T06:44:53Z</time></trkpt><trkpt lat="43.522389000" lon="12.925571000"><ele>597.416000</ele><time>2009-07-28T06:44:57Z</time></trkpt><trkpt lat="43.522391000" lon="12.925541000"><ele>597.392000</ele><time>2009-07-28T06:44:59Z</time></trkpt><trkpt lat="43.522378000" lon="12.925484000"><ele>597.630000</ele><time>2009-07-28T06:45:03Z</time></trkpt><trkpt lat="43.522371000" lon="12.925465000"><ele>597.852000</ele><time>2009-07-28T06:45:05Z</time></trkpt><trkpt lat="43.522343000" lon="12.925418000"><ele>597.948000</ele><time>2009-07-28T06:45:09Z</time></trkpt><trkpt lat="43.522336000" lon="12.925395000"><ele>598.037000</ele><time>2009-07-28T06:45:11Z</time></trkpt><trkpt lat="43.522304000" lon="12.925350000"><ele>598.441000</ele><time>2009-07-28T06:45:15Z</time></trkpt><trkpt lat="43.522301000" lon="12.925319000"><ele>598.709000</ele><time>2009-07-28T06:45:17Z</time></trkpt><trkpt lat="43.522286000" lon="12.925297000"><ele>599.596000</ele><time>2009-07-28T06:45:21Z</time></trkpt><trkpt lat="43.522266000" lon="12.925288000"><ele>599.306000</ele><time>2009-07-28T06:45:23Z</time></trkpt><trkpt lat="43.522239000" lon="12.925254000"><ele>599.903000</ele><time>2009-07-28T06:45:27Z</time></trkpt><trkpt lat="43.522230000" lon="12.925226000"><ele>600.210000</ele><time>2009-07-28T06:45:29Z</time></trkpt><trkpt lat="43.522191000" lon="12.925196000"><ele>600.779000</ele><time>2009-07-28T06:45:33Z</time></trkpt><trkpt lat="43.522169000" lon="12.925172000"><ele>601.120000</ele><time>2009-07-28T06:45:35Z</time></trkpt><trkpt lat="43.522122000" lon="12.925151000"><ele>601.967000</ele><time>2009-07-28T06:45:39Z</time></trkpt><trkpt lat="43.522094000" lon="12.925137000"><ele>602.151000</ele><time>2009-07-28T06:45:41Z</time></trkpt><trkpt lat="43.522069000" lon="12.925077000"><ele>603.202000</ele><time>2009-07-28T06:45:45Z</time></trkpt><trkpt lat="43.522043000" lon="12.925062000"><ele>603.731000</ele><time>2009-07-28T06:45:47Z</time></trkpt><trkpt lat="43.522017000" lon="12.925010000"><ele>604.767000</ele><time>2009-07-28T06:45:51Z</time></trkpt><trkpt lat="43.522004000" lon="12.924991000"><ele>605.115000</ele><time>2009-07-28T06:45:53Z</time></trkpt><trkpt lat="43.521958000" lon="12.924947000"><ele>605.239000</ele><time>2009-07-28T06:45:57Z</time></trkpt><trkpt lat="43.521937000" lon="12.924930000"><ele>605.878000</ele><time>2009-07-28T06:45:59Z</time></trkpt><trkpt lat="43.521904000" lon="12.924876000"><ele>606.604000</ele><time>2009-07-28T06:46:03Z</time></trkpt><trkpt lat="43.521888000" lon="12.924854000"><ele>606.837000</ele><time>2009-07-28T06:46:05Z</time></trkpt><trkpt lat="43.521847000" lon="12.924836000"><ele>607.439000</ele><time>2009-07-28T06:46:09Z</time></trkpt><trkpt lat="43.521823000" lon="12.924820000"><ele>608.101000</ele><time>2009-07-28T06:46:11Z</time></trkpt><trkpt lat="43.521780000" lon="12.924765000"><ele>608.404000</ele><time>2009-07-28T06:46:15Z</time></trkpt><trkpt lat="43.521765000" lon="12.924742000"><ele>608.559000</ele><time>2009-07-28T06:46:17Z</time></trkpt><trkpt lat="43.521731000" lon="12.924708000"><ele>609.409000</ele><time>2009-07-28T06:46:21Z</time></trkpt><trkpt lat="43.521710000" lon="12.924683000"><ele>608.954000</ele><time>2009-07-28T06:46:23Z</time></trkpt><trkpt lat="43.521663000" lon="12.924629000"><ele>609.239000</ele><time>2009-07-28T06:46:27Z</time></trkpt><trkpt lat="43.521647000" lon="12.924600000"><ele>609.419000</ele><time>2009-07-28T06:46:29Z</time></trkpt><trkpt lat="43.521626000" lon="12.924545000"><ele>610.536000</ele><time>2009-07-28T06:46:33Z</time></trkpt><trkpt lat="43.521613000" lon="12.924519000"><ele>611.229000</ele><time>2009-07-28T06:46:35Z</time></trkpt><trkpt lat="43.521586000" lon="12.924478000"><ele>612.283000</ele><time>2009-07-28T06:46:39Z</time></trkpt><trkpt lat="43.521569000" lon="12.924456000"><ele>613.599000</ele><time>2009-07-28T06:46:41Z</time></trkpt><trkpt lat="43.521575000" lon="12.924452000"><ele>615.826000</ele><time>2009-07-28T06:46:45Z</time></trkpt><trkpt lat="43.521571000" lon="12.924450000"><ele>616.396000</ele><time>2009-07-28T06:46:47Z</time></trkpt><trkpt lat="43.521561000" lon="12.924431000"><ele>616.614000</ele><time>2009-07-28T06:46:51Z</time></trkpt><trkpt lat="43.521542000" lon="12.924409000"><ele>616.838000</ele><time>2009-07-28T06:46:53Z</time></trkpt><trkpt lat="43.521524000" lon="12.924363000"><ele>617.345000</ele><time>2009-07-28T06:46:57Z</time></trkpt><trkpt lat="43.521510000" lon="12.924338000"><ele>617.449000</ele><time>2009-07-28T06:46:59Z</time></trkpt><trkpt lat="43.521494000" lon="12.924334000"><ele>615.954000</ele><time>2009-07-28T06:47:03Z</time></trkpt><trkpt lat="43.521486000" lon="12.924311000"><ele>616.423000</ele><time>2009-07-28T06:47:05Z</time></trkpt><trkpt lat="43.521475000" lon="12.924308000"><ele>613.767000</ele><time>2009-07-28T06:47:09Z</time></trkpt><trkpt lat="43.521464000" lon="12.924298000"><ele>612.891000</ele><time>2009-07-28T06:47:11Z</time></trkpt><trkpt lat="43.521442000" lon="12.924268000"><ele>611.740000</ele><time>2009-07-28T06:47:15Z</time></trkpt><trkpt lat="43.521425000" lon="12.924246000"><ele>611.219000</ele><time>2009-07-28T06:47:17Z</time></trkpt><trkpt lat="43.521404000" lon="12.924199000"><ele>610.055000</ele><time>2009-07-28T06:47:21Z</time></trkpt><trkpt lat="43.521377000" lon="12.924197000"><ele>609.237000</ele><time>2009-07-28T06:47:23Z</time></trkpt><trkpt lat="43.521368000" lon="12.924196000"><ele>609.434000</ele><time>2009-07-28T06:47:27Z</time></trkpt><trkpt lat="43.521361000" lon="12.924194000"><ele>609.496000</ele><time>2009-07-28T06:47:29Z</time></trkpt><trkpt lat="43.521351000" lon="12.924187000"><ele>609.251000</ele><time>2009-07-28T06:47:33Z</time></trkpt><trkpt lat="43.521349000" lon="12.924185000"><ele>609.243000</ele><time>2009-07-28T06:47:35Z</time></trkpt><trkpt lat="43.521346000" lon="12.924180000"><ele>609.259000</ele><time>2009-07-28T06:47:39Z</time></trkpt><trkpt lat="43.521336000" lon="12.924152000"><ele>609.933000</ele><time>2009-07-28T06:47:41Z</time></trkpt><trkpt lat="43.521316000" lon="12.924138000"><ele>609.606000</ele><time>2009-07-28T06:47:45Z</time></trkpt><trkpt lat="43.521305000" lon="12.924132000"><ele>609.450000</ele><time>2009-07-28T06:47:47Z</time></trkpt><trkpt lat="43.521286000" lon="12.924129000"><ele>609.997000</ele><time>2009-07-28T06:47:51Z</time></trkpt><trkpt lat="43.521287000" lon="12.924130000"><ele>609.936000</ele><time>2009-07-28T06:47:53Z</time></trkpt><trkpt lat="43.521276000" lon="12.924107000"><ele>610.199000</ele><time>2009-07-28T06:47:57Z</time></trkpt><trkpt lat="43.521262000" lon="12.924093000"><ele>610.075000</ele><time>2009-07-28T06:47:59Z</time></trkpt><trkpt lat="43.521236000" lon="12.924033000"><ele>609.872000</ele><time>2009-07-28T06:48:03Z</time></trkpt><trkpt lat="43.521220000" lon="12.924014000"><ele>609.988000</ele><time>2009-07-28T06:48:05Z</time></trkpt><trkpt lat="43.521185000" lon="12.923949000"><ele>609.449000</ele><time>2009-07-28T06:48:09Z</time></trkpt><trkpt lat="43.521170000" lon="12.923934000"><ele>609.113000</ele><time>2009-07-28T06:48:11Z</time></trkpt><trkpt lat="43.521154000" lon="12.923908000"><ele>609.580000</ele><time>2009-07-28T06:48:15Z</time></trkpt><trkpt lat="43.521147000" lon="12.923901000"><ele>609.921000</ele><time>2009-07-28T06:48:17Z</time></trkpt><trkpt lat="43.521149000" lon="12.923902000"><ele>609.857000</ele><time>2009-07-28T06:48:21Z</time></trkpt><trkpt lat="43.521148000" lon="12.923901000"><ele>609.845000</ele><time>2009-07-28T06:48:23Z</time></trkpt><trkpt lat="43.521149000" lon="12.923901000"><ele>609.820000</ele><time>2009-07-28T06:48:27Z</time></trkpt><trkpt lat="43.521138000" lon="12.923889000"><ele>609.846000</ele><time>2009-07-28T06:48:29Z</time></trkpt><trkpt lat="43.521111000" lon="12.923866000"><ele>609.675000</ele><time>2009-07-28T06:48:33Z</time></trkpt><trkpt lat="43.521102000" lon="12.923860000"><ele>609.443000</ele><time>2009-07-28T06:48:35Z</time></trkpt><trkpt lat="43.521074000" lon="12.923823000"><ele>608.575000</ele><time>2009-07-28T06:48:39Z</time></trkpt><trkpt lat="43.521057000" lon="12.923811000"><ele>608.315000</ele><time>2009-07-28T06:48:41Z</time></trkpt><trkpt lat="43.521025000" lon="12.923779000"><ele>607.920000</ele><time>2009-07-28T06:48:45Z</time></trkpt><trkpt lat="43.521023000" lon="12.923768000"><ele>607.983000</ele><time>2009-07-28T06:48:47Z</time></trkpt><trkpt lat="43.521020000" lon="12.923764000"><ele>608.146000</ele><time>2009-07-28T06:48:51Z</time></trkpt><trkpt lat="43.521015000" lon="12.923752000"><ele>608.170000</ele><time>2009-07-28T06:48:53Z</time></trkpt><trkpt lat="43.520998000" lon="12.923731000"><ele>608.204000</ele><time>2009-07-28T06:48:57Z</time></trkpt><trkpt lat="43.520994000" lon="12.923712000"><ele>608.663000</ele><time>2009-07-28T06:48:59Z</time></trkpt><trkpt lat="43.520983000" lon="12.923703000"><ele>608.137000</ele><time>2009-07-28T06:49:03Z</time></trkpt><trkpt lat="43.520983000" lon="12.923698000"><ele>607.810000</ele><time>2009-07-28T06:49:05Z</time></trkpt><trkpt lat="43.520978000" lon="12.923679000"><ele>608.415000</ele><time>2009-07-28T06:49:09Z</time></trkpt><trkpt lat="43.520976000" lon="12.923678000"><ele>608.409000</ele><time>2009-07-28T06:49:11Z</time></trkpt><trkpt lat="43.520972000" lon="12.923673000"><ele>608.440000</ele><time>2009-07-28T06:49:15Z</time></trkpt><trkpt lat="43.520971000" lon="12.923672000"><ele>608.458000</ele><time>2009-07-28T06:49:17Z</time></trkpt><trkpt lat="43.520971000" lon="12.923672000"><ele>608.486000</ele><time>2009-07-28T06:49:21Z</time></trkpt><trkpt lat="43.520971000" lon="12.923672000"><ele>608.498000</ele><time>2009-07-28T06:49:23Z</time></trkpt><trkpt lat="43.520970000" lon="12.923670000"><ele>608.539000</ele><time>2009-07-28T06:49:27Z</time></trkpt><trkpt lat="43.520971000" lon="12.923668000"><ele>608.483000</ele><time>2009-07-28T06:49:29Z</time></trkpt><trkpt lat="43.520970000" lon="12.923650000"><ele>608.871000</ele><time>2009-07-28T06:49:33Z</time></trkpt><trkpt lat="43.520970000" lon="12.923649000"><ele>608.867000</ele><time>2009-07-28T06:49:35Z</time></trkpt><trkpt lat="43.520966000" lon="12.923645000"><ele>608.884000</ele><time>2009-07-28T06:49:39Z</time></trkpt><trkpt lat="43.520966000" lon="12.923645000"><ele>608.869000</ele><time>2009-07-28T06:49:41Z</time></trkpt><trkpt lat="43.520966000" lon="12.923644000"><ele>608.844000</ele><time>2009-07-28T06:49:45Z</time></trkpt><trkpt lat="43.520967000" lon="12.923646000"><ele>608.846000</ele><time>2009-07-28T06:49:47Z</time></trkpt><trkpt lat="43.520967000" lon="12.923688000"><ele>608.829000</ele><time>2009-07-28T06:49:51Z</time></trkpt><trkpt lat="43.520967000" lon="12.923683000"><ele>609.357000</ele><time>2009-07-28T06:49:53Z</time></trkpt><trkpt lat="43.520974000" lon="12.923683000"><ele>608.902000</ele><time>2009-07-28T06:49:57Z</time></trkpt><trkpt lat="43.520975000" lon="12.923684000"><ele>608.858000</ele><time>2009-07-28T06:49:59Z</time></trkpt><trkpt lat="43.520975000" lon="12.923684000"><ele>608.811000</ele><time>2009-07-28T06:50:03Z</time></trkpt><trkpt lat="43.520976000" lon="12.923686000"><ele>608.800000</ele><time>2009-07-28T06:50:05Z</time></trkpt><trkpt lat="43.520978000" lon="12.923687000"><ele>608.777000</ele><time>2009-07-28T06:50:09Z</time></trkpt><trkpt lat="43.520978000" lon="12.923687000"><ele>608.786000</ele><time>2009-07-28T06:50:11Z</time></trkpt><trkpt lat="43.520978000" lon="12.923688000"><ele>608.792000</ele><time>2009-07-28T06:50:15Z</time></trkpt><trkpt lat="43.520978000" lon="12.923688000"><ele>608.792000</ele><time>2009-07-28T06:50:17Z</time></trkpt><trkpt lat="43.520977000" lon="12.923688000"><ele>608.774000</ele><time>2009-07-28T06:50:21Z</time></trkpt><trkpt lat="43.520977000" lon="12.923687000"><ele>608.769000</ele><time>2009-07-28T06:50:23Z</time></trkpt><trkpt lat="43.520977000" lon="12.923687000"><ele>608.768000</ele><time>2009-07-28T06:50:27Z</time></trkpt><trkpt lat="43.520977000" lon="12.923687000"><ele>608.765000</ele><time>2009-07-28T06:50:29Z</time></trkpt><trkpt lat="43.520977000" lon="12.923686000"><ele>608.766000</ele><time>2009-07-28T06:50:33Z</time></trkpt><trkpt lat="43.520977000" lon="12.923686000"><ele>608.778000</ele><time>2009-07-28T06:50:35Z</time></trkpt><trkpt lat="43.520977000" lon="12.923687000"><ele>608.797000</ele><time>2009-07-28T06:50:39Z</time></trkpt><trkpt lat="43.520977000" lon="12.923687000"><ele>608.789000</ele><time>2009-07-28T06:50:41Z</time></trkpt><trkpt lat="43.520976000" lon="12.923686000"><ele>608.714000</ele><time>2009-07-28T06:50:45Z</time></trkpt><trkpt lat="43.520975000" lon="12.923686000"><ele>608.647000</ele><time>2009-07-28T06:50:47Z</time></trkpt><trkpt lat="43.520958000" lon="12.923687000"><ele>608.600000</ele><time>2009-07-28T06:50:51Z</time></trkpt><trkpt lat="43.520949000" lon="12.923680000"><ele>607.822000</ele><time>2009-07-28T06:50:53Z</time></trkpt><trkpt lat="43.520936000" lon="12.923668000"><ele>607.611000</ele><time>2009-07-28T06:50:57Z</time></trkpt><trkpt lat="43.520936000" lon="12.923668000"><ele>607.595000</ele><time>2009-07-28T06:50:59Z</time></trkpt><trkpt lat="43.520934000" lon="12.923666000"><ele>607.564000</ele><time>2009-07-28T06:51:03Z</time></trkpt><trkpt lat="43.520929000" lon="12.923661000"><ele>607.130000</ele><time>2009-07-28T06:51:05Z</time></trkpt><trkpt lat="43.520911000" lon="12.923650000"><ele>605.804000</ele><time>2009-07-28T06:51:09Z</time></trkpt><trkpt lat="43.520900000" lon="12.923652000"><ele>605.283000</ele><time>2009-07-28T06:51:11Z</time></trkpt><trkpt lat="43.520866000" lon="12.923653000"><ele>603.239000</ele><time>2009-07-28T06:51:15Z</time></trkpt><trkpt lat="43.520850000" lon="12.923637000"><ele>602.712000</ele><time>2009-07-28T06:51:17Z</time></trkpt><trkpt lat="43.520813000" lon="12.923630000"><ele>601.386000</ele><time>2009-07-28T06:51:21Z</time></trkpt><trkpt lat="43.520796000" lon="12.923616000"><ele>601.297000</ele><time>2009-07-28T06:51:23Z</time></trkpt><trkpt lat="43.520751000" lon="12.923611000"><ele>599.101000</ele><time>2009-07-28T06:51:27Z</time></trkpt><trkpt lat="43.520726000" lon="12.923621000"><ele>597.932000</ele><time>2009-07-28T06:51:29Z</time></trkpt><trkpt lat="43.520677000" lon="12.923616000"><ele>596.684000</ele><time>2009-07-28T06:51:33Z</time></trkpt><trkpt lat="43.520647000" lon="12.923614000"><ele>596.191000</ele><time>2009-07-28T06:51:35Z</time></trkpt><trkpt lat="43.520614000" lon="12.923613000"><ele>595.341000</ele><time>2009-07-28T06:51:39Z</time></trkpt><trkpt lat="43.520592000" lon="12.923614000"><ele>594.238000</ele><time>2009-07-28T06:51:41Z</time></trkpt><trkpt lat="43.520540000" lon="12.923632000"><ele>592.388000</ele><time>2009-07-28T06:51:45Z</time></trkpt><trkpt lat="43.520505000" lon="12.923650000"><ele>590.611000</ele><time>2009-07-28T06:51:47Z</time></trkpt><trkpt lat="43.520454000" lon="12.923665000"><ele>588.208000</ele><time>2009-07-28T06:51:51Z</time></trkpt><trkpt lat="43.520421000" lon="12.923678000"><ele>587.539000</ele><time>2009-07-28T06:51:53Z</time></trkpt><trkpt lat="43.520375000" lon="12.923688000"><ele>586.182000</ele><time>2009-07-28T06:51:57Z</time></trkpt><trkpt lat="43.520360000" lon="12.923678000"><ele>585.851000</ele><time>2009-07-28T06:51:59Z</time></trkpt><trkpt lat="43.520313000" lon="12.923686000"><ele>583.886000</ele><time>2009-07-28T06:52:03Z</time></trkpt><trkpt lat="43.520293000" lon="12.923706000"><ele>583.468000</ele><time>2009-07-28T06:52:05Z</time></trkpt><trkpt lat="43.520254000" lon="12.923711000"><ele>582.149000</ele><time>2009-07-28T06:52:09Z</time></trkpt><trkpt lat="43.520234000" lon="12.923706000"><ele>582.044000</ele><time>2009-07-28T06:52:11Z</time></trkpt><trkpt lat="43.520201000" lon="12.923693000"><ele>582.045000</ele><time>2009-07-28T06:52:15Z</time></trkpt><trkpt lat="43.520178000" lon="12.923686000"><ele>581.242000</ele><time>2009-07-28T06:52:17Z</time></trkpt><trkpt lat="43.520122000" lon="12.923700000"><ele>580.842000</ele><time>2009-07-28T06:52:21Z</time></trkpt><trkpt lat="43.520099000" lon="12.923703000"><ele>580.046000</ele><time>2009-07-28T06:52:23Z</time></trkpt><trkpt lat="43.520059000" lon="12.923708000"><ele>579.351000</ele><time>2009-07-28T06:52:27Z</time></trkpt><trkpt lat="43.520046000" lon="12.923701000"><ele>578.612000</ele><time>2009-07-28T06:52:29Z</time></trkpt><trkpt lat="43.520010000" lon="12.923684000"><ele>578.132000</ele><time>2009-07-28T06:52:33Z</time></trkpt><trkpt lat="43.519989000" lon="12.923688000"><ele>577.975000</ele><time>2009-07-28T06:52:35Z</time></trkpt><trkpt lat="43.519947000" lon="12.923690000"><ele>577.137000</ele><time>2009-07-28T06:52:39Z</time></trkpt><trkpt lat="43.519920000" lon="12.923701000"><ele>576.641000</ele><time>2009-07-28T06:52:41Z</time></trkpt><trkpt lat="43.519883000" lon="12.923710000"><ele>575.779000</ele><time>2009-07-28T06:52:45Z</time></trkpt><trkpt lat="43.519855000" lon="12.923738000"><ele>575.095000</ele><time>2009-07-28T06:52:47Z</time></trkpt><trkpt lat="43.519807000" lon="12.923772000"><ele>574.277000</ele><time>2009-07-28T06:52:51Z</time></trkpt><trkpt lat="43.519781000" lon="12.923781000"><ele>574.327000</ele><time>2009-07-28T06:52:53Z</time></trkpt><trkpt lat="43.519741000" lon="12.923817000"><ele>574.207000</ele><time>2009-07-28T06:52:57Z</time></trkpt><trkpt lat="43.519728000" lon="12.923825000"><ele>573.336000</ele><time>2009-07-28T06:52:59Z</time></trkpt><trkpt lat="43.519685000" lon="12.923836000"><ele>572.701000</ele><time>2009-07-28T06:53:03Z</time></trkpt><trkpt lat="43.519664000" lon="12.923854000"><ele>572.533000</ele><time>2009-07-28T06:53:05Z</time></trkpt><trkpt lat="43.519604000" lon="12.923896000"><ele>571.980000</ele><time>2009-07-28T06:53:09Z</time></trkpt><trkpt lat="43.519585000" lon="12.923896000"><ele>571.791000</ele><time>2009-07-28T06:53:11Z</time></trkpt><trkpt lat="43.519553000" lon="12.923905000"><ele>571.660000</ele><time>2009-07-28T06:53:15Z</time></trkpt><trkpt lat="43.519540000" lon="12.923909000"><ele>571.507000</ele><time>2009-07-28T06:53:17Z</time></trkpt><trkpt lat="43.519502000" lon="12.923930000"><ele>570.690000</ele><time>2009-07-28T06:53:21Z</time></trkpt><trkpt lat="43.519486000" lon="12.923938000"><ele>570.642000</ele><time>2009-07-28T06:53:23Z</time></trkpt><trkpt lat="43.519460000" lon="12.923954000"><ele>570.720000</ele><time>2009-07-28T06:53:27Z</time></trkpt><trkpt lat="43.519447000" lon="12.923967000"><ele>570.697000</ele><time>2009-07-28T06:53:29Z</time></trkpt><trkpt lat="43.519420000" lon="12.923993000"><ele>570.659000</ele><time>2009-07-28T06:53:33Z</time></trkpt><trkpt lat="43.519407000" lon="12.924006000"><ele>569.960000</ele><time>2009-07-28T06:53:35Z</time></trkpt><trkpt lat="43.519360000" lon="12.924033000"><ele>568.591000</ele><time>2009-07-28T06:53:39Z</time></trkpt><trkpt lat="43.519342000" lon="12.924036000"><ele>568.453000</ele><time>2009-07-28T06:53:41Z</time></trkpt><trkpt lat="43.519319000" lon="12.924039000"><ele>567.014000</ele><time>2009-07-28T06:53:45Z</time></trkpt><trkpt lat="43.519325000" lon="12.924016000"><ele>565.901000</ele><time>2009-07-28T06:53:47Z</time></trkpt><trkpt lat="43.519306000" lon="12.924009000"><ele>565.122000</ele><time>2009-07-28T06:53:51Z</time></trkpt><trkpt lat="43.519299000" lon="12.923998000"><ele>564.783000</ele><time>2009-07-28T06:53:53Z</time></trkpt><trkpt lat="43.519280000" lon="12.923981000"><ele>564.260000</ele><time>2009-07-28T06:53:57Z</time></trkpt><trkpt lat="43.519268000" lon="12.923969000"><ele>563.541000</ele><time>2009-07-28T06:53:59Z</time></trkpt><trkpt lat="43.519231000" lon="12.923970000"><ele>562.604000</ele><time>2009-07-28T06:54:03Z</time></trkpt><trkpt lat="43.519205000" lon="12.923966000"><ele>562.274000</ele><time>2009-07-28T06:54:05Z</time></trkpt><trkpt lat="43.519167000" lon="12.923981000"><ele>563.131000</ele><time>2009-07-28T06:54:09Z</time></trkpt><trkpt lat="43.519167000" lon="12.923981000"><ele>563.054000</ele><time>2009-07-28T06:54:11Z</time></trkpt><trkpt lat="43.519163000" lon="12.923977000"><ele>562.972000</ele><time>2009-07-28T06:54:15Z</time></trkpt><trkpt lat="43.519160000" lon="12.923975000"><ele>562.957000</ele><time>2009-07-28T06:54:17Z</time></trkpt><trkpt lat="43.519131000" lon="12.923961000"><ele>561.465000</ele><time>2009-07-28T06:54:21Z</time></trkpt><trkpt lat="43.519115000" lon="12.923966000"><ele>561.375000</ele><time>2009-07-28T06:54:23Z</time></trkpt><trkpt lat="43.519101000" lon="12.923967000"><ele>561.232000</ele><time>2009-07-28T06:54:27Z</time></trkpt><trkpt lat="43.519100000" lon="12.923967000"><ele>561.191000</ele><time>2009-07-28T06:54:29Z</time></trkpt><trkpt lat="43.519100000" lon="12.923967000"><ele>561.181000</ele><time>2009-07-28T06:54:33Z</time></trkpt><trkpt lat="43.519096000" lon="12.923963000"><ele>561.185000</ele><time>2009-07-28T06:54:35Z</time></trkpt><trkpt lat="43.519078000" lon="12.923947000"><ele>560.907000</ele><time>2009-07-28T06:54:39Z</time></trkpt><trkpt lat="43.519058000" lon="12.923942000"><ele>560.731000</ele><time>2009-07-28T06:54:41Z</time></trkpt><trkpt lat="43.519020000" lon="12.923957000"><ele>559.639000</ele><time>2009-07-28T06:54:45Z</time></trkpt><trkpt lat="43.518997000" lon="12.923954000"><ele>559.664000</ele><time>2009-07-28T06:54:47Z</time></trkpt><trkpt lat="43.518969000" lon="12.923948000"><ele>559.917000</ele><time>2009-07-28T06:54:51Z</time></trkpt><trkpt lat="43.518966000" lon="12.923952000"><ele>559.451000</ele><time>2009-07-28T06:54:53Z</time></trkpt><trkpt lat="43.518969000" lon="12.923955000"><ele>559.526000</ele><time>2009-07-28T06:54:57Z</time></trkpt><trkpt lat="43.518959000" lon="12.923945000"><ele>559.484000</ele><time>2009-07-28T06:54:59Z</time></trkpt><trkpt lat="43.518918000" lon="12.923926000"><ele>558.958000</ele><time>2009-07-28T06:55:03Z</time></trkpt><trkpt lat="43.518900000" lon="12.923905000"><ele>558.205000</ele><time>2009-07-28T06:55:05Z</time></trkpt><trkpt lat="43.518852000" lon="12.923897000"><ele>557.523000</ele><time>2009-07-28T06:55:09Z</time></trkpt><trkpt lat="43.518832000" lon="12.923910000"><ele>556.931000</ele><time>2009-07-28T06:55:11Z</time></trkpt><trkpt lat="43.518796000" lon="12.923902000"><ele>556.148000</ele><time>2009-07-28T06:55:15Z</time></trkpt><trkpt lat="43.518798000" lon="12.923894000"><ele>556.377000</ele><time>2009-07-28T06:55:17Z</time></trkpt><trkpt lat="43.518778000" lon="12.923861000"><ele>556.025000</ele><time>2009-07-28T06:55:21Z</time></trkpt><trkpt lat="43.518758000" lon="12.923840000"><ele>555.574000</ele><time>2009-07-28T06:55:23Z</time></trkpt><trkpt lat="43.518747000" lon="12.923855000"><ele>555.386000</ele><time>2009-07-28T06:55:27Z</time></trkpt><trkpt lat="43.518741000" lon="12.923858000"><ele>555.409000</ele><time>2009-07-28T06:55:29Z</time></trkpt><trkpt lat="43.518737000" lon="12.923831000"><ele>554.819000</ele><time>2009-07-28T06:55:33Z</time></trkpt><trkpt lat="43.518725000" lon="12.923813000"><ele>554.522000</ele><time>2009-07-28T06:55:35Z</time></trkpt><trkpt lat="43.518711000" lon="12.923802000"><ele>554.560000</ele><time>2009-07-28T06:55:39Z</time></trkpt><trkpt lat="43.518709000" lon="12.923804000"><ele>554.472000</ele><time>2009-07-28T06:55:41Z</time></trkpt><trkpt lat="43.518681000" lon="12.923785000"><ele>554.722000</ele><time>2009-07-28T06:55:45Z</time></trkpt><trkpt lat="43.518663000" lon="12.923771000"><ele>554.563000</ele><time>2009-07-28T06:55:47Z</time></trkpt><trkpt lat="43.518606000" lon="12.923765000"><ele>554.959000</ele><time>2009-07-28T06:55:51Z</time></trkpt><trkpt lat="43.518583000" lon="12.923764000"><ele>554.266000</ele><time>2009-07-28T06:55:53Z</time></trkpt><trkpt lat="43.518528000" lon="12.923761000"><ele>555.073000</ele><time>2009-07-28T06:55:57Z</time></trkpt><trkpt lat="43.518501000" lon="12.923759000"><ele>555.455000</ele><time>2009-07-28T06:55:59Z</time></trkpt><trkpt lat="43.518453000" lon="12.923778000"><ele>555.068000</ele><time>2009-07-28T06:56:03Z</time></trkpt><trkpt lat="43.518432000" lon="12.923783000"><ele>555.679000</ele><time>2009-07-28T06:56:05Z</time></trkpt><trkpt lat="43.518385000" lon="12.923809000"><ele>556.208000</ele><time>2009-07-28T06:56:09Z</time></trkpt><trkpt lat="43.518362000" lon="12.923818000"><ele>556.787000</ele><time>2009-07-28T06:56:11Z</time></trkpt><trkpt lat="43.518326000" lon="12.923831000"><ele>556.674000</ele><time>2009-07-28T06:56:15Z</time></trkpt><trkpt lat="43.518302000" lon="12.923837000"><ele>556.459000</ele><time>2009-07-28T06:56:17Z</time></trkpt><trkpt lat="43.518265000" lon="12.923846000"><ele>556.730000</ele><time>2009-07-28T06:56:21Z</time></trkpt><trkpt lat="43.518241000" lon="12.923861000"><ele>557.499000</ele><time>2009-07-28T06:56:23Z</time></trkpt><trkpt lat="43.518203000" lon="12.923858000"><ele>557.011000</ele><time>2009-07-28T06:56:27Z</time></trkpt><trkpt lat="43.518190000" lon="12.923856000"><ele>557.224000</ele><time>2009-07-28T06:56:29Z</time></trkpt><trkpt lat="43.518131000" lon="12.923868000"><ele>557.354000</ele><time>2009-07-28T06:56:33Z</time></trkpt><trkpt lat="43.518107000" lon="12.923884000"><ele>556.938000</ele><time>2009-07-28T06:56:35Z</time></trkpt><trkpt lat="43.518056000" lon="12.923913000"><ele>556.253000</ele><time>2009-07-28T06:56:39Z</time></trkpt><trkpt lat="43.518040000" lon="12.923927000"><ele>555.392000</ele><time>2009-07-28T06:56:41Z</time></trkpt><trkpt lat="43.517996000" lon="12.923960000"><ele>555.556000</ele><time>2009-07-28T06:56:45Z</time></trkpt><trkpt lat="43.517970000" lon="12.923966000"><ele>555.610000</ele><time>2009-07-28T06:56:47Z</time></trkpt><trkpt lat="43.517930000" lon="12.923986000"><ele>555.142000</ele><time>2009-07-28T06:56:51Z</time></trkpt><trkpt lat="43.517912000" lon="12.923993000"><ele>555.573000</ele><time>2009-07-28T06:56:53Z</time></trkpt><trkpt lat="43.517875000" lon="12.923996000"><ele>555.477000</ele><time>2009-07-28T06:56:57Z</time></trkpt><trkpt lat="43.517858000" lon="12.923998000"><ele>556.031000</ele><time>2009-07-28T06:56:59Z</time></trkpt><trkpt lat="43.517808000" lon="12.924026000"><ele>556.161000</ele><time>2009-07-28T06:57:03Z</time></trkpt><trkpt lat="43.517796000" lon="12.924024000"><ele>556.145000</ele><time>2009-07-28T06:57:05Z</time></trkpt><trkpt lat="43.517748000" lon="12.924038000"><ele>556.208000</ele><time>2009-07-28T06:57:09Z</time></trkpt><trkpt lat="43.517728000" lon="12.924042000"><ele>556.436000</ele><time>2009-07-28T06:57:11Z</time></trkpt><trkpt lat="43.517685000" lon="12.924061000"><ele>556.959000</ele><time>2009-07-28T06:57:15Z</time></trkpt><trkpt lat="43.517661000" lon="12.924069000"><ele>557.681000</ele><time>2009-07-28T06:57:17Z</time></trkpt><trkpt lat="43.517618000" lon="12.924096000"><ele>558.126000</ele><time>2009-07-28T06:57:21Z</time></trkpt><trkpt lat="43.517597000" lon="12.924095000"><ele>558.610000</ele><time>2009-07-28T06:57:23Z</time></trkpt><trkpt lat="43.517549000" lon="12.924107000"><ele>558.360000</ele><time>2009-07-28T06:57:27Z</time></trkpt><trkpt lat="43.517522000" lon="12.924115000"><ele>558.479000</ele><time>2009-07-28T06:57:29Z</time></trkpt><trkpt lat="43.517473000" lon="12.924142000"><ele>558.375000</ele><time>2009-07-28T06:57:33Z</time></trkpt><trkpt lat="43.517467000" lon="12.924142000"><ele>558.549000</ele><time>2009-07-28T06:57:35Z</time></trkpt><trkpt lat="43.517438000" lon="12.924159000"><ele>559.248000</ele><time>2009-07-28T06:57:39Z</time></trkpt><trkpt lat="43.517412000" lon="12.924172000"><ele>559.929000</ele><time>2009-07-28T06:57:41Z</time></trkpt><trkpt lat="43.517380000" lon="12.924182000"><ele>560.476000</ele><time>2009-07-28T06:57:45Z</time></trkpt><trkpt lat="43.517365000" lon="12.924193000"><ele>560.679000</ele><time>2009-07-28T06:57:47Z</time></trkpt><trkpt lat="43.517321000" lon="12.924220000"><ele>560.965000</ele><time>2009-07-28T06:57:51Z</time></trkpt><trkpt lat="43.517304000" lon="12.924218000"><ele>561.357000</ele><time>2009-07-28T06:57:53Z</time></trkpt><trkpt lat="43.517280000" lon="12.924206000"><ele>561.888000</ele><time>2009-07-28T06:57:57Z</time></trkpt><trkpt lat="43.517262000" lon="12.924202000"><ele>561.867000</ele><time>2009-07-28T06:57:59Z</time></trkpt><trkpt lat="43.517212000" lon="12.924193000"><ele>562.031000</ele><time>2009-07-28T06:58:03Z</time></trkpt><trkpt lat="43.517188000" lon="12.924187000"><ele>562.035000</ele><time>2009-07-28T06:58:05Z</time></trkpt><trkpt lat="43.517150000" lon="12.924175000"><ele>562.580000</ele><time>2009-07-28T06:58:09Z</time></trkpt><trkpt lat="43.517128000" lon="12.924175000"><ele>563.009000</ele><time>2009-07-28T06:58:11Z</time></trkpt><trkpt lat="43.517105000" lon="12.924138000"><ele>562.752000</ele><time>2009-07-28T06:58:15Z</time></trkpt><trkpt lat="43.517086000" lon="12.924130000"><ele>562.994000</ele><time>2009-07-28T06:58:17Z</time></trkpt><trkpt lat="43.517053000" lon="12.924102000"><ele>563.033000</ele><time>2009-07-28T06:58:21Z</time></trkpt><trkpt lat="43.517031000" lon="12.924094000"><ele>563.167000</ele><time>2009-07-28T06:58:23Z</time></trkpt><trkpt lat="43.516998000" lon="12.924070000"><ele>563.512000</ele><time>2009-07-28T06:58:27Z</time></trkpt><trkpt lat="43.516984000" lon="12.924060000"><ele>563.757000</ele><time>2009-07-28T06:58:29Z</time></trkpt><trkpt lat="43.516954000" lon="12.924029000"><ele>565.260000</ele><time>2009-07-28T06:58:33Z</time></trkpt><trkpt lat="43.516944000" lon="12.924008000"><ele>565.959000</ele><time>2009-07-28T06:58:35Z</time></trkpt><trkpt lat="43.516904000" lon="12.924001000"><ele>567.068000</ele><time>2009-07-28T06:58:39Z</time></trkpt><trkpt lat="43.516890000" lon="12.923985000"><ele>568.360000</ele><time>2009-07-28T06:58:41Z</time></trkpt><trkpt lat="43.516849000" lon="12.923975000"><ele>570.137000</ele><time>2009-07-28T06:58:45Z</time></trkpt><trkpt lat="43.516822000" lon="12.923967000"><ele>570.272000</ele><time>2009-07-28T06:58:47Z</time></trkpt><trkpt lat="43.516796000" lon="12.923955000"><ele>570.691000</ele><time>2009-07-28T06:58:51Z</time></trkpt><trkpt lat="43.516784000" lon="12.923944000"><ele>571.373000</ele><time>2009-07-28T06:58:53Z</time></trkpt><trkpt lat="43.516762000" lon="12.923912000"><ele>570.938000</ele><time>2009-07-28T06:58:57Z</time></trkpt><trkpt lat="43.516757000" lon="12.923888000"><ele>571.294000</ele><time>2009-07-28T06:58:59Z</time></trkpt><trkpt lat="43.516724000" lon="12.923862000"><ele>572.633000</ele><time>2009-07-28T06:59:03Z</time></trkpt><trkpt lat="43.516708000" lon="12.923848000"><ele>573.067000</ele><time>2009-07-28T06:59:05Z</time></trkpt><trkpt lat="43.516667000" lon="12.923826000"><ele>574.152000</ele><time>2009-07-28T06:59:09Z</time></trkpt><trkpt lat="43.516657000" lon="12.923816000"><ele>574.160000</ele><time>2009-07-28T06:59:11Z</time></trkpt><trkpt lat="43.516626000" lon="12.923805000"><ele>575.275000</ele><time>2009-07-28T06:59:15Z</time></trkpt><trkpt lat="43.516610000" lon="12.923798000"><ele>575.790000</ele><time>2009-07-28T06:59:17Z</time></trkpt><trkpt lat="43.516565000" lon="12.923803000"><ele>575.974000</ele><time>2009-07-28T06:59:21Z</time></trkpt><trkpt lat="43.516550000" lon="12.923790000"><ele>576.368000</ele><time>2009-07-28T06:59:23Z</time></trkpt><trkpt lat="43.516518000" lon="12.923803000"><ele>577.940000</ele><time>2009-07-28T06:59:27Z</time></trkpt><trkpt lat="43.516506000" lon="12.923798000"><ele>578.629000</ele><time>2009-07-28T06:59:29Z</time></trkpt><trkpt lat="43.516481000" lon="12.923799000"><ele>578.874000</ele><time>2009-07-28T06:59:33Z</time></trkpt><trkpt lat="43.516475000" lon="12.923794000"><ele>579.091000</ele><time>2009-07-28T06:59:35Z</time></trkpt><trkpt lat="43.516436000" lon="12.923812000"><ele>580.176000</ele><time>2009-07-28T06:59:39Z</time></trkpt><trkpt lat="43.516426000" lon="12.923813000"><ele>580.365000</ele><time>2009-07-28T06:59:41Z</time></trkpt><trkpt lat="43.516414000" lon="12.923809000"><ele>580.772000</ele><time>2009-07-28T06:59:45Z</time></trkpt><trkpt lat="43.516403000" lon="12.923800000"><ele>581.278000</ele><time>2009-07-28T06:59:47Z</time></trkpt><trkpt lat="43.516380000" lon="12.923793000"><ele>581.775000</ele><time>2009-07-28T06:59:51Z</time></trkpt><trkpt lat="43.516369000" lon="12.923800000"><ele>582.623000</ele><time>2009-07-28T06:59:53Z</time></trkpt><trkpt lat="43.516339000" lon="12.923826000"><ele>582.719000</ele><time>2009-07-28T06:59:57Z</time></trkpt><trkpt lat="43.516328000" lon="12.923828000"><ele>583.044000</ele><time>2009-07-28T06:59:59Z</time></trkpt><trkpt lat="43.516294000" lon="12.923836000"><ele>584.052000</ele><time>2009-07-28T07:00:03Z</time></trkpt><trkpt lat="43.516273000" lon="12.923843000"><ele>584.328000</ele><time>2009-07-28T07:00:05Z</time></trkpt><trkpt lat="43.516244000" lon="12.923854000"><ele>584.811000</ele><time>2009-07-28T07:00:09Z</time></trkpt><trkpt lat="43.516224000" lon="12.923849000"><ele>584.985000</ele><time>2009-07-28T07:00:11Z</time></trkpt><trkpt lat="43.516204000" lon="12.923838000"><ele>585.909000</ele><time>2009-07-28T07:00:15Z</time></trkpt><trkpt lat="43.516190000" lon="12.923835000"><ele>586.399000</ele><time>2009-07-28T07:00:17Z</time></trkpt><trkpt lat="43.516168000" lon="12.923825000"><ele>587.164000</ele><time>2009-07-28T07:00:21Z</time></trkpt><trkpt lat="43.516148000" lon="12.923826000"><ele>587.618000</ele><time>2009-07-28T07:00:23Z</time></trkpt><trkpt lat="43.516115000" lon="12.923822000"><ele>587.725000</ele><time>2009-07-28T07:00:27Z</time></trkpt><trkpt lat="43.516102000" lon="12.923820000"><ele>588.097000</ele><time>2009-07-28T07:00:29Z</time></trkpt><trkpt lat="43.516056000" lon="12.923825000"><ele>588.953000</ele><time>2009-07-28T07:00:33Z</time></trkpt><trkpt lat="43.516034000" lon="12.923825000"><ele>589.232000</ele><time>2009-07-28T07:00:35Z</time></trkpt><trkpt lat="43.515996000" lon="12.923825000"><ele>589.555000</ele><time>2009-07-28T07:00:39Z</time></trkpt><trkpt lat="43.515965000" lon="12.923851000"><ele>589.413000</ele><time>2009-07-28T07:00:41Z</time></trkpt><trkpt lat="43.515930000" lon="12.923854000"><ele>589.551000</ele><time>2009-07-28T07:00:45Z</time></trkpt><trkpt lat="43.515922000" lon="12.923831000"><ele>590.880000</ele><time>2009-07-28T07:00:47Z</time></trkpt><trkpt lat="43.515890000" lon="12.923841000"><ele>591.379000</ele><time>2009-07-28T07:00:51Z</time></trkpt><trkpt lat="43.515867000" lon="12.923849000"><ele>591.271000</ele><time>2009-07-28T07:00:53Z</time></trkpt><trkpt lat="43.515842000" lon="12.923842000"><ele>591.768000</ele><time>2009-07-28T07:00:57Z</time></trkpt><trkpt lat="43.515821000" lon="12.923853000"><ele>592.039000</ele><time>2009-07-28T07:00:59Z</time></trkpt><trkpt lat="43.515773000" lon="12.923845000"><ele>592.830000</ele><time>2009-07-28T07:01:03Z</time></trkpt><trkpt lat="43.515754000" lon="12.923836000"><ele>593.281000</ele><time>2009-07-28T07:01:05Z</time></trkpt><trkpt lat="43.515705000" lon="12.923827000"><ele>593.590000</ele><time>2009-07-28T07:01:09Z</time></trkpt><trkpt lat="43.515681000" lon="12.923828000"><ele>594.142000</ele><time>2009-07-28T07:01:11Z</time></trkpt><trkpt lat="43.515632000" lon="12.923859000"><ele>594.931000</ele><time>2009-07-28T07:01:15Z</time></trkpt><trkpt lat="43.515605000" lon="12.923870000"><ele>595.170000</ele><time>2009-07-28T07:01:17Z</time></trkpt><trkpt lat="43.515560000" lon="12.923862000"><ele>595.540000</ele><time>2009-07-28T07:01:21Z</time></trkpt><trkpt lat="43.515540000" lon="12.923850000"><ele>596.126000</ele><time>2009-07-28T07:01:23Z</time></trkpt><trkpt lat="43.515517000" lon="12.923801000"><ele>595.886000</ele><time>2009-07-28T07:01:27Z</time></trkpt><trkpt lat="43.515500000" lon="12.923788000"><ele>595.771000</ele><time>2009-07-28T07:01:29Z</time></trkpt><trkpt lat="43.515448000" lon="12.923760000"><ele>595.682000</ele><time>2009-07-28T07:01:33Z</time></trkpt><trkpt lat="43.515424000" lon="12.923748000"><ele>596.118000</ele><time>2009-07-28T07:01:35Z</time></trkpt><trkpt lat="43.515391000" lon="12.923709000"><ele>596.542000</ele><time>2009-07-28T07:01:39Z</time></trkpt><trkpt lat="43.515371000" lon="12.923696000"><ele>596.484000</ele><time>2009-07-28T07:01:41Z</time></trkpt><trkpt lat="43.515333000" lon="12.923654000"><ele>597.401000</ele><time>2009-07-28T07:01:45Z</time></trkpt><trkpt lat="43.515304000" lon="12.923645000"><ele>597.062000</ele><time>2009-07-28T07:01:47Z</time></trkpt><trkpt lat="43.515250000" lon="12.923643000"><ele>596.643000</ele><time>2009-07-28T07:01:51Z</time></trkpt><trkpt lat="43.515235000" lon="12.923621000"><ele>596.808000</ele><time>2009-07-28T07:01:53Z</time></trkpt><trkpt lat="43.515193000" lon="12.923583000"><ele>597.977000</ele><time>2009-07-28T07:01:57Z</time></trkpt><trkpt lat="43.515171000" lon="12.923564000"><ele>598.053000</ele><time>2009-07-28T07:01:59Z</time></trkpt><trkpt lat="43.515135000" lon="12.923536000"><ele>597.718000</ele><time>2009-07-28T07:02:03Z</time></trkpt><trkpt lat="43.515110000" lon="12.923515000"><ele>597.984000</ele><time>2009-07-28T07:02:05Z</time></trkpt><trkpt lat="43.515058000" lon="12.923473000"><ele>597.832000</ele><time>2009-07-28T07:02:09Z</time></trkpt><trkpt lat="43.515045000" lon="12.923457000"><ele>597.480000</ele><time>2009-07-28T07:02:11Z</time></trkpt><trkpt lat="43.515008000" lon="12.923423000"><ele>597.941000</ele><time>2009-07-28T07:02:15Z</time></trkpt><trkpt lat="43.514990000" lon="12.923400000"><ele>598.010000</ele><time>2009-07-28T07:02:17Z</time></trkpt><trkpt lat="43.514951000" lon="12.923366000"><ele>597.675000</ele><time>2009-07-28T07:02:21Z</time></trkpt><trkpt lat="43.514935000" lon="12.923339000"><ele>597.631000</ele><time>2009-07-28T07:02:23Z</time></trkpt><trkpt lat="43.514900000" lon="12.923292000"><ele>599.188000</ele><time>2009-07-28T07:02:27Z</time></trkpt><trkpt lat="43.514890000" lon="12.923273000"><ele>599.905000</ele><time>2009-07-28T07:02:29Z</time></trkpt><trkpt lat="43.514863000" lon="12.923232000"><ele>599.761000</ele><time>2009-07-28T07:02:33Z</time></trkpt><trkpt lat="43.514843000" lon="12.923214000"><ele>599.725000</ele><time>2009-07-28T07:02:35Z</time></trkpt><trkpt lat="43.514791000" lon="12.923185000"><ele>600.183000</ele><time>2009-07-28T07:02:39Z</time></trkpt><trkpt lat="43.514771000" lon="12.923172000"><ele>600.388000</ele><time>2009-07-28T07:02:41Z</time></trkpt><trkpt lat="43.514724000" lon="12.923127000"><ele>599.724000</ele><time>2009-07-28T07:02:45Z</time></trkpt><trkpt lat="43.514701000" lon="12.923102000"><ele>599.395000</ele><time>2009-07-28T07:02:47Z</time></trkpt><trkpt lat="43.514659000" lon="12.923066000"><ele>599.532000</ele><time>2009-07-28T07:02:51Z</time></trkpt><trkpt lat="43.514640000" lon="12.923050000"><ele>599.345000</ele><time>2009-07-28T07:02:53Z</time></trkpt><trkpt lat="43.514616000" lon="12.923011000"><ele>600.019000</ele><time>2009-07-28T07:02:57Z</time></trkpt><trkpt lat="43.514605000" lon="12.922986000"><ele>600.120000</ele><time>2009-07-28T07:02:59Z</time></trkpt><trkpt lat="43.514571000" lon="12.922952000"><ele>599.847000</ele><time>2009-07-28T07:03:03Z</time></trkpt><trkpt lat="43.514549000" lon="12.922937000"><ele>600.074000</ele><time>2009-07-28T07:03:05Z</time></trkpt><trkpt lat="43.514513000" lon="12.922916000"><ele>601.410000</ele><time>2009-07-28T07:03:09Z</time></trkpt><trkpt lat="43.514503000" lon="12.922908000"><ele>602.149000</ele><time>2009-07-28T07:03:11Z</time></trkpt><trkpt lat="43.514461000" lon="12.922886000"><ele>602.267000</ele><time>2009-07-28T07:03:15Z</time></trkpt><trkpt lat="43.514433000" lon="12.922883000"><ele>602.860000</ele><time>2009-07-28T07:03:17Z</time></trkpt><trkpt lat="43.514401000" lon="12.922861000"><ele>604.148000</ele><time>2009-07-28T07:03:21Z</time></trkpt><trkpt lat="43.514389000" lon="12.922853000"><ele>604.159000</ele><time>2009-07-28T07:03:23Z</time></trkpt><trkpt lat="43.514339000" lon="12.922824000"><ele>604.195000</ele><time>2009-07-28T07:03:27Z</time></trkpt><trkpt lat="43.514313000" lon="12.922813000"><ele>603.619000</ele><time>2009-07-28T07:03:29Z</time></trkpt><trkpt lat="43.514259000" lon="12.922810000"><ele>602.897000</ele><time>2009-07-28T07:03:33Z</time></trkpt><trkpt lat="43.514243000" lon="12.922804000"><ele>603.263000</ele><time>2009-07-28T07:03:35Z</time></trkpt><trkpt lat="43.514187000" lon="12.922816000"><ele>603.356000</ele><time>2009-07-28T07:03:39Z</time></trkpt><trkpt lat="43.514155000" lon="12.922831000"><ele>603.087000</ele><time>2009-07-28T07:03:41Z</time></trkpt><trkpt lat="43.514112000" lon="12.922812000"><ele>602.698000</ele><time>2009-07-28T07:03:45Z</time></trkpt><trkpt lat="43.514094000" lon="12.922798000"><ele>602.436000</ele><time>2009-07-28T07:03:47Z</time></trkpt><trkpt lat="43.514070000" lon="12.922769000"><ele>602.431000</ele><time>2009-07-28T07:03:51Z</time></trkpt><trkpt lat="43.514052000" lon="12.922757000"><ele>602.237000</ele><time>2009-07-28T07:03:53Z</time></trkpt><trkpt lat="43.514020000" lon="12.922716000"><ele>601.989000</ele><time>2009-07-28T07:03:57Z</time></trkpt><trkpt lat="43.514002000" lon="12.922700000"><ele>602.116000</ele><time>2009-07-28T07:03:59Z</time></trkpt><trkpt lat="43.513978000" lon="12.922659000"><ele>601.842000</ele><time>2009-07-28T07:04:03Z</time></trkpt><trkpt lat="43.513955000" lon="12.922643000"><ele>601.731000</ele><time>2009-07-28T07:04:05Z</time></trkpt><trkpt lat="43.513940000" lon="12.922599000"><ele>601.366000</ele><time>2009-07-28T07:04:09Z</time></trkpt><trkpt lat="43.513927000" lon="12.922594000"><ele>601.219000</ele><time>2009-07-28T07:04:11Z</time></trkpt><trkpt lat="43.513899000" lon="12.922576000"><ele>601.852000</ele><time>2009-07-28T07:04:15Z</time></trkpt><trkpt lat="43.513888000" lon="12.922562000"><ele>602.305000</ele><time>2009-07-28T07:04:17Z</time></trkpt><trkpt lat="43.513852000" lon="12.922534000"><ele>603.236000</ele><time>2009-07-28T07:04:21Z</time></trkpt><trkpt lat="43.513843000" lon="12.922506000"><ele>603.535000</ele><time>2009-07-28T07:04:23Z</time></trkpt><trkpt lat="43.513825000" lon="12.922467000"><ele>604.489000</ele><time>2009-07-28T07:04:27Z</time></trkpt><trkpt lat="43.513810000" lon="12.922454000"><ele>604.761000</ele><time>2009-07-28T07:04:29Z</time></trkpt><trkpt lat="43.513775000" lon="12.922435000"><ele>605.754000</ele><time>2009-07-28T07:04:33Z</time></trkpt><trkpt lat="43.513754000" lon="12.922423000"><ele>606.671000</ele><time>2009-07-28T07:04:35Z</time></trkpt><trkpt lat="43.513717000" lon="12.922388000"><ele>607.447000</ele><time>2009-07-28T07:04:39Z</time></trkpt><trkpt lat="43.513703000" lon="12.922382000"><ele>608.001000</ele><time>2009-07-28T07:04:41Z</time></trkpt><trkpt lat="43.513684000" lon="12.922373000"><ele>608.722000</ele><time>2009-07-28T07:04:45Z</time></trkpt><trkpt lat="43.513674000" lon="12.922365000"><ele>609.933000</ele><time>2009-07-28T07:04:47Z</time></trkpt><trkpt lat="43.513645000" lon="12.922355000"><ele>610.796000</ele><time>2009-07-28T07:04:51Z</time></trkpt><trkpt lat="43.513631000" lon="12.922355000"><ele>611.568000</ele><time>2009-07-28T07:04:53Z</time></trkpt><trkpt lat="43.513598000" lon="12.922357000"><ele>612.751000</ele><time>2009-07-28T07:04:57Z</time></trkpt><trkpt lat="43.513585000" lon="12.922348000"><ele>613.048000</ele><time>2009-07-28T07:04:59Z</time></trkpt><trkpt lat="43.513548000" lon="12.922336000"><ele>613.790000</ele><time>2009-07-28T07:05:03Z</time></trkpt><trkpt lat="43.513536000" lon="12.922324000"><ele>614.294000</ele><time>2009-07-28T07:05:05Z</time></trkpt><trkpt lat="43.513505000" lon="12.922307000"><ele>615.269000</ele><time>2009-07-28T07:05:09Z</time></trkpt><trkpt lat="43.513490000" lon="12.922298000"><ele>616.069000</ele><time>2009-07-28T07:05:11Z</time></trkpt><trkpt lat="43.513457000" lon="12.922292000"><ele>616.914000</ele><time>2009-07-28T07:05:15Z</time></trkpt><trkpt lat="43.513451000" lon="12.922283000"><ele>617.569000</ele><time>2009-07-28T07:05:17Z</time></trkpt><trkpt lat="43.513422000" lon="12.922263000"><ele>618.788000</ele><time>2009-07-28T07:05:21Z</time></trkpt><trkpt lat="43.513416000" lon="12.922259000"><ele>619.922000</ele><time>2009-07-28T07:05:23Z</time></trkpt><trkpt lat="43.513398000" lon="12.922250000"><ele>621.415000</ele><time>2009-07-28T07:05:27Z</time></trkpt><trkpt lat="43.513389000" lon="12.922238000"><ele>621.930000</ele><time>2009-07-28T07:05:29Z</time></trkpt><trkpt lat="43.513368000" lon="12.922232000"><ele>622.294000</ele><time>2009-07-28T07:05:33Z</time></trkpt><trkpt lat="43.513357000" lon="12.922227000"><ele>622.257000</ele><time>2009-07-28T07:05:35Z</time></trkpt><trkpt lat="43.513349000" lon="12.922192000"><ele>623.014000</ele><time>2009-07-28T07:05:39Z</time></trkpt><trkpt lat="43.513334000" lon="12.922176000"><ele>623.547000</ele><time>2009-07-28T07:05:41Z</time></trkpt><trkpt lat="43.513317000" lon="12.922142000"><ele>624.272000</ele><time>2009-07-28T07:05:45Z</time></trkpt><trkpt lat="43.513291000" lon="12.922138000"><ele>624.901000</ele><time>2009-07-28T07:05:47Z</time></trkpt><trkpt lat="43.513261000" lon="12.922116000"><ele>625.257000</ele><time>2009-07-28T07:05:51Z</time></trkpt><trkpt lat="43.513259000" lon="12.922105000"><ele>625.888000</ele><time>2009-07-28T07:05:53Z</time></trkpt><trkpt lat="43.513250000" lon="12.922089000"><ele>626.281000</ele><time>2009-07-28T07:05:57Z</time></trkpt><trkpt lat="43.513241000" lon="12.922085000"><ele>626.498000</ele><time>2009-07-28T07:05:59Z</time></trkpt><trkpt lat="43.513204000" lon="12.922096000"><ele>627.209000</ele><time>2009-07-28T07:06:03Z</time></trkpt><trkpt lat="43.513190000" lon="12.922094000"><ele>627.504000</ele><time>2009-07-28T07:06:05Z</time></trkpt><trkpt lat="43.513176000" lon="12.922069000"><ele>627.333000</ele><time>2009-07-28T07:06:09Z</time></trkpt><trkpt lat="43.513156000" lon="12.922065000"><ele>627.873000</ele><time>2009-07-28T07:06:11Z</time></trkpt><trkpt lat="43.513140000" lon="12.922026000"><ele>628.131000</ele><time>2009-07-28T07:06:15Z</time></trkpt><trkpt lat="43.513132000" lon="12.922010000"><ele>628.138000</ele><time>2009-07-28T07:06:17Z</time></trkpt><trkpt lat="43.513081000" lon="12.922003000"><ele>628.700000</ele><time>2009-07-28T07:06:21Z</time></trkpt><trkpt lat="43.513074000" lon="12.921983000"><ele>628.725000</ele><time>2009-07-28T07:06:23Z</time></trkpt><trkpt lat="43.513092000" lon="12.921953000"><ele>628.548000</ele><time>2009-07-28T07:06:27Z</time></trkpt><trkpt lat="43.513075000" lon="12.921943000"><ele>628.901000</ele><time>2009-07-28T07:06:29Z</time></trkpt><trkpt lat="43.513067000" lon="12.921920000"><ele>629.604000</ele><time>2009-07-28T07:06:33Z</time></trkpt><trkpt lat="43.513064000" lon="12.921903000"><ele>629.987000</ele><time>2009-07-28T07:06:35Z</time></trkpt><trkpt lat="43.513030000" lon="12.921889000"><ele>630.893000</ele><time>2009-07-28T07:06:39Z</time></trkpt><trkpt lat="43.513027000" lon="12.921889000"><ele>631.532000</ele><time>2009-07-28T07:06:41Z</time></trkpt><trkpt lat="43.513006000" lon="12.921871000"><ele>632.187000</ele><time>2009-07-28T07:06:45Z</time></trkpt><trkpt lat="43.512994000" lon="12.921862000"><ele>632.548000</ele><time>2009-07-28T07:06:47Z</time></trkpt><trkpt lat="43.512981000" lon="12.921817000"><ele>632.236000</ele><time>2009-07-28T07:06:51Z</time></trkpt><trkpt lat="43.512964000" lon="12.921798000"><ele>632.544000</ele><time>2009-07-28T07:06:53Z</time></trkpt><trkpt lat="43.512941000" lon="12.921769000"><ele>633.693000</ele><time>2009-07-28T07:06:57Z</time></trkpt><trkpt lat="43.512914000" lon="12.921762000"><ele>633.706000</ele><time>2009-07-28T07:06:59Z</time></trkpt><trkpt lat="43.512886000" lon="12.921719000"><ele>634.593000</ele><time>2009-07-28T07:07:03Z</time></trkpt><trkpt lat="43.512873000" lon="12.921700000"><ele>634.993000</ele><time>2009-07-28T07:07:05Z</time></trkpt><trkpt lat="43.512856000" lon="12.921669000"><ele>635.423000</ele><time>2009-07-28T07:07:09Z</time></trkpt><trkpt lat="43.512860000" lon="12.921657000"><ele>635.410000</ele><time>2009-07-28T07:07:11Z</time></trkpt><trkpt lat="43.512844000" lon="12.921632000"><ele>635.966000</ele><time>2009-07-28T07:07:15Z</time></trkpt><trkpt lat="43.512838000" lon="12.921609000"><ele>635.931000</ele><time>2009-07-28T07:07:17Z</time></trkpt><trkpt lat="43.512818000" lon="12.921585000"><ele>636.217000</ele><time>2009-07-28T07:07:21Z</time></trkpt><trkpt lat="43.512806000" lon="12.921576000"><ele>636.305000</ele><time>2009-07-28T07:07:23Z</time></trkpt><trkpt lat="43.512799000" lon="12.921539000"><ele>636.879000</ele><time>2009-07-28T07:07:27Z</time></trkpt><trkpt lat="43.512789000" lon="12.921538000"><ele>637.221000</ele><time>2009-07-28T07:07:29Z</time></trkpt><trkpt lat="43.512762000" lon="12.921516000"><ele>637.407000</ele><time>2009-07-28T07:07:33Z</time></trkpt><trkpt lat="43.512752000" lon="12.921499000"><ele>637.389000</ele><time>2009-07-28T07:07:35Z</time></trkpt><trkpt lat="43.512728000" lon="12.921477000"><ele>638.126000</ele><time>2009-07-28T07:07:39Z</time></trkpt><trkpt lat="43.512732000" lon="12.921449000"><ele>638.470000</ele><time>2009-07-28T07:07:41Z</time></trkpt><trkpt lat="43.512735000" lon="12.921423000"><ele>638.487000</ele><time>2009-07-28T07:07:45Z</time></trkpt><trkpt lat="43.512720000" lon="12.921410000"><ele>638.655000</ele><time>2009-07-28T07:07:47Z</time></trkpt><trkpt lat="43.512705000" lon="12.921379000"><ele>638.919000</ele><time>2009-07-28T07:07:51Z</time></trkpt><trkpt lat="43.512696000" lon="12.921365000"><ele>639.085000</ele><time>2009-07-28T07:07:53Z</time></trkpt><trkpt lat="43.512668000" lon="12.921354000"><ele>639.623000</ele><time>2009-07-28T07:07:57Z</time></trkpt><trkpt lat="43.512652000" lon="12.921347000"><ele>639.830000</ele><time>2009-07-28T07:07:59Z</time></trkpt><trkpt lat="43.512624000" lon="12.921342000"><ele>640.570000</ele><time>2009-07-28T07:08:03Z</time></trkpt><trkpt lat="43.512607000" lon="12.921327000"><ele>640.789000</ele><time>2009-07-28T07:08:05Z</time></trkpt><trkpt lat="43.512582000" lon="12.921294000"><ele>640.902000</ele><time>2009-07-28T07:08:09Z</time></trkpt><trkpt lat="43.512557000" lon="12.921288000"><ele>640.952000</ele><time>2009-07-28T07:08:11Z</time></trkpt><trkpt lat="43.512534000" lon="12.921259000"><ele>641.270000</ele><time>2009-07-28T07:08:15Z</time></trkpt><trkpt lat="43.512522000" lon="12.921245000"><ele>641.528000</ele><time>2009-07-28T07:08:17Z</time></trkpt><trkpt lat="43.512517000" lon="12.921212000"><ele>641.970000</ele><time>2009-07-28T07:08:21Z</time></trkpt><trkpt lat="43.512514000" lon="12.921196000"><ele>642.214000</ele><time>2009-07-28T07:08:23Z</time></trkpt><trkpt lat="43.512485000" lon="12.921164000"><ele>642.668000</ele><time>2009-07-28T07:08:27Z</time></trkpt><trkpt lat="43.512496000" lon="12.921129000"><ele>643.047000</ele><time>2009-07-28T07:08:29Z</time></trkpt><trkpt lat="43.512471000" lon="12.921097000"><ele>643.505000</ele><time>2009-07-28T07:08:33Z</time></trkpt><trkpt lat="43.512457000" lon="12.921071000"><ele>643.513000</ele><time>2009-07-28T07:08:35Z</time></trkpt><trkpt lat="43.512435000" lon="12.921036000"><ele>643.928000</ele><time>2009-07-28T07:08:39Z</time></trkpt><trkpt lat="43.512422000" lon="12.921024000"><ele>644.429000</ele><time>2009-07-28T07:08:41Z</time></trkpt><trkpt lat="43.512396000" lon="12.921005000"><ele>645.045000</ele><time>2009-07-28T07:08:45Z</time></trkpt><trkpt lat="43.512389000" lon="12.920987000"><ele>645.335000</ele><time>2009-07-28T07:08:47Z</time></trkpt><trkpt lat="43.512361000" lon="12.920956000"><ele>646.143000</ele><time>2009-07-28T07:08:51Z</time></trkpt><trkpt lat="43.512350000" lon="12.920930000"><ele>646.396000</ele><time>2009-07-28T07:08:53Z</time></trkpt><trkpt lat="43.512337000" lon="12.920868000"><ele>646.751000</ele><time>2009-07-28T07:08:57Z</time></trkpt><trkpt lat="43.512317000" lon="12.920863000"><ele>646.823000</ele><time>2009-07-28T07:08:59Z</time></trkpt><trkpt lat="43.512283000" lon="12.920842000"><ele>647.590000</ele><time>2009-07-28T07:09:03Z</time></trkpt><trkpt lat="43.512265000" lon="12.920814000"><ele>648.109000</ele><time>2009-07-28T07:09:05Z</time></trkpt><trkpt lat="43.512233000" lon="12.920772000"><ele>648.831000</ele><time>2009-07-28T07:09:09Z</time></trkpt><trkpt lat="43.512222000" lon="12.920721000"><ele>649.101000</ele><time>2009-07-28T07:09:11Z</time></trkpt><trkpt lat="43.512200000" lon="12.920670000"><ele>648.884000</ele><time>2009-07-28T07:09:15Z</time></trkpt><trkpt lat="43.512186000" lon="12.920652000"><ele>649.043000</ele><time>2009-07-28T07:09:17Z</time></trkpt><trkpt lat="43.512162000" lon="12.920583000"><ele>648.932000</ele><time>2009-07-28T07:09:21Z</time></trkpt><trkpt lat="43.512163000" lon="12.920590000"><ele>649.130000</ele><time>2009-07-28T07:09:23Z</time></trkpt><trkpt lat="43.512149000" lon="12.920524000"><ele>650.147000</ele><time>2009-07-28T07:09:27Z</time></trkpt><trkpt lat="43.512151000" lon="12.920488000"><ele>651.251000</ele><time>2009-07-28T07:09:29Z</time></trkpt><trkpt lat="43.512112000" lon="12.920440000"><ele>652.169000</ele><time>2009-07-28T07:09:33Z</time></trkpt><trkpt lat="43.512093000" lon="12.920413000"><ele>652.531000</ele><time>2009-07-28T07:09:35Z</time></trkpt><trkpt lat="43.512071000" lon="12.920377000"><ele>652.854000</ele><time>2009-07-28T07:09:39Z</time></trkpt><trkpt lat="43.512056000" lon="12.920358000"><ele>653.767000</ele><time>2009-07-28T07:09:41Z</time></trkpt><trkpt lat="43.512049000" lon="12.920293000"><ele>654.648000</ele><time>2009-07-28T07:09:45Z</time></trkpt><trkpt lat="43.512035000" lon="12.920264000"><ele>655.195000</ele><time>2009-07-28T07:09:47Z</time></trkpt><trkpt lat="43.512009000" lon="12.920198000"><ele>654.765000</ele><time>2009-07-28T07:09:51Z</time></trkpt><trkpt lat="43.511997000" lon="12.920159000"><ele>654.846000</ele><time>2009-07-28T07:09:53Z</time></trkpt><trkpt lat="43.511983000" lon="12.920117000"><ele>655.518000</ele><time>2009-07-28T07:09:57Z</time></trkpt><trkpt lat="43.511984000" lon="12.920086000"><ele>655.998000</ele><time>2009-07-28T07:09:59Z</time></trkpt><trkpt lat="43.511953000" lon="12.920067000"><ele>657.108000</ele><time>2009-07-28T07:10:03Z</time></trkpt><trkpt lat="43.511955000" lon="12.920023000"><ele>657.144000</ele><time>2009-07-28T07:10:05Z</time></trkpt><trkpt lat="43.511934000" lon="12.919984000"><ele>657.934000</ele><time>2009-07-28T07:10:09Z</time></trkpt><trkpt lat="43.511927000" lon="12.919971000"><ele>658.353000</ele><time>2009-07-28T07:10:11Z</time></trkpt><trkpt lat="43.511911000" lon="12.919957000"><ele>659.181000</ele><time>2009-07-28T07:10:15Z</time></trkpt><trkpt lat="43.511901000" lon="12.919943000"><ele>659.679000</ele><time>2009-07-28T07:10:17Z</time></trkpt><trkpt lat="43.511873000" lon="12.919912000"><ele>660.550000</ele><time>2009-07-28T07:10:21Z</time></trkpt><trkpt lat="43.511851000" lon="12.919904000"><ele>660.728000</ele><time>2009-07-28T07:10:23Z</time></trkpt><trkpt lat="43.511821000" lon="12.919884000"><ele>661.231000</ele><time>2009-07-28T07:10:27Z</time></trkpt><trkpt lat="43.511799000" lon="12.919881000"><ele>661.410000</ele><time>2009-07-28T07:10:29Z</time></trkpt><trkpt lat="43.511774000" lon="12.919851000"><ele>662.291000</ele><time>2009-07-28T07:10:33Z</time></trkpt><trkpt lat="43.511770000" lon="12.919834000"><ele>662.453000</ele><time>2009-07-28T07:10:35Z</time></trkpt><trkpt lat="43.511748000" lon="12.919810000"><ele>662.807000</ele><time>2009-07-28T07:10:39Z</time></trkpt><trkpt lat="43.511739000" lon="12.919784000"><ele>662.873000</ele><time>2009-07-28T07:10:41Z</time></trkpt><trkpt lat="43.511705000" lon="12.919779000"><ele>663.002000</ele><time>2009-07-28T07:10:45Z</time></trkpt><trkpt lat="43.511693000" lon="12.919788000"><ele>663.272000</ele><time>2009-07-28T07:10:47Z</time></trkpt><trkpt lat="43.511664000" lon="12.919754000"><ele>664.302000</ele><time>2009-07-28T07:10:51Z</time></trkpt><trkpt lat="43.511657000" lon="12.919728000"><ele>664.292000</ele><time>2009-07-28T07:10:53Z</time></trkpt><trkpt lat="43.511631000" lon="12.919684000"><ele>664.702000</ele><time>2009-07-28T07:10:57Z</time></trkpt><trkpt lat="43.511607000" lon="12.919671000"><ele>665.042000</ele><time>2009-07-28T07:10:59Z</time></trkpt><trkpt lat="43.511574000" lon="12.919629000"><ele>665.271000</ele><time>2009-07-28T07:11:03Z</time></trkpt><trkpt lat="43.511565000" lon="12.919618000"><ele>665.979000</ele><time>2009-07-28T07:11:05Z</time></trkpt><trkpt lat="43.511555000" lon="12.919565000"><ele>666.209000</ele><time>2009-07-28T07:11:09Z</time></trkpt><trkpt lat="43.511547000" lon="12.919549000"><ele>666.588000</ele><time>2009-07-28T07:11:11Z</time></trkpt><trkpt lat="43.511545000" lon="12.919500000"><ele>665.813000</ele><time>2009-07-28T07:11:15Z</time></trkpt><trkpt lat="43.511533000" lon="12.919468000"><ele>665.994000</ele><time>2009-07-28T07:11:17Z</time></trkpt><trkpt lat="43.511531000" lon="12.919416000"><ele>668.025000</ele><time>2009-07-28T07:11:21Z</time></trkpt><trkpt lat="43.511522000" lon="12.919390000"><ele>668.793000</ele><time>2009-07-28T07:11:23Z</time></trkpt><trkpt lat="43.511524000" lon="12.919351000"><ele>670.085000</ele><time>2009-07-28T07:11:27Z</time></trkpt><trkpt lat="43.511512000" lon="12.919337000"><ele>670.126000</ele><time>2009-07-28T07:11:29Z</time></trkpt><trkpt lat="43.511512000" lon="12.919303000"><ele>670.171000</ele><time>2009-07-28T07:11:33Z</time></trkpt><trkpt lat="43.511504000" lon="12.919290000"><ele>669.987000</ele><time>2009-07-28T07:11:35Z</time></trkpt><trkpt lat="43.511503000" lon="12.919254000"><ele>670.384000</ele><time>2009-07-28T07:11:39Z</time></trkpt><trkpt lat="43.511504000" lon="12.919229000"><ele>670.612000</ele><time>2009-07-28T07:11:41Z</time></trkpt><trkpt lat="43.511505000" lon="12.919184000"><ele>670.955000</ele><time>2009-07-28T07:11:45Z</time></trkpt><trkpt lat="43.511502000" lon="12.919149000"><ele>671.060000</ele><time>2009-07-28T07:11:47Z</time></trkpt><trkpt lat="43.511507000" lon="12.919108000"><ele>671.538000</ele><time>2009-07-28T07:11:51Z</time></trkpt><trkpt lat="43.511496000" lon="12.919081000"><ele>671.851000</ele><time>2009-07-28T07:11:53Z</time></trkpt><trkpt lat="43.511506000" lon="12.919033000"><ele>672.542000</ele><time>2009-07-28T07:11:57Z</time></trkpt><trkpt lat="43.511522000" lon="12.919014000"><ele>672.543000</ele><time>2009-07-28T07:11:59Z</time></trkpt><trkpt lat="43.511548000" lon="12.918970000"><ele>672.766000</ele><time>2009-07-28T07:12:03Z</time></trkpt><trkpt lat="43.511554000" lon="12.918942000"><ele>672.959000</ele><time>2009-07-28T07:12:05Z</time></trkpt><trkpt lat="43.511568000" lon="12.918902000"><ele>673.330000</ele><time>2009-07-28T07:12:09Z</time></trkpt><trkpt lat="43.511586000" lon="12.918885000"><ele>673.627000</ele><time>2009-07-28T07:12:11Z</time></trkpt><trkpt lat="43.511606000" lon="12.918818000"><ele>674.428000</ele><time>2009-07-28T07:12:15Z</time></trkpt><trkpt lat="43.511615000" lon="12.918800000"><ele>674.707000</ele><time>2009-07-28T07:12:17Z</time></trkpt><trkpt lat="43.511626000" lon="12.918768000"><ele>675.328000</ele><time>2009-07-28T07:12:21Z</time></trkpt><trkpt lat="43.511625000" lon="12.918751000"><ele>675.582000</ele><time>2009-07-28T07:12:23Z</time></trkpt><trkpt lat="43.511627000" lon="12.918752000"><ele>675.701000</ele><time>2009-07-28T07:12:27Z</time></trkpt><trkpt lat="43.511627000" lon="12.918752000"><ele>675.739000</ele><time>2009-07-28T07:12:29Z</time></trkpt><trkpt lat="43.511631000" lon="12.918754000"><ele>675.850000</ele><time>2009-07-28T07:12:33Z</time></trkpt><trkpt lat="43.511635000" lon="12.918756000"><ele>675.910000</ele><time>2009-07-28T07:12:35Z</time></trkpt><trkpt lat="43.511638000" lon="12.918731000"><ele>676.667000</ele><time>2009-07-28T07:12:39Z</time></trkpt><trkpt lat="43.511641000" lon="12.918720000"><ele>676.907000</ele><time>2009-07-28T07:12:41Z</time></trkpt><trkpt lat="43.511647000" lon="12.918725000"><ele>676.909000</ele><time>2009-07-28T07:12:45Z</time></trkpt><trkpt lat="43.511648000" lon="12.918725000"><ele>676.912000</ele><time>2009-07-28T07:12:47Z</time></trkpt><trkpt lat="43.511649000" lon="12.918726000"><ele>676.915000</ele><time>2009-07-28T07:12:51Z</time></trkpt><trkpt lat="43.511647000" lon="12.918725000"><ele>676.921000</ele><time>2009-07-28T07:12:53Z</time></trkpt><trkpt lat="43.511644000" lon="12.918723000"><ele>676.900000</ele><time>2009-07-28T07:12:57Z</time></trkpt><trkpt lat="43.511639000" lon="12.918716000"><ele>677.083000</ele><time>2009-07-28T07:12:59Z</time></trkpt><trkpt lat="43.511589000" lon="12.918704000"><ele>677.904000</ele><time>2009-07-28T07:13:03Z</time></trkpt><trkpt lat="43.511598000" lon="12.918714000"><ele>677.874000</ele><time>2009-07-28T07:13:05Z</time></trkpt><trkpt lat="43.511598000" lon="12.918712000"><ele>677.886000</ele><time>2009-07-28T07:13:09Z</time></trkpt><trkpt lat="43.511598000" lon="12.918711000"><ele>677.912000</ele><time>2009-07-28T07:13:11Z</time></trkpt><trkpt lat="43.511601000" lon="12.918712000"><ele>677.990000</ele><time>2009-07-28T07:13:15Z</time></trkpt><trkpt lat="43.511601000" lon="12.918710000"><ele>678.068000</ele><time>2009-07-28T07:13:17Z</time></trkpt><trkpt lat="43.511644000" lon="12.918679000"><ele>677.177000</ele><time>2009-07-28T07:13:21Z</time></trkpt><trkpt lat="43.511654000" lon="12.918659000"><ele>677.137000</ele><time>2009-07-28T07:13:23Z</time></trkpt><trkpt lat="43.511663000" lon="12.918652000"><ele>677.642000</ele><time>2009-07-28T07:13:27Z</time></trkpt><trkpt lat="43.511660000" lon="12.918657000"><ele>677.659000</ele><time>2009-07-28T07:13:29Z</time></trkpt><trkpt lat="43.511670000" lon="12.918643000"><ele>678.908000</ele><time>2009-07-28T07:13:33Z</time></trkpt><trkpt lat="43.511668000" lon="12.918636000"><ele>678.902000</ele><time>2009-07-28T07:13:35Z</time></trkpt><trkpt lat="43.511669000" lon="12.918637000"><ele>678.937000</ele><time>2009-07-28T07:13:39Z</time></trkpt><trkpt lat="43.511672000" lon="12.918637000"><ele>678.974000</ele><time>2009-07-28T07:13:41Z</time></trkpt><trkpt lat="43.511703000" lon="12.918632000"><ele>678.433000</ele><time>2009-07-28T07:13:45Z</time></trkpt><trkpt lat="43.511715000" lon="12.918635000"><ele>678.549000</ele><time>2009-07-28T07:13:47Z</time></trkpt><trkpt lat="43.511710000" lon="12.918633000"><ele>678.587000</ele><time>2009-07-28T07:13:51Z</time></trkpt><trkpt lat="43.511711000" lon="12.918634000"><ele>678.652000</ele><time>2009-07-28T07:13:53Z</time></trkpt><trkpt lat="43.511717000" lon="12.918640000"><ele>678.788000</ele><time>2009-07-28T07:13:57Z</time></trkpt><trkpt lat="43.511720000" lon="12.918642000"><ele>678.839000</ele><time>2009-07-28T07:13:59Z</time></trkpt><trkpt lat="43.511724000" lon="12.918645000"><ele>678.933000</ele><time>2009-07-28T07:14:03Z</time></trkpt><trkpt lat="43.511724000" lon="12.918646000"><ele>678.943000</ele><time>2009-07-28T07:14:05Z</time></trkpt><trkpt lat="43.511723000" lon="12.918645000"><ele>678.951000</ele><time>2009-07-28T07:14:09Z</time></trkpt><trkpt lat="43.511724000" lon="12.918646000"><ele>678.967000</ele><time>2009-07-28T07:14:11Z</time></trkpt><trkpt lat="43.511725000" lon="12.918647000"><ele>678.995000</ele><time>2009-07-28T07:14:15Z</time></trkpt><trkpt lat="43.511725000" lon="12.918646000"><ele>679.020000</ele><time>2009-07-28T07:14:17Z</time></trkpt><trkpt lat="43.511723000" lon="12.918644000"><ele>678.990000</ele><time>2009-07-28T07:14:21Z</time></trkpt><trkpt lat="43.511722000" lon="12.918642000"><ele>678.946000</ele><time>2009-07-28T07:14:23Z</time></trkpt><trkpt lat="43.511696000" lon="12.918601000"><ele>678.567000</ele><time>2009-07-28T07:14:27Z</time></trkpt><trkpt lat="43.511690000" lon="12.918570000"><ele>679.062000</ele><time>2009-07-28T07:14:29Z</time></trkpt><trkpt lat="43.511723000" lon="12.918527000"><ele>679.654000</ele><time>2009-07-28T07:14:33Z</time></trkpt><trkpt lat="43.511738000" lon="12.918502000"><ele>679.844000</ele><time>2009-07-28T07:14:35Z</time></trkpt><trkpt lat="43.511774000" lon="12.918472000"><ele>680.015000</ele><time>2009-07-28T07:14:39Z</time></trkpt><trkpt lat="43.511776000" lon="12.918461000"><ele>679.817000</ele><time>2009-07-28T07:14:41Z</time></trkpt><trkpt lat="43.511795000" lon="12.918458000"><ele>680.518000</ele><time>2009-07-28T07:14:45Z</time></trkpt><trkpt lat="43.511790000" lon="12.918454000"><ele>680.171000</ele><time>2009-07-28T07:14:47Z</time></trkpt><trkpt lat="43.511793000" lon="12.918456000"><ele>679.997000</ele><time>2009-07-28T07:14:51Z</time></trkpt><trkpt lat="43.511789000" lon="12.918454000"><ele>680.014000</ele><time>2009-07-28T07:14:53Z</time></trkpt><trkpt lat="43.511782000" lon="12.918448000"><ele>680.023000</ele><time>2009-07-28T07:14:57Z</time></trkpt><trkpt lat="43.511781000" lon="12.918448000"><ele>680.013000</ele><time>2009-07-28T07:14:59Z</time></trkpt><trkpt lat="43.511786000" lon="12.918431000"><ele>680.072000</ele><time>2009-07-28T07:15:03Z</time></trkpt><trkpt lat="43.511786000" lon="12.918414000"><ele>680.040000</ele><time>2009-07-28T07:15:05Z</time></trkpt><trkpt lat="43.511779000" lon="12.918382000"><ele>680.218000</ele><time>2009-07-28T07:15:09Z</time></trkpt><trkpt lat="43.511794000" lon="12.918350000"><ele>680.131000</ele><time>2009-07-28T07:15:11Z</time></trkpt><trkpt lat="43.511783000" lon="12.918302000"><ele>680.117000</ele><time>2009-07-28T07:15:15Z</time></trkpt><trkpt lat="43.511791000" lon="12.918277000"><ele>680.046000</ele><time>2009-07-28T07:15:17Z</time></trkpt><trkpt lat="43.511796000" lon="12.918222000"><ele>680.287000</ele><time>2009-07-28T07:15:21Z</time></trkpt><trkpt lat="43.511793000" lon="12.918221000"><ele>680.468000</ele><time>2009-07-28T07:15:23Z</time></trkpt><trkpt lat="43.511788000" lon="12.918221000"><ele>680.562000</ele><time>2009-07-28T07:15:27Z</time></trkpt><trkpt lat="43.511786000" lon="12.918221000"><ele>680.601000</ele><time>2009-07-28T07:15:29Z</time></trkpt><trkpt lat="43.511772000" lon="12.918275000"><ele>680.805000</ele><time>2009-07-28T07:15:33Z</time></trkpt><trkpt lat="43.511757000" lon="12.918293000"><ele>681.312000</ele><time>2009-07-28T07:15:35Z</time></trkpt><trkpt lat="43.511732000" lon="12.918347000"><ele>681.247000</ele><time>2009-07-28T07:15:39Z</time></trkpt><trkpt lat="43.511705000" lon="12.918356000"><ele>681.316000</ele><time>2009-07-28T07:15:41Z</time></trkpt><trkpt lat="43.511684000" lon="12.918393000"><ele>681.665000</ele><time>2009-07-28T07:15:45Z</time></trkpt><trkpt lat="43.511687000" lon="12.918415000"><ele>681.965000</ele><time>2009-07-28T07:15:47Z</time></trkpt><trkpt lat="43.511688000" lon="12.918427000"><ele>682.031000</ele><time>2009-07-28T07:15:51Z</time></trkpt><trkpt lat="43.511680000" lon="12.918433000"><ele>681.805000</ele><time>2009-07-28T07:15:53Z</time></trkpt><trkpt lat="43.511649000" lon="12.918485000"><ele>682.180000</ele><time>2009-07-28T07:15:57Z</time></trkpt><trkpt lat="43.511639000" lon="12.918512000"><ele>683.081000</ele><time>2009-07-28T07:15:59Z</time></trkpt><trkpt lat="43.511605000" lon="12.918537000"><ele>683.412000</ele><time>2009-07-28T07:16:03Z</time></trkpt><trkpt lat="43.511594000" lon="12.918547000"><ele>683.946000</ele><time>2009-07-28T07:16:05Z</time></trkpt><trkpt lat="43.511572000" lon="12.918594000"><ele>684.000000</ele><time>2009-07-28T07:16:09Z</time></trkpt><trkpt lat="43.511567000" lon="12.918608000"><ele>684.196000</ele><time>2009-07-28T07:16:11Z</time></trkpt><trkpt lat="43.511540000" lon="12.918653000"><ele>684.853000</ele><time>2009-07-28T07:16:15Z</time></trkpt><trkpt lat="43.511524000" lon="12.918686000"><ele>685.086000</ele><time>2009-07-28T07:16:17Z</time></trkpt><trkpt lat="43.511500000" lon="12.918723000"><ele>685.213000</ele><time>2009-07-28T07:16:21Z</time></trkpt><trkpt lat="43.511484000" lon="12.918740000"><ele>684.985000</ele><time>2009-07-28T07:16:23Z</time></trkpt><trkpt lat="43.511477000" lon="12.918747000"><ele>685.248000</ele><time>2009-07-28T07:16:27Z</time></trkpt><trkpt lat="43.511476000" lon="12.918746000"><ele>685.240000</ele><time>2009-07-28T07:16:29Z</time></trkpt><trkpt lat="43.511475000" lon="12.918747000"><ele>685.318000</ele><time>2009-07-28T07:16:33Z</time></trkpt><trkpt lat="43.511474000" lon="12.918747000"><ele>685.371000</ele><time>2009-07-28T07:16:35Z</time></trkpt><trkpt lat="43.511445000" lon="12.918763000"><ele>686.650000</ele><time>2009-07-28T07:16:39Z</time></trkpt><trkpt lat="43.511420000" lon="12.918776000"><ele>687.020000</ele><time>2009-07-28T07:16:41Z</time></trkpt><trkpt lat="43.511369000" lon="12.918837000"><ele>688.182000</ele><time>2009-07-28T07:16:45Z</time></trkpt><trkpt lat="43.511343000" lon="12.918868000"><ele>688.488000</ele><time>2009-07-28T07:16:47Z</time></trkpt><trkpt lat="43.511307000" lon="12.918920000"><ele>689.088000</ele><time>2009-07-28T07:16:51Z</time></trkpt><trkpt lat="43.511296000" lon="12.918955000"><ele>688.907000</ele><time>2009-07-28T07:16:53Z</time></trkpt><trkpt lat="43.511290000" lon="12.918991000"><ele>689.715000</ele><time>2009-07-28T07:16:57Z</time></trkpt><trkpt lat="43.511285000" lon="12.919006000"><ele>689.867000</ele><time>2009-07-28T07:16:59Z</time></trkpt><trkpt lat="43.511265000" lon="12.919051000"><ele>690.335000</ele><time>2009-07-28T07:17:03Z</time></trkpt><trkpt lat="43.511250000" lon="12.919065000"><ele>690.453000</ele><time>2009-07-28T07:17:05Z</time></trkpt><trkpt lat="43.511222000" lon="12.919096000"><ele>690.805000</ele><time>2009-07-28T07:17:09Z</time></trkpt><trkpt lat="43.511218000" lon="12.919115000"><ele>690.950000</ele><time>2009-07-28T07:17:11Z</time></trkpt><trkpt lat="43.511198000" lon="12.919147000"><ele>691.126000</ele><time>2009-07-28T07:17:15Z</time></trkpt><trkpt lat="43.511189000" lon="12.919162000"><ele>691.219000</ele><time>2009-07-28T07:17:17Z</time></trkpt><trkpt lat="43.511151000" lon="12.919193000"><ele>692.159000</ele><time>2009-07-28T07:17:21Z</time></trkpt><trkpt lat="43.511139000" lon="12.919220000"><ele>692.601000</ele><time>2009-07-28T07:17:23Z</time></trkpt><trkpt lat="43.511098000" lon="12.919266000"><ele>693.011000</ele><time>2009-07-28T07:17:27Z</time></trkpt><trkpt lat="43.511090000" lon="12.919292000"><ele>693.289000</ele><time>2009-07-28T07:17:29Z</time></trkpt><trkpt lat="43.511065000" lon="12.919342000"><ele>694.701000</ele><time>2009-07-28T07:17:33Z</time></trkpt><trkpt lat="43.511066000" lon="12.919363000"><ele>695.063000</ele><time>2009-07-28T07:17:35Z</time></trkpt><trkpt lat="43.511045000" lon="12.919406000"><ele>695.954000</ele><time>2009-07-28T07:17:39Z</time></trkpt><trkpt lat="43.511045000" lon="12.919427000"><ele>696.665000</ele><time>2009-07-28T07:17:41Z</time></trkpt><trkpt lat="43.511047000" lon="12.919469000"><ele>697.691000</ele><time>2009-07-28T07:17:45Z</time></trkpt><trkpt lat="43.511051000" lon="12.919493000"><ele>698.271000</ele><time>2009-07-28T07:17:47Z</time></trkpt><trkpt lat="43.511037000" lon="12.919530000"><ele>699.264000</ele><time>2009-07-28T07:17:51Z</time></trkpt><trkpt lat="43.511025000" lon="12.919555000"><ele>699.758000</ele><time>2009-07-28T07:17:53Z</time></trkpt><trkpt lat="43.511019000" lon="12.919588000"><ele>700.549000</ele><time>2009-07-28T07:17:57Z</time></trkpt><trkpt lat="43.511006000" lon="12.919611000"><ele>700.892000</ele><time>2009-07-28T07:17:59Z</time></trkpt><trkpt lat="43.510994000" lon="12.919644000"><ele>701.802000</ele><time>2009-07-28T07:18:03Z</time></trkpt><trkpt lat="43.511001000" lon="12.919666000"><ele>702.340000</ele><time>2009-07-28T07:18:05Z</time></trkpt><trkpt lat="43.510983000" lon="12.919711000"><ele>703.407000</ele><time>2009-07-28T07:18:09Z</time></trkpt><trkpt lat="43.510971000" lon="12.919732000"><ele>704.040000</ele><time>2009-07-28T07:18:11Z</time></trkpt><trkpt lat="43.510960000" lon="12.919770000"><ele>705.336000</ele><time>2009-07-28T07:18:15Z</time></trkpt><trkpt lat="43.510946000" lon="12.919787000"><ele>705.950000</ele><time>2009-07-28T07:18:17Z</time></trkpt><trkpt lat="43.510921000" lon="12.919813000"><ele>706.721000</ele><time>2009-07-28T07:18:21Z</time></trkpt><trkpt lat="43.510918000" lon="12.919827000"><ele>706.982000</ele><time>2009-07-28T07:18:23Z</time></trkpt><trkpt lat="43.510894000" lon="12.919867000"><ele>707.480000</ele><time>2009-07-28T07:18:27Z</time></trkpt><trkpt lat="43.510891000" lon="12.919886000"><ele>707.814000</ele><time>2009-07-28T07:18:29Z</time></trkpt><trkpt lat="43.510876000" lon="12.919910000"><ele>707.995000</ele><time>2009-07-28T07:18:33Z</time></trkpt><trkpt lat="43.510876000" lon="12.919919000"><ele>708.213000</ele><time>2009-07-28T07:18:35Z</time></trkpt><trkpt lat="43.510846000" lon="12.919965000"><ele>707.917000</ele><time>2009-07-28T07:18:39Z</time></trkpt><trkpt lat="43.510839000" lon="12.919992000"><ele>707.787000</ele><time>2009-07-28T07:18:41Z</time></trkpt><trkpt lat="43.510798000" lon="12.920028000"><ele>707.916000</ele><time>2009-07-28T07:18:45Z</time></trkpt><trkpt lat="43.510801000" lon="12.920048000"><ele>709.030000</ele><time>2009-07-28T07:18:47Z</time></trkpt><trkpt lat="43.510778000" lon="12.920086000"><ele>709.704000</ele><time>2009-07-28T07:18:51Z</time></trkpt><trkpt lat="43.510767000" lon="12.920116000"><ele>710.016000</ele><time>2009-07-28T07:18:53Z</time></trkpt><trkpt lat="43.510732000" lon="12.920161000"><ele>710.391000</ele><time>2009-07-28T07:18:57Z</time></trkpt><trkpt lat="43.510722000" lon="12.920181000"><ele>710.508000</ele><time>2009-07-28T07:18:59Z</time></trkpt><trkpt lat="43.510693000" lon="12.920234000"><ele>710.816000</ele><time>2009-07-28T07:19:03Z</time></trkpt><trkpt lat="43.510676000" lon="12.920256000"><ele>710.954000</ele><time>2009-07-28T07:19:05Z</time></trkpt><trkpt lat="43.510653000" lon="12.920304000"><ele>710.844000</ele><time>2009-07-28T07:19:09Z</time></trkpt><trkpt lat="43.510639000" lon="12.920309000"><ele>711.103000</ele><time>2009-07-28T07:19:11Z</time></trkpt><trkpt lat="43.510611000" lon="12.920342000"><ele>712.022000</ele><time>2009-07-28T07:19:15Z</time></trkpt><trkpt lat="43.510601000" lon="12.920358000"><ele>712.462000</ele><time>2009-07-28T07:19:17Z</time></trkpt><trkpt lat="43.510597000" lon="12.920377000"><ele>712.769000</ele><time>2009-07-28T07:19:21Z</time></trkpt><trkpt lat="43.510589000" lon="12.920381000"><ele>713.026000</ele><time>2009-07-28T07:19:23Z</time></trkpt><trkpt lat="43.510562000" lon="12.920416000"><ele>712.947000</ele><time>2009-07-28T07:19:27Z</time></trkpt><trkpt lat="43.510540000" lon="12.920436000"><ele>712.552000</ele><time>2009-07-28T07:19:29Z</time></trkpt><trkpt lat="43.510519000" lon="12.920466000"><ele>712.234000</ele><time>2009-07-28T07:19:33Z</time></trkpt><trkpt lat="43.510509000" lon="12.920487000"><ele>712.126000</ele><time>2009-07-28T07:19:35Z</time></trkpt><trkpt lat="43.510476000" lon="12.920530000"><ele>712.557000</ele><time>2009-07-28T07:19:39Z</time></trkpt><trkpt lat="43.510460000" lon="12.920547000"><ele>712.253000</ele><time>2009-07-28T07:19:41Z</time></trkpt><trkpt lat="43.510443000" lon="12.920556000"><ele>712.287000</ele><time>2009-07-28T07:19:45Z</time></trkpt><trkpt lat="43.510438000" lon="12.920561000"><ele>711.694000</ele><time>2009-07-28T07:19:47Z</time></trkpt><trkpt lat="43.510439000" lon="12.920557000"><ele>711.456000</ele><time>2009-07-28T07:19:51Z</time></trkpt><trkpt lat="43.510435000" lon="12.920565000"><ele>711.546000</ele><time>2009-07-28T07:19:53Z</time></trkpt><trkpt lat="43.510435000" lon="12.920571000"><ele>710.847000</ele><time>2009-07-28T07:19:57Z</time></trkpt><trkpt lat="43.510429000" lon="12.920588000"><ele>711.601000</ele><time>2009-07-28T07:19:59Z</time></trkpt><trkpt lat="43.510435000" lon="12.920660000"><ele>710.857000</ele><time>2009-07-28T07:20:03Z</time></trkpt><trkpt lat="43.510437000" lon="12.920689000"><ele>710.966000</ele><time>2009-07-28T07:20:05Z</time></trkpt><trkpt lat="43.510417000" lon="12.920734000"><ele>711.496000</ele><time>2009-07-28T07:20:09Z</time></trkpt><trkpt lat="43.510411000" lon="12.920749000"><ele>711.798000</ele><time>2009-07-28T07:20:11Z</time></trkpt><trkpt lat="43.510380000" lon="12.920752000"><ele>711.572000</ele><time>2009-07-28T07:20:15Z</time></trkpt><trkpt lat="43.510373000" lon="12.920746000"><ele>711.582000</ele><time>2009-07-28T07:20:17Z</time></trkpt><trkpt lat="43.510372000" lon="12.920745000"><ele>711.659000</ele><time>2009-07-28T07:20:21Z</time></trkpt><trkpt lat="43.510371000" lon="12.920744000"><ele>711.673000</ele><time>2009-07-28T07:20:23Z</time></trkpt><trkpt lat="43.510366000" lon="12.920739000"><ele>711.709000</ele><time>2009-07-28T07:20:27Z</time></trkpt><trkpt lat="43.510364000" lon="12.920723000"><ele>711.948000</ele><time>2009-07-28T07:20:29Z</time></trkpt><trkpt lat="43.510367000" lon="12.920719000"><ele>711.482000</ele><time>2009-07-28T07:20:33Z</time></trkpt><trkpt lat="43.510368000" lon="12.920719000"><ele>711.506000</ele><time>2009-07-28T07:20:35Z</time></trkpt><trkpt lat="43.510368000" lon="12.920719000"><ele>711.504000</ele><time>2009-07-28T07:20:39Z</time></trkpt><trkpt lat="43.510368000" lon="12.920719000"><ele>711.484000</ele><time>2009-07-28T07:20:41Z</time></trkpt><trkpt lat="43.510363000" lon="12.920708000"><ele>711.380000</ele><time>2009-07-28T07:20:45Z</time></trkpt><trkpt lat="43.510365000" lon="12.920705000"><ele>711.239000</ele><time>2009-07-28T07:20:47Z</time></trkpt><trkpt lat="43.510371000" lon="12.920710000"><ele>711.110000</ele><time>2009-07-28T07:20:51Z</time></trkpt><trkpt lat="43.510371000" lon="12.920709000"><ele>711.045000</ele><time>2009-07-28T07:20:53Z</time></trkpt><trkpt lat="43.510369000" lon="12.920708000"><ele>711.010000</ele><time>2009-07-28T07:20:57Z</time></trkpt><trkpt lat="43.510369000" lon="12.920708000"><ele>711.006000</ele><time>2009-07-28T07:20:59Z</time></trkpt><trkpt lat="43.510368000" lon="12.920707000"><ele>711.028000</ele><time>2009-07-28T07:21:03Z</time></trkpt><trkpt lat="43.510368000" lon="12.920706000"><ele>711.046000</ele><time>2009-07-28T07:21:05Z</time></trkpt><trkpt lat="43.510368000" lon="12.920705000"><ele>711.096000</ele><time>2009-07-28T07:21:09Z</time></trkpt><trkpt lat="43.510371000" lon="12.920707000"><ele>711.098000</ele><time>2009-07-28T07:21:11Z</time></trkpt><trkpt lat="43.510373000" lon="12.920709000"><ele>711.015000</ele><time>2009-07-28T07:21:15Z</time></trkpt><trkpt lat="43.510373000" lon="12.920708000"><ele>710.975000</ele><time>2009-07-28T07:21:17Z</time></trkpt><trkpt lat="43.510373000" lon="12.920709000"><ele>710.847000</ele><time>2009-07-28T07:21:21Z</time></trkpt><trkpt lat="43.510374000" lon="12.920709000"><ele>710.839000</ele><time>2009-07-28T07:21:23Z</time></trkpt><trkpt lat="43.510374000" lon="12.920709000"><ele>710.838000</ele><time>2009-07-28T07:21:27Z</time></trkpt><trkpt lat="43.510374000" lon="12.920709000"><ele>710.846000</ele><time>2009-07-28T07:21:29Z</time></trkpt><trkpt lat="43.510374000" lon="12.920708000"><ele>710.831000</ele><time>2009-07-28T07:21:33Z</time></trkpt><trkpt lat="43.510373000" lon="12.920708000"><ele>710.822000</ele><time>2009-07-28T07:21:35Z</time></trkpt><trkpt lat="43.510373000" lon="12.920707000"><ele>710.839000</ele><time>2009-07-28T07:21:39Z</time></trkpt><trkpt lat="43.510373000" lon="12.920707000"><ele>710.844000</ele><time>2009-07-28T07:21:41Z</time></trkpt><trkpt lat="43.510373000" lon="12.920707000"><ele>710.837000</ele><time>2009-07-28T07:21:45Z</time></trkpt><trkpt lat="43.510373000" lon="12.920706000"><ele>710.835000</ele><time>2009-07-28T07:21:47Z</time></trkpt><trkpt lat="43.510373000" lon="12.920705000"><ele>710.828000</ele><time>2009-07-28T07:21:51Z</time></trkpt><trkpt lat="43.510373000" lon="12.920705000"><ele>710.824000</ele><time>2009-07-28T07:21:53Z</time></trkpt><trkpt lat="43.510373000" lon="12.920705000"><ele>710.799000</ele><time>2009-07-28T07:21:57Z</time></trkpt><trkpt lat="43.510373000" lon="12.920704000"><ele>710.792000</ele><time>2009-07-28T07:21:59Z</time></trkpt><trkpt lat="43.510373000" lon="12.920704000"><ele>710.813000</ele><time>2009-07-28T07:22:03Z</time></trkpt><trkpt lat="43.510374000" lon="12.920704000"><ele>710.813000</ele><time>2009-07-28T07:22:05Z</time></trkpt><trkpt lat="43.510374000" lon="12.920704000"><ele>710.804000</ele><time>2009-07-28T07:22:09Z</time></trkpt><trkpt lat="43.510374000" lon="12.920704000"><ele>710.823000</ele><time>2009-07-28T07:22:11Z</time></trkpt><trkpt lat="43.510374000" lon="12.920704000"><ele>710.822000</ele><time>2009-07-28T07:22:15Z</time></trkpt><trkpt lat="43.510374000" lon="12.920704000"><ele>710.803000</ele><time>2009-07-28T07:22:17Z</time></trkpt><trkpt lat="43.510374000" lon="12.920703000"><ele>710.807000</ele><time>2009-07-28T07:22:21Z</time></trkpt><trkpt lat="43.510374000" lon="12.920702000"><ele>710.818000</ele><time>2009-07-28T07:22:23Z</time></trkpt><trkpt lat="43.510374000" lon="12.920701000"><ele>710.819000</ele><time>2009-07-28T07:22:27Z</time></trkpt><trkpt lat="43.510374000" lon="12.920701000"><ele>710.829000</ele><time>2009-07-28T07:22:29Z</time></trkpt><trkpt lat="43.510374000" lon="12.920700000"><ele>710.841000</ele><time>2009-07-28T07:22:33Z</time></trkpt><trkpt lat="43.510374000" lon="12.920700000"><ele>710.843000</ele><time>2009-07-28T07:22:35Z</time></trkpt><trkpt lat="43.510374000" lon="12.920700000"><ele>710.860000</ele><time>2009-07-28T07:22:39Z</time></trkpt><trkpt lat="43.510375000" lon="12.920700000"><ele>710.857000</ele><time>2009-07-28T07:22:41Z</time></trkpt><trkpt lat="43.510375000" lon="12.920700000"><ele>710.856000</ele><time>2009-07-28T07:22:45Z</time></trkpt><trkpt lat="43.510375000" lon="12.920699000"><ele>710.859000</ele><time>2009-07-28T07:22:47Z</time></trkpt><trkpt lat="43.510375000" lon="12.920699000"><ele>710.856000</ele><time>2009-07-28T07:22:51Z</time></trkpt><trkpt lat="43.510375000" lon="12.920699000"><ele>710.854000</ele><time>2009-07-28T07:22:53Z</time></trkpt><trkpt lat="43.510375000" lon="12.920698000"><ele>710.861000</ele><time>2009-07-28T07:22:57Z</time></trkpt><trkpt lat="43.510375000" lon="12.920698000"><ele>710.872000</ele><time>2009-07-28T07:22:59Z</time></trkpt><trkpt lat="43.510375000" lon="12.920699000"><ele>710.882000</ele><time>2009-07-28T07:23:03Z</time></trkpt><trkpt lat="43.510376000" lon="12.920699000"><ele>710.876000</ele><time>2009-07-28T07:23:05Z</time></trkpt><trkpt lat="43.510376000" lon="12.920699000"><ele>710.876000</ele><time>2009-07-28T07:23:09Z</time></trkpt><trkpt lat="43.510376000" lon="12.920699000"><ele>710.866000</ele><time>2009-07-28T07:23:11Z</time></trkpt><trkpt lat="43.510376000" lon="12.920699000"><ele>710.909000</ele><time>2009-07-28T07:23:15Z</time></trkpt><trkpt lat="43.510376000" lon="12.920699000"><ele>710.921000</ele><time>2009-07-28T07:23:17Z</time></trkpt><trkpt lat="43.510376000" lon="12.920699000"><ele>710.939000</ele><time>2009-07-28T07:23:21Z</time></trkpt><trkpt lat="43.510376000" lon="12.920699000"><ele>710.945000</ele><time>2009-07-28T07:23:23Z</time></trkpt><trkpt lat="43.510376000" lon="12.920699000"><ele>710.956000</ele><time>2009-07-28T07:23:27Z</time></trkpt><trkpt lat="43.510376000" lon="12.920699000"><ele>710.963000</ele><time>2009-07-28T07:23:29Z</time></trkpt><trkpt lat="43.510376000" lon="12.920698000"><ele>710.969000</ele><time>2009-07-28T07:23:33Z</time></trkpt><trkpt lat="43.510376000" lon="12.920699000"><ele>710.962000</ele><time>2009-07-28T07:23:35Z</time></trkpt><trkpt lat="43.510376000" lon="12.920699000"><ele>710.974000</ele><time>2009-07-28T07:23:39Z</time></trkpt><trkpt lat="43.510375000" lon="12.920697000"><ele>710.958000</ele><time>2009-07-28T07:23:41Z</time></trkpt><trkpt lat="43.510380000" lon="12.920690000"><ele>710.920000</ele><time>2009-07-28T07:23:45Z</time></trkpt><trkpt lat="43.510384000" lon="12.920688000"><ele>710.917000</ele><time>2009-07-28T07:23:47Z</time></trkpt><trkpt lat="43.510387000" lon="12.920684000"><ele>710.949000</ele><time>2009-07-28T07:23:51Z</time></trkpt><trkpt lat="43.510388000" lon="12.920681000"><ele>710.964000</ele><time>2009-07-28T07:23:53Z</time></trkpt><trkpt lat="43.510388000" lon="12.920677000"><ele>710.983000</ele><time>2009-07-28T07:23:57Z</time></trkpt><trkpt lat="43.510387000" lon="12.920675000"><ele>710.987000</ele><time>2009-07-28T07:23:59Z</time></trkpt><trkpt lat="43.510385000" lon="12.920672000"><ele>711.013000</ele><time>2009-07-28T07:24:03Z</time></trkpt><trkpt lat="43.510383000" lon="12.920670000"><ele>711.029000</ele><time>2009-07-28T07:24:05Z</time></trkpt><trkpt lat="43.510381000" lon="12.920666000"><ele>711.061000</ele><time>2009-07-28T07:24:09Z</time></trkpt><trkpt lat="43.510380000" lon="12.920663000"><ele>711.065000</ele><time>2009-07-28T07:24:11Z</time></trkpt><trkpt lat="43.510380000" lon="12.920661000"><ele>711.073000</ele><time>2009-07-28T07:24:15Z</time></trkpt><trkpt lat="43.510380000" lon="12.920663000"><ele>711.056000</ele><time>2009-07-28T07:24:17Z</time></trkpt><trkpt lat="43.510381000" lon="12.920666000"><ele>711.006000</ele><time>2009-07-28T07:24:21Z</time></trkpt><trkpt lat="43.510382000" lon="12.920667000"><ele>710.970000</ele><time>2009-07-28T07:24:23Z</time></trkpt><trkpt lat="43.510383000" lon="12.920667000"><ele>711.002000</ele><time>2009-07-28T07:24:27Z</time></trkpt><trkpt lat="43.510385000" lon="12.920666000"><ele>711.024000</ele><time>2009-07-28T07:24:29Z</time></trkpt><trkpt lat="43.510386000" lon="12.920666000"><ele>711.023000</ele><time>2009-07-28T07:24:33Z</time></trkpt><trkpt lat="43.510386000" lon="12.920659000"><ele>711.204000</ele><time>2009-07-28T07:24:35Z</time></trkpt><trkpt lat="43.510388000" lon="12.920656000"><ele>711.274000</ele><time>2009-07-28T07:24:39Z</time></trkpt><trkpt lat="43.510388000" lon="12.920655000"><ele>711.242000</ele><time>2009-07-28T07:24:41Z</time></trkpt><trkpt lat="43.510389000" lon="12.920656000"><ele>711.164000</ele><time>2009-07-28T07:24:45Z</time></trkpt><trkpt lat="43.510390000" lon="12.920656000"><ele>711.101000</ele><time>2009-07-28T07:24:47Z</time></trkpt><trkpt lat="43.510391000" lon="12.920657000"><ele>711.056000</ele><time>2009-07-28T07:24:51Z</time></trkpt><trkpt lat="43.510390000" lon="12.920656000"><ele>711.063000</ele><time>2009-07-28T07:24:53Z</time></trkpt><trkpt lat="43.510388000" lon="12.920653000"><ele>711.461000</ele><time>2009-07-28T07:24:57Z</time></trkpt><trkpt lat="43.510384000" lon="12.920645000"><ele>711.852000</ele><time>2009-07-28T07:24:59Z</time></trkpt><trkpt lat="43.510381000" lon="12.920643000"><ele>711.935000</ele><time>2009-07-28T07:25:03Z</time></trkpt><trkpt lat="43.510379000" lon="12.920642000"><ele>711.991000</ele><time>2009-07-28T07:25:05Z</time></trkpt><trkpt lat="43.510377000" lon="12.920641000"><ele>712.068000</ele><time>2009-07-28T07:25:09Z</time></trkpt><trkpt lat="43.510378000" lon="12.920641000"><ele>712.104000</ele><time>2009-07-28T07:25:11Z</time></trkpt><trkpt lat="43.510379000" lon="12.920642000"><ele>712.110000</ele><time>2009-07-28T07:25:15Z</time></trkpt><trkpt lat="43.510381000" lon="12.920643000"><ele>712.078000</ele><time>2009-07-28T07:25:17Z</time></trkpt><trkpt lat="43.510383000" lon="12.920645000"><ele>712.044000</ele><time>2009-07-28T07:25:21Z</time></trkpt><trkpt lat="43.510386000" lon="12.920647000"><ele>712.018000</ele><time>2009-07-28T07:25:23Z</time></trkpt><trkpt lat="43.510387000" lon="12.920649000"><ele>711.960000</ele><time>2009-07-28T07:25:27Z</time></trkpt><trkpt lat="43.510387000" lon="12.920649000"><ele>711.955000</ele><time>2009-07-28T07:25:29Z</time></trkpt><trkpt lat="43.510387000" lon="12.920648000"><ele>712.027000</ele><time>2009-07-28T07:25:33Z</time></trkpt><trkpt lat="43.510386000" lon="12.920648000"><ele>712.085000</ele><time>2009-07-28T07:25:35Z</time></trkpt><trkpt lat="43.510386000" lon="12.920648000"><ele>712.087000</ele><time>2009-07-28T07:25:39Z</time></trkpt><trkpt lat="43.510386000" lon="12.920648000"><ele>712.095000</ele><time>2009-07-28T07:25:41Z</time></trkpt><trkpt lat="43.510387000" lon="12.920649000"><ele>712.118000</ele><time>2009-07-28T07:25:45Z</time></trkpt><trkpt lat="43.510387000" lon="12.920648000"><ele>712.122000</ele><time>2009-07-28T07:25:47Z</time></trkpt><trkpt lat="43.510387000" lon="12.920648000"><ele>712.142000</ele><time>2009-07-28T07:25:51Z</time></trkpt><trkpt lat="43.510387000" lon="12.920648000"><ele>712.149000</ele><time>2009-07-28T07:25:53Z</time></trkpt><trkpt lat="43.510387000" lon="12.920648000"><ele>712.152000</ele><time>2009-07-28T07:25:57Z</time></trkpt><trkpt lat="43.510387000" lon="12.920649000"><ele>712.160000</ele><time>2009-07-28T07:25:59Z</time></trkpt><trkpt lat="43.510388000" lon="12.920649000"><ele>712.185000</ele><time>2009-07-28T07:26:03Z</time></trkpt><trkpt lat="43.510388000" lon="12.920649000"><ele>712.184000</ele><time>2009-07-28T07:26:05Z</time></trkpt><trkpt lat="43.510388000" lon="12.920650000"><ele>712.166000</ele><time>2009-07-28T07:26:09Z</time></trkpt><trkpt lat="43.510388000" lon="12.920650000"><ele>712.166000</ele><time>2009-07-28T07:26:11Z</time></trkpt><trkpt lat="43.510388000" lon="12.920650000"><ele>712.172000</ele><time>2009-07-28T07:26:15Z</time></trkpt><trkpt lat="43.510389000" lon="12.920650000"><ele>712.173000</ele><time>2009-07-28T07:26:17Z</time></trkpt><trkpt lat="43.510389000" lon="12.920651000"><ele>712.185000</ele><time>2009-07-28T07:26:21Z</time></trkpt><trkpt lat="43.510389000" lon="12.920651000"><ele>712.207000</ele><time>2009-07-28T07:26:23Z</time></trkpt><trkpt lat="43.510389000" lon="12.920651000"><ele>712.218000</ele><time>2009-07-28T07:26:27Z</time></trkpt><trkpt lat="43.510389000" lon="12.920650000"><ele>712.222000</ele><time>2009-07-28T07:26:29Z</time></trkpt><trkpt lat="43.510390000" lon="12.920650000"><ele>712.221000</ele><time>2009-07-28T07:26:33Z</time></trkpt><trkpt lat="43.510390000" lon="12.920650000"><ele>712.225000</ele><time>2009-07-28T07:26:35Z</time></trkpt><trkpt lat="43.510390000" lon="12.920650000"><ele>712.238000</ele><time>2009-07-28T07:26:39Z</time></trkpt><trkpt lat="43.510390000" lon="12.920650000"><ele>712.240000</ele><time>2009-07-28T07:26:41Z</time></trkpt><trkpt lat="43.510390000" lon="12.920650000"><ele>712.205000</ele><time>2009-07-28T07:26:45Z</time></trkpt><trkpt lat="43.510390000" lon="12.920650000"><ele>712.195000</ele><time>2009-07-28T07:26:47Z</time></trkpt><trkpt lat="43.510390000" lon="12.920650000"><ele>712.195000</ele><time>2009-07-28T07:26:51Z</time></trkpt><trkpt lat="43.510390000" lon="12.920650000"><ele>712.194000</ele><time>2009-07-28T07:26:53Z</time></trkpt><trkpt lat="43.510391000" lon="12.920649000"><ele>712.189000</ele><time>2009-07-28T07:26:57Z</time></trkpt><trkpt lat="43.510391000" lon="12.920649000"><ele>712.187000</ele><time>2009-07-28T07:26:59Z</time></trkpt><trkpt lat="43.510391000" lon="12.920650000"><ele>712.166000</ele><time>2009-07-28T07:27:03Z</time></trkpt><trkpt lat="43.510391000" lon="12.920650000"><ele>712.161000</ele><time>2009-07-28T07:27:05Z</time></trkpt><trkpt lat="43.510391000" lon="12.920649000"><ele>712.160000</ele><time>2009-07-28T07:27:09Z</time></trkpt><trkpt lat="43.510391000" lon="12.920649000"><ele>712.160000</ele><time>2009-07-28T07:27:11Z</time></trkpt><trkpt lat="43.510391000" lon="12.920649000"><ele>712.156000</ele><time>2009-07-28T07:27:15Z</time></trkpt><trkpt lat="43.510391000" lon="12.920649000"><ele>712.152000</ele><time>2009-07-28T07:27:17Z</time></trkpt><trkpt lat="43.510391000" lon="12.920649000"><ele>712.138000</ele><time>2009-07-28T07:27:21Z</time></trkpt><trkpt lat="43.510392000" lon="12.920649000"><ele>712.130000</ele><time>2009-07-28T07:27:23Z</time></trkpt><trkpt lat="43.510393000" lon="12.920650000"><ele>712.108000</ele><time>2009-07-28T07:27:27Z</time></trkpt><trkpt lat="43.510393000" lon="12.920650000"><ele>712.106000</ele><time>2009-07-28T07:27:29Z</time></trkpt><trkpt lat="43.510393000" lon="12.920651000"><ele>712.107000</ele><time>2009-07-28T07:27:33Z</time></trkpt><trkpt lat="43.510394000" lon="12.920651000"><ele>712.107000</ele><time>2009-07-28T07:27:35Z</time></trkpt><trkpt lat="43.510394000" lon="12.920651000"><ele>712.100000</ele><time>2009-07-28T07:27:39Z</time></trkpt><trkpt lat="43.510394000" lon="12.920651000"><ele>712.099000</ele><time>2009-07-28T07:27:41Z</time></trkpt><trkpt lat="43.510394000" lon="12.920651000"><ele>712.093000</ele><time>2009-07-28T07:27:45Z</time></trkpt><trkpt lat="43.510394000" lon="12.920651000"><ele>712.090000</ele><time>2009-07-28T07:27:47Z</time></trkpt><trkpt lat="43.510395000" lon="12.920651000"><ele>712.087000</ele><time>2009-07-28T07:27:51Z</time></trkpt><trkpt lat="43.510395000" lon="12.920651000"><ele>712.091000</ele><time>2009-07-28T07:27:53Z</time></trkpt><trkpt lat="43.510395000" lon="12.920651000"><ele>712.099000</ele><time>2009-07-28T07:27:57Z</time></trkpt><trkpt lat="43.510395000" lon="12.920651000"><ele>712.096000</ele><time>2009-07-28T07:27:59Z</time></trkpt><trkpt lat="43.510396000" lon="12.920652000"><ele>712.088000</ele><time>2009-07-28T07:28:03Z</time></trkpt><trkpt lat="43.510396000" lon="12.920652000"><ele>712.087000</ele><time>2009-07-28T07:28:05Z</time></trkpt><trkpt lat="43.510396000" lon="12.920652000"><ele>712.104000</ele><time>2009-07-28T07:28:09Z</time></trkpt><trkpt lat="43.510396000" lon="12.920652000"><ele>712.112000</ele><time>2009-07-28T07:28:11Z</time></trkpt><trkpt lat="43.510396000" lon="12.920652000"><ele>712.106000</ele><time>2009-07-28T07:28:15Z</time></trkpt><trkpt lat="43.510397000" lon="12.920652000"><ele>712.101000</ele><time>2009-07-28T07:28:17Z</time></trkpt><trkpt lat="43.510397000" lon="12.920651000"><ele>712.098000</ele><time>2009-07-28T07:28:21Z</time></trkpt><trkpt lat="43.510397000" lon="12.920651000"><ele>712.091000</ele><time>2009-07-28T07:28:23Z</time></trkpt><trkpt lat="43.510397000" lon="12.920651000"><ele>712.082000</ele><time>2009-07-28T07:28:27Z</time></trkpt><trkpt lat="43.510397000" lon="12.920651000"><ele>712.079000</ele><time>2009-07-28T07:28:29Z</time></trkpt><trkpt lat="43.510397000" lon="12.920651000"><ele>712.063000</ele><time>2009-07-28T07:28:33Z</time></trkpt><trkpt lat="43.510397000" lon="12.920651000"><ele>712.061000</ele><time>2009-07-28T07:28:35Z</time></trkpt><trkpt lat="43.510397000" lon="12.920651000"><ele>712.072000</ele><time>2009-07-28T07:28:39Z</time></trkpt><trkpt lat="43.510398000" lon="12.920652000"><ele>712.074000</ele><time>2009-07-28T07:28:41Z</time></trkpt><trkpt lat="43.510398000" lon="12.920651000"><ele>712.078000</ele><time>2009-07-28T07:28:45Z</time></trkpt><trkpt lat="43.510400000" lon="12.920649000"><ele>712.057000</ele><time>2009-07-28T07:28:47Z</time></trkpt><trkpt lat="43.510409000" lon="12.920570000"><ele>710.996000</ele><time>2009-07-28T07:28:51Z</time></trkpt><trkpt lat="43.510414000" lon="12.920539000"><ele>710.450000</ele><time>2009-07-28T07:28:53Z</time></trkpt><trkpt lat="43.510415000" lon="12.920516000"><ele>710.544000</ele><time>2009-07-28T07:28:57Z</time></trkpt><trkpt lat="43.510417000" lon="12.920504000"><ele>710.579000</ele><time>2009-07-28T07:28:59Z</time></trkpt><trkpt lat="43.510415000" lon="12.920506000"><ele>710.514000</ele><time>2009-07-28T07:29:03Z</time></trkpt><trkpt lat="43.510404000" lon="12.920489000"><ele>710.422000</ele><time>2009-07-28T07:29:05Z</time></trkpt><trkpt lat="43.510413000" lon="12.920427000"><ele>710.274000</ele><time>2009-07-28T07:29:09Z</time></trkpt><trkpt lat="43.510414000" lon="12.920403000"><ele>710.643000</ele><time>2009-07-28T07:29:11Z</time></trkpt><trkpt lat="43.510411000" lon="12.920357000"><ele>710.901000</ele><time>2009-07-28T07:29:15Z</time></trkpt><trkpt lat="43.510413000" lon="12.920337000"><ele>711.020000</ele><time>2009-07-28T07:29:17Z</time></trkpt><trkpt lat="43.510421000" lon="12.920298000"><ele>711.567000</ele><time>2009-07-28T07:29:21Z</time></trkpt><trkpt lat="43.510420000" lon="12.920271000"><ele>711.723000</ele><time>2009-07-28T07:29:23Z</time></trkpt><trkpt lat="43.510420000" lon="12.920216000"><ele>712.274000</ele><time>2009-07-28T07:29:27Z</time></trkpt><trkpt lat="43.510429000" lon="12.920191000"><ele>712.792000</ele><time>2009-07-28T07:29:29Z</time></trkpt><trkpt lat="43.510442000" lon="12.920150000"><ele>713.098000</ele><time>2009-07-28T07:29:33Z</time></trkpt><trkpt lat="43.510445000" lon="12.920125000"><ele>713.518000</ele><time>2009-07-28T07:29:35Z</time></trkpt><trkpt lat="43.510443000" lon="12.920086000"><ele>714.226000</ele><time>2009-07-28T07:29:39Z</time></trkpt><trkpt lat="43.510440000" lon="12.920054000"><ele>714.155000</ele><time>2009-07-28T07:29:41Z</time></trkpt><trkpt lat="43.510427000" lon="12.920015000"><ele>714.759000</ele><time>2009-07-28T07:29:45Z</time></trkpt><trkpt lat="43.510417000" lon="12.919981000"><ele>714.775000</ele><time>2009-07-28T07:29:47Z</time></trkpt><trkpt lat="43.510415000" lon="12.919947000"><ele>715.063000</ele><time>2009-07-28T07:29:51Z</time></trkpt><trkpt lat="43.510410000" lon="12.919940000"><ele>715.069000</ele><time>2009-07-28T07:29:53Z</time></trkpt><trkpt lat="43.510405000" lon="12.919918000"><ele>715.527000</ele><time>2009-07-28T07:29:57Z</time></trkpt><trkpt lat="43.510396000" lon="12.919907000"><ele>715.631000</ele><time>2009-07-28T07:29:59Z</time></trkpt><trkpt lat="43.510382000" lon="12.919871000"><ele>715.606000</ele><time>2009-07-28T07:30:03Z</time></trkpt><trkpt lat="43.510366000" lon="12.919852000"><ele>716.057000</ele><time>2009-07-28T07:30:05Z</time></trkpt><trkpt lat="43.510355000" lon="12.919816000"><ele>716.669000</ele><time>2009-07-28T07:30:09Z</time></trkpt><trkpt lat="43.510357000" lon="12.919812000"><ele>716.778000</ele><time>2009-07-28T07:30:11Z</time></trkpt><trkpt lat="43.510346000" lon="12.919791000"><ele>717.891000</ele><time>2009-07-28T07:30:15Z</time></trkpt><trkpt lat="43.510341000" lon="12.919775000"><ele>718.069000</ele><time>2009-07-28T07:30:17Z</time></trkpt><trkpt lat="43.510328000" lon="12.919764000"><ele>718.298000</ele><time>2009-07-28T07:30:21Z</time></trkpt><trkpt lat="43.510327000" lon="12.919751000"><ele>718.437000</ele><time>2009-07-28T07:30:23Z</time></trkpt><trkpt lat="43.510314000" lon="12.919725000"><ele>719.486000</ele><time>2009-07-28T07:30:27Z</time></trkpt><trkpt lat="43.510300000" lon="12.919713000"><ele>719.585000</ele><time>2009-07-28T07:30:29Z</time></trkpt><trkpt lat="43.510290000" lon="12.919695000"><ele>720.281000</ele><time>2009-07-28T07:30:33Z</time></trkpt><trkpt lat="43.510282000" lon="12.919685000"><ele>720.613000</ele><time>2009-07-28T07:30:35Z</time></trkpt><trkpt lat="43.510278000" lon="12.919686000"><ele>722.299000</ele><time>2009-07-28T07:30:39Z</time></trkpt><trkpt lat="43.510276000" lon="12.919680000"><ele>722.652000</ele><time>2009-07-28T07:30:41Z</time></trkpt><trkpt lat="43.510270000" lon="12.919671000"><ele>723.935000</ele><time>2009-07-28T07:30:45Z</time></trkpt><trkpt lat="43.510265000" lon="12.919668000"><ele>724.343000</ele><time>2009-07-28T07:30:47Z</time></trkpt><trkpt lat="43.510261000" lon="12.919655000"><ele>725.180000</ele><time>2009-07-28T07:30:51Z</time></trkpt><trkpt lat="43.510260000" lon="12.919648000"><ele>726.146000</ele><time>2009-07-28T07:30:53Z</time></trkpt><trkpt lat="43.510257000" lon="12.919651000"><ele>727.003000</ele><time>2009-07-28T07:30:57Z</time></trkpt><trkpt lat="43.510257000" lon="12.919651000"><ele>727.106000</ele><time>2009-07-28T07:30:59Z</time></trkpt><trkpt lat="43.510259000" lon="12.919654000"><ele>727.265000</ele><time>2009-07-28T07:31:03Z</time></trkpt><trkpt lat="43.510261000" lon="12.919656000"><ele>727.399000</ele><time>2009-07-28T07:31:05Z</time></trkpt><trkpt lat="43.510237000" lon="12.919662000"><ele>727.896000</ele><time>2009-07-28T07:31:09Z</time></trkpt><trkpt lat="43.510236000" lon="12.919660000"><ele>727.991000</ele><time>2009-07-28T07:31:11Z</time></trkpt><trkpt lat="43.510230000" lon="12.919657000"><ele>728.077000</ele><time>2009-07-28T07:31:15Z</time></trkpt><trkpt lat="43.510226000" lon="12.919654000"><ele>728.101000</ele><time>2009-07-28T07:31:17Z</time></trkpt><trkpt lat="43.510211000" lon="12.919655000"><ele>728.898000</ele><time>2009-07-28T07:31:21Z</time></trkpt><trkpt lat="43.510195000" lon="12.919670000"><ele>729.383000</ele><time>2009-07-28T07:31:23Z</time></trkpt><trkpt lat="43.510154000" lon="12.919679000"><ele>732.098000</ele><time>2009-07-28T07:31:27Z</time></trkpt><trkpt lat="43.510155000" lon="12.919683000"><ele>732.274000</ele><time>2009-07-28T07:31:29Z</time></trkpt><trkpt lat="43.510146000" lon="12.919680000"><ele>732.915000</ele><time>2009-07-28T07:31:33Z</time></trkpt><trkpt lat="43.510144000" lon="12.919688000"><ele>733.551000</ele><time>2009-07-28T07:31:35Z</time></trkpt><trkpt lat="43.510126000" lon="12.919693000"><ele>734.602000</ele><time>2009-07-28T07:31:39Z</time></trkpt><trkpt lat="43.510114000" lon="12.919705000"><ele>735.011000</ele><time>2009-07-28T07:31:41Z</time></trkpt><trkpt lat="43.510080000" lon="12.919696000"><ele>735.677000</ele><time>2009-07-28T07:31:45Z</time></trkpt><trkpt lat="43.510077000" lon="12.919699000"><ele>735.884000</ele><time>2009-07-28T07:31:47Z</time></trkpt><trkpt lat="43.510047000" lon="12.919693000"><ele>736.986000</ele><time>2009-07-28T07:31:51Z</time></trkpt><trkpt lat="43.510039000" lon="12.919688000"><ele>737.224000</ele><time>2009-07-28T07:31:53Z</time></trkpt><trkpt lat="43.510021000" lon="12.919693000"><ele>737.863000</ele><time>2009-07-28T07:31:57Z</time></trkpt><trkpt lat="43.510004000" lon="12.919700000"><ele>738.371000</ele><time>2009-07-28T07:31:59Z</time></trkpt><trkpt lat="43.509987000" lon="12.919712000"><ele>739.269000</ele><time>2009-07-28T07:32:03Z</time></trkpt><trkpt lat="43.509983000" lon="12.919709000"><ele>739.678000</ele><time>2009-07-28T07:32:05Z</time></trkpt><trkpt lat="43.509945000" lon="12.919724000"><ele>740.546000</ele><time>2009-07-28T07:32:09Z</time></trkpt><trkpt lat="43.509946000" lon="12.919744000"><ele>740.488000</ele><time>2009-07-28T07:32:11Z</time></trkpt><trkpt lat="43.509912000" lon="12.919747000"><ele>740.559000</ele><time>2009-07-28T07:32:15Z</time></trkpt><trkpt lat="43.509905000" lon="12.919735000"><ele>741.252000</ele><time>2009-07-28T07:32:17Z</time></trkpt><trkpt lat="43.509887000" lon="12.919729000"><ele>741.929000</ele><time>2009-07-28T07:32:21Z</time></trkpt><trkpt lat="43.509879000" lon="12.919731000"><ele>742.627000</ele><time>2009-07-28T07:32:23Z</time></trkpt><trkpt lat="43.509840000" lon="12.919740000"><ele>743.350000</ele><time>2009-07-28T07:32:27Z</time></trkpt><trkpt lat="43.509828000" lon="12.919744000"><ele>743.844000</ele><time>2009-07-28T07:32:29Z</time></trkpt><trkpt lat="43.509792000" lon="12.919744000"><ele>744.742000</ele><time>2009-07-28T07:32:33Z</time></trkpt><trkpt lat="43.509768000" lon="12.919739000"><ele>745.251000</ele><time>2009-07-28T07:32:35Z</time></trkpt><trkpt lat="43.509728000" lon="12.919751000"><ele>745.296000</ele><time>2009-07-28T07:32:39Z</time></trkpt><trkpt lat="43.509709000" lon="12.919747000"><ele>745.007000</ele><time>2009-07-28T07:32:41Z</time></trkpt><trkpt lat="43.509685000" lon="12.919739000"><ele>744.899000</ele><time>2009-07-28T07:32:45Z</time></trkpt><trkpt lat="43.509673000" lon="12.919735000"><ele>744.627000</ele><time>2009-07-28T07:32:47Z</time></trkpt><trkpt lat="43.509649000" lon="12.919745000"><ele>744.829000</ele><time>2009-07-28T07:32:51Z</time></trkpt><trkpt lat="43.509631000" lon="12.919755000"><ele>744.933000</ele><time>2009-07-28T07:32:53Z</time></trkpt><trkpt lat="43.509602000" lon="12.919768000"><ele>744.553000</ele><time>2009-07-28T07:32:57Z</time></trkpt><trkpt lat="43.509578000" lon="12.919763000"><ele>744.319000</ele><time>2009-07-28T07:32:59Z</time></trkpt><trkpt lat="43.509549000" lon="12.919761000"><ele>743.437000</ele><time>2009-07-28T07:33:03Z</time></trkpt><trkpt lat="43.509537000" lon="12.919761000"><ele>743.021000</ele><time>2009-07-28T07:33:05Z</time></trkpt><trkpt lat="43.509508000" lon="12.919760000"><ele>744.300000</ele><time>2009-07-28T07:33:09Z</time></trkpt><trkpt lat="43.509484000" lon="12.919774000"><ele>744.362000</ele><time>2009-07-28T07:33:11Z</time></trkpt><trkpt lat="43.509441000" lon="12.919810000"><ele>744.909000</ele><time>2009-07-28T07:33:15Z</time></trkpt><trkpt lat="43.509429000" lon="12.919803000"><ele>744.470000</ele><time>2009-07-28T07:33:17Z</time></trkpt><trkpt lat="43.509402000" lon="12.919804000"><ele>744.055000</ele><time>2009-07-28T07:33:21Z</time></trkpt><trkpt lat="43.509392000" lon="12.919813000"><ele>744.816000</ele><time>2009-07-28T07:33:23Z</time></trkpt><trkpt lat="43.509357000" lon="12.919808000"><ele>744.692000</ele><time>2009-07-28T07:33:27Z</time></trkpt><trkpt lat="43.509337000" lon="12.919800000"><ele>744.833000</ele><time>2009-07-28T07:33:29Z</time></trkpt><trkpt lat="43.509301000" lon="12.919804000"><ele>744.411000</ele><time>2009-07-28T07:33:33Z</time></trkpt><trkpt lat="43.509291000" lon="12.919785000"><ele>744.806000</ele><time>2009-07-28T07:33:35Z</time></trkpt><trkpt lat="43.509261000" lon="12.919796000"><ele>744.706000</ele><time>2009-07-28T07:33:39Z</time></trkpt><trkpt lat="43.509245000" lon="12.919792000"><ele>744.512000</ele><time>2009-07-28T07:33:41Z</time></trkpt><trkpt lat="43.509200000" lon="12.919805000"><ele>744.231000</ele><time>2009-07-28T07:33:45Z</time></trkpt><trkpt lat="43.509178000" lon="12.919809000"><ele>744.026000</ele><time>2009-07-28T07:33:47Z</time></trkpt><trkpt lat="43.509141000" lon="12.919821000"><ele>743.950000</ele><time>2009-07-28T07:33:51Z</time></trkpt><trkpt lat="43.509119000" lon="12.919826000"><ele>743.990000</ele><time>2009-07-28T07:33:53Z</time></trkpt><trkpt lat="43.509075000" lon="12.919822000"><ele>744.948000</ele><time>2009-07-28T07:33:57Z</time></trkpt><trkpt lat="43.509044000" lon="12.919844000"><ele>744.287000</ele><time>2009-07-28T07:33:59Z</time></trkpt><trkpt lat="43.509004000" lon="12.919836000"><ele>745.005000</ele><time>2009-07-28T07:34:03Z</time></trkpt><trkpt lat="43.508981000" lon="12.919838000"><ele>745.378000</ele><time>2009-07-28T07:34:05Z</time></trkpt><trkpt lat="43.508942000" lon="12.919847000"><ele>746.269000</ele><time>2009-07-28T07:34:09Z</time></trkpt><trkpt lat="43.508927000" lon="12.919846000"><ele>746.354000</ele><time>2009-07-28T07:34:11Z</time></trkpt><trkpt lat="43.508885000" lon="12.919839000"><ele>747.263000</ele><time>2009-07-28T07:34:15Z</time></trkpt><trkpt lat="43.508866000" lon="12.919827000"><ele>748.908000</ele><time>2009-07-28T07:34:17Z</time></trkpt><trkpt lat="43.508827000" lon="12.919817000"><ele>751.728000</ele><time>2009-07-28T07:34:21Z</time></trkpt><trkpt lat="43.508806000" lon="12.919814000"><ele>752.579000</ele><time>2009-07-28T07:34:23Z</time></trkpt><trkpt lat="43.508758000" lon="12.919809000"><ele>755.617000</ele><time>2009-07-28T07:34:27Z</time></trkpt><trkpt lat="43.508734000" lon="12.919816000"><ele>756.316000</ele><time>2009-07-28T07:34:29Z</time></trkpt><trkpt lat="43.508686000" lon="12.919804000"><ele>758.153000</ele><time>2009-07-28T07:34:33Z</time></trkpt><trkpt lat="43.508666000" lon="12.919792000"><ele>758.522000</ele><time>2009-07-28T07:34:35Z</time></trkpt><trkpt lat="43.508627000" lon="12.919783000"><ele>759.571000</ele><time>2009-07-28T07:34:39Z</time></trkpt><trkpt lat="43.508603000" lon="12.919775000"><ele>759.912000</ele><time>2009-07-28T07:34:41Z</time></trkpt><trkpt lat="43.508563000" lon="12.919765000"><ele>759.831000</ele><time>2009-07-28T07:34:45Z</time></trkpt><trkpt lat="43.508549000" lon="12.919764000"><ele>760.283000</ele><time>2009-07-28T07:34:47Z</time></trkpt><trkpt lat="43.508520000" lon="12.919751000"><ele>760.066000</ele><time>2009-07-28T07:34:51Z</time></trkpt><trkpt lat="43.508515000" lon="12.919740000"><ele>759.566000</ele><time>2009-07-28T07:34:53Z</time></trkpt><trkpt lat="43.508495000" lon="12.919702000"><ele>759.751000</ele><time>2009-07-28T07:34:57Z</time></trkpt><trkpt lat="43.508499000" lon="12.919668000"><ele>759.522000</ele><time>2009-07-28T07:34:59Z</time></trkpt><trkpt lat="43.508509000" lon="12.919633000"><ele>760.766000</ele><time>2009-07-28T07:35:03Z</time></trkpt><trkpt lat="43.508521000" lon="12.919615000"><ele>761.653000</ele><time>2009-07-28T07:35:05Z</time></trkpt><trkpt lat="43.508545000" lon="12.919600000"><ele>762.825000</ele><time>2009-07-28T07:35:09Z</time></trkpt><trkpt lat="43.508556000" lon="12.919600000"><ele>763.309000</ele><time>2009-07-28T07:35:11Z</time></trkpt><trkpt lat="43.508590000" lon="12.919587000"><ele>764.272000</ele><time>2009-07-28T07:35:15Z</time></trkpt><trkpt lat="43.508618000" lon="12.919570000"><ele>765.372000</ele><time>2009-07-28T07:35:19Z</time></trkpt><trkpt lat="43.508638000" lon="12.919567000"><ele>766.333000</ele><time>2009-07-28T07:35:23Z</time></trkpt><trkpt lat="43.508649000" lon="12.919556000"><ele>766.841000</ele><time>2009-07-28T07:35:25Z</time></trkpt><trkpt lat="43.508667000" lon="12.919558000"><ele>767.789000</ele><time>2009-07-28T07:35:29Z</time></trkpt><trkpt lat="43.508685000" lon="12.919558000"><ele>768.271000</ele><time>2009-07-28T07:35:31Z</time></trkpt><trkpt lat="43.508726000" lon="12.919536000"><ele>769.150000</ele><time>2009-07-28T07:35:35Z</time></trkpt><trkpt lat="43.508757000" lon="12.919528000"><ele>769.633000</ele><time>2009-07-28T07:35:37Z</time></trkpt><trkpt lat="43.508773000" lon="12.919519000"><ele>770.534000</ele><time>2009-07-28T07:35:41Z</time></trkpt><trkpt lat="43.508785000" lon="12.919516000"><ele>770.903000</ele><time>2009-07-28T07:35:43Z</time></trkpt><trkpt lat="43.508839000" lon="12.919492000"><ele>771.200000</ele><time>2009-07-28T07:35:47Z</time></trkpt><trkpt lat="43.508844000" lon="12.919486000"><ele>771.316000</ele><time>2009-07-28T07:35:49Z</time></trkpt><trkpt lat="43.508866000" lon="12.919478000"><ele>771.519000</ele><time>2009-07-28T07:35:53Z</time></trkpt><trkpt lat="43.508889000" lon="12.919452000"><ele>771.445000</ele><time>2009-07-28T07:35:55Z</time></trkpt><trkpt lat="43.508918000" lon="12.919420000"><ele>771.503000</ele><time>2009-07-28T07:35:59Z</time></trkpt><trkpt lat="43.508935000" lon="12.919406000"><ele>771.264000</ele><time>2009-07-28T07:36:01Z</time></trkpt><trkpt lat="43.508968000" lon="12.919368000"><ele>771.468000</ele><time>2009-07-28T07:36:05Z</time></trkpt><trkpt lat="43.508991000" lon="12.919350000"><ele>771.368000</ele><time>2009-07-28T07:36:07Z</time></trkpt><trkpt lat="43.509019000" lon="12.919333000"><ele>772.118000</ele><time>2009-07-28T07:36:11Z</time></trkpt><trkpt lat="43.509040000" lon="12.919318000"><ele>772.166000</ele><time>2009-07-28T07:36:13Z</time></trkpt><trkpt lat="43.509067000" lon="12.919280000"><ele>772.531000</ele><time>2009-07-28T07:36:17Z</time></trkpt><trkpt lat="43.509083000" lon="12.919255000"><ele>772.839000</ele><time>2009-07-28T07:36:19Z</time></trkpt><trkpt lat="43.509114000" lon="12.919235000"><ele>773.600000</ele><time>2009-07-28T07:36:23Z</time></trkpt><trkpt lat="43.509129000" lon="12.919221000"><ele>773.818000</ele><time>2009-07-28T07:36:25Z</time></trkpt><trkpt lat="43.509155000" lon="12.919187000"><ele>773.989000</ele><time>2009-07-28T07:36:29Z</time></trkpt><trkpt lat="43.509175000" lon="12.919171000"><ele>773.896000</ele><time>2009-07-28T07:36:31Z</time></trkpt><trkpt lat="43.509184000" lon="12.919136000"><ele>774.642000</ele><time>2009-07-28T07:36:35Z</time></trkpt><trkpt lat="43.509198000" lon="12.919113000"><ele>774.894000</ele><time>2009-07-28T07:36:37Z</time></trkpt><trkpt lat="43.509236000" lon="12.919080000"><ele>775.491000</ele><time>2009-07-28T07:36:41Z</time></trkpt><trkpt lat="43.509264000" lon="12.919020000"><ele>776.169000</ele><time>2009-07-28T07:36:43Z</time></trkpt><trkpt lat="43.509283000" lon="12.918970000"><ele>776.647000</ele><time>2009-07-28T07:36:47Z</time></trkpt><trkpt lat="43.509289000" lon="12.918951000"><ele>776.844000</ele><time>2009-07-28T07:36:49Z</time></trkpt><trkpt lat="43.509298000" lon="12.918912000"><ele>776.761000</ele><time>2009-07-28T07:36:53Z</time></trkpt><trkpt lat="43.509323000" lon="12.918889000"><ele>777.185000</ele><time>2009-07-28T07:36:55Z</time></trkpt><trkpt lat="43.509328000" lon="12.918845000"><ele>777.619000</ele><time>2009-07-28T07:36:59Z</time></trkpt><trkpt lat="43.509320000" lon="12.918829000"><ele>777.990000</ele><time>2009-07-28T07:37:01Z</time></trkpt><trkpt lat="43.509282000" lon="12.918824000"><ele>778.569000</ele><time>2009-07-28T07:37:05Z</time></trkpt><trkpt lat="43.509262000" lon="12.918820000"><ele>778.792000</ele><time>2009-07-28T07:37:07Z</time></trkpt><trkpt lat="43.509214000" lon="12.918842000"><ele>779.471000</ele><time>2009-07-28T07:37:11Z</time></trkpt><trkpt lat="43.509204000" lon="12.918863000"><ele>779.723000</ele><time>2009-07-28T07:37:13Z</time></trkpt><trkpt lat="43.509193000" lon="12.918930000"><ele>780.203000</ele><time>2009-07-28T07:37:17Z</time></trkpt><trkpt lat="43.509170000" lon="12.918959000"><ele>780.421000</ele><time>2009-07-28T07:37:19Z</time></trkpt><trkpt lat="43.509131000" lon="12.919002000"><ele>780.904000</ele><time>2009-07-28T07:37:23Z</time></trkpt><trkpt lat="43.509107000" lon="12.919024000"><ele>781.065000</ele><time>2009-07-28T07:37:25Z</time></trkpt><trkpt lat="43.509077000" lon="12.919042000"><ele>781.682000</ele><time>2009-07-28T07:37:29Z</time></trkpt><trkpt lat="43.509061000" lon="12.919027000"><ele>782.263000</ele><time>2009-07-28T07:37:31Z</time></trkpt><trkpt lat="43.509026000" lon="12.919035000"><ele>783.099000</ele><time>2009-07-28T07:37:35Z</time></trkpt><trkpt lat="43.509000000" lon="12.919060000"><ele>783.508000</ele><time>2009-07-28T07:37:37Z</time></trkpt><trkpt lat="43.508966000" lon="12.919084000"><ele>784.543000</ele><time>2009-07-28T07:37:41Z</time></trkpt><trkpt lat="43.508936000" lon="12.919078000"><ele>785.079000</ele><time>2009-07-28T07:37:43Z</time></trkpt><trkpt lat="43.508892000" lon="12.919059000"><ele>785.895000</ele><time>2009-07-28T07:37:47Z</time></trkpt><trkpt lat="43.508874000" lon="12.919026000"><ele>786.530000</ele><time>2009-07-28T07:37:49Z</time></trkpt><trkpt lat="43.508813000" lon="12.918996000"><ele>788.221000</ele><time>2009-07-28T07:37:53Z</time></trkpt><trkpt lat="43.508807000" lon="12.918972000"><ele>788.754000</ele><time>2009-07-28T07:37:55Z</time></trkpt><trkpt lat="43.508787000" lon="12.918909000"><ele>788.956000</ele><time>2009-07-28T07:37:59Z</time></trkpt><trkpt lat="43.508784000" lon="12.918875000"><ele>789.419000</ele><time>2009-07-28T07:38:01Z</time></trkpt><trkpt lat="43.508794000" lon="12.918821000"><ele>789.432000</ele><time>2009-07-28T07:38:05Z</time></trkpt><trkpt lat="43.508807000" lon="12.918805000"><ele>789.550000</ele><time>2009-07-28T07:38:07Z</time></trkpt><trkpt lat="43.508846000" lon="12.918754000"><ele>790.414000</ele><time>2009-07-28T07:38:11Z</time></trkpt><trkpt lat="43.508868000" lon="12.918740000"><ele>790.367000</ele><time>2009-07-28T07:38:13Z</time></trkpt><trkpt lat="43.508914000" lon="12.918714000"><ele>790.655000</ele><time>2009-07-28T07:38:17Z</time></trkpt><trkpt lat="43.508936000" lon="12.918716000"><ele>788.420000</ele><time>2009-07-28T07:38:19Z</time></trkpt><trkpt lat="43.508973000" lon="12.918697000"><ele>787.471000</ele><time>2009-07-28T07:38:23Z</time></trkpt><trkpt lat="43.508992000" lon="12.918693000"><ele>787.684000</ele><time>2009-07-28T07:38:25Z</time></trkpt><trkpt lat="43.509026000" lon="12.918666000"><ele>788.254000</ele><time>2009-07-28T07:38:29Z</time></trkpt><trkpt lat="43.509048000" lon="12.918655000"><ele>788.672000</ele><time>2009-07-28T07:38:31Z</time></trkpt><trkpt lat="43.509071000" lon="12.918621000"><ele>788.236000</ele><time>2009-07-28T07:38:35Z</time></trkpt><trkpt lat="43.509078000" lon="12.918590000"><ele>788.417000</ele><time>2009-07-28T07:38:37Z</time></trkpt><trkpt lat="43.509115000" lon="12.918570000"><ele>788.938000</ele><time>2009-07-28T07:38:41Z</time></trkpt><trkpt lat="43.509135000" lon="12.918568000"><ele>789.716000</ele><time>2009-07-28T07:38:43Z</time></trkpt><trkpt lat="43.509159000" lon="12.918529000"><ele>790.748000</ele><time>2009-07-28T07:38:47Z</time></trkpt><trkpt lat="43.509171000" lon="12.918526000"><ele>790.357000</ele><time>2009-07-28T07:38:49Z</time></trkpt><trkpt lat="43.509227000" lon="12.918513000"><ele>791.101000</ele><time>2009-07-28T07:38:53Z</time></trkpt><trkpt lat="43.509258000" lon="12.918514000"><ele>791.146000</ele><time>2009-07-28T07:38:55Z</time></trkpt><trkpt lat="43.509295000" lon="12.918505000"><ele>791.485000</ele><time>2009-07-28T07:38:59Z</time></trkpt><trkpt lat="43.509315000" lon="12.918492000"><ele>791.345000</ele><time>2009-07-28T07:39:01Z</time></trkpt><trkpt lat="43.509351000" lon="12.918482000"><ele>791.553000</ele><time>2009-07-28T07:39:05Z</time></trkpt><trkpt lat="43.509360000" lon="12.918453000"><ele>791.146000</ele><time>2009-07-28T07:39:07Z</time></trkpt><trkpt lat="43.509390000" lon="12.918449000"><ele>791.677000</ele><time>2009-07-28T07:39:11Z</time></trkpt><trkpt lat="43.509401000" lon="12.918419000"><ele>791.593000</ele><time>2009-07-28T07:39:13Z</time></trkpt><trkpt lat="43.509421000" lon="12.918375000"><ele>791.678000</ele><time>2009-07-28T07:39:17Z</time></trkpt><trkpt lat="43.509434000" lon="12.918361000"><ele>792.490000</ele><time>2009-07-28T07:39:19Z</time></trkpt><trkpt lat="43.509451000" lon="12.918311000"><ele>794.291000</ele><time>2009-07-28T07:39:23Z</time></trkpt><trkpt lat="43.509455000" lon="12.918286000"><ele>795.079000</ele><time>2009-07-28T07:39:25Z</time></trkpt><trkpt lat="43.509444000" lon="12.918226000"><ele>796.485000</ele><time>2009-07-28T07:39:29Z</time></trkpt><trkpt lat="43.509439000" lon="12.918198000"><ele>797.184000</ele><time>2009-07-28T07:39:31Z</time></trkpt><trkpt lat="43.509423000" lon="12.918182000"><ele>798.617000</ele><time>2009-07-28T07:39:35Z</time></trkpt><trkpt lat="43.509417000" lon="12.918178000"><ele>799.242000</ele><time>2009-07-28T07:39:37Z</time></trkpt><trkpt lat="43.509415000" lon="12.918177000"><ele>799.681000</ele><time>2009-07-28T07:39:41Z</time></trkpt><trkpt lat="43.509416000" lon="12.918179000"><ele>799.776000</ele><time>2009-07-28T07:39:43Z</time></trkpt><trkpt lat="43.509419000" lon="12.918181000"><ele>799.843000</ele><time>2009-07-28T07:39:47Z</time></trkpt><trkpt lat="43.509417000" lon="12.918179000"><ele>799.865000</ele><time>2009-07-28T07:39:49Z</time></trkpt><trkpt lat="43.509417000" lon="12.918179000"><ele>799.903000</ele><time>2009-07-28T07:39:53Z</time></trkpt><trkpt lat="43.509416000" lon="12.918179000"><ele>799.933000</ele><time>2009-07-28T07:39:55Z</time></trkpt><trkpt lat="43.509417000" lon="12.918179000"><ele>800.056000</ele><time>2009-07-28T07:39:59Z</time></trkpt><trkpt lat="43.509418000" lon="12.918180000"><ele>800.114000</ele><time>2009-07-28T07:40:01Z</time></trkpt><trkpt lat="43.509419000" lon="12.918180000"><ele>800.165000</ele><time>2009-07-28T07:40:05Z</time></trkpt><trkpt lat="43.509422000" lon="12.918182000"><ele>800.185000</ele><time>2009-07-28T07:40:07Z</time></trkpt><trkpt lat="43.509417000" lon="12.918173000"><ele>800.272000</ele><time>2009-07-28T07:40:11Z</time></trkpt><trkpt lat="43.509409000" lon="12.918173000"><ele>800.424000</ele><time>2009-07-28T07:40:13Z</time></trkpt><trkpt lat="43.509429000" lon="12.918156000"><ele>800.215000</ele><time>2009-07-28T07:40:17Z</time></trkpt><trkpt lat="43.509471000" lon="12.918150000"><ele>799.133000</ele><time>2009-07-28T07:40:19Z</time></trkpt><trkpt lat="43.509492000" lon="12.918158000"><ele>799.137000</ele><time>2009-07-28T07:40:23Z</time></trkpt><trkpt lat="43.509497000" lon="12.918157000"><ele>799.321000</ele><time>2009-07-28T07:40:25Z</time></trkpt><trkpt lat="43.509508000" lon="12.918165000"><ele>799.361000</ele><time>2009-07-28T07:40:29Z</time></trkpt><trkpt lat="43.509522000" lon="12.918163000"><ele>799.647000</ele><time>2009-07-28T07:40:31Z</time></trkpt><trkpt lat="43.509523000" lon="12.918134000"><ele>799.658000</ele><time>2009-07-28T07:40:35Z</time></trkpt><trkpt lat="43.509524000" lon="12.918135000"><ele>799.635000</ele><time>2009-07-28T07:40:37Z</time></trkpt><trkpt lat="43.509528000" lon="12.918137000"><ele>799.587000</ele><time>2009-07-28T07:40:41Z</time></trkpt><trkpt lat="43.509531000" lon="12.918139000"><ele>799.543000</ele><time>2009-07-28T07:40:43Z</time></trkpt><trkpt lat="43.509535000" lon="12.918141000"><ele>799.476000</ele><time>2009-07-28T07:40:47Z</time></trkpt><trkpt lat="43.509536000" lon="12.918141000"><ele>799.455000</ele><time>2009-07-28T07:40:49Z</time></trkpt><trkpt lat="43.509531000" lon="12.918138000"><ele>799.444000</ele><time>2009-07-28T07:40:53Z</time></trkpt><trkpt lat="43.509529000" lon="12.918136000"><ele>799.449000</ele><time>2009-07-28T07:40:55Z</time></trkpt><trkpt lat="43.509519000" lon="12.918143000"><ele>799.459000</ele><time>2009-07-28T07:40:59Z</time></trkpt><trkpt lat="43.509514000" lon="12.918143000"><ele>799.377000</ele><time>2009-07-28T07:41:01Z</time></trkpt><trkpt lat="43.509507000" lon="12.918142000"><ele>799.313000</ele><time>2009-07-28T07:41:05Z</time></trkpt><trkpt lat="43.509506000" lon="12.918141000"><ele>799.329000</ele><time>2009-07-28T07:41:07Z</time></trkpt><trkpt lat="43.509504000" lon="12.918141000"><ele>799.338000</ele><time>2009-07-28T07:41:11Z</time></trkpt><trkpt lat="43.509504000" lon="12.918141000"><ele>799.336000</ele><time>2009-07-28T07:41:13Z</time></trkpt><trkpt lat="43.509507000" lon="12.918144000"><ele>799.334000</ele><time>2009-07-28T07:41:17Z</time></trkpt><trkpt lat="43.509509000" lon="12.918145000"><ele>799.321000</ele><time>2009-07-28T07:41:19Z</time></trkpt><trkpt lat="43.509510000" lon="12.918146000"><ele>799.281000</ele><time>2009-07-28T07:41:23Z</time></trkpt><trkpt lat="43.509510000" lon="12.918145000"><ele>799.270000</ele><time>2009-07-28T07:41:25Z</time></trkpt><trkpt lat="43.509505000" lon="12.918142000"><ele>799.253000</ele><time>2009-07-28T07:41:29Z</time></trkpt><trkpt lat="43.509505000" lon="12.918142000"><ele>799.251000</ele><time>2009-07-28T07:41:31Z</time></trkpt><trkpt lat="43.509511000" lon="12.918146000"><ele>799.206000</ele><time>2009-07-28T07:41:35Z</time></trkpt><trkpt lat="43.509514000" lon="12.918148000"><ele>799.173000</ele><time>2009-07-28T07:41:37Z</time></trkpt><trkpt lat="43.509514000" lon="12.918148000"><ele>799.123000</ele><time>2009-07-28T07:41:41Z</time></trkpt><trkpt lat="43.509514000" lon="12.918147000"><ele>799.113000</ele><time>2009-07-28T07:41:43Z</time></trkpt><trkpt lat="43.509512000" lon="12.918146000"><ele>799.114000</ele><time>2009-07-28T07:41:47Z</time></trkpt><trkpt lat="43.509510000" lon="12.918144000"><ele>799.122000</ele><time>2009-07-28T07:41:49Z</time></trkpt><trkpt lat="43.509504000" lon="12.918140000"><ele>799.161000</ele><time>2009-07-28T07:41:53Z</time></trkpt><trkpt lat="43.509503000" lon="12.918139000"><ele>799.176000</ele><time>2009-07-28T07:41:55Z</time></trkpt><trkpt lat="43.509505000" lon="12.918140000"><ele>799.189000</ele><time>2009-07-28T07:41:59Z</time></trkpt><trkpt lat="43.509507000" lon="12.918141000"><ele>799.181000</ele><time>2009-07-28T07:42:01Z</time></trkpt><trkpt lat="43.509507000" lon="12.918141000"><ele>799.166000</ele><time>2009-07-28T07:42:05Z</time></trkpt><trkpt lat="43.509507000" lon="12.918142000"><ele>799.162000</ele><time>2009-07-28T07:42:07Z</time></trkpt><trkpt lat="43.509507000" lon="12.918141000"><ele>799.158000</ele><time>2009-07-28T07:42:11Z</time></trkpt><trkpt lat="43.509504000" lon="12.918140000"><ele>799.175000</ele><time>2009-07-28T07:42:13Z</time></trkpt><trkpt lat="43.509502000" lon="12.918138000"><ele>799.225000</ele><time>2009-07-28T07:42:17Z</time></trkpt><trkpt lat="43.509502000" lon="12.918138000"><ele>799.242000</ele><time>2009-07-28T07:42:19Z</time></trkpt><trkpt lat="43.509505000" lon="12.918140000"><ele>799.278000</ele><time>2009-07-28T07:42:23Z</time></trkpt><trkpt lat="43.509506000" lon="12.918140000"><ele>799.287000</ele><time>2009-07-28T07:42:25Z</time></trkpt><trkpt lat="43.509505000" lon="12.918140000"><ele>799.285000</ele><time>2009-07-28T07:42:29Z</time></trkpt><trkpt lat="43.509507000" lon="12.918141000"><ele>799.274000</ele><time>2009-07-28T07:42:31Z</time></trkpt><trkpt lat="43.509510000" lon="12.918144000"><ele>799.221000</ele><time>2009-07-28T07:42:35Z</time></trkpt><trkpt lat="43.509510000" lon="12.918143000"><ele>799.201000</ele><time>2009-07-28T07:42:37Z</time></trkpt><trkpt lat="43.509509000" lon="12.918143000"><ele>799.185000</ele><time>2009-07-28T07:42:41Z</time></trkpt><trkpt lat="43.509506000" lon="12.918142000"><ele>799.185000</ele><time>2009-07-28T07:42:43Z</time></trkpt><trkpt lat="43.509505000" lon="12.918141000"><ele>799.185000</ele><time>2009-07-28T07:42:47Z</time></trkpt><trkpt lat="43.509506000" lon="12.918141000"><ele>799.176000</ele><time>2009-07-28T07:42:49Z</time></trkpt><trkpt lat="43.509510000" lon="12.918143000"><ele>799.160000</ele><time>2009-07-28T07:42:53Z</time></trkpt><trkpt lat="43.509510000" lon="12.918144000"><ele>799.161000</ele><time>2009-07-28T07:42:55Z</time></trkpt><trkpt lat="43.509512000" lon="12.918145000"><ele>799.157000</ele><time>2009-07-28T07:42:59Z</time></trkpt><trkpt lat="43.509513000" lon="12.918146000"><ele>799.161000</ele><time>2009-07-28T07:43:01Z</time></trkpt><trkpt lat="43.509514000" lon="12.918147000"><ele>799.161000</ele><time>2009-07-28T07:43:05Z</time></trkpt><trkpt lat="43.509514000" lon="12.918147000"><ele>799.146000</ele><time>2009-07-28T07:43:07Z</time></trkpt><trkpt lat="43.509514000" lon="12.918147000"><ele>799.093000</ele><time>2009-07-28T07:43:11Z</time></trkpt><trkpt lat="43.509516000" lon="12.918148000"><ele>799.085000</ele><time>2009-07-28T07:43:13Z</time></trkpt><trkpt lat="43.509520000" lon="12.918151000"><ele>799.069000</ele><time>2009-07-28T07:43:17Z</time></trkpt><trkpt lat="43.509522000" lon="12.918153000"><ele>799.083000</ele><time>2009-07-28T07:43:19Z</time></trkpt><trkpt lat="43.509527000" lon="12.918155000"><ele>799.115000</ele><time>2009-07-28T07:43:23Z</time></trkpt><trkpt lat="43.509528000" lon="12.918156000"><ele>799.131000</ele><time>2009-07-28T07:43:25Z</time></trkpt><trkpt lat="43.509527000" lon="12.918156000"><ele>799.127000</ele><time>2009-07-28T07:43:29Z</time></trkpt><trkpt lat="43.509525000" lon="12.918155000"><ele>799.120000</ele><time>2009-07-28T07:43:31Z</time></trkpt><trkpt lat="43.509526000" lon="12.918156000"><ele>799.110000</ele><time>2009-07-28T07:43:35Z</time></trkpt><trkpt lat="43.509526000" lon="12.918156000"><ele>799.097000</ele><time>2009-07-28T07:43:37Z</time></trkpt><trkpt lat="43.509525000" lon="12.918155000"><ele>799.041000</ele><time>2009-07-28T07:43:41Z</time></trkpt><trkpt lat="43.509525000" lon="12.918155000"><ele>799.023000</ele><time>2009-07-28T07:43:43Z</time></trkpt><trkpt lat="43.509526000" lon="12.918157000"><ele>799.025000</ele><time>2009-07-28T07:43:47Z</time></trkpt><trkpt lat="43.509525000" lon="12.918156000"><ele>799.033000</ele><time>2009-07-28T07:43:49Z</time></trkpt><trkpt lat="43.509523000" lon="12.918156000"><ele>799.033000</ele><time>2009-07-28T07:43:53Z</time></trkpt><trkpt lat="43.509522000" lon="12.918156000"><ele>799.030000</ele><time>2009-07-28T07:43:55Z</time></trkpt><trkpt lat="43.509519000" lon="12.918155000"><ele>799.029000</ele><time>2009-07-28T07:43:59Z</time></trkpt><trkpt lat="43.509518000" lon="12.918155000"><ele>799.022000</ele><time>2009-07-28T07:44:01Z</time></trkpt><trkpt lat="43.509518000" lon="12.918156000"><ele>799.009000</ele><time>2009-07-28T07:44:05Z</time></trkpt><trkpt lat="43.509518000" lon="12.918156000"><ele>799.011000</ele><time>2009-07-28T07:44:07Z</time></trkpt><trkpt lat="43.509514000" lon="12.918154000"><ele>799.036000</ele><time>2009-07-28T07:44:11Z</time></trkpt><trkpt lat="43.509512000" lon="12.918153000"><ele>799.040000</ele><time>2009-07-28T07:44:13Z</time></trkpt><trkpt lat="43.509499000" lon="12.918153000"><ele>798.963000</ele><time>2009-07-28T07:44:17Z</time></trkpt><trkpt lat="43.509500000" lon="12.918162000"><ele>798.834000</ele><time>2009-07-28T07:44:19Z</time></trkpt><trkpt lat="43.509492000" lon="12.918170000"><ele>798.739000</ele><time>2009-07-28T07:44:23Z</time></trkpt><trkpt lat="43.509492000" lon="12.918170000"><ele>798.729000</ele><time>2009-07-28T07:44:25Z</time></trkpt><trkpt lat="43.509495000" lon="12.918173000"><ele>798.742000</ele><time>2009-07-28T07:44:29Z</time></trkpt><trkpt lat="43.509496000" lon="12.918174000"><ele>798.761000</ele><time>2009-07-28T07:44:31Z</time></trkpt><trkpt lat="43.509501000" lon="12.918177000"><ele>798.804000</ele><time>2009-07-28T07:44:35Z</time></trkpt><trkpt lat="43.509501000" lon="12.918177000"><ele>798.827000</ele><time>2009-07-28T07:44:37Z</time></trkpt><trkpt lat="43.509501000" lon="12.918177000"><ele>798.854000</ele><time>2009-07-28T07:44:41Z</time></trkpt><trkpt lat="43.509500000" lon="12.918177000"><ele>798.857000</ele><time>2009-07-28T07:44:43Z</time></trkpt><trkpt lat="43.509500000" lon="12.918178000"><ele>798.873000</ele><time>2009-07-28T07:44:47Z</time></trkpt><trkpt lat="43.509498000" lon="12.918176000"><ele>798.869000</ele><time>2009-07-28T07:44:49Z</time></trkpt><trkpt lat="43.509497000" lon="12.918176000"><ele>798.890000</ele><time>2009-07-28T07:44:53Z</time></trkpt><trkpt lat="43.509499000" lon="12.918178000"><ele>798.905000</ele><time>2009-07-28T07:44:55Z</time></trkpt><trkpt lat="43.509501000" lon="12.918180000"><ele>798.920000</ele><time>2009-07-28T07:44:59Z</time></trkpt><trkpt lat="43.509501000" lon="12.918180000"><ele>798.926000</ele><time>2009-07-28T07:45:01Z</time></trkpt><trkpt lat="43.509498000" lon="12.918179000"><ele>798.941000</ele><time>2009-07-28T07:45:05Z</time></trkpt><trkpt lat="43.509499000" lon="12.918179000"><ele>798.945000</ele><time>2009-07-28T07:45:07Z</time></trkpt><trkpt lat="43.509500000" lon="12.918180000"><ele>798.940000</ele><time>2009-07-28T07:45:11Z</time></trkpt><trkpt lat="43.509499000" lon="12.918181000"><ele>798.936000</ele><time>2009-07-28T07:45:13Z</time></trkpt><trkpt lat="43.509500000" lon="12.918182000"><ele>798.939000</ele><time>2009-07-28T07:45:17Z</time></trkpt><trkpt lat="43.509502000" lon="12.918183000"><ele>798.943000</ele><time>2009-07-28T07:45:19Z</time></trkpt><trkpt lat="43.509504000" lon="12.918184000"><ele>798.949000</ele><time>2009-07-28T07:45:23Z</time></trkpt><trkpt lat="43.509502000" lon="12.918183000"><ele>798.931000</ele><time>2009-07-28T07:45:25Z</time></trkpt><trkpt lat="43.509502000" lon="12.918183000"><ele>798.878000</ele><time>2009-07-28T07:45:29Z</time></trkpt><trkpt lat="43.509504000" lon="12.918185000"><ele>798.864000</ele><time>2009-07-28T07:45:31Z</time></trkpt><trkpt lat="43.509507000" lon="12.918188000"><ele>798.853000</ele><time>2009-07-28T07:45:35Z</time></trkpt><trkpt lat="43.509510000" lon="12.918190000"><ele>798.858000</ele><time>2009-07-28T07:45:37Z</time></trkpt><trkpt lat="43.509511000" lon="12.918192000"><ele>798.883000</ele><time>2009-07-28T07:45:41Z</time></trkpt><trkpt lat="43.509512000" lon="12.918192000"><ele>798.900000</ele><time>2009-07-28T07:45:43Z</time></trkpt><trkpt lat="43.509515000" lon="12.918194000"><ele>798.923000</ele><time>2009-07-28T07:45:47Z</time></trkpt><trkpt lat="43.509515000" lon="12.918194000"><ele>798.924000</ele><time>2009-07-28T07:45:49Z</time></trkpt><trkpt lat="43.509515000" lon="12.918194000"><ele>798.926000</ele><time>2009-07-28T07:45:53Z</time></trkpt><trkpt lat="43.509515000" lon="12.918194000"><ele>798.936000</ele><time>2009-07-28T07:45:55Z</time></trkpt><trkpt lat="43.509516000" lon="12.918195000"><ele>798.900000</ele><time>2009-07-28T07:45:59Z</time></trkpt><trkpt lat="43.509517000" lon="12.918195000"><ele>798.902000</ele><time>2009-07-28T07:46:01Z</time></trkpt><trkpt lat="43.509521000" lon="12.918198000"><ele>798.932000</ele><time>2009-07-28T07:46:05Z</time></trkpt><trkpt lat="43.509522000" lon="12.918199000"><ele>798.955000</ele><time>2009-07-28T07:46:07Z</time></trkpt><trkpt lat="43.509513000" lon="12.918155000"><ele>796.953000</ele><time>2009-07-28T07:46:11Z</time></trkpt><trkpt lat="43.509527000" lon="12.918153000"><ele>796.806000</ele><time>2009-07-28T07:46:13Z</time></trkpt><trkpt lat="43.509553000" lon="12.918180000"><ele>797.752000</ele><time>2009-07-28T07:46:17Z</time></trkpt><trkpt lat="43.509570000" lon="12.918191000"><ele>797.944000</ele><time>2009-07-28T07:46:19Z</time></trkpt><trkpt lat="43.509612000" lon="12.918213000"><ele>798.236000</ele><time>2009-07-28T07:46:23Z</time></trkpt><trkpt lat="43.509628000" lon="12.918215000"><ele>798.631000</ele><time>2009-07-28T07:46:25Z</time></trkpt><trkpt lat="43.509665000" lon="12.918183000"><ele>798.048000</ele><time>2009-07-28T07:46:29Z</time></trkpt><trkpt lat="43.509661000" lon="12.918181000"><ele>798.990000</ele><time>2009-07-28T07:46:31Z</time></trkpt><trkpt lat="43.509665000" lon="12.918188000"><ele>799.099000</ele><time>2009-07-28T07:46:35Z</time></trkpt><trkpt lat="43.509666000" lon="12.918189000"><ele>799.115000</ele><time>2009-07-28T07:46:37Z</time></trkpt><trkpt lat="43.509669000" lon="12.918168000"><ele>799.077000</ele><time>2009-07-28T07:46:41Z</time></trkpt><trkpt lat="43.509663000" lon="12.918144000"><ele>799.446000</ele><time>2009-07-28T07:46:43Z</time></trkpt><trkpt lat="43.509650000" lon="12.918085000"><ele>800.133000</ele><time>2009-07-28T07:46:47Z</time></trkpt><trkpt lat="43.509652000" lon="12.918073000"><ele>799.860000</ele><time>2009-07-28T07:46:49Z</time></trkpt><trkpt lat="43.509653000" lon="12.918065000"><ele>799.133000</ele><time>2009-07-28T07:46:53Z</time></trkpt><trkpt lat="43.509650000" lon="12.918063000"><ele>799.173000</ele><time>2009-07-28T07:46:55Z</time></trkpt><trkpt lat="43.509642000" lon="12.918058000"><ele>799.231000</ele><time>2009-07-28T07:46:59Z</time></trkpt><trkpt lat="43.509641000" lon="12.918058000"><ele>799.254000</ele><time>2009-07-28T07:47:01Z</time></trkpt><trkpt lat="43.509641000" lon="12.918058000"><ele>799.298000</ele><time>2009-07-28T07:47:05Z</time></trkpt><trkpt lat="43.509633000" lon="12.918055000"><ele>799.218000</ele><time>2009-07-28T07:47:07Z</time></trkpt><trkpt lat="43.509629000" lon="12.918032000"><ele>799.037000</ele><time>2009-07-28T07:47:11Z</time></trkpt><trkpt lat="43.509628000" lon="12.918033000"><ele>799.041000</ele><time>2009-07-28T07:47:13Z</time></trkpt><trkpt lat="43.509658000" lon="12.918063000"><ele>798.709000</ele><time>2009-07-28T07:47:17Z</time></trkpt><trkpt lat="43.509677000" lon="12.918065000"><ele>798.622000</ele><time>2009-07-28T07:47:19Z</time></trkpt><trkpt lat="43.509678000" lon="12.918069000"><ele>797.904000</ele><time>2009-07-28T07:47:23Z</time></trkpt><trkpt lat="43.509679000" lon="12.918070000"><ele>797.874000</ele><time>2009-07-28T07:47:25Z</time></trkpt><trkpt lat="43.509686000" lon="12.918032000"><ele>798.191000</ele><time>2009-07-28T07:47:29Z</time></trkpt><trkpt lat="43.509706000" lon="12.918029000"><ele>797.839000</ele><time>2009-07-28T07:47:31Z</time></trkpt><trkpt lat="43.509717000" lon="12.917996000"><ele>798.504000</ele><time>2009-07-28T07:47:35Z</time></trkpt><trkpt lat="43.509718000" lon="12.918004000"><ele>798.999000</ele><time>2009-07-28T07:47:37Z</time></trkpt><trkpt lat="43.509729000" lon="12.918001000"><ele>799.947000</ele><time>2009-07-28T07:47:41Z</time></trkpt><trkpt lat="43.509733000" lon="12.918009000"><ele>799.262000</ele><time>2009-07-28T07:47:43Z</time></trkpt><trkpt lat="43.509734000" lon="12.918009000"><ele>799.069000</ele><time>2009-07-28T07:47:47Z</time></trkpt><trkpt lat="43.509734000" lon="12.918010000"><ele>799.105000</ele><time>2009-07-28T07:47:49Z</time></trkpt><trkpt lat="43.509733000" lon="12.918009000"><ele>799.136000</ele><time>2009-07-28T07:47:53Z</time></trkpt><trkpt lat="43.509733000" lon="12.918009000"><ele>799.111000</ele><time>2009-07-28T07:47:55Z</time></trkpt><trkpt lat="43.509733000" lon="12.918009000"><ele>799.093000</ele><time>2009-07-28T07:47:59Z</time></trkpt><trkpt lat="43.509733000" lon="12.918009000"><ele>799.093000</ele><time>2009-07-28T07:48:01Z</time></trkpt><trkpt lat="43.509734000" lon="12.918009000"><ele>799.079000</ele><time>2009-07-28T07:48:05Z</time></trkpt><trkpt lat="43.509734000" lon="12.918009000"><ele>799.073000</ele><time>2009-07-28T07:48:07Z</time></trkpt><trkpt lat="43.509754000" lon="12.918037000"><ele>799.148000</ele><time>2009-07-28T07:48:11Z</time></trkpt><trkpt lat="43.509762000" lon="12.918055000"><ele>799.278000</ele><time>2009-07-28T07:48:13Z</time></trkpt><trkpt lat="43.509766000" lon="12.918071000"><ele>799.065000</ele><time>2009-07-28T07:48:17Z</time></trkpt><trkpt lat="43.509763000" lon="12.918075000"><ele>798.941000</ele><time>2009-07-28T07:48:19Z</time></trkpt><trkpt lat="43.509763000" lon="12.918075000"><ele>798.966000</ele><time>2009-07-28T07:48:23Z</time></trkpt><trkpt lat="43.509762000" lon="12.918073000"><ele>798.972000</ele><time>2009-07-28T07:48:25Z</time></trkpt><trkpt lat="43.509756000" lon="12.918057000"><ele>798.587000</ele><time>2009-07-28T07:48:29Z</time></trkpt><trkpt lat="43.509748000" lon="12.918036000"><ele>798.810000</ele><time>2009-07-28T07:48:31Z</time></trkpt><trkpt lat="43.509735000" lon="12.918007000"><ele>798.172000</ele><time>2009-07-28T07:48:35Z</time></trkpt><trkpt lat="43.509730000" lon="12.917996000"><ele>798.247000</ele><time>2009-07-28T07:48:37Z</time></trkpt><trkpt lat="43.509726000" lon="12.918007000"><ele>797.810000</ele><time>2009-07-28T07:48:41Z</time></trkpt><trkpt lat="43.509728000" lon="12.918003000"><ele>797.757000</ele><time>2009-07-28T07:48:43Z</time></trkpt><trkpt lat="43.509734000" lon="12.918007000"><ele>797.682000</ele><time>2009-07-28T07:48:47Z</time></trkpt><trkpt lat="43.509734000" lon="12.918007000"><ele>797.669000</ele><time>2009-07-28T07:48:49Z</time></trkpt><trkpt lat="43.509739000" lon="12.918010000"><ele>797.629000</ele><time>2009-07-28T07:48:53Z</time></trkpt><trkpt lat="43.509740000" lon="12.918011000"><ele>797.621000</ele><time>2009-07-28T07:48:55Z</time></trkpt><trkpt lat="43.509738000" lon="12.918009000"><ele>797.618000</ele><time>2009-07-28T07:48:59Z</time></trkpt><trkpt lat="43.509736000" lon="12.918007000"><ele>797.614000</ele><time>2009-07-28T07:49:01Z</time></trkpt><trkpt lat="43.509734000" lon="12.918005000"><ele>797.614000</ele><time>2009-07-28T07:49:05Z</time></trkpt><trkpt lat="43.509734000" lon="12.918005000"><ele>797.627000</ele><time>2009-07-28T07:49:07Z</time></trkpt><trkpt lat="43.509732000" lon="12.918003000"><ele>797.655000</ele><time>2009-07-28T07:49:11Z</time></trkpt><trkpt lat="43.509730000" lon="12.918001000"><ele>797.670000</ele><time>2009-07-28T07:49:13Z</time></trkpt><trkpt lat="43.509724000" lon="12.917981000"><ele>797.691000</ele><time>2009-07-28T07:49:17Z</time></trkpt><trkpt lat="43.509730000" lon="12.917971000"><ele>797.646000</ele><time>2009-07-28T07:49:19Z</time></trkpt><trkpt lat="43.509732000" lon="12.917961000"><ele>797.730000</ele><time>2009-07-28T07:49:23Z</time></trkpt><trkpt lat="43.509733000" lon="12.917958000"><ele>797.737000</ele><time>2009-07-28T07:49:25Z</time></trkpt><trkpt lat="43.509736000" lon="12.917953000"><ele>797.724000</ele><time>2009-07-28T07:49:29Z</time></trkpt><trkpt lat="43.509737000" lon="12.917954000"><ele>797.698000</ele><time>2009-07-28T07:49:31Z</time></trkpt><trkpt lat="43.509738000" lon="12.917956000"><ele>797.628000</ele><time>2009-07-28T07:49:35Z</time></trkpt><trkpt lat="43.509739000" lon="12.917958000"><ele>797.565000</ele><time>2009-07-28T07:49:37Z</time></trkpt><trkpt lat="43.509741000" lon="12.917958000"><ele>797.451000</ele><time>2009-07-28T07:49:41Z</time></trkpt><trkpt lat="43.509741000" lon="12.917958000"><ele>797.449000</ele><time>2009-07-28T07:49:43Z</time></trkpt><trkpt lat="43.509741000" lon="12.917958000"><ele>797.437000</ele><time>2009-07-28T07:49:47Z</time></trkpt><trkpt lat="43.509741000" lon="12.917958000"><ele>797.429000</ele><time>2009-07-28T07:49:49Z</time></trkpt><trkpt lat="43.509741000" lon="12.917958000"><ele>797.422000</ele><time>2009-07-28T07:49:53Z</time></trkpt><trkpt lat="43.509741000" lon="12.917958000"><ele>797.414000</ele><time>2009-07-28T07:49:55Z</time></trkpt><trkpt lat="43.509741000" lon="12.917958000"><ele>797.420000</ele><time>2009-07-28T07:49:59Z</time></trkpt><trkpt lat="43.509741000" lon="12.917958000"><ele>797.423000</ele><time>2009-07-28T07:50:01Z</time></trkpt><trkpt lat="43.509741000" lon="12.917958000"><ele>797.435000</ele><time>2009-07-28T07:50:05Z</time></trkpt><trkpt lat="43.509741000" lon="12.917958000"><ele>797.441000</ele><time>2009-07-28T07:50:07Z</time></trkpt><trkpt lat="43.509741000" lon="12.917958000"><ele>797.434000</ele><time>2009-07-28T07:50:11Z</time></trkpt><trkpt lat="43.509741000" lon="12.917958000"><ele>797.440000</ele><time>2009-07-28T07:50:13Z</time></trkpt><trkpt lat="43.509745000" lon="12.917962000"><ele>797.412000</ele><time>2009-07-28T07:50:17Z</time></trkpt><trkpt lat="43.509746000" lon="12.917962000"><ele>797.415000</ele><time>2009-07-28T07:50:19Z</time></trkpt><trkpt lat="43.509748000" lon="12.917965000"><ele>797.379000</ele><time>2009-07-28T07:50:23Z</time></trkpt><trkpt lat="43.509751000" lon="12.917968000"><ele>797.350000</ele><time>2009-07-28T07:50:25Z</time></trkpt><trkpt lat="43.509754000" lon="12.917965000"><ele>796.774000</ele><time>2009-07-28T07:50:29Z</time></trkpt><trkpt lat="43.509755000" lon="12.917965000"><ele>796.672000</ele><time>2009-07-28T07:50:31Z</time></trkpt><trkpt lat="43.509756000" lon="12.917967000"><ele>796.501000</ele><time>2009-07-28T07:50:35Z</time></trkpt><trkpt lat="43.509756000" lon="12.917967000"><ele>796.448000</ele><time>2009-07-28T07:50:37Z</time></trkpt><trkpt lat="43.509755000" lon="12.917965000"><ele>796.382000</ele><time>2009-07-28T07:50:41Z</time></trkpt><trkpt lat="43.509754000" lon="12.917964000"><ele>796.366000</ele><time>2009-07-28T07:50:43Z</time></trkpt><trkpt lat="43.509755000" lon="12.917964000"><ele>796.356000</ele><time>2009-07-28T07:50:47Z</time></trkpt><trkpt lat="43.509756000" lon="12.917965000"><ele>796.354000</ele><time>2009-07-28T07:50:49Z</time></trkpt><trkpt lat="43.509752000" lon="12.917961000"><ele>796.365000</ele><time>2009-07-28T07:50:53Z</time></trkpt><trkpt lat="43.509755000" lon="12.917954000"><ele>796.333000</ele><time>2009-07-28T07:50:55Z</time></trkpt><trkpt lat="43.509753000" lon="12.917945000"><ele>796.302000</ele><time>2009-07-28T07:50:59Z</time></trkpt><trkpt lat="43.509751000" lon="12.917944000"><ele>796.316000</ele><time>2009-07-28T07:51:01Z</time></trkpt><trkpt lat="43.509748000" lon="12.917942000"><ele>796.334000</ele><time>2009-07-28T07:51:05Z</time></trkpt><trkpt lat="43.509745000" lon="12.917940000"><ele>796.355000</ele><time>2009-07-28T07:51:07Z</time></trkpt><trkpt lat="43.509740000" lon="12.917937000"><ele>796.363000</ele><time>2009-07-28T07:51:11Z</time></trkpt><trkpt lat="43.509740000" lon="12.917937000"><ele>796.352000</ele><time>2009-07-28T07:51:13Z</time></trkpt><trkpt lat="43.509740000" lon="12.917938000"><ele>796.331000</ele><time>2009-07-28T07:51:17Z</time></trkpt><trkpt lat="43.509739000" lon="12.917937000"><ele>796.324000</ele><time>2009-07-28T07:51:19Z</time></trkpt><trkpt lat="43.509736000" lon="12.917935000"><ele>796.313000</ele><time>2009-07-28T07:51:23Z</time></trkpt><trkpt lat="43.509735000" lon="12.917934000"><ele>796.306000</ele><time>2009-07-28T07:51:25Z</time></trkpt><trkpt lat="43.509740000" lon="12.917936000"><ele>796.294000</ele><time>2009-07-28T07:51:29Z</time></trkpt><trkpt lat="43.509743000" lon="12.917939000"><ele>796.293000</ele><time>2009-07-28T07:51:31Z</time></trkpt><trkpt lat="43.509748000" lon="12.917942000"><ele>796.287000</ele><time>2009-07-28T07:51:35Z</time></trkpt><trkpt lat="43.509748000" lon="12.917943000"><ele>796.283000</ele><time>2009-07-28T07:51:37Z</time></trkpt><trkpt lat="43.509744000" lon="12.917941000"><ele>796.235000</ele><time>2009-07-28T07:51:41Z</time></trkpt><trkpt lat="43.509743000" lon="12.917939000"><ele>796.199000</ele><time>2009-07-28T07:51:43Z</time></trkpt><trkpt lat="43.509742000" lon="12.917937000"><ele>796.195000</ele><time>2009-07-28T07:51:47Z</time></trkpt><trkpt lat="43.509742000" lon="12.917936000"><ele>796.214000</ele><time>2009-07-28T07:51:49Z</time></trkpt><trkpt lat="43.509747000" lon="12.917938000"><ele>796.317000</ele><time>2009-07-28T07:51:53Z</time></trkpt><trkpt lat="43.509749000" lon="12.917940000"><ele>796.374000</ele><time>2009-07-28T07:51:55Z</time></trkpt><trkpt lat="43.509749000" lon="12.917940000"><ele>796.410000</ele><time>2009-07-28T07:51:59Z</time></trkpt><trkpt lat="43.509749000" lon="12.917941000"><ele>796.404000</ele><time>2009-07-28T07:52:01Z</time></trkpt><trkpt lat="43.509750000" lon="12.917942000"><ele>796.340000</ele><time>2009-07-28T07:52:05Z</time></trkpt><trkpt lat="43.509751000" lon="12.917942000"><ele>796.270000</ele><time>2009-07-28T07:52:07Z</time></trkpt><trkpt lat="43.509748000" lon="12.917942000"><ele>796.119000</ele><time>2009-07-28T07:52:11Z</time></trkpt><trkpt lat="43.509746000" lon="12.917942000"><ele>796.061000</ele><time>2009-07-28T07:52:13Z</time></trkpt><trkpt lat="43.509745000" lon="12.917941000"><ele>795.977000</ele><time>2009-07-28T07:52:17Z</time></trkpt><trkpt lat="43.509745000" lon="12.917941000"><ele>795.968000</ele><time>2009-07-28T07:52:19Z</time></trkpt><trkpt lat="43.509740000" lon="12.917937000"><ele>796.023000</ele><time>2009-07-28T07:52:23Z</time></trkpt><trkpt lat="43.509736000" lon="12.917934000"><ele>796.075000</ele><time>2009-07-28T07:52:25Z</time></trkpt><trkpt lat="43.509730000" lon="12.917930000"><ele>796.162000</ele><time>2009-07-28T07:52:29Z</time></trkpt><trkpt lat="43.509729000" lon="12.917929000"><ele>796.177000</ele><time>2009-07-28T07:52:31Z</time></trkpt><trkpt lat="43.509732000" lon="12.917931000"><ele>796.181000</ele><time>2009-07-28T07:52:35Z</time></trkpt><trkpt lat="43.509733000" lon="12.917932000"><ele>796.178000</ele><time>2009-07-28T07:52:37Z</time></trkpt><trkpt lat="43.509735000" lon="12.917934000"><ele>796.153000</ele><time>2009-07-28T07:52:41Z</time></trkpt><trkpt lat="43.509736000" lon="12.917935000"><ele>796.142000</ele><time>2009-07-28T07:52:43Z</time></trkpt><trkpt lat="43.509737000" lon="12.917936000"><ele>796.122000</ele><time>2009-07-28T07:52:47Z</time></trkpt><trkpt lat="43.509737000" lon="12.917936000"><ele>796.112000</ele><time>2009-07-28T07:52:49Z</time></trkpt><trkpt lat="43.509739000" lon="12.917938000"><ele>796.088000</ele><time>2009-07-28T07:52:53Z</time></trkpt><trkpt lat="43.509742000" lon="12.917940000"><ele>796.055000</ele><time>2009-07-28T07:52:55Z</time></trkpt><trkpt lat="43.509747000" lon="12.917944000"><ele>795.995000</ele><time>2009-07-28T07:52:59Z</time></trkpt><trkpt lat="43.509749000" lon="12.917953000"><ele>795.819000</ele><time>2009-07-28T07:53:01Z</time></trkpt><trkpt lat="43.509751000" lon="12.917966000"><ele>795.550000</ele><time>2009-07-28T07:53:05Z</time></trkpt><trkpt lat="43.509750000" lon="12.917974000"><ele>795.433000</ele><time>2009-07-28T07:53:07Z</time></trkpt><trkpt lat="43.509747000" lon="12.917976000"><ele>795.216000</ele><time>2009-07-28T07:53:11Z</time></trkpt><trkpt lat="43.509750000" lon="12.917980000"><ele>795.186000</ele><time>2009-07-28T07:53:13Z</time></trkpt><trkpt lat="43.509759000" lon="12.917960000"><ele>795.222000</ele><time>2009-07-28T07:53:17Z</time></trkpt><trkpt lat="43.509758000" lon="12.917961000"><ele>795.273000</ele><time>2009-07-28T07:53:19Z</time></trkpt><trkpt lat="43.509762000" lon="12.917957000"><ele>794.742000</ele><time>2009-07-28T07:53:23Z</time></trkpt><trkpt lat="43.509766000" lon="12.917959000"><ele>794.674000</ele><time>2009-07-28T07:53:25Z</time></trkpt><trkpt lat="43.509772000" lon="12.917953000"><ele>794.389000</ele><time>2009-07-28T07:53:29Z</time></trkpt><trkpt lat="43.509766000" lon="12.917953000"><ele>794.667000</ele><time>2009-07-28T07:53:31Z</time></trkpt><trkpt lat="43.509764000" lon="12.917953000"><ele>794.313000</ele><time>2009-07-28T07:53:35Z</time></trkpt><trkpt lat="43.509762000" lon="12.917952000"><ele>794.380000</ele><time>2009-07-28T07:53:37Z</time></trkpt><trkpt lat="43.509759000" lon="12.917965000"><ele>794.418000</ele><time>2009-07-28T07:53:41Z</time></trkpt><trkpt lat="43.509757000" lon="12.917974000"><ele>794.224000</ele><time>2009-07-28T07:53:43Z</time></trkpt><trkpt lat="43.509767000" lon="12.917985000"><ele>793.661000</ele><time>2009-07-28T07:53:47Z</time></trkpt><trkpt lat="43.509762000" lon="12.917994000"><ele>793.693000</ele><time>2009-07-28T07:53:49Z</time></trkpt><trkpt lat="43.509760000" lon="12.917994000"><ele>793.492000</ele><time>2009-07-28T07:53:53Z</time></trkpt><trkpt lat="43.509758000" lon="12.917991000"><ele>793.458000</ele><time>2009-07-28T07:53:55Z</time></trkpt><trkpt lat="43.509754000" lon="12.917995000"><ele>793.038000</ele><time>2009-07-28T07:53:59Z</time></trkpt><trkpt lat="43.509756000" lon="12.917991000"><ele>792.653000</ele><time>2009-07-28T07:54:01Z</time></trkpt><trkpt lat="43.509752000" lon="12.917991000"><ele>792.622000</ele><time>2009-07-28T07:54:05Z</time></trkpt><trkpt lat="43.509749000" lon="12.917989000"><ele>792.514000</ele><time>2009-07-28T07:54:07Z</time></trkpt><trkpt lat="43.509751000" lon="12.917982000"><ele>792.391000</ele><time>2009-07-28T07:54:11Z</time></trkpt><trkpt lat="43.509759000" lon="12.917989000"><ele>792.457000</ele><time>2009-07-28T07:54:13Z</time></trkpt><trkpt lat="43.509755000" lon="12.917982000"><ele>792.266000</ele><time>2009-07-28T07:54:17Z</time></trkpt><trkpt lat="43.509754000" lon="12.917980000"><ele>792.296000</ele><time>2009-07-28T07:54:19Z</time></trkpt><trkpt lat="43.509756000" lon="12.917972000"><ele>792.289000</ele><time>2009-07-28T07:54:23Z</time></trkpt><trkpt lat="43.509750000" lon="12.917969000"><ele>792.140000</ele><time>2009-07-28T07:54:25Z</time></trkpt><trkpt lat="43.509745000" lon="12.917973000"><ele>791.802000</ele><time>2009-07-28T07:54:29Z</time></trkpt><trkpt lat="43.509738000" lon="12.917973000"><ele>791.802000</ele><time>2009-07-28T07:54:31Z</time></trkpt><trkpt lat="43.509732000" lon="12.917969000"><ele>791.484000</ele><time>2009-07-28T07:54:35Z</time></trkpt><trkpt lat="43.509731000" lon="12.917976000"><ele>791.291000</ele><time>2009-07-28T07:54:37Z</time></trkpt><trkpt lat="43.509739000" lon="12.917980000"><ele>791.390000</ele><time>2009-07-28T07:54:41Z</time></trkpt><trkpt lat="43.509735000" lon="12.917984000"><ele>790.972000</ele><time>2009-07-28T07:54:43Z</time></trkpt><trkpt lat="43.509740000" lon="12.917981000"><ele>790.730000</ele><time>2009-07-28T07:54:47Z</time></trkpt><trkpt lat="43.509740000" lon="12.917984000"><ele>790.864000</ele><time>2009-07-28T07:54:49Z</time></trkpt><trkpt lat="43.509742000" lon="12.917992000"><ele>790.437000</ele><time>2009-07-28T07:54:53Z</time></trkpt><trkpt lat="43.509742000" lon="12.917992000"><ele>790.443000</ele><time>2009-07-28T07:54:55Z</time></trkpt><trkpt lat="43.509743000" lon="12.917992000"><ele>790.439000</ele><time>2009-07-28T07:54:59Z</time></trkpt><trkpt lat="43.509743000" lon="12.917992000"><ele>790.417000</ele><time>2009-07-28T07:55:01Z</time></trkpt><trkpt lat="43.509743000" lon="12.917992000"><ele>790.392000</ele><time>2009-07-28T07:55:05Z</time></trkpt><trkpt lat="43.509743000" lon="12.917992000"><ele>790.380000</ele><time>2009-07-28T07:55:07Z</time></trkpt><trkpt lat="43.509743000" lon="12.917992000"><ele>790.354000</ele><time>2009-07-28T07:55:11Z</time></trkpt><trkpt lat="43.509743000" lon="12.917992000"><ele>790.350000</ele><time>2009-07-28T07:55:13Z</time></trkpt><trkpt lat="43.509743000" lon="12.917992000"><ele>790.339000</ele><time>2009-07-28T07:55:17Z</time></trkpt><trkpt lat="43.509743000" lon="12.917992000"><ele>790.348000</ele><time>2009-07-28T07:55:19Z</time></trkpt><trkpt lat="43.509744000" lon="12.917992000"><ele>790.357000</ele><time>2009-07-28T07:55:23Z</time></trkpt><trkpt lat="43.509744000" lon="12.917992000"><ele>790.349000</ele><time>2009-07-28T07:55:25Z</time></trkpt><trkpt lat="43.509744000" lon="12.917992000"><ele>790.358000</ele><time>2009-07-28T07:55:29Z</time></trkpt><trkpt lat="43.509744000" lon="12.917992000"><ele>790.367000</ele><time>2009-07-28T07:55:31Z</time></trkpt><trkpt lat="43.509744000" lon="12.917992000"><ele>790.371000</ele><time>2009-07-28T07:55:35Z</time></trkpt><trkpt lat="43.509744000" lon="12.917992000"><ele>790.378000</ele><time>2009-07-28T07:55:37Z</time></trkpt><trkpt lat="43.509744000" lon="12.917992000"><ele>790.361000</ele><time>2009-07-28T07:55:41Z</time></trkpt><trkpt lat="43.509744000" lon="12.917992000"><ele>790.356000</ele><time>2009-07-28T07:55:43Z</time></trkpt><trkpt lat="43.509747000" lon="12.917990000"><ele>790.359000</ele><time>2009-07-28T07:55:47Z</time></trkpt><trkpt lat="43.509748000" lon="12.917986000"><ele>789.739000</ele><time>2009-07-28T07:55:49Z</time></trkpt><trkpt lat="43.509748000" lon="12.917996000"><ele>789.393000</ele><time>2009-07-28T07:55:53Z</time></trkpt><trkpt lat="43.509752000" lon="12.917988000"><ele>789.571000</ele><time>2009-07-28T07:55:55Z</time></trkpt><trkpt lat="43.509747000" lon="12.917994000"><ele>789.009000</ele><time>2009-07-28T07:55:59Z</time></trkpt><trkpt lat="43.509738000" lon="12.918001000"><ele>788.753000</ele><time>2009-07-28T07:56:01Z</time></trkpt><trkpt lat="43.509736000" lon="12.918006000"><ele>788.572000</ele><time>2009-07-28T07:56:05Z</time></trkpt><trkpt lat="43.509739000" lon="12.918009000"><ele>788.460000</ele><time>2009-07-28T07:56:07Z</time></trkpt><trkpt lat="43.509743000" lon="12.918000000"><ele>788.012000</ele><time>2009-07-28T07:56:11Z</time></trkpt><trkpt lat="43.509738000" lon="12.917999000"><ele>787.648000</ele><time>2009-07-28T07:56:13Z</time></trkpt><trkpt lat="43.509731000" lon="12.918014000"><ele>786.725000</ele><time>2009-07-28T07:56:17Z</time></trkpt><trkpt lat="43.509732000" lon="12.918012000"><ele>786.617000</ele><time>2009-07-28T07:56:19Z</time></trkpt><trkpt lat="43.509732000" lon="12.918021000"><ele>786.655000</ele><time>2009-07-28T07:56:23Z</time></trkpt><trkpt lat="43.509732000" lon="12.918012000"><ele>786.759000</ele><time>2009-07-28T07:56:25Z</time></trkpt><trkpt lat="43.509735000" lon="12.918013000"><ele>787.100000</ele><time>2009-07-28T07:56:29Z</time></trkpt><trkpt lat="43.509735000" lon="12.918020000"><ele>786.756000</ele><time>2009-07-28T07:56:31Z</time></trkpt><trkpt lat="43.509738000" lon="12.918009000"><ele>786.292000</ele><time>2009-07-28T07:56:35Z</time></trkpt><trkpt lat="43.509738000" lon="12.918004000"><ele>786.364000</ele><time>2009-07-28T07:56:37Z</time></trkpt><trkpt lat="43.509743000" lon="12.917996000"><ele>786.467000</ele><time>2009-07-28T07:56:41Z</time></trkpt><trkpt lat="43.509746000" lon="12.917995000"><ele>786.453000</ele><time>2009-07-28T07:56:43Z</time></trkpt><trkpt lat="43.509745000" lon="12.917993000"><ele>786.317000</ele><time>2009-07-28T07:56:47Z</time></trkpt><trkpt lat="43.509738000" lon="12.917998000"><ele>786.283000</ele><time>2009-07-28T07:56:49Z</time></trkpt><trkpt lat="43.509733000" lon="12.917998000"><ele>786.237000</ele><time>2009-07-28T07:56:53Z</time></trkpt><trkpt lat="43.509729000" lon="12.917997000"><ele>786.066000</ele><time>2009-07-28T07:56:55Z</time></trkpt><trkpt lat="43.509736000" lon="12.918010000"><ele>785.962000</ele><time>2009-07-28T07:56:59Z</time></trkpt><trkpt lat="43.509736000" lon="12.918015000"><ele>786.096000</ele><time>2009-07-28T07:57:01Z</time></trkpt><trkpt lat="43.509740000" lon="12.918031000"><ele>786.209000</ele><time>2009-07-28T07:57:05Z</time></trkpt><trkpt lat="43.509742000" lon="12.918032000"><ele>786.253000</ele><time>2009-07-28T07:57:07Z</time></trkpt><trkpt lat="43.509750000" lon="12.918020000"><ele>786.228000</ele><time>2009-07-28T07:57:11Z</time></trkpt><trkpt lat="43.509758000" lon="12.918021000"><ele>786.213000</ele><time>2009-07-28T07:57:13Z</time></trkpt><trkpt lat="43.509755000" lon="12.918024000"><ele>786.007000</ele><time>2009-07-28T07:57:17Z</time></trkpt><trkpt lat="43.509749000" lon="12.918024000"><ele>786.204000</ele><time>2009-07-28T07:57:19Z</time></trkpt><trkpt lat="43.509747000" lon="12.918020000"><ele>786.122000</ele><time>2009-07-28T07:57:23Z</time></trkpt><trkpt lat="43.509745000" lon="12.918012000"><ele>785.871000</ele><time>2009-07-28T07:57:25Z</time></trkpt><trkpt lat="43.509743000" lon="12.918012000"><ele>787.542000</ele><time>2009-07-28T07:57:29Z</time></trkpt><trkpt lat="43.509749000" lon="12.918013000"><ele>787.989000</ele><time>2009-07-28T07:57:31Z</time></trkpt><trkpt lat="43.509741000" lon="12.918011000"><ele>787.453000</ele><time>2009-07-28T07:57:35Z</time></trkpt><trkpt lat="43.509739000" lon="12.918009000"><ele>787.051000</ele><time>2009-07-28T07:57:37Z</time></trkpt><trkpt lat="43.509742000" lon="12.918019000"><ele>787.687000</ele><time>2009-07-28T07:57:41Z</time></trkpt><trkpt lat="43.509739000" lon="12.918020000"><ele>787.561000</ele><time>2009-07-28T07:57:43Z</time></trkpt><trkpt lat="43.509736000" lon="12.918022000"><ele>787.471000</ele><time>2009-07-28T07:57:47Z</time></trkpt><trkpt lat="43.509735000" lon="12.918021000"><ele>787.228000</ele><time>2009-07-28T07:57:49Z</time></trkpt><trkpt lat="43.509729000" lon="12.918033000"><ele>786.646000</ele><time>2009-07-28T07:57:53Z</time></trkpt><trkpt lat="43.509730000" lon="12.918038000"><ele>786.075000</ele><time>2009-07-28T07:57:55Z</time></trkpt><trkpt lat="43.509737000" lon="12.918052000"><ele>785.534000</ele><time>2009-07-28T07:57:59Z</time></trkpt><trkpt lat="43.509727000" lon="12.918057000"><ele>785.388000</ele><time>2009-07-28T07:58:01Z</time></trkpt><trkpt lat="43.509732000" lon="12.918058000"><ele>785.320000</ele><time>2009-07-28T07:58:05Z</time></trkpt><trkpt lat="43.509733000" lon="12.918058000"><ele>785.326000</ele><time>2009-07-28T07:58:07Z</time></trkpt><trkpt lat="43.509732000" lon="12.918057000"><ele>785.327000</ele><time>2009-07-28T07:58:11Z</time></trkpt><trkpt lat="43.509732000" lon="12.918057000"><ele>785.339000</ele><time>2009-07-28T07:58:13Z</time></trkpt><trkpt lat="43.509732000" lon="12.918057000"><ele>785.334000</ele><time>2009-07-28T07:58:17Z</time></trkpt><trkpt lat="43.509732000" lon="12.918057000"><ele>785.340000</ele><time>2009-07-28T07:58:19Z</time></trkpt><trkpt lat="43.509724000" lon="12.918037000"><ele>785.948000</ele><time>2009-07-28T07:58:23Z</time></trkpt><trkpt lat="43.509726000" lon="12.918021000"><ele>786.215000</ele><time>2009-07-28T07:58:25Z</time></trkpt><trkpt lat="43.509709000" lon="12.917991000"><ele>787.684000</ele><time>2009-07-28T07:58:29Z</time></trkpt><trkpt lat="43.509710000" lon="12.917981000"><ele>787.960000</ele><time>2009-07-28T07:58:31Z</time></trkpt><trkpt lat="43.509712000" lon="12.917969000"><ele>788.873000</ele><time>2009-07-28T07:58:35Z</time></trkpt><trkpt lat="43.509714000" lon="12.917962000"><ele>788.860000</ele><time>2009-07-28T07:58:37Z</time></trkpt><trkpt lat="43.509712000" lon="12.917954000"><ele>789.076000</ele><time>2009-07-28T07:58:41Z</time></trkpt><trkpt lat="43.509714000" lon="12.917950000"><ele>789.160000</ele><time>2009-07-28T07:58:43Z</time></trkpt><trkpt lat="43.509720000" lon="12.917950000"><ele>789.801000</ele><time>2009-07-28T07:58:47Z</time></trkpt><trkpt lat="43.509720000" lon="12.917948000"><ele>789.814000</ele><time>2009-07-28T07:58:49Z</time></trkpt><trkpt lat="43.509727000" lon="12.917939000"><ele>790.455000</ele><time>2009-07-28T07:58:53Z</time></trkpt><trkpt lat="43.509729000" lon="12.917943000"><ele>790.859000</ele><time>2009-07-28T07:58:55Z</time></trkpt><trkpt lat="43.509724000" lon="12.917960000"><ele>792.501000</ele><time>2009-07-28T07:58:59Z</time></trkpt><trkpt lat="43.509721000" lon="12.917967000"><ele>793.393000</ele><time>2009-07-28T07:59:01Z</time></trkpt><trkpt lat="43.509729000" lon="12.917958000"><ele>794.124000</ele><time>2009-07-28T07:59:05Z</time></trkpt><trkpt lat="43.509729000" lon="12.917958000"><ele>794.128000</ele><time>2009-07-28T07:59:07Z</time></trkpt><trkpt lat="43.509729000" lon="12.917958000"><ele>794.133000</ele><time>2009-07-28T07:59:11Z</time></trkpt><trkpt lat="43.509729000" lon="12.917958000"><ele>794.132000</ele><time>2009-07-28T07:59:13Z</time></trkpt><trkpt lat="43.509729000" lon="12.917958000"><ele>794.120000</ele><time>2009-07-28T07:59:17Z</time></trkpt><trkpt lat="43.509729000" lon="12.917958000"><ele>794.097000</ele><time>2009-07-28T07:59:19Z</time></trkpt><trkpt lat="43.509729000" lon="12.917958000"><ele>794.085000</ele><time>2009-07-28T07:59:23Z</time></trkpt><trkpt lat="43.509729000" lon="12.917958000"><ele>794.077000</ele><time>2009-07-28T07:59:25Z</time></trkpt><trkpt lat="43.509729000" lon="12.917958000"><ele>794.041000</ele><time>2009-07-28T07:59:29Z</time></trkpt><trkpt lat="43.509729000" lon="12.917959000"><ele>794.029000</ele><time>2009-07-28T07:59:31Z</time></trkpt><trkpt lat="43.509729000" lon="12.917959000"><ele>794.017000</ele><time>2009-07-28T07:59:35Z</time></trkpt><trkpt lat="43.509729000" lon="12.917959000"><ele>794.015000</ele><time>2009-07-28T07:59:37Z</time></trkpt><trkpt lat="43.509730000" lon="12.917959000"><ele>794.015000</ele><time>2009-07-28T07:59:41Z</time></trkpt><trkpt lat="43.509730000" lon="12.917959000"><ele>794.024000</ele><time>2009-07-28T07:59:43Z</time></trkpt><trkpt lat="43.509730000" lon="12.917959000"><ele>794.034000</ele><time>2009-07-28T07:59:47Z</time></trkpt><trkpt lat="43.509730000" lon="12.917959000"><ele>794.031000</ele><time>2009-07-28T07:59:49Z</time></trkpt><trkpt lat="43.509731000" lon="12.917959000"><ele>794.031000</ele><time>2009-07-28T07:59:53Z</time></trkpt><trkpt lat="43.509731000" lon="12.917959000"><ele>794.037000</ele><time>2009-07-28T07:59:55Z</time></trkpt><trkpt lat="43.509731000" lon="12.917959000"><ele>794.031000</ele><time>2009-07-28T07:59:59Z</time></trkpt><trkpt lat="43.509731000" lon="12.917960000"><ele>794.027000</ele><time>2009-07-28T08:00:01Z</time></trkpt><trkpt lat="43.509731000" lon="12.917960000"><ele>794.031000</ele><time>2009-07-28T08:00:05Z</time></trkpt><trkpt lat="43.509732000" lon="12.917960000"><ele>794.027000</ele><time>2009-07-28T08:00:07Z</time></trkpt><trkpt lat="43.509732000" lon="12.917960000"><ele>794.025000</ele><time>2009-07-28T08:00:11Z</time></trkpt><trkpt lat="43.509732000" lon="12.917960000"><ele>794.026000</ele><time>2009-07-28T08:00:13Z</time></trkpt><trkpt lat="43.509732000" lon="12.917960000"><ele>794.029000</ele><time>2009-07-28T08:00:17Z</time></trkpt><trkpt lat="43.509732000" lon="12.917960000"><ele>794.031000</ele><time>2009-07-28T08:00:19Z</time></trkpt><trkpt lat="43.509733000" lon="12.917960000"><ele>794.035000</ele><time>2009-07-28T08:00:23Z</time></trkpt><trkpt lat="43.509733000" lon="12.917960000"><ele>794.043000</ele><time>2009-07-28T08:00:25Z</time></trkpt><trkpt lat="43.509733000" lon="12.917960000"><ele>794.024000</ele><time>2009-07-28T08:00:29Z</time></trkpt><trkpt lat="43.509733000" lon="12.917960000"><ele>794.017000</ele><time>2009-07-28T08:00:31Z</time></trkpt><trkpt lat="43.509733000" lon="12.917960000"><ele>794.019000</ele><time>2009-07-28T08:00:35Z</time></trkpt><trkpt lat="43.509733000" lon="12.917960000"><ele>794.021000</ele><time>2009-07-28T08:00:37Z</time></trkpt><trkpt lat="43.509733000" lon="12.917960000"><ele>794.019000</ele><time>2009-07-28T08:00:41Z</time></trkpt><trkpt lat="43.509733000" lon="12.917960000"><ele>794.021000</ele><time>2009-07-28T08:00:43Z</time></trkpt><trkpt lat="43.509733000" lon="12.917960000"><ele>794.013000</ele><time>2009-07-28T08:00:47Z</time></trkpt><trkpt lat="43.509734000" lon="12.917960000"><ele>794.001000</ele><time>2009-07-28T08:00:49Z</time></trkpt><trkpt lat="43.509734000" lon="12.917960000"><ele>793.952000</ele><time>2009-07-28T08:00:53Z</time></trkpt><trkpt lat="43.509734000" lon="12.917961000"><ele>793.944000</ele><time>2009-07-28T08:00:55Z</time></trkpt><trkpt lat="43.509734000" lon="12.917960000"><ele>793.929000</ele><time>2009-07-28T08:00:59Z</time></trkpt><trkpt lat="43.509734000" lon="12.917960000"><ele>793.913000</ele><time>2009-07-28T08:01:01Z</time></trkpt><trkpt lat="43.509734000" lon="12.917961000"><ele>793.897000</ele><time>2009-07-28T08:01:05Z</time></trkpt><trkpt lat="43.509734000" lon="12.917961000"><ele>793.887000</ele><time>2009-07-28T08:01:07Z</time></trkpt><trkpt lat="43.509734000" lon="12.917961000"><ele>793.878000</ele><time>2009-07-28T08:01:11Z</time></trkpt><trkpt lat="43.509734000" lon="12.917961000"><ele>793.872000</ele><time>2009-07-28T08:01:13Z</time></trkpt><trkpt lat="43.509734000" lon="12.917961000"><ele>793.868000</ele><time>2009-07-28T08:01:17Z</time></trkpt><trkpt lat="43.509734000" lon="12.917961000"><ele>793.862000</ele><time>2009-07-28T08:01:19Z</time></trkpt><trkpt lat="43.509734000" lon="12.917961000"><ele>793.846000</ele><time>2009-07-28T08:01:23Z</time></trkpt><trkpt lat="43.509735000" lon="12.917961000"><ele>793.844000</ele><time>2009-07-28T08:01:25Z</time></trkpt><trkpt lat="43.509735000" lon="12.917962000"><ele>793.821000</ele><time>2009-07-28T08:01:29Z</time></trkpt><trkpt lat="43.509735000" lon="12.917962000"><ele>793.804000</ele><time>2009-07-28T08:01:31Z</time></trkpt><trkpt lat="43.509735000" lon="12.917962000"><ele>793.785000</ele><time>2009-07-28T08:01:35Z</time></trkpt><trkpt lat="43.509734000" lon="12.917962000"><ele>793.794000</ele><time>2009-07-28T08:01:37Z</time></trkpt><trkpt lat="43.509735000" lon="12.917962000"><ele>793.776000</ele><time>2009-07-28T08:01:41Z</time></trkpt><trkpt lat="43.509735000" lon="12.917962000"><ele>793.774000</ele><time>2009-07-28T08:01:43Z</time></trkpt><trkpt lat="43.509735000" lon="12.917963000"><ele>793.736000</ele><time>2009-07-28T08:01:47Z</time></trkpt><trkpt lat="43.509735000" lon="12.917963000"><ele>793.714000</ele><time>2009-07-28T08:01:49Z</time></trkpt><trkpt lat="43.509735000" lon="12.917963000"><ele>793.696000</ele><time>2009-07-28T08:01:53Z</time></trkpt><trkpt lat="43.509735000" lon="12.917964000"><ele>793.684000</ele><time>2009-07-28T08:01:55Z</time></trkpt><trkpt lat="43.509735000" lon="12.917964000"><ele>793.669000</ele><time>2009-07-28T08:01:59Z</time></trkpt><trkpt lat="43.509735000" lon="12.917963000"><ele>793.661000</ele><time>2009-07-28T08:02:01Z</time></trkpt><trkpt lat="43.509735000" lon="12.917963000"><ele>793.661000</ele><time>2009-07-28T08:02:05Z</time></trkpt><trkpt lat="43.509735000" lon="12.917963000"><ele>793.656000</ele><time>2009-07-28T08:02:07Z</time></trkpt><trkpt lat="43.509735000" lon="12.917963000"><ele>793.655000</ele><time>2009-07-28T08:02:11Z</time></trkpt><trkpt lat="43.509725000" lon="12.917962000"><ele>793.470000</ele><time>2009-07-28T08:02:13Z</time></trkpt><trkpt lat="43.509689000" lon="12.917993000"><ele>793.921000</ele><time>2009-07-28T08:02:17Z</time></trkpt><trkpt lat="43.509677000" lon="12.917997000"><ele>793.761000</ele><time>2009-07-28T08:02:19Z</time></trkpt><trkpt lat="43.509675000" lon="12.917996000"><ele>792.753000</ele><time>2009-07-28T08:02:23Z</time></trkpt><trkpt lat="43.509657000" lon="12.917992000"><ele>792.548000</ele><time>2009-07-28T08:02:25Z</time></trkpt><trkpt lat="43.509637000" lon="12.918013000"><ele>792.482000</ele><time>2009-07-28T08:02:29Z</time></trkpt><trkpt lat="43.509636000" lon="12.918031000"><ele>792.286000</ele><time>2009-07-28T08:02:31Z</time></trkpt><trkpt lat="43.509672000" lon="12.918056000"><ele>792.373000</ele><time>2009-07-28T08:02:35Z</time></trkpt><trkpt lat="43.509676000" lon="12.918064000"><ele>792.161000</ele><time>2009-07-28T08:02:37Z</time></trkpt><trkpt lat="43.509692000" lon="12.918105000"><ele>793.543000</ele><time>2009-07-28T08:02:41Z</time></trkpt><trkpt lat="43.509701000" lon="12.918115000"><ele>794.075000</ele><time>2009-07-28T08:02:43Z</time></trkpt><trkpt lat="43.509701000" lon="12.918148000"><ele>794.268000</ele><time>2009-07-28T08:02:47Z</time></trkpt><trkpt lat="43.509692000" lon="12.918166000"><ele>794.105000</ele><time>2009-07-28T08:02:49Z</time></trkpt><trkpt lat="43.509666000" lon="12.918205000"><ele>794.268000</ele><time>2009-07-28T08:02:53Z</time></trkpt><trkpt lat="43.509649000" lon="12.918221000"><ele>794.513000</ele><time>2009-07-28T08:02:55Z</time></trkpt><trkpt lat="43.509638000" lon="12.918231000"><ele>794.276000</ele><time>2009-07-28T08:02:59Z</time></trkpt><trkpt lat="43.509637000" lon="12.918233000"><ele>794.247000</ele><time>2009-07-28T08:03:01Z</time></trkpt><trkpt lat="43.509612000" lon="12.918261000"><ele>791.736000</ele><time>2009-07-28T08:03:05Z</time></trkpt><trkpt lat="43.509610000" lon="12.918261000"><ele>791.688000</ele><time>2009-07-28T08:03:07Z</time></trkpt><trkpt lat="43.509621000" lon="12.918252000"><ele>791.907000</ele><time>2009-07-28T08:03:11Z</time></trkpt><trkpt lat="43.509629000" lon="12.918250000"><ele>791.899000</ele><time>2009-07-28T08:03:13Z</time></trkpt><trkpt lat="43.509632000" lon="12.918252000"><ele>791.926000</ele><time>2009-07-28T08:03:17Z</time></trkpt><trkpt lat="43.509621000" lon="12.918260000"><ele>791.739000</ele><time>2009-07-28T08:03:19Z</time></trkpt><trkpt lat="43.509629000" lon="12.918259000"><ele>791.227000</ele><time>2009-07-28T08:03:23Z</time></trkpt><trkpt lat="43.509646000" lon="12.918250000"><ele>791.145000</ele><time>2009-07-28T08:03:25Z</time></trkpt><trkpt lat="43.509644000" lon="12.918248000"><ele>791.199000</ele><time>2009-07-28T08:03:29Z</time></trkpt><trkpt lat="43.509633000" lon="12.918238000"><ele>791.110000</ele><time>2009-07-28T08:03:31Z</time></trkpt><trkpt lat="43.509585000" lon="12.918238000"><ele>791.240000</ele><time>2009-07-28T08:03:35Z</time></trkpt><trkpt lat="43.509568000" lon="12.918240000"><ele>790.936000</ele><time>2009-07-28T08:03:37Z</time></trkpt><trkpt lat="43.509529000" lon="12.918224000"><ele>790.435000</ele><time>2009-07-28T08:03:41Z</time></trkpt><trkpt lat="43.509518000" lon="12.918204000"><ele>790.267000</ele><time>2009-07-28T08:03:43Z</time></trkpt><trkpt lat="43.509488000" lon="12.918165000"><ele>790.535000</ele><time>2009-07-28T08:03:47Z</time></trkpt><trkpt lat="43.509483000" lon="12.918163000"><ele>790.559000</ele><time>2009-07-28T08:03:49Z</time></trkpt><trkpt lat="43.509487000" lon="12.918163000"><ele>790.197000</ele><time>2009-07-28T08:03:53Z</time></trkpt><trkpt lat="43.509488000" lon="12.918164000"><ele>790.182000</ele><time>2009-07-28T08:03:55Z</time></trkpt><trkpt lat="43.509490000" lon="12.918165000"><ele>790.149000</ele><time>2009-07-28T08:03:59Z</time></trkpt><trkpt lat="43.509491000" lon="12.918166000"><ele>790.146000</ele><time>2009-07-28T08:04:01Z</time></trkpt><trkpt lat="43.509481000" lon="12.918156000"><ele>790.237000</ele><time>2009-07-28T08:04:05Z</time></trkpt><trkpt lat="43.509480000" lon="12.918157000"><ele>790.165000</ele><time>2009-07-28T08:04:07Z</time></trkpt><trkpt lat="43.509477000" lon="12.918151000"><ele>790.184000</ele><time>2009-07-28T08:04:11Z</time></trkpt><trkpt lat="43.509479000" lon="12.918147000"><ele>790.195000</ele><time>2009-07-28T08:04:13Z</time></trkpt><trkpt lat="43.509485000" lon="12.918144000"><ele>789.521000</ele><time>2009-07-28T08:04:17Z</time></trkpt><trkpt lat="43.509489000" lon="12.918149000"><ele>788.989000</ele><time>2009-07-28T08:04:19Z</time></trkpt><trkpt lat="43.509481000" lon="12.918149000"><ele>788.823000</ele><time>2009-07-28T08:04:23Z</time></trkpt><trkpt lat="43.509485000" lon="12.918160000"><ele>788.705000</ele><time>2009-07-28T08:04:25Z</time></trkpt><trkpt lat="43.509513000" lon="12.918191000"><ele>789.144000</ele><time>2009-07-28T08:04:29Z</time></trkpt><trkpt lat="43.509515000" lon="12.918191000"><ele>789.009000</ele><time>2009-07-28T08:04:31Z</time></trkpt><trkpt lat="43.509510000" lon="12.918182000"><ele>788.751000</ele><time>2009-07-28T08:04:35Z</time></trkpt><trkpt lat="43.509508000" lon="12.918184000"><ele>788.673000</ele><time>2009-07-28T08:04:37Z</time></trkpt><trkpt lat="43.509491000" lon="12.918183000"><ele>788.704000</ele><time>2009-07-28T08:04:41Z</time></trkpt><trkpt lat="43.509480000" lon="12.918190000"><ele>788.725000</ele><time>2009-07-28T08:04:43Z</time></trkpt><trkpt lat="43.509475000" lon="12.918194000"><ele>788.610000</ele><time>2009-07-28T08:04:47Z</time></trkpt><trkpt lat="43.509474000" lon="12.918194000"><ele>788.593000</ele><time>2009-07-28T08:04:49Z</time></trkpt><trkpt lat="43.509477000" lon="12.918196000"><ele>788.591000</ele><time>2009-07-28T08:04:53Z</time></trkpt><trkpt lat="43.509478000" lon="12.918197000"><ele>788.609000</ele><time>2009-07-28T08:04:55Z</time></trkpt><trkpt lat="43.509492000" lon="12.918219000"><ele>788.399000</ele><time>2009-07-28T08:04:59Z</time></trkpt><trkpt lat="43.509487000" lon="12.918240000"><ele>787.969000</ele><time>2009-07-28T08:05:01Z</time></trkpt><trkpt lat="43.509487000" lon="12.918247000"><ele>788.058000</ele><time>2009-07-28T08:05:05Z</time></trkpt><trkpt lat="43.509486000" lon="12.918250000"><ele>788.103000</ele><time>2009-07-28T08:05:07Z</time></trkpt><trkpt lat="43.509482000" lon="12.918246000"><ele>788.190000</ele><time>2009-07-28T08:05:11Z</time></trkpt><trkpt lat="43.509481000" lon="12.918243000"><ele>788.229000</ele><time>2009-07-28T08:05:13Z</time></trkpt><trkpt lat="43.509472000" lon="12.918231000"><ele>788.339000</ele><time>2009-07-28T08:05:17Z</time></trkpt><trkpt lat="43.509476000" lon="12.918195000"><ele>787.839000</ele><time>2009-07-28T08:05:19Z</time></trkpt><trkpt lat="43.509482000" lon="12.918175000"><ele>787.327000</ele><time>2009-07-28T08:05:23Z</time></trkpt><trkpt lat="43.509489000" lon="12.918173000"><ele>787.385000</ele><time>2009-07-28T08:05:25Z</time></trkpt><trkpt lat="43.509483000" lon="12.918199000"><ele>787.174000</ele><time>2009-07-28T08:05:29Z</time></trkpt><trkpt lat="43.509488000" lon="12.918203000"><ele>786.995000</ele><time>2009-07-28T08:05:31Z</time></trkpt><trkpt lat="43.509491000" lon="12.918202000"><ele>787.159000</ele><time>2009-07-28T08:05:35Z</time></trkpt><trkpt lat="43.509489000" lon="12.918210000"><ele>787.248000</ele><time>2009-07-28T08:05:37Z</time></trkpt><trkpt lat="43.509488000" lon="12.918209000"><ele>786.806000</ele><time>2009-07-28T08:05:41Z</time></trkpt><trkpt lat="43.509474000" lon="12.918207000"><ele>787.359000</ele><time>2009-07-28T08:05:43Z</time></trkpt><trkpt lat="43.509472000" lon="12.918202000"><ele>787.353000</ele><time>2009-07-28T08:05:47Z</time></trkpt><trkpt lat="43.509474000" lon="12.918204000"><ele>787.472000</ele><time>2009-07-28T08:05:49Z</time></trkpt><trkpt lat="43.509481000" lon="12.918196000"><ele>787.426000</ele><time>2009-07-28T08:05:53Z</time></trkpt><trkpt lat="43.509483000" lon="12.918200000"><ele>787.287000</ele><time>2009-07-28T08:05:55Z</time></trkpt><trkpt lat="43.509486000" lon="12.918207000"><ele>787.048000</ele><time>2009-07-28T08:05:59Z</time></trkpt><trkpt lat="43.509486000" lon="12.918214000"><ele>786.899000</ele><time>2009-07-28T08:06:01Z</time></trkpt><trkpt lat="43.509480000" lon="12.918256000"><ele>788.189000</ele><time>2009-07-28T08:06:05Z</time></trkpt><trkpt lat="43.509460000" lon="12.918294000"><ele>788.110000</ele><time>2009-07-28T08:06:07Z</time></trkpt><trkpt lat="43.509445000" lon="12.918346000"><ele>788.627000</ele><time>2009-07-28T08:06:11Z</time></trkpt><trkpt lat="43.509430000" lon="12.918366000"><ele>789.211000</ele><time>2009-07-28T08:06:13Z</time></trkpt><trkpt lat="43.509418000" lon="12.918406000"><ele>790.273000</ele><time>2009-07-28T08:06:17Z</time></trkpt><trkpt lat="43.509408000" lon="12.918430000"><ele>790.694000</ele><time>2009-07-28T08:06:19Z</time></trkpt><trkpt lat="43.509377000" lon="12.918470000"><ele>791.024000</ele><time>2009-07-28T08:06:23Z</time></trkpt><trkpt lat="43.509359000" lon="12.918473000"><ele>791.439000</ele><time>2009-07-28T08:06:25Z</time></trkpt><trkpt lat="43.509317000" lon="12.918500000"><ele>792.840000</ele><time>2009-07-28T08:06:29Z</time></trkpt><trkpt lat="43.509295000" lon="12.918500000"><ele>792.885000</ele><time>2009-07-28T08:06:31Z</time></trkpt><trkpt lat="43.509229000" lon="12.918547000"><ele>794.080000</ele><time>2009-07-28T08:06:35Z</time></trkpt><trkpt lat="43.509210000" lon="12.918549000"><ele>794.280000</ele><time>2009-07-28T08:06:37Z</time></trkpt><trkpt lat="43.509152000" lon="12.918556000"><ele>795.316000</ele><time>2009-07-28T08:06:41Z</time></trkpt><trkpt lat="43.509130000" lon="12.918573000"><ele>795.521000</ele><time>2009-07-28T08:06:43Z</time></trkpt><trkpt lat="43.509104000" lon="12.918598000"><ele>795.920000</ele><time>2009-07-28T08:06:47Z</time></trkpt><trkpt lat="43.509086000" lon="12.918609000"><ele>796.476000</ele><time>2009-07-28T08:06:49Z</time></trkpt><trkpt lat="43.509042000" lon="12.918646000"><ele>797.390000</ele><time>2009-07-28T08:06:53Z</time></trkpt><trkpt lat="43.509018000" lon="12.918654000"><ele>798.476000</ele><time>2009-07-28T08:06:55Z</time></trkpt><trkpt lat="43.508980000" lon="12.918678000"><ele>799.100000</ele><time>2009-07-28T08:06:59Z</time></trkpt><trkpt lat="43.508952000" lon="12.918687000"><ele>799.560000</ele><time>2009-07-28T08:07:01Z</time></trkpt><trkpt lat="43.508916000" lon="12.918719000"><ele>799.293000</ele><time>2009-07-28T08:07:05Z</time></trkpt><trkpt lat="43.508892000" lon="12.918746000"><ele>799.780000</ele><time>2009-07-28T08:07:07Z</time></trkpt><trkpt lat="43.508846000" lon="12.918759000"><ele>799.904000</ele><time>2009-07-28T08:07:11Z</time></trkpt><trkpt lat="43.508830000" lon="12.918783000"><ele>800.496000</ele><time>2009-07-28T08:07:13Z</time></trkpt><trkpt lat="43.508808000" lon="12.918831000"><ele>801.535000</ele><time>2009-07-28T08:07:17Z</time></trkpt><trkpt lat="43.508813000" lon="12.918851000"><ele>801.779000</ele><time>2009-07-28T08:07:19Z</time></trkpt><trkpt lat="43.508803000" lon="12.918904000"><ele>799.738000</ele><time>2009-07-28T08:07:23Z</time></trkpt><trkpt lat="43.508799000" lon="12.918943000"><ele>800.543000</ele><time>2009-07-28T08:07:25Z</time></trkpt><trkpt lat="43.508816000" lon="12.918997000"><ele>797.186000</ele><time>2009-07-28T08:07:29Z</time></trkpt><trkpt lat="43.508829000" lon="12.919007000"><ele>797.628000</ele><time>2009-07-28T08:07:31Z</time></trkpt><trkpt lat="43.508862000" lon="12.919013000"><ele>798.319000</ele><time>2009-07-28T08:07:35Z</time></trkpt><trkpt lat="43.508883000" lon="12.919012000"><ele>798.584000</ele><time>2009-07-28T08:07:37Z</time></trkpt><trkpt lat="43.508930000" lon="12.919009000"><ele>798.782000</ele><time>2009-07-28T08:07:41Z</time></trkpt><trkpt lat="43.508957000" lon="12.919001000"><ele>797.697000</ele><time>2009-07-28T08:07:43Z</time></trkpt><trkpt lat="43.509024000" lon="12.918967000"><ele>795.275000</ele><time>2009-07-28T08:07:47Z</time></trkpt><trkpt lat="43.509053000" lon="12.918950000"><ele>795.507000</ele><time>2009-07-28T08:07:49Z</time></trkpt><trkpt lat="43.509116000" lon="12.918918000"><ele>793.977000</ele><time>2009-07-28T08:07:53Z</time></trkpt><trkpt lat="43.509130000" lon="12.918897000"><ele>794.050000</ele><time>2009-07-28T08:07:55Z</time></trkpt><trkpt lat="43.509171000" lon="12.918863000"><ele>793.948000</ele><time>2009-07-28T08:07:59Z</time></trkpt><trkpt lat="43.509186000" lon="12.918843000"><ele>793.920000</ele><time>2009-07-28T08:08:01Z</time></trkpt><trkpt lat="43.509241000" lon="12.918841000"><ele>793.142000</ele><time>2009-07-28T08:08:05Z</time></trkpt><trkpt lat="43.509250000" lon="12.918840000"><ele>791.491000</ele><time>2009-07-28T08:08:07Z</time></trkpt><trkpt lat="43.509298000" lon="12.918898000"><ele>789.806000</ele><time>2009-07-28T08:08:11Z</time></trkpt><trkpt lat="43.509308000" lon="12.918917000"><ele>789.554000</ele><time>2009-07-28T08:08:13Z</time></trkpt><trkpt lat="43.509292000" lon="12.918958000"><ele>788.875000</ele><time>2009-07-28T08:08:17Z</time></trkpt><trkpt lat="43.509291000" lon="12.918993000"><ele>788.294000</ele><time>2009-07-28T08:08:19Z</time></trkpt><trkpt lat="43.509263000" lon="12.919067000"><ele>787.880000</ele><time>2009-07-28T08:08:23Z</time></trkpt><trkpt lat="43.509248000" lon="12.919088000"><ele>787.697000</ele><time>2009-07-28T08:08:25Z</time></trkpt><trkpt lat="43.509230000" lon="12.919155000"><ele>787.347000</ele><time>2009-07-28T08:08:29Z</time></trkpt><trkpt lat="43.509214000" lon="12.919168000"><ele>787.595000</ele><time>2009-07-28T08:08:31Z</time></trkpt><trkpt lat="43.509163000" lon="12.919218000"><ele>788.051000</ele><time>2009-07-28T08:08:35Z</time></trkpt><trkpt lat="43.509149000" lon="12.919250000"><ele>788.414000</ele><time>2009-07-28T08:08:37Z</time></trkpt><trkpt lat="43.509110000" lon="12.919263000"><ele>788.831000</ele><time>2009-07-28T08:08:41Z</time></trkpt><trkpt lat="43.509084000" lon="12.919272000"><ele>788.724000</ele><time>2009-07-28T08:08:43Z</time></trkpt><trkpt lat="43.509053000" lon="12.919284000"><ele>788.223000</ele><time>2009-07-28T08:08:47Z</time></trkpt><trkpt lat="43.509045000" lon="12.919297000"><ele>788.259000</ele><time>2009-07-28T08:08:49Z</time></trkpt><trkpt lat="43.509016000" lon="12.919326000"><ele>787.922000</ele><time>2009-07-28T08:08:53Z</time></trkpt><trkpt lat="43.508998000" lon="12.919338000"><ele>787.572000</ele><time>2009-07-28T08:08:55Z</time></trkpt><trkpt lat="43.508968000" lon="12.919367000"><ele>787.070000</ele><time>2009-07-28T08:08:59Z</time></trkpt><trkpt lat="43.508951000" lon="12.919378000"><ele>786.907000</ele><time>2009-07-28T08:09:01Z</time></trkpt><trkpt lat="43.508903000" lon="12.919392000"><ele>786.736000</ele><time>2009-07-28T08:09:05Z</time></trkpt><trkpt lat="43.508875000" lon="12.919411000"><ele>786.776000</ele><time>2009-07-28T08:09:07Z</time></trkpt><trkpt lat="43.508830000" lon="12.919438000"><ele>786.913000</ele><time>2009-07-28T08:09:11Z</time></trkpt><trkpt lat="43.508804000" lon="12.919452000"><ele>787.148000</ele><time>2009-07-28T08:09:13Z</time></trkpt><trkpt lat="43.508762000" lon="12.919515000"><ele>786.602000</ele><time>2009-07-28T08:09:17Z</time></trkpt><trkpt lat="43.508739000" lon="12.919542000"><ele>786.111000</ele><time>2009-07-28T08:09:19Z</time></trkpt><trkpt lat="43.508681000" lon="12.919570000"><ele>786.309000</ele><time>2009-07-28T08:09:23Z</time></trkpt><trkpt lat="43.508657000" lon="12.919599000"><ele>786.286000</ele><time>2009-07-28T08:09:25Z</time></trkpt><trkpt lat="43.508634000" lon="12.919630000"><ele>786.231000</ele><time>2009-07-28T08:09:29Z</time></trkpt><trkpt lat="43.508594000" lon="12.919629000"><ele>785.955000</ele><time>2009-07-28T08:09:31Z</time></trkpt><trkpt lat="43.508534000" lon="12.919643000"><ele>786.084000</ele><time>2009-07-28T08:09:35Z</time></trkpt><trkpt lat="43.508515000" lon="12.919662000"><ele>786.178000</ele><time>2009-07-28T08:09:37Z</time></trkpt><trkpt lat="43.508468000" lon="12.919697000"><ele>786.360000</ele><time>2009-07-28T08:09:41Z</time></trkpt><trkpt lat="43.508436000" lon="12.919715000"><ele>786.635000</ele><time>2009-07-28T08:09:43Z</time></trkpt><trkpt lat="43.508388000" lon="12.919743000"><ele>785.607000</ele><time>2009-07-28T08:09:47Z</time></trkpt><trkpt lat="43.508373000" lon="12.919747000"><ele>785.472000</ele><time>2009-07-28T08:09:49Z</time></trkpt><trkpt lat="43.508326000" lon="12.919755000"><ele>785.586000</ele><time>2009-07-28T08:09:53Z</time></trkpt><trkpt lat="43.508301000" lon="12.919765000"><ele>785.395000</ele><time>2009-07-28T08:09:55Z</time></trkpt><trkpt lat="43.508258000" lon="12.919768000"><ele>785.292000</ele><time>2009-07-28T08:09:59Z</time></trkpt><trkpt lat="43.508249000" lon="12.919782000"><ele>785.089000</ele><time>2009-07-28T08:10:01Z</time></trkpt><trkpt lat="43.508189000" lon="12.919799000"><ele>784.813000</ele><time>2009-07-28T08:10:05Z</time></trkpt><trkpt lat="43.508177000" lon="12.919793000"><ele>784.460000</ele><time>2009-07-28T08:10:07Z</time></trkpt><trkpt lat="43.508143000" lon="12.919788000"><ele>783.973000</ele><time>2009-07-28T08:10:11Z</time></trkpt><trkpt lat="43.508127000" lon="12.919791000"><ele>783.421000</ele><time>2009-07-28T08:10:13Z</time></trkpt><trkpt lat="43.508079000" lon="12.919812000"><ele>782.878000</ele><time>2009-07-28T08:10:17Z</time></trkpt><trkpt lat="43.508050000" lon="12.919841000"><ele>782.596000</ele><time>2009-07-28T08:10:19Z</time></trkpt><trkpt lat="43.508012000" lon="12.919880000"><ele>781.740000</ele><time>2009-07-28T08:10:23Z</time></trkpt><trkpt lat="43.507991000" lon="12.919901000"><ele>781.267000</ele><time>2009-07-28T08:10:25Z</time></trkpt><trkpt lat="43.507953000" lon="12.919958000"><ele>779.385000</ele><time>2009-07-28T08:10:29Z</time></trkpt><trkpt lat="43.507948000" lon="12.919981000"><ele>778.563000</ele><time>2009-07-28T08:10:31Z</time></trkpt><trkpt lat="43.507964000" lon="12.919991000"><ele>777.567000</ele><time>2009-07-28T08:10:35Z</time></trkpt><trkpt lat="43.507939000" lon="12.919997000"><ele>777.545000</ele><time>2009-07-28T08:10:37Z</time></trkpt><trkpt lat="43.507887000" lon="12.920018000"><ele>777.020000</ele><time>2009-07-28T08:10:41Z</time></trkpt><trkpt lat="43.507871000" lon="12.920005000"><ele>776.806000</ele><time>2009-07-28T08:10:43Z</time></trkpt><trkpt lat="43.507815000" lon="12.920021000"><ele>776.763000</ele><time>2009-07-28T08:10:47Z</time></trkpt><trkpt lat="43.507782000" lon="12.920037000"><ele>776.541000</ele><time>2009-07-28T08:10:49Z</time></trkpt><trkpt lat="43.507748000" lon="12.920047000"><ele>776.009000</ele><time>2009-07-28T08:10:53Z</time></trkpt><trkpt lat="43.507736000" lon="12.920053000"><ele>775.383000</ele><time>2009-07-28T08:10:55Z</time></trkpt><trkpt lat="43.507698000" lon="12.920005000"><ele>774.262000</ele><time>2009-07-28T08:10:59Z</time></trkpt><trkpt lat="43.507666000" lon="12.920007000"><ele>774.087000</ele><time>2009-07-28T08:11:01Z</time></trkpt><trkpt lat="43.507626000" lon="12.920009000"><ele>773.507000</ele><time>2009-07-28T08:11:05Z</time></trkpt><trkpt lat="43.507603000" lon="12.920024000"><ele>773.284000</ele><time>2009-07-28T08:11:07Z</time></trkpt><trkpt lat="43.507552000" lon="12.920038000"><ele>772.872000</ele><time>2009-07-28T08:11:11Z</time></trkpt><trkpt lat="43.507524000" lon="12.920039000"><ele>772.247000</ele><time>2009-07-28T08:11:13Z</time></trkpt><trkpt lat="43.507484000" lon="12.920088000"><ele>770.450000</ele><time>2009-07-28T08:11:17Z</time></trkpt><trkpt lat="43.507464000" lon="12.920096000"><ele>770.342000</ele><time>2009-07-28T08:11:19Z</time></trkpt><trkpt lat="43.507420000" lon="12.920106000"><ele>770.532000</ele><time>2009-07-28T08:11:23Z</time></trkpt><trkpt lat="43.507400000" lon="12.920113000"><ele>770.299000</ele><time>2009-07-28T08:11:25Z</time></trkpt><trkpt lat="43.507370000" lon="12.920121000"><ele>769.967000</ele><time>2009-07-28T08:11:29Z</time></trkpt><trkpt lat="43.507363000" lon="12.920138000"><ele>769.632000</ele><time>2009-07-28T08:11:31Z</time></trkpt><trkpt lat="43.507324000" lon="12.920172000"><ele>769.502000</ele><time>2009-07-28T08:11:35Z</time></trkpt><trkpt lat="43.507307000" lon="12.920179000"><ele>769.559000</ele><time>2009-07-28T08:11:37Z</time></trkpt><trkpt lat="43.507253000" lon="12.920224000"><ele>769.377000</ele><time>2009-07-28T08:11:41Z</time></trkpt><trkpt lat="43.507237000" lon="12.920242000"><ele>769.288000</ele><time>2009-07-28T08:11:43Z</time></trkpt><trkpt lat="43.507197000" lon="12.920285000"><ele>769.175000</ele><time>2009-07-28T08:11:47Z</time></trkpt><trkpt lat="43.507174000" lon="12.920304000"><ele>769.072000</ele><time>2009-07-28T08:11:49Z</time></trkpt><trkpt lat="43.507113000" lon="12.920321000"><ele>769.098000</ele><time>2009-07-28T08:11:53Z</time></trkpt><trkpt lat="43.507099000" lon="12.920325000"><ele>768.775000</ele><time>2009-07-28T08:11:55Z</time></trkpt><trkpt lat="43.507056000" lon="12.920337000"><ele>768.831000</ele><time>2009-07-28T08:11:59Z</time></trkpt><trkpt lat="43.507032000" lon="12.920349000"><ele>768.768000</ele><time>2009-07-28T08:12:01Z</time></trkpt><trkpt lat="43.506993000" lon="12.920379000"><ele>768.266000</ele><time>2009-07-28T08:12:05Z</time></trkpt><trkpt lat="43.506958000" lon="12.920389000"><ele>768.016000</ele><time>2009-07-28T08:12:07Z</time></trkpt><trkpt lat="43.506921000" lon="12.920379000"><ele>767.989000</ele><time>2009-07-28T08:12:11Z</time></trkpt><trkpt lat="43.506894000" lon="12.920394000"><ele>768.118000</ele><time>2009-07-28T08:12:13Z</time></trkpt><trkpt lat="43.506858000" lon="12.920408000"><ele>768.039000</ele><time>2009-07-28T08:12:17Z</time></trkpt><trkpt lat="43.506848000" lon="12.920424000"><ele>767.529000</ele><time>2009-07-28T08:12:19Z</time></trkpt><trkpt lat="43.506802000" lon="12.920431000"><ele>767.045000</ele><time>2009-07-28T08:12:23Z</time></trkpt><trkpt lat="43.506773000" lon="12.920433000"><ele>766.570000</ele><time>2009-07-28T08:12:25Z</time></trkpt><trkpt lat="43.506715000" lon="12.920453000"><ele>766.170000</ele><time>2009-07-28T08:12:29Z</time></trkpt><trkpt lat="43.506683000" lon="12.920472000"><ele>764.712000</ele><time>2009-07-28T08:12:31Z</time></trkpt><trkpt lat="43.506643000" lon="12.920464000"><ele>764.695000</ele><time>2009-07-28T08:12:35Z</time></trkpt><trkpt lat="43.506620000" lon="12.920480000"><ele>764.630000</ele><time>2009-07-28T08:12:37Z</time></trkpt><trkpt lat="43.506576000" lon="12.920486000"><ele>764.562000</ele><time>2009-07-28T08:12:41Z</time></trkpt><trkpt lat="43.506544000" lon="12.920482000"><ele>764.474000</ele><time>2009-07-28T08:12:43Z</time></trkpt><trkpt lat="43.506495000" lon="12.920483000"><ele>764.513000</ele><time>2009-07-28T08:12:47Z</time></trkpt><trkpt lat="43.506481000" lon="12.920466000"><ele>764.521000</ele><time>2009-07-28T08:12:49Z</time></trkpt><trkpt lat="43.506444000" lon="12.920499000"><ele>764.332000</ele><time>2009-07-28T08:12:53Z</time></trkpt><trkpt lat="43.506426000" lon="12.920492000"><ele>764.039000</ele><time>2009-07-28T08:12:55Z</time></trkpt><trkpt lat="43.506388000" lon="12.920434000"><ele>762.603000</ele><time>2009-07-28T08:12:59Z</time></trkpt><trkpt lat="43.506365000" lon="12.920432000"><ele>762.260000</ele><time>2009-07-28T08:13:01Z</time></trkpt><trkpt lat="43.506305000" lon="12.920446000"><ele>761.797000</ele><time>2009-07-28T08:13:05Z</time></trkpt><trkpt lat="43.506287000" lon="12.920404000"><ele>760.561000</ele><time>2009-07-28T08:13:07Z</time></trkpt><trkpt lat="43.506240000" lon="12.920333000"><ele>757.237000</ele><time>2009-07-28T08:13:11Z</time></trkpt><trkpt lat="43.506215000" lon="12.920342000"><ele>756.278000</ele><time>2009-07-28T08:13:13Z</time></trkpt><trkpt lat="43.506160000" lon="12.920377000"><ele>751.855000</ele><time>2009-07-28T08:13:17Z</time></trkpt><trkpt lat="43.506157000" lon="12.920376000"><ele>750.935000</ele><time>2009-07-28T08:13:19Z</time></trkpt><trkpt lat="43.506154000" lon="12.920372000"><ele>750.859000</ele><time>2009-07-28T08:13:23Z</time></trkpt><trkpt lat="43.506156000" lon="12.920382000"><ele>750.315000</ele><time>2009-07-28T08:13:25Z</time></trkpt><trkpt lat="43.506156000" lon="12.920398000"><ele>748.370000</ele><time>2009-07-28T08:13:29Z</time></trkpt><trkpt lat="43.506157000" lon="12.920400000"><ele>748.307000</ele><time>2009-07-28T08:13:31Z</time></trkpt><trkpt lat="43.506162000" lon="12.920406000"><ele>748.294000</ele><time>2009-07-28T08:13:35Z</time></trkpt><trkpt lat="43.506162000" lon="12.920408000"><ele>748.298000</ele><time>2009-07-28T08:13:37Z</time></trkpt><trkpt lat="43.506165000" lon="12.920410000"><ele>748.284000</ele><time>2009-07-28T08:13:41Z</time></trkpt><trkpt lat="43.506164000" lon="12.920410000"><ele>748.252000</ele><time>2009-07-28T08:13:43Z</time></trkpt><trkpt lat="43.506161000" lon="12.920408000"><ele>748.221000</ele><time>2009-07-28T08:13:47Z</time></trkpt><trkpt lat="43.506161000" lon="12.920409000"><ele>748.210000</ele><time>2009-07-28T08:13:49Z</time></trkpt><trkpt lat="43.506161000" lon="12.920410000"><ele>748.198000</ele><time>2009-07-28T08:13:53Z</time></trkpt><trkpt lat="43.506160000" lon="12.920411000"><ele>748.191000</ele><time>2009-07-28T08:13:55Z</time></trkpt><trkpt lat="43.506159000" lon="12.920410000"><ele>748.177000</ele><time>2009-07-28T08:13:59Z</time></trkpt><trkpt lat="43.506159000" lon="12.920410000"><ele>748.163000</ele><time>2009-07-28T08:14:01Z</time></trkpt><trkpt lat="43.506161000" lon="12.920412000"><ele>748.161000</ele><time>2009-07-28T08:14:05Z</time></trkpt><trkpt lat="43.506160000" lon="12.920404000"><ele>747.956000</ele><time>2009-07-28T08:14:07Z</time></trkpt><trkpt lat="43.506127000" lon="12.920387000"><ele>747.688000</ele><time>2009-07-28T08:14:11Z</time></trkpt><trkpt lat="43.506109000" lon="12.920399000"><ele>747.519000</ele><time>2009-07-28T08:14:13Z</time></trkpt><trkpt lat="43.506084000" lon="12.920395000"><ele>745.736000</ele><time>2009-07-28T08:14:17Z</time></trkpt><trkpt lat="43.506077000" lon="12.920405000"><ele>745.070000</ele><time>2009-07-28T08:14:19Z</time></trkpt><trkpt lat="43.506064000" lon="12.920410000"><ele>744.567000</ele><time>2009-07-28T08:14:23Z</time></trkpt><trkpt lat="43.506064000" lon="12.920410000"><ele>744.533000</ele><time>2009-07-28T08:14:25Z</time></trkpt><trkpt lat="43.506060000" lon="12.920412000"><ele>744.222000</ele><time>2009-07-28T08:14:29Z</time></trkpt><trkpt lat="43.506054000" lon="12.920413000"><ele>743.857000</ele><time>2009-07-28T08:14:31Z</time></trkpt><trkpt lat="43.506026000" lon="12.920422000"><ele>742.179000</ele><time>2009-07-28T08:14:35Z</time></trkpt><trkpt lat="43.506010000" lon="12.920426000"><ele>741.779000</ele><time>2009-07-28T08:14:37Z</time></trkpt><trkpt lat="43.506000000" lon="12.920455000"><ele>740.624000</ele><time>2009-07-28T08:14:41Z</time></trkpt><trkpt lat="43.505988000" lon="12.920474000"><ele>739.059000</ele><time>2009-07-28T08:14:43Z</time></trkpt><trkpt lat="43.505982000" lon="12.920513000"><ele>738.294000</ele><time>2009-07-28T08:14:47Z</time></trkpt><trkpt lat="43.505978000" lon="12.920533000"><ele>737.777000</ele><time>2009-07-28T08:14:49Z</time></trkpt><trkpt lat="43.505991000" lon="12.920537000"><ele>737.107000</ele><time>2009-07-28T08:14:53Z</time></trkpt><trkpt lat="43.505991000" lon="12.920538000"><ele>737.082000</ele><time>2009-07-28T08:14:55Z</time></trkpt><trkpt lat="43.505992000" lon="12.920539000"><ele>737.027000</ele><time>2009-07-28T08:14:59Z</time></trkpt><trkpt lat="43.505992000" lon="12.920539000"><ele>737.006000</ele><time>2009-07-28T08:15:01Z</time></trkpt><trkpt lat="43.505990000" lon="12.920536000"><ele>736.956000</ele><time>2009-07-28T08:15:05Z</time></trkpt><trkpt lat="43.505988000" lon="12.920534000"><ele>736.955000</ele><time>2009-07-28T08:15:07Z</time></trkpt><trkpt lat="43.506008000" lon="12.920554000"><ele>737.281000</ele><time>2009-07-28T08:15:11Z</time></trkpt><trkpt lat="43.506015000" lon="12.920554000"><ele>736.931000</ele><time>2009-07-28T08:15:13Z</time></trkpt><trkpt lat="43.506018000" lon="12.920554000"><ele>736.693000</ele><time>2009-07-28T08:15:17Z</time></trkpt><trkpt lat="43.506015000" lon="12.920550000"><ele>736.694000</ele><time>2009-07-28T08:15:19Z</time></trkpt><trkpt lat="43.506024000" lon="12.920531000"><ele>736.491000</ele><time>2009-07-28T08:15:23Z</time></trkpt><trkpt lat="43.506038000" lon="12.920534000"><ele>736.349000</ele><time>2009-07-28T08:15:25Z</time></trkpt><trkpt lat="43.506067000" lon="12.920499000"><ele>734.532000</ele><time>2009-07-28T08:15:29Z</time></trkpt><trkpt lat="43.506067000" lon="12.920498000"><ele>734.500000</ele><time>2009-07-28T08:15:31Z</time></trkpt><trkpt lat="43.506070000" lon="12.920500000"><ele>734.412000</ele><time>2009-07-28T08:15:35Z</time></trkpt><trkpt lat="43.506072000" lon="12.920502000"><ele>734.361000</ele><time>2009-07-28T08:15:37Z</time></trkpt><trkpt lat="43.506077000" lon="12.920505000"><ele>734.310000</ele><time>2009-07-28T08:15:41Z</time></trkpt><trkpt lat="43.506081000" lon="12.920508000"><ele>734.331000</ele><time>2009-07-28T08:15:43Z</time></trkpt><trkpt lat="43.506053000" lon="12.920557000"><ele>734.146000</ele><time>2009-07-28T08:15:47Z</time></trkpt><trkpt lat="43.506060000" lon="12.920554000"><ele>734.067000</ele><time>2009-07-28T08:15:49Z</time></trkpt><trkpt lat="43.506053000" lon="12.920541000"><ele>733.106000</ele><time>2009-07-28T08:15:53Z</time></trkpt><trkpt lat="43.506040000" lon="12.920544000"><ele>732.799000</ele><time>2009-07-28T08:15:55Z</time></trkpt><trkpt lat="43.506026000" lon="12.920539000"><ele>732.286000</ele><time>2009-07-28T08:15:59Z</time></trkpt><trkpt lat="43.506015000" lon="12.920523000"><ele>732.221000</ele><time>2009-07-28T08:16:01Z</time></trkpt><trkpt lat="43.506030000" lon="12.920479000"><ele>731.372000</ele><time>2009-07-28T08:16:05Z</time></trkpt><trkpt lat="43.506019000" lon="12.920480000"><ele>730.854000</ele><time>2009-07-28T08:16:07Z</time></trkpt><trkpt lat="43.505995000" lon="12.920475000"><ele>730.830000</ele><time>2009-07-28T08:16:11Z</time></trkpt><trkpt lat="43.505987000" lon="12.920470000"><ele>730.828000</ele><time>2009-07-28T08:16:13Z</time></trkpt><trkpt lat="43.505962000" lon="12.920465000"><ele>731.359000</ele><time>2009-07-28T08:16:17Z</time></trkpt><trkpt lat="43.505956000" lon="12.920463000"><ele>731.313000</ele><time>2009-07-28T08:16:19Z</time></trkpt><trkpt lat="43.505953000" lon="12.920436000"><ele>729.764000</ele><time>2009-07-28T08:16:23Z</time></trkpt><trkpt lat="43.505954000" lon="12.920433000"><ele>727.676000</ele><time>2009-07-28T08:16:25Z</time></trkpt><trkpt lat="43.505950000" lon="12.920431000"><ele>727.637000</ele><time>2009-07-28T08:16:29Z</time></trkpt><trkpt lat="43.505946000" lon="12.920421000"><ele>727.086000</ele><time>2009-07-28T08:16:31Z</time></trkpt><trkpt lat="43.505962000" lon="12.920381000"><ele>725.134000</ele><time>2009-07-28T08:16:35Z</time></trkpt><trkpt lat="43.505973000" lon="12.920377000"><ele>724.899000</ele><time>2009-07-28T08:16:37Z</time></trkpt><trkpt lat="43.506001000" lon="12.920370000"><ele>724.369000</ele><time>2009-07-28T08:16:41Z</time></trkpt><trkpt lat="43.506013000" lon="12.920371000"><ele>723.589000</ele><time>2009-07-28T08:16:43Z</time></trkpt><trkpt lat="43.506051000" lon="12.920366000"><ele>723.553000</ele><time>2009-07-28T08:16:47Z</time></trkpt><trkpt lat="43.506062000" lon="12.920372000"><ele>723.531000</ele><time>2009-07-28T08:16:49Z</time></trkpt><trkpt lat="43.506088000" lon="12.920387000"><ele>723.430000</ele><time>2009-07-28T08:16:53Z</time></trkpt><trkpt lat="43.506095000" lon="12.920400000"><ele>723.348000</ele><time>2009-07-28T08:16:55Z</time></trkpt><trkpt lat="43.506105000" lon="12.920423000"><ele>723.301000</ele><time>2009-07-28T08:16:59Z</time></trkpt><trkpt lat="43.506104000" lon="12.920427000"><ele>723.321000</ele><time>2009-07-28T08:17:01Z</time></trkpt><trkpt lat="43.506104000" lon="12.920427000"><ele>723.425000</ele><time>2009-07-28T08:17:05Z</time></trkpt><trkpt lat="43.506104000" lon="12.920427000"><ele>723.426000</ele><time>2009-07-28T08:17:07Z</time></trkpt><trkpt lat="43.506107000" lon="12.920428000"><ele>723.426000</ele><time>2009-07-28T08:17:11Z</time></trkpt><trkpt lat="43.506108000" lon="12.920429000"><ele>723.407000</ele><time>2009-07-28T08:17:13Z</time></trkpt><trkpt lat="43.506107000" lon="12.920428000"><ele>723.366000</ele><time>2009-07-28T08:17:17Z</time></trkpt><trkpt lat="43.506106000" lon="12.920428000"><ele>723.392000</ele><time>2009-07-28T08:17:19Z</time></trkpt><trkpt lat="43.506106000" lon="12.920428000"><ele>723.425000</ele><time>2009-07-28T08:17:23Z</time></trkpt><trkpt lat="43.506108000" lon="12.920429000"><ele>723.423000</ele><time>2009-07-28T08:17:25Z</time></trkpt><trkpt lat="43.506110000" lon="12.920430000"><ele>723.504000</ele><time>2009-07-28T08:17:29Z</time></trkpt><trkpt lat="43.506117000" lon="12.920417000"><ele>723.311000</ele><time>2009-07-28T08:17:31Z</time></trkpt><trkpt lat="43.506122000" lon="12.920413000"><ele>722.538000</ele><time>2009-07-28T08:17:35Z</time></trkpt><trkpt lat="43.506121000" lon="12.920413000"><ele>722.549000</ele><time>2009-07-28T08:17:37Z</time></trkpt><trkpt lat="43.506121000" lon="12.920413000"><ele>722.492000</ele><time>2009-07-28T08:17:41Z</time></trkpt><trkpt lat="43.506119000" lon="12.920412000"><ele>722.465000</ele><time>2009-07-28T08:17:43Z</time></trkpt><trkpt lat="43.506119000" lon="12.920411000"><ele>722.452000</ele><time>2009-07-28T08:17:47Z</time></trkpt><trkpt lat="43.506119000" lon="12.920410000"><ele>722.465000</ele><time>2009-07-28T08:17:49Z</time></trkpt><trkpt lat="43.506119000" lon="12.920410000"><ele>722.471000</ele><time>2009-07-28T08:17:53Z</time></trkpt><trkpt lat="43.506119000" lon="12.920409000"><ele>722.459000</ele><time>2009-07-28T08:17:55Z</time></trkpt><trkpt lat="43.506119000" lon="12.920409000"><ele>722.451000</ele><time>2009-07-28T08:17:59Z</time></trkpt><trkpt lat="43.506119000" lon="12.920409000"><ele>722.460000</ele><time>2009-07-28T08:18:01Z</time></trkpt><trkpt lat="43.506118000" lon="12.920409000"><ele>722.486000</ele><time>2009-07-28T08:18:05Z</time></trkpt><trkpt lat="43.506118000" lon="12.920408000"><ele>722.501000</ele><time>2009-07-28T08:18:07Z</time></trkpt><trkpt lat="43.506118000" lon="12.920408000"><ele>722.545000</ele><time>2009-07-28T08:18:11Z</time></trkpt><trkpt lat="43.506118000" lon="12.920408000"><ele>722.561000</ele><time>2009-07-28T08:18:13Z</time></trkpt><trkpt lat="43.506117000" lon="12.920408000"><ele>722.550000</ele><time>2009-07-28T08:18:17Z</time></trkpt><trkpt lat="43.506117000" lon="12.920408000"><ele>722.560000</ele><time>2009-07-28T08:18:19Z</time></trkpt><trkpt lat="43.506118000" lon="12.920408000"><ele>722.596000</ele><time>2009-07-28T08:18:23Z</time></trkpt><trkpt lat="43.506117000" lon="12.920408000"><ele>722.602000</ele><time>2009-07-28T08:18:25Z</time></trkpt><trkpt lat="43.506117000" lon="12.920409000"><ele>722.633000</ele><time>2009-07-28T08:18:29Z</time></trkpt><trkpt lat="43.506116000" lon="12.920409000"><ele>722.633000</ele><time>2009-07-28T08:18:31Z</time></trkpt><trkpt lat="43.506116000" lon="12.920409000"><ele>722.634000</ele><time>2009-07-28T08:18:35Z</time></trkpt><trkpt lat="43.506116000" lon="12.920410000"><ele>722.641000</ele><time>2009-07-28T08:18:37Z</time></trkpt><trkpt lat="43.506116000" lon="12.920410000"><ele>722.643000</ele><time>2009-07-28T08:18:41Z</time></trkpt><trkpt lat="43.506116000" lon="12.920410000"><ele>722.661000</ele><time>2009-07-28T08:18:43Z</time></trkpt><trkpt lat="43.506116000" lon="12.920411000"><ele>722.669000</ele><time>2009-07-28T08:18:47Z</time></trkpt><trkpt lat="43.506116000" lon="12.920411000"><ele>722.670000</ele><time>2009-07-28T08:18:49Z</time></trkpt><trkpt lat="43.506115000" lon="12.920412000"><ele>722.664000</ele><time>2009-07-28T08:18:53Z</time></trkpt><trkpt lat="43.506115000" lon="12.920412000"><ele>722.661000</ele><time>2009-07-28T08:18:55Z</time></trkpt><trkpt lat="43.506113000" lon="12.920411000"><ele>722.677000</ele><time>2009-07-28T08:18:59Z</time></trkpt><trkpt lat="43.506111000" lon="12.920410000"><ele>722.695000</ele><time>2009-07-28T08:19:01Z</time></trkpt><trkpt lat="43.506107000" lon="12.920407000"><ele>722.748000</ele><time>2009-07-28T08:19:05Z</time></trkpt><trkpt lat="43.506103000" lon="12.920407000"><ele>722.796000</ele><time>2009-07-28T08:19:07Z</time></trkpt><trkpt lat="43.506067000" lon="12.920389000"><ele>722.011000</ele><time>2009-07-28T08:19:11Z</time></trkpt><trkpt lat="43.506044000" lon="12.920404000"><ele>722.076000</ele><time>2009-07-28T08:19:13Z</time></trkpt><trkpt lat="43.506001000" lon="12.920402000"><ele>721.476000</ele><time>2009-07-28T08:19:17Z</time></trkpt><trkpt lat="43.505986000" lon="12.920406000"><ele>721.513000</ele><time>2009-07-28T08:19:19Z</time></trkpt><trkpt lat="43.505988000" lon="12.920413000"><ele>721.521000</ele><time>2009-07-28T08:19:23Z</time></trkpt><trkpt lat="43.505986000" lon="12.920412000"><ele>721.505000</ele><time>2009-07-28T08:19:25Z</time></trkpt><trkpt lat="43.505981000" lon="12.920408000"><ele>721.471000</ele><time>2009-07-28T08:19:29Z</time></trkpt><trkpt lat="43.505980000" lon="12.920408000"><ele>721.454000</ele><time>2009-07-28T08:19:31Z</time></trkpt><trkpt lat="43.505955000" lon="12.920409000"><ele>721.495000</ele><time>2009-07-28T08:19:35Z</time></trkpt><trkpt lat="43.505942000" lon="12.920405000"><ele>722.248000</ele><time>2009-07-28T08:19:37Z</time></trkpt><trkpt lat="43.505910000" lon="12.920416000"><ele>722.116000</ele><time>2009-07-28T08:19:41Z</time></trkpt><trkpt lat="43.505873000" lon="12.920448000"><ele>722.356000</ele><time>2009-07-28T08:19:43Z</time></trkpt><trkpt lat="43.505831000" lon="12.920460000"><ele>722.333000</ele><time>2009-07-28T08:19:47Z</time></trkpt><trkpt lat="43.505807000" lon="12.920474000"><ele>722.528000</ele><time>2009-07-28T08:19:49Z</time></trkpt><trkpt lat="43.505781000" lon="12.920487000"><ele>722.299000</ele><time>2009-07-28T08:19:53Z</time></trkpt><trkpt lat="43.505771000" lon="12.920493000"><ele>722.954000</ele><time>2009-07-28T08:19:55Z</time></trkpt><trkpt lat="43.505725000" lon="12.920517000"><ele>723.781000</ele><time>2009-07-28T08:19:59Z</time></trkpt><trkpt lat="43.505716000" lon="12.920537000"><ele>724.897000</ele><time>2009-07-28T08:20:01Z</time></trkpt><trkpt lat="43.505691000" lon="12.920555000"><ele>724.273000</ele><time>2009-07-28T08:20:05Z</time></trkpt><trkpt lat="43.505688000" lon="12.920554000"><ele>724.512000</ele><time>2009-07-28T08:20:07Z</time></trkpt><trkpt lat="43.505662000" lon="12.920579000"><ele>724.050000</ele><time>2009-07-28T08:20:11Z</time></trkpt><trkpt lat="43.505643000" lon="12.920597000"><ele>723.499000</ele><time>2009-07-28T08:20:13Z</time></trkpt><trkpt lat="43.505606000" lon="12.920617000"><ele>723.982000</ele><time>2009-07-28T08:20:17Z</time></trkpt><trkpt lat="43.505593000" lon="12.920626000"><ele>724.125000</ele><time>2009-07-28T08:20:19Z</time></trkpt><trkpt lat="43.505564000" lon="12.920654000"><ele>723.896000</ele><time>2009-07-28T08:20:23Z</time></trkpt><trkpt lat="43.505561000" lon="12.920676000"><ele>723.252000</ele><time>2009-07-28T08:20:25Z</time></trkpt><trkpt lat="43.505552000" lon="12.920700000"><ele>723.012000</ele><time>2009-07-28T08:20:29Z</time></trkpt><trkpt lat="43.505549000" lon="12.920699000"><ele>723.056000</ele><time>2009-07-28T08:20:31Z</time></trkpt><trkpt lat="43.505513000" lon="12.920746000"><ele>723.025000</ele><time>2009-07-28T08:20:35Z</time></trkpt><trkpt lat="43.505489000" lon="12.920785000"><ele>722.708000</ele><time>2009-07-28T08:20:37Z</time></trkpt><trkpt lat="43.505424000" lon="12.920847000"><ele>722.444000</ele><time>2009-07-28T08:20:41Z</time></trkpt><trkpt lat="43.505413000" lon="12.920887000"><ele>722.042000</ele><time>2009-07-28T08:20:43Z</time></trkpt><trkpt lat="43.505412000" lon="12.920940000"><ele>722.144000</ele><time>2009-07-28T08:20:47Z</time></trkpt><trkpt lat="43.505416000" lon="12.920958000"><ele>722.185000</ele><time>2009-07-28T08:20:49Z</time></trkpt><trkpt lat="43.505418000" lon="12.921006000"><ele>721.530000</ele><time>2009-07-28T08:20:53Z</time></trkpt><trkpt lat="43.505411000" lon="12.921024000"><ele>721.201000</ele><time>2009-07-28T08:20:55Z</time></trkpt><trkpt lat="43.505428000" lon="12.921057000"><ele>721.805000</ele><time>2009-07-28T08:20:59Z</time></trkpt><trkpt lat="43.505441000" lon="12.921074000"><ele>721.567000</ele><time>2009-07-28T08:21:01Z</time></trkpt><trkpt lat="43.505469000" lon="12.921108000"><ele>721.929000</ele><time>2009-07-28T08:21:05Z</time></trkpt><trkpt lat="43.505482000" lon="12.921121000"><ele>722.438000</ele><time>2009-07-28T08:21:07Z</time></trkpt><trkpt lat="43.505487000" lon="12.921182000"><ele>721.742000</ele><time>2009-07-28T08:21:11Z</time></trkpt><trkpt lat="43.505491000" lon="12.921211000"><ele>721.971000</ele><time>2009-07-28T08:21:13Z</time></trkpt><trkpt lat="43.505507000" lon="12.921264000"><ele>720.883000</ele><time>2009-07-28T08:21:17Z</time></trkpt><trkpt lat="43.505504000" lon="12.921295000"><ele>721.334000</ele><time>2009-07-28T08:21:19Z</time></trkpt><trkpt lat="43.505516000" lon="12.921356000"><ele>721.396000</ele><time>2009-07-28T08:21:23Z</time></trkpt><trkpt lat="43.505521000" lon="12.921376000"><ele>721.750000</ele><time>2009-07-28T08:21:25Z</time></trkpt><trkpt lat="43.505482000" lon="12.921423000"><ele>721.364000</ele><time>2009-07-28T08:21:29Z</time></trkpt><trkpt lat="43.505463000" lon="12.921449000"><ele>721.052000</ele><time>2009-07-28T08:21:31Z</time></trkpt><trkpt lat="43.505452000" lon="12.921483000"><ele>719.588000</ele><time>2009-07-28T08:21:35Z</time></trkpt><trkpt lat="43.505454000" lon="12.921508000"><ele>719.509000</ele><time>2009-07-28T08:21:37Z</time></trkpt><trkpt lat="43.505422000" lon="12.921541000"><ele>718.458000</ele><time>2009-07-28T08:21:41Z</time></trkpt><trkpt lat="43.505400000" lon="12.921571000"><ele>717.062000</ele><time>2009-07-28T08:21:43Z</time></trkpt><trkpt lat="43.505364000" lon="12.921589000"><ele>716.816000</ele><time>2009-07-28T08:21:47Z</time></trkpt><trkpt lat="43.505352000" lon="12.921606000"><ele>716.468000</ele><time>2009-07-28T08:21:49Z</time></trkpt><trkpt lat="43.505321000" lon="12.921634000"><ele>716.162000</ele><time>2009-07-28T08:21:53Z</time></trkpt><trkpt lat="43.505301000" lon="12.921641000"><ele>715.623000</ele><time>2009-07-28T08:21:55Z</time></trkpt><trkpt lat="43.505246000" lon="12.921688000"><ele>715.006000</ele><time>2009-07-28T08:21:59Z</time></trkpt><trkpt lat="43.505231000" lon="12.921722000"><ele>714.985000</ele><time>2009-07-28T08:22:01Z</time></trkpt><trkpt lat="43.505184000" lon="12.921747000"><ele>714.764000</ele><time>2009-07-28T08:22:05Z</time></trkpt><trkpt lat="43.505169000" lon="12.921781000"><ele>714.188000</ele><time>2009-07-28T08:22:07Z</time></trkpt><trkpt lat="43.505141000" lon="12.921821000"><ele>714.098000</ele><time>2009-07-28T08:22:11Z</time></trkpt><trkpt lat="43.505148000" lon="12.921855000"><ele>713.891000</ele><time>2009-07-28T08:22:13Z</time></trkpt><trkpt lat="43.505132000" lon="12.921910000"><ele>713.865000</ele><time>2009-07-28T08:22:17Z</time></trkpt><trkpt lat="43.505136000" lon="12.921922000"><ele>713.004000</ele><time>2009-07-28T08:22:19Z</time></trkpt><trkpt lat="43.505133000" lon="12.921975000"><ele>713.277000</ele><time>2009-07-28T08:22:23Z</time></trkpt><trkpt lat="43.505132000" lon="12.921991000"><ele>713.154000</ele><time>2009-07-28T08:22:25Z</time></trkpt><trkpt lat="43.505108000" lon="12.922035000"><ele>712.397000</ele><time>2009-07-28T08:22:29Z</time></trkpt><trkpt lat="43.505107000" lon="12.922058000"><ele>712.414000</ele><time>2009-07-28T08:22:31Z</time></trkpt><trkpt lat="43.505114000" lon="12.922086000"><ele>712.244000</ele><time>2009-07-28T08:22:35Z</time></trkpt><trkpt lat="43.505128000" lon="12.922110000"><ele>712.537000</ele><time>2009-07-28T08:22:37Z</time></trkpt><trkpt lat="43.505152000" lon="12.922176000"><ele>711.522000</ele><time>2009-07-28T08:22:41Z</time></trkpt><trkpt lat="43.505151000" lon="12.922196000"><ele>711.118000</ele><time>2009-07-28T08:22:43Z</time></trkpt><trkpt lat="43.505161000" lon="12.922231000"><ele>710.315000</ele><time>2009-07-28T08:22:47Z</time></trkpt><trkpt lat="43.505175000" lon="12.922256000"><ele>710.164000</ele><time>2009-07-28T08:22:49Z</time></trkpt><trkpt lat="43.505199000" lon="12.922313000"><ele>709.560000</ele><time>2009-07-28T08:22:53Z</time></trkpt><trkpt lat="43.505197000" lon="12.922329000"><ele>708.736000</ele><time>2009-07-28T08:22:55Z</time></trkpt><trkpt lat="43.505192000" lon="12.922309000"><ele>707.878000</ele><time>2009-07-28T08:22:59Z</time></trkpt><trkpt lat="43.505209000" lon="12.922308000"><ele>707.792000</ele><time>2009-07-28T08:23:01Z</time></trkpt><trkpt lat="43.505239000" lon="12.922274000"><ele>706.928000</ele><time>2009-07-28T08:23:05Z</time></trkpt><trkpt lat="43.505263000" lon="12.922253000"><ele>706.556000</ele><time>2009-07-28T08:23:07Z</time></trkpt><trkpt lat="43.505305000" lon="12.922225000"><ele>706.036000</ele><time>2009-07-28T08:23:11Z</time></trkpt><trkpt lat="43.505324000" lon="12.922197000"><ele>706.134000</ele><time>2009-07-28T08:23:13Z</time></trkpt><trkpt lat="43.505351000" lon="12.922167000"><ele>704.779000</ele><time>2009-07-28T08:23:17Z</time></trkpt><trkpt lat="43.505380000" lon="12.922142000"><ele>704.283000</ele><time>2009-07-28T08:23:19Z</time></trkpt><trkpt lat="43.505369000" lon="12.922091000"><ele>703.938000</ele><time>2009-07-28T08:23:23Z</time></trkpt><trkpt lat="43.505367000" lon="12.922076000"><ele>703.663000</ele><time>2009-07-28T08:23:25Z</time></trkpt><trkpt lat="43.505423000" lon="12.922002000"><ele>702.670000</ele><time>2009-07-28T08:23:29Z</time></trkpt><trkpt lat="43.505440000" lon="12.921984000"><ele>702.468000</ele><time>2009-07-28T08:23:31Z</time></trkpt><trkpt lat="43.505519000" lon="12.921960000"><ele>702.289000</ele><time>2009-07-28T08:23:35Z</time></trkpt><trkpt lat="43.505529000" lon="12.921942000"><ele>701.717000</ele><time>2009-07-28T08:23:37Z</time></trkpt><trkpt lat="43.505556000" lon="12.921926000"><ele>700.540000</ele><time>2009-07-28T08:23:41Z</time></trkpt><trkpt lat="43.505575000" lon="12.921927000"><ele>700.411000</ele><time>2009-07-28T08:23:43Z</time></trkpt><trkpt lat="43.505639000" lon="12.921921000"><ele>699.732000</ele><time>2009-07-28T08:23:47Z</time></trkpt><trkpt lat="43.505647000" lon="12.921916000"><ele>699.714000</ele><time>2009-07-28T08:23:49Z</time></trkpt><trkpt lat="43.505670000" lon="12.921905000"><ele>698.920000</ele><time>2009-07-28T08:23:53Z</time></trkpt><trkpt lat="43.505685000" lon="12.921899000"><ele>698.647000</ele><time>2009-07-28T08:23:55Z</time></trkpt><trkpt lat="43.505722000" lon="12.921876000"><ele>698.457000</ele><time>2009-07-28T08:23:59Z</time></trkpt><trkpt lat="43.505751000" lon="12.921887000"><ele>698.172000</ele><time>2009-07-28T08:24:01Z</time></trkpt><trkpt lat="43.505813000" lon="12.921901000"><ele>697.888000</ele><time>2009-07-28T08:24:05Z</time></trkpt><trkpt lat="43.505836000" lon="12.921912000"><ele>697.921000</ele><time>2009-07-28T08:24:07Z</time></trkpt><trkpt lat="43.505894000" lon="12.921965000"><ele>697.833000</ele><time>2009-07-28T08:24:11Z</time></trkpt><trkpt lat="43.505900000" lon="12.921990000"><ele>697.740000</ele><time>2009-07-28T08:24:13Z</time></trkpt><trkpt lat="43.505906000" lon="12.922044000"><ele>698.457000</ele><time>2009-07-28T08:24:17Z</time></trkpt><trkpt lat="43.505909000" lon="12.922080000"><ele>698.623000</ele><time>2009-07-28T08:24:19Z</time></trkpt><trkpt lat="43.505888000" lon="12.922155000"><ele>698.350000</ele><time>2009-07-28T08:24:23Z</time></trkpt><trkpt lat="43.505886000" lon="12.922198000"><ele>698.242000</ele><time>2009-07-28T08:24:25Z</time></trkpt><trkpt lat="43.505868000" lon="12.922203000"><ele>697.916000</ele><time>2009-07-28T08:24:29Z</time></trkpt><trkpt lat="43.505869000" lon="12.922204000"><ele>697.965000</ele><time>2009-07-28T08:24:31Z</time></trkpt><trkpt lat="43.505874000" lon="12.922256000"><ele>697.839000</ele><time>2009-07-28T08:24:35Z</time></trkpt><trkpt lat="43.505876000" lon="12.922295000"><ele>697.557000</ele><time>2009-07-28T08:24:37Z</time></trkpt><trkpt lat="43.505891000" lon="12.922386000"><ele>697.180000</ele><time>2009-07-28T08:24:41Z</time></trkpt><trkpt lat="43.505900000" lon="12.922412000"><ele>697.523000</ele><time>2009-07-28T08:24:43Z</time></trkpt><trkpt lat="43.505898000" lon="12.922469000"><ele>698.470000</ele><time>2009-07-28T08:24:47Z</time></trkpt><trkpt lat="43.505912000" lon="12.922482000"><ele>699.433000</ele><time>2009-07-28T08:24:49Z</time></trkpt><trkpt lat="43.505919000" lon="12.922550000"><ele>699.965000</ele><time>2009-07-28T08:24:53Z</time></trkpt><trkpt lat="43.505928000" lon="12.922576000"><ele>700.583000</ele><time>2009-07-28T08:24:55Z</time></trkpt><trkpt lat="43.505952000" lon="12.922642000"><ele>700.914000</ele><time>2009-07-28T08:24:59Z</time></trkpt><trkpt lat="43.505967000" lon="12.922672000"><ele>700.535000</ele><time>2009-07-28T08:25:01Z</time></trkpt><trkpt lat="43.505984000" lon="12.922724000"><ele>700.090000</ele><time>2009-07-28T08:25:05Z</time></trkpt><trkpt lat="43.505997000" lon="12.922743000"><ele>700.336000</ele><time>2009-07-28T08:25:07Z</time></trkpt><trkpt lat="43.506020000" lon="12.922782000"><ele>700.649000</ele><time>2009-07-28T08:25:11Z</time></trkpt><trkpt lat="43.506038000" lon="12.922806000"><ele>700.469000</ele><time>2009-07-28T08:25:13Z</time></trkpt><trkpt lat="43.506082000" lon="12.922833000"><ele>700.311000</ele><time>2009-07-28T08:25:17Z</time></trkpt><trkpt lat="43.506086000" lon="12.922829000"><ele>700.017000</ele><time>2009-07-28T08:25:19Z</time></trkpt><trkpt lat="43.506100000" lon="12.922834000"><ele>699.600000</ele><time>2009-07-28T08:25:23Z</time></trkpt><trkpt lat="43.506108000" lon="12.922866000"><ele>699.149000</ele><time>2009-07-28T08:25:25Z</time></trkpt><trkpt lat="43.506148000" lon="12.922914000"><ele>698.170000</ele><time>2009-07-28T08:25:29Z</time></trkpt><trkpt lat="43.506161000" lon="12.922945000"><ele>697.746000</ele><time>2009-07-28T08:25:31Z</time></trkpt><trkpt lat="43.506211000" lon="12.922982000"><ele>696.895000</ele><time>2009-07-28T08:25:35Z</time></trkpt><trkpt lat="43.506221000" lon="12.922984000"><ele>695.811000</ele><time>2009-07-28T08:25:37Z</time></trkpt><trkpt lat="43.506229000" lon="12.922997000"><ele>692.171000</ele><time>2009-07-28T08:25:41Z</time></trkpt><trkpt lat="43.506225000" lon="12.922986000"><ele>688.165000</ele><time>2009-07-28T08:25:43Z</time></trkpt><trkpt lat="43.506237000" lon="12.922992000"><ele>688.192000</ele><time>2009-07-28T08:25:47Z</time></trkpt><trkpt lat="43.506239000" lon="12.922989000"><ele>687.484000</ele><time>2009-07-28T08:25:49Z</time></trkpt><trkpt lat="43.506260000" lon="12.923023000"><ele>687.213000</ele><time>2009-07-28T08:25:53Z</time></trkpt><trkpt lat="43.506274000" lon="12.923041000"><ele>687.213000</ele><time>2009-07-28T08:25:55Z</time></trkpt><trkpt lat="43.506309000" lon="12.923074000"><ele>686.527000</ele><time>2009-07-28T08:25:59Z</time></trkpt><trkpt lat="43.506325000" lon="12.923080000"><ele>686.045000</ele><time>2009-07-28T08:26:01Z</time></trkpt><trkpt lat="43.506360000" lon="12.923100000"><ele>684.779000</ele><time>2009-07-28T08:26:05Z</time></trkpt><trkpt lat="43.506384000" lon="12.923109000"><ele>684.152000</ele><time>2009-07-28T08:26:07Z</time></trkpt><trkpt lat="43.506427000" lon="12.923139000"><ele>683.317000</ele><time>2009-07-28T08:26:11Z</time></trkpt><trkpt lat="43.506444000" lon="12.923166000"><ele>682.761000</ele><time>2009-07-28T08:26:13Z</time></trkpt><trkpt lat="43.506486000" lon="12.923228000"><ele>682.587000</ele><time>2009-07-28T08:26:17Z</time></trkpt><trkpt lat="43.506503000" lon="12.923240000"><ele>682.164000</ele><time>2009-07-28T08:26:19Z</time></trkpt><trkpt lat="43.506529000" lon="12.923278000"><ele>681.764000</ele><time>2009-07-28T08:26:23Z</time></trkpt><trkpt lat="43.506526000" lon="12.923303000"><ele>681.566000</ele><time>2009-07-28T08:26:25Z</time></trkpt><trkpt lat="43.506556000" lon="12.923347000"><ele>680.773000</ele><time>2009-07-28T08:26:29Z</time></trkpt><trkpt lat="43.506589000" lon="12.923373000"><ele>680.600000</ele><time>2009-07-28T08:26:31Z</time></trkpt><trkpt lat="43.506641000" lon="12.923398000"><ele>679.868000</ele><time>2009-07-28T08:26:35Z</time></trkpt><trkpt lat="43.506665000" lon="12.923425000"><ele>679.431000</ele><time>2009-07-28T08:26:37Z</time></trkpt><trkpt lat="43.506711000" lon="12.923473000"><ele>676.456000</ele><time>2009-07-28T08:26:41Z</time></trkpt><trkpt lat="43.506722000" lon="12.923494000"><ele>676.187000</ele><time>2009-07-28T08:26:43Z</time></trkpt><trkpt lat="43.506739000" lon="12.923550000"><ele>673.807000</ele><time>2009-07-28T08:26:47Z</time></trkpt><trkpt lat="43.506730000" lon="12.923571000"><ele>673.739000</ele><time>2009-07-28T08:26:49Z</time></trkpt><trkpt lat="43.506725000" lon="12.923639000"><ele>671.988000</ele><time>2009-07-28T08:26:53Z</time></trkpt><trkpt lat="43.506708000" lon="12.923674000"><ele>671.394000</ele><time>2009-07-28T08:26:55Z</time></trkpt><trkpt lat="43.506681000" lon="12.923723000"><ele>669.681000</ele><time>2009-07-28T08:26:59Z</time></trkpt><trkpt lat="43.506663000" lon="12.923746000"><ele>669.309000</ele><time>2009-07-28T08:27:01Z</time></trkpt><trkpt lat="43.506633000" lon="12.923794000"><ele>668.072000</ele><time>2009-07-28T08:27:05Z</time></trkpt><trkpt lat="43.506607000" lon="12.923815000"><ele>667.675000</ele><time>2009-07-28T08:27:07Z</time></trkpt><trkpt lat="43.506567000" lon="12.923850000"><ele>666.685000</ele><time>2009-07-28T08:27:11Z</time></trkpt><trkpt lat="43.506542000" lon="12.923877000"><ele>665.932000</ele><time>2009-07-28T08:27:13Z</time></trkpt><trkpt lat="43.506513000" lon="12.923904000"><ele>664.774000</ele><time>2009-07-28T08:27:17Z</time></trkpt><trkpt lat="43.506486000" lon="12.923910000"><ele>664.247000</ele><time>2009-07-28T08:27:19Z</time></trkpt><trkpt lat="43.506441000" lon="12.923942000"><ele>664.350000</ele><time>2009-07-28T08:27:23Z</time></trkpt><trkpt lat="43.506420000" lon="12.923957000"><ele>664.211000</ele><time>2009-07-28T08:27:25Z</time></trkpt><trkpt lat="43.506381000" lon="12.923992000"><ele>665.447000</ele><time>2009-07-28T08:27:29Z</time></trkpt><trkpt lat="43.506359000" lon="12.924008000"><ele>665.676000</ele><time>2009-07-28T08:27:31Z</time></trkpt><trkpt lat="43.506318000" lon="12.924039000"><ele>666.454000</ele><time>2009-07-28T08:27:35Z</time></trkpt><trkpt lat="43.506308000" lon="12.924053000"><ele>666.974000</ele><time>2009-07-28T08:27:37Z</time></trkpt><trkpt lat="43.506262000" lon="12.924099000"><ele>665.568000</ele><time>2009-07-28T08:27:41Z</time></trkpt><trkpt lat="43.506245000" lon="12.924106000"><ele>665.328000</ele><time>2009-07-28T08:27:43Z</time></trkpt><trkpt lat="43.506198000" lon="12.924127000"><ele>665.343000</ele><time>2009-07-28T08:27:47Z</time></trkpt><trkpt lat="43.506175000" lon="12.924146000"><ele>665.056000</ele><time>2009-07-28T08:27:49Z</time></trkpt><trkpt lat="43.506153000" lon="12.924174000"><ele>665.617000</ele><time>2009-07-28T08:27:53Z</time></trkpt><trkpt lat="43.506126000" lon="12.924199000"><ele>665.585000</ele><time>2009-07-28T08:27:55Z</time></trkpt><trkpt lat="43.506092000" lon="12.924232000"><ele>665.385000</ele><time>2009-07-28T08:27:59Z</time></trkpt><trkpt lat="43.506068000" lon="12.924251000"><ele>665.439000</ele><time>2009-07-28T08:28:01Z</time></trkpt><trkpt lat="43.506013000" lon="12.924294000"><ele>666.034000</ele><time>2009-07-28T08:28:05Z</time></trkpt><trkpt lat="43.505998000" lon="12.924319000"><ele>666.418000</ele><time>2009-07-28T08:28:07Z</time></trkpt><trkpt lat="43.505963000" lon="12.924374000"><ele>667.109000</ele><time>2009-07-28T08:28:11Z</time></trkpt><trkpt lat="43.505945000" lon="12.924390000"><ele>667.567000</ele><time>2009-07-28T08:28:13Z</time></trkpt><trkpt lat="43.505888000" lon="12.924387000"><ele>667.262000</ele><time>2009-07-28T08:28:17Z</time></trkpt><trkpt lat="43.505864000" lon="12.924393000"><ele>667.589000</ele><time>2009-07-28T08:28:19Z</time></trkpt><trkpt lat="43.505836000" lon="12.924433000"><ele>667.743000</ele><time>2009-07-28T08:28:23Z</time></trkpt><trkpt lat="43.505826000" lon="12.924437000"><ele>667.204000</ele><time>2009-07-28T08:28:25Z</time></trkpt><trkpt lat="43.505804000" lon="12.924459000"><ele>664.786000</ele><time>2009-07-28T08:28:29Z</time></trkpt><trkpt lat="43.505803000" lon="12.924478000"><ele>663.852000</ele><time>2009-07-28T08:28:31Z</time></trkpt><trkpt lat="43.505804000" lon="12.924534000"><ele>663.709000</ele><time>2009-07-28T08:28:35Z</time></trkpt><trkpt lat="43.505793000" lon="12.924583000"><ele>663.235000</ele><time>2009-07-28T08:28:37Z</time></trkpt><trkpt lat="43.505763000" lon="12.924640000"><ele>662.120000</ele><time>2009-07-28T08:28:41Z</time></trkpt><trkpt lat="43.505770000" lon="12.924681000"><ele>662.998000</ele><time>2009-07-28T08:28:43Z</time></trkpt><trkpt lat="43.505799000" lon="12.924742000"><ele>659.458000</ele><time>2009-07-28T08:28:47Z</time></trkpt><trkpt lat="43.505799000" lon="12.924765000"><ele>659.984000</ele><time>2009-07-28T08:28:49Z</time></trkpt><trkpt lat="43.505789000" lon="12.924827000"><ele>658.459000</ele><time>2009-07-28T08:28:53Z</time></trkpt><trkpt lat="43.505792000" lon="12.924857000"><ele>658.445000</ele><time>2009-07-28T08:28:55Z</time></trkpt><trkpt lat="43.505775000" lon="12.924918000"><ele>656.653000</ele><time>2009-07-28T08:28:59Z</time></trkpt><trkpt lat="43.505769000" lon="12.924952000"><ele>656.665000</ele><time>2009-07-28T08:29:01Z</time></trkpt><trkpt lat="43.505768000" lon="12.925033000"><ele>656.952000</ele><time>2009-07-28T08:29:05Z</time></trkpt><trkpt lat="43.505764000" lon="12.925061000"><ele>657.146000</ele><time>2009-07-28T08:29:07Z</time></trkpt><trkpt lat="43.505750000" lon="12.925104000"><ele>657.480000</ele><time>2009-07-28T08:29:11Z</time></trkpt><trkpt lat="43.505733000" lon="12.925121000"><ele>657.278000</ele><time>2009-07-28T08:29:13Z</time></trkpt><trkpt lat="43.505720000" lon="12.925136000"><ele>657.188000</ele><time>2009-07-28T08:29:17Z</time></trkpt><trkpt lat="43.505719000" lon="12.925145000"><ele>657.138000</ele><time>2009-07-28T08:29:19Z</time></trkpt><trkpt lat="43.505718000" lon="12.925142000"><ele>657.107000</ele><time>2009-07-28T08:29:23Z</time></trkpt><trkpt lat="43.505703000" lon="12.925151000"><ele>656.836000</ele><time>2009-07-28T08:29:25Z</time></trkpt><trkpt lat="43.505696000" lon="12.925146000"><ele>656.891000</ele><time>2009-07-28T08:29:29Z</time></trkpt><trkpt lat="43.505696000" lon="12.925146000"><ele>656.905000</ele><time>2009-07-28T08:29:31Z</time></trkpt><trkpt lat="43.505687000" lon="12.925125000"><ele>656.943000</ele><time>2009-07-28T08:29:35Z</time></trkpt><trkpt lat="43.505691000" lon="12.925127000"><ele>656.954000</ele><time>2009-07-28T08:29:37Z</time></trkpt><trkpt lat="43.505698000" lon="12.925132000"><ele>656.958000</ele><time>2009-07-28T08:29:41Z</time></trkpt><trkpt lat="43.505701000" lon="12.925124000"><ele>656.739000</ele><time>2009-07-28T08:29:43Z</time></trkpt><trkpt lat="43.505658000" lon="12.925098000"><ele>656.852000</ele><time>2009-07-28T08:29:47Z</time></trkpt><trkpt lat="43.505657000" lon="12.925097000"><ele>656.844000</ele><time>2009-07-28T08:29:49Z</time></trkpt><trkpt lat="43.505652000" lon="12.925097000"><ele>656.215000</ele><time>2009-07-28T08:29:53Z</time></trkpt><trkpt lat="43.505669000" lon="12.925098000"><ele>656.228000</ele><time>2009-07-28T08:29:55Z</time></trkpt><trkpt lat="43.505677000" lon="12.925103000"><ele>656.194000</ele><time>2009-07-28T08:29:59Z</time></trkpt><trkpt lat="43.505703000" lon="12.925110000"><ele>656.332000</ele><time>2009-07-28T08:30:01Z</time></trkpt><trkpt lat="43.505755000" lon="12.925128000"><ele>656.059000</ele><time>2009-07-28T08:30:05Z</time></trkpt><trkpt lat="43.505721000" lon="12.925145000"><ele>655.913000</ele><time>2009-07-28T08:30:07Z</time></trkpt><trkpt lat="43.505694000" lon="12.925186000"><ele>655.891000</ele><time>2009-07-28T08:30:11Z</time></trkpt><trkpt lat="43.505716000" lon="12.925186000"><ele>655.985000</ele><time>2009-07-28T08:30:13Z</time></trkpt><trkpt lat="43.505727000" lon="12.925187000"><ele>655.456000</ele><time>2009-07-28T08:30:17Z</time></trkpt><trkpt lat="43.505751000" lon="12.925162000"><ele>655.444000</ele><time>2009-07-28T08:30:19Z</time></trkpt><trkpt lat="43.505734000" lon="12.925132000"><ele>655.388000</ele><time>2009-07-28T08:30:23Z</time></trkpt><trkpt lat="43.505722000" lon="12.925117000"><ele>655.021000</ele><time>2009-07-28T08:30:25Z</time></trkpt><trkpt lat="43.505714000" lon="12.925109000"><ele>654.913000</ele><time>2009-07-28T08:30:29Z</time></trkpt><trkpt lat="43.505711000" lon="12.925105000"><ele>654.868000</ele><time>2009-07-28T08:30:31Z</time></trkpt><trkpt lat="43.505694000" lon="12.925088000"><ele>654.919000</ele><time>2009-07-28T08:30:35Z</time></trkpt><trkpt lat="43.505685000" lon="12.925087000"><ele>654.914000</ele><time>2009-07-28T08:30:37Z</time></trkpt><trkpt lat="43.505712000" lon="12.925104000"><ele>654.951000</ele><time>2009-07-28T08:30:41Z</time></trkpt><trkpt lat="43.505703000" lon="12.925130000"><ele>654.963000</ele><time>2009-07-28T08:30:43Z</time></trkpt><trkpt lat="43.505703000" lon="12.925157000"><ele>654.984000</ele><time>2009-07-28T08:30:47Z</time></trkpt><trkpt lat="43.505699000" lon="12.925161000"><ele>654.935000</ele><time>2009-07-28T08:30:49Z</time></trkpt><trkpt lat="43.505699000" lon="12.925162000"><ele>654.906000</ele><time>2009-07-28T08:30:53Z</time></trkpt><trkpt lat="43.505703000" lon="12.925144000"><ele>654.512000</ele><time>2009-07-28T08:30:55Z</time></trkpt><trkpt lat="43.505720000" lon="12.925138000"><ele>654.021000</ele><time>2009-07-28T08:30:59Z</time></trkpt><trkpt lat="43.505732000" lon="12.925139000"><ele>654.299000</ele><time>2009-07-28T08:31:01Z</time></trkpt><trkpt lat="43.505720000" lon="12.925186000"><ele>654.563000</ele><time>2009-07-28T08:31:05Z</time></trkpt><trkpt lat="43.505659000" lon="12.925217000"><ele>655.366000</ele><time>2009-07-28T08:31:07Z</time></trkpt><trkpt lat="43.505630000" lon="12.925254000"><ele>655.305000</ele><time>2009-07-28T08:31:11Z</time></trkpt><trkpt lat="43.505620000" lon="12.925259000"><ele>655.294000</ele><time>2009-07-28T08:31:13Z</time></trkpt><trkpt lat="43.505595000" lon="12.925266000"><ele>655.326000</ele><time>2009-07-28T08:31:17Z</time></trkpt><trkpt lat="43.505593000" lon="12.925270000"><ele>655.124000</ele><time>2009-07-28T08:31:19Z</time></trkpt><trkpt lat="43.505596000" lon="12.925285000"><ele>654.743000</ele><time>2009-07-28T08:31:23Z</time></trkpt><trkpt lat="43.505593000" lon="12.925283000"><ele>654.776000</ele><time>2009-07-28T08:31:25Z</time></trkpt><trkpt lat="43.505590000" lon="12.925282000"><ele>654.810000</ele><time>2009-07-28T08:31:29Z</time></trkpt><trkpt lat="43.505590000" lon="12.925283000"><ele>654.816000</ele><time>2009-07-28T08:31:31Z</time></trkpt><trkpt lat="43.505582000" lon="12.925278000"><ele>654.799000</ele><time>2009-07-28T08:31:35Z</time></trkpt><trkpt lat="43.505578000" lon="12.925276000"><ele>654.800000</ele><time>2009-07-28T08:31:37Z</time></trkpt><trkpt lat="43.505582000" lon="12.925278000"><ele>654.798000</ele><time>2009-07-28T08:31:41Z</time></trkpt><trkpt lat="43.505586000" lon="12.925280000"><ele>654.802000</ele><time>2009-07-28T08:31:43Z</time></trkpt><trkpt lat="43.505594000" lon="12.925285000"><ele>654.823000</ele><time>2009-07-28T08:31:47Z</time></trkpt><trkpt lat="43.505596000" lon="12.925288000"><ele>654.828000</ele><time>2009-07-28T08:31:49Z</time></trkpt><trkpt lat="43.505603000" lon="12.925292000"><ele>654.871000</ele><time>2009-07-28T08:31:53Z</time></trkpt><trkpt lat="43.505603000" lon="12.925292000"><ele>654.910000</ele><time>2009-07-28T08:31:55Z</time></trkpt><trkpt lat="43.505607000" lon="12.925294000"><ele>654.978000</ele><time>2009-07-28T08:31:59Z</time></trkpt><trkpt lat="43.505609000" lon="12.925295000"><ele>655.006000</ele><time>2009-07-28T08:32:01Z</time></trkpt><trkpt lat="43.505613000" lon="12.925297000"><ele>655.054000</ele><time>2009-07-28T08:32:05Z</time></trkpt><trkpt lat="43.505615000" lon="12.925298000"><ele>655.093000</ele><time>2009-07-28T08:32:07Z</time></trkpt><trkpt lat="43.505616000" lon="12.925299000"><ele>655.163000</ele><time>2009-07-28T08:32:11Z</time></trkpt><trkpt lat="43.505612000" lon="12.925297000"><ele>655.179000</ele><time>2009-07-28T08:32:13Z</time></trkpt><trkpt lat="43.505595000" lon="12.925290000"><ele>655.707000</ele><time>2009-07-28T08:32:17Z</time></trkpt><trkpt lat="43.505597000" lon="12.925289000"><ele>655.695000</ele><time>2009-07-28T08:32:19Z</time></trkpt><trkpt lat="43.505608000" lon="12.925212000"><ele>654.310000</ele><time>2009-07-28T08:32:23Z</time></trkpt><trkpt lat="43.505621000" lon="12.925176000"><ele>653.725000</ele><time>2009-07-28T08:32:25Z</time></trkpt><trkpt lat="43.505647000" lon="12.925160000"><ele>654.679000</ele><time>2009-07-28T08:32:29Z</time></trkpt><trkpt lat="43.505650000" lon="12.925160000"><ele>654.902000</ele><time>2009-07-28T08:32:31Z</time></trkpt><trkpt lat="43.505645000" lon="12.925148000"><ele>654.738000</ele><time>2009-07-28T08:32:35Z</time></trkpt><trkpt lat="43.505641000" lon="12.925144000"><ele>654.797000</ele><time>2009-07-28T08:32:37Z</time></trkpt><trkpt lat="43.505614000" lon="12.925117000"><ele>654.893000</ele><time>2009-07-28T08:32:41Z</time></trkpt><trkpt lat="43.505612000" lon="12.925112000"><ele>654.938000</ele><time>2009-07-28T08:32:43Z</time></trkpt><trkpt lat="43.505621000" lon="12.925099000"><ele>655.005000</ele><time>2009-07-28T08:32:47Z</time></trkpt><trkpt lat="43.505612000" lon="12.925083000"><ele>655.026000</ele><time>2009-07-28T08:32:49Z</time></trkpt><trkpt lat="43.505614000" lon="12.925064000"><ele>655.015000</ele><time>2009-07-28T08:32:53Z</time></trkpt><trkpt lat="43.505616000" lon="12.925055000"><ele>654.982000</ele><time>2009-07-28T08:32:55Z</time></trkpt><trkpt lat="43.505611000" lon="12.925050000"><ele>655.009000</ele><time>2009-07-28T08:32:59Z</time></trkpt><trkpt lat="43.505611000" lon="12.925050000"><ele>655.016000</ele><time>2009-07-28T08:33:01Z</time></trkpt><trkpt lat="43.505615000" lon="12.925052000"><ele>655.026000</ele><time>2009-07-28T08:33:05Z</time></trkpt><trkpt lat="43.505617000" lon="12.925054000"><ele>655.030000</ele><time>2009-07-28T08:33:07Z</time></trkpt><trkpt lat="43.505624000" lon="12.925058000"><ele>655.037000</ele><time>2009-07-28T08:33:11Z</time></trkpt><trkpt lat="43.505627000" lon="12.925060000"><ele>655.038000</ele><time>2009-07-28T08:33:13Z</time></trkpt><trkpt lat="43.505638000" lon="12.925065000"><ele>655.068000</ele><time>2009-07-28T08:33:17Z</time></trkpt><trkpt lat="43.505650000" lon="12.925060000"><ele>655.092000</ele><time>2009-07-28T08:33:19Z</time></trkpt><trkpt lat="43.505684000" lon="12.925038000"><ele>655.169000</ele><time>2009-07-28T08:33:23Z</time></trkpt><trkpt lat="43.505699000" lon="12.925027000"><ele>655.192000</ele><time>2009-07-28T08:33:25Z</time></trkpt><trkpt lat="43.505714000" lon="12.925028000"><ele>655.378000</ele><time>2009-07-28T08:33:29Z</time></trkpt><trkpt lat="43.505697000" lon="12.925029000"><ele>655.458000</ele><time>2009-07-28T08:33:31Z</time></trkpt><trkpt lat="43.505683000" lon="12.925030000"><ele>655.501000</ele><time>2009-07-28T08:33:35Z</time></trkpt><trkpt lat="43.505684000" lon="12.925031000"><ele>655.509000</ele><time>2009-07-28T08:33:37Z</time></trkpt><trkpt lat="43.505688000" lon="12.925033000"><ele>655.518000</ele><time>2009-07-28T08:33:41Z</time></trkpt><trkpt lat="43.505691000" lon="12.925035000"><ele>655.525000</ele><time>2009-07-28T08:33:43Z</time></trkpt><trkpt lat="43.505697000" lon="12.925038000"><ele>655.533000</ele><time>2009-07-28T08:33:47Z</time></trkpt><trkpt lat="43.505700000" lon="12.925040000"><ele>655.536000</ele><time>2009-07-28T08:33:49Z</time></trkpt><trkpt lat="43.505712000" lon="12.925068000"><ele>655.680000</ele><time>2009-07-28T08:33:53Z</time></trkpt><trkpt lat="43.505725000" lon="12.925074000"><ele>655.704000</ele><time>2009-07-28T08:33:55Z</time></trkpt><trkpt lat="43.505758000" lon="12.925091000"><ele>655.728000</ele><time>2009-07-28T08:33:59Z</time></trkpt><trkpt lat="43.505759000" lon="12.925088000"><ele>655.758000</ele><time>2009-07-28T08:34:01Z</time></trkpt><trkpt lat="43.505731000" lon="12.925076000"><ele>655.874000</ele><time>2009-07-28T08:34:05Z</time></trkpt><trkpt lat="43.505734000" lon="12.925078000"><ele>655.885000</ele><time>2009-07-28T08:34:07Z</time></trkpt><trkpt lat="43.505738000" lon="12.925081000"><ele>655.903000</ele><time>2009-07-28T08:34:11Z</time></trkpt><trkpt lat="43.505736000" lon="12.925080000"><ele>655.911000</ele><time>2009-07-28T08:34:13Z</time></trkpt><trkpt lat="43.505731000" lon="12.925077000"><ele>655.922000</ele><time>2009-07-28T08:34:17Z</time></trkpt><trkpt lat="43.505727000" lon="12.925075000"><ele>655.926000</ele><time>2009-07-28T08:34:19Z</time></trkpt><trkpt lat="43.505721000" lon="12.925070000"><ele>655.935000</ele><time>2009-07-28T08:34:23Z</time></trkpt><trkpt lat="43.505714000" lon="12.925066000"><ele>655.943000</ele><time>2009-07-28T08:34:25Z</time></trkpt><trkpt lat="43.505702000" lon="12.925084000"><ele>655.969000</ele><time>2009-07-28T08:34:29Z</time></trkpt><trkpt lat="43.505691000" lon="12.925080000"><ele>655.997000</ele><time>2009-07-28T08:34:31Z</time></trkpt><trkpt lat="43.505660000" lon="12.925074000"><ele>656.136000</ele><time>2009-07-28T08:34:35Z</time></trkpt><trkpt lat="43.505651000" lon="12.925073000"><ele>656.258000</ele><time>2009-07-28T08:34:37Z</time></trkpt><trkpt lat="43.505667000" lon="12.925082000"><ele>656.314000</ele><time>2009-07-28T08:34:41Z</time></trkpt><trkpt lat="43.505684000" lon="12.925091000"><ele>656.343000</ele><time>2009-07-28T08:34:43Z</time></trkpt><trkpt lat="43.505684000" lon="12.925092000"><ele>656.348000</ele><time>2009-07-28T08:34:47Z</time></trkpt><trkpt lat="43.505686000" lon="12.925093000"><ele>656.350000</ele><time>2009-07-28T08:34:49Z</time></trkpt><trkpt lat="43.505690000" lon="12.925096000"><ele>656.350000</ele><time>2009-07-28T08:34:53Z</time></trkpt><trkpt lat="43.505691000" lon="12.925097000"><ele>656.352000</ele><time>2009-07-28T08:34:55Z</time></trkpt><trkpt lat="43.505695000" lon="12.925099000"><ele>656.356000</ele><time>2009-07-28T08:34:59Z</time></trkpt><trkpt lat="43.505697000" lon="12.925100000"><ele>656.358000</ele><time>2009-07-28T08:35:01Z</time></trkpt><trkpt lat="43.505696000" lon="12.925099000"><ele>656.359000</ele><time>2009-07-28T08:35:05Z</time></trkpt><trkpt lat="43.505695000" lon="12.925098000"><ele>656.356000</ele><time>2009-07-28T08:35:07Z</time></trkpt><trkpt lat="43.505693000" lon="12.925096000"><ele>656.354000</ele><time>2009-07-28T08:35:11Z</time></trkpt><trkpt lat="43.505690000" lon="12.925094000"><ele>656.354000</ele><time>2009-07-28T08:35:13Z</time></trkpt><trkpt lat="43.505685000" lon="12.925091000"><ele>656.355000</ele><time>2009-07-28T08:35:17Z</time></trkpt><trkpt lat="43.505683000" lon="12.925089000"><ele>656.357000</ele><time>2009-07-28T08:35:19Z</time></trkpt><trkpt lat="43.505682000" lon="12.925088000"><ele>656.371000</ele><time>2009-07-28T08:35:23Z</time></trkpt><trkpt lat="43.505684000" lon="12.925090000"><ele>656.383000</ele><time>2009-07-28T08:35:25Z</time></trkpt><trkpt lat="43.505691000" lon="12.925094000"><ele>656.397000</ele><time>2009-07-28T08:35:29Z</time></trkpt><trkpt lat="43.505694000" lon="12.925095000"><ele>656.397000</ele><time>2009-07-28T08:35:31Z</time></trkpt><trkpt lat="43.505697000" lon="12.925096000"><ele>656.398000</ele><time>2009-07-28T08:35:35Z</time></trkpt><trkpt lat="43.505714000" lon="12.925108000"><ele>656.364000</ele><time>2009-07-28T08:35:37Z</time></trkpt><trkpt lat="43.505706000" lon="12.925110000"><ele>656.385000</ele><time>2009-07-28T08:35:41Z</time></trkpt><trkpt lat="43.505702000" lon="12.925108000"><ele>656.385000</ele><time>2009-07-28T08:35:43Z</time></trkpt><trkpt lat="43.505669000" lon="12.925093000"><ele>656.285000</ele><time>2009-07-28T08:35:47Z</time></trkpt><trkpt lat="43.505665000" lon="12.925091000"><ele>656.144000</ele><time>2009-07-28T08:35:49Z</time></trkpt><trkpt lat="43.505659000" lon="12.925098000"><ele>655.987000</ele><time>2009-07-28T08:35:53Z</time></trkpt><trkpt lat="43.505648000" lon="12.925103000"><ele>655.977000</ele><time>2009-07-28T08:35:55Z</time></trkpt><trkpt lat="43.505646000" lon="12.925116000"><ele>656.103000</ele><time>2009-07-28T08:35:59Z</time></trkpt><trkpt lat="43.505645000" lon="12.925108000"><ele>656.186000</ele><time>2009-07-28T08:36:01Z</time></trkpt><trkpt lat="43.505642000" lon="12.925091000"><ele>656.309000</ele><time>2009-07-28T08:36:05Z</time></trkpt><trkpt lat="43.505643000" lon="12.925087000"><ele>656.453000</ele><time>2009-07-28T08:36:07Z</time></trkpt><trkpt lat="43.505641000" lon="12.925081000"><ele>656.579000</ele><time>2009-07-28T08:36:11Z</time></trkpt><trkpt lat="43.505639000" lon="12.925080000"><ele>656.589000</ele><time>2009-07-28T08:36:13Z</time></trkpt><trkpt lat="43.505644000" lon="12.925082000"><ele>656.592000</ele><time>2009-07-28T08:36:17Z</time></trkpt><trkpt lat="43.505648000" lon="12.925085000"><ele>656.594000</ele><time>2009-07-28T08:36:19Z</time></trkpt><trkpt lat="43.505692000" lon="12.925082000"><ele>657.133000</ele><time>2009-07-28T08:36:23Z</time></trkpt><trkpt lat="43.505695000" lon="12.925084000"><ele>657.140000</ele><time>2009-07-28T08:36:25Z</time></trkpt><trkpt lat="43.505703000" lon="12.925088000"><ele>657.154000</ele><time>2009-07-28T08:36:29Z</time></trkpt><trkpt lat="43.505706000" lon="12.925088000"><ele>657.163000</ele><time>2009-07-28T08:36:31Z</time></trkpt><trkpt lat="43.505713000" lon="12.925093000"><ele>657.175000</ele><time>2009-07-28T08:36:35Z</time></trkpt><trkpt lat="43.505730000" lon="12.925087000"><ele>657.151000</ele><time>2009-07-28T08:36:37Z</time></trkpt><trkpt lat="43.505744000" lon="12.925067000"><ele>657.030000</ele><time>2009-07-28T08:36:41Z</time></trkpt><trkpt lat="43.505767000" lon="12.925083000"><ele>656.572000</ele><time>2009-07-28T08:36:43Z</time></trkpt><trkpt lat="43.505743000" lon="12.925124000"><ele>654.216000</ele><time>2009-07-28T08:36:47Z</time></trkpt><trkpt lat="43.505757000" lon="12.925124000"><ele>653.189000</ele><time>2009-07-28T08:36:49Z</time></trkpt><trkpt lat="43.505761000" lon="12.925171000"><ele>651.972000</ele><time>2009-07-28T08:36:53Z</time></trkpt><trkpt lat="43.505742000" lon="12.925216000"><ele>652.308000</ele><time>2009-07-28T08:36:55Z</time></trkpt><trkpt lat="43.505670000" lon="12.925260000"><ele>652.440000</ele><time>2009-07-28T08:36:59Z</time></trkpt><trkpt lat="43.505653000" lon="12.925283000"><ele>652.316000</ele><time>2009-07-28T08:37:01Z</time></trkpt><trkpt lat="43.505625000" lon="12.925298000"><ele>653.537000</ele><time>2009-07-28T08:37:05Z</time></trkpt><trkpt lat="43.505623000" lon="12.925300000"><ele>653.654000</ele><time>2009-07-28T08:37:07Z</time></trkpt><trkpt lat="43.505632000" lon="12.925301000"><ele>654.240000</ele><time>2009-07-28T08:37:11Z</time></trkpt><trkpt lat="43.505632000" lon="12.925300000"><ele>654.256000</ele><time>2009-07-28T08:37:13Z</time></trkpt><trkpt lat="43.505627000" lon="12.925297000"><ele>654.267000</ele><time>2009-07-28T08:37:17Z</time></trkpt><trkpt lat="43.505627000" lon="12.925296000"><ele>654.288000</ele><time>2009-07-28T08:37:19Z</time></trkpt><trkpt lat="43.505633000" lon="12.925301000"><ele>654.313000</ele><time>2009-07-28T08:37:23Z</time></trkpt><trkpt lat="43.505637000" lon="12.925303000"><ele>654.324000</ele><time>2009-07-28T08:37:25Z</time></trkpt><trkpt lat="43.505669000" lon="12.925319000"><ele>654.804000</ele><time>2009-07-28T08:37:29Z</time></trkpt><trkpt lat="43.505662000" lon="12.925306000"><ele>655.238000</ele><time>2009-07-28T08:37:31Z</time></trkpt><trkpt lat="43.505648000" lon="12.925280000"><ele>655.026000</ele><time>2009-07-28T08:37:35Z</time></trkpt><trkpt lat="43.505652000" lon="12.925281000"><ele>655.060000</ele><time>2009-07-28T08:37:37Z</time></trkpt><trkpt lat="43.505634000" lon="12.925339000"><ele>654.838000</ele><time>2009-07-28T08:37:41Z</time></trkpt><trkpt lat="43.505660000" lon="12.925372000"><ele>653.098000</ele><time>2009-07-28T08:37:43Z</time></trkpt><trkpt lat="43.505640000" lon="12.925384000"><ele>653.492000</ele><time>2009-07-28T08:37:47Z</time></trkpt><trkpt lat="43.505626000" lon="12.925389000"><ele>652.920000</ele><time>2009-07-28T08:37:49Z</time></trkpt><trkpt lat="43.505593000" lon="12.925378000"><ele>652.589000</ele><time>2009-07-28T08:37:53Z</time></trkpt><trkpt lat="43.505571000" lon="12.925375000"><ele>652.693000</ele><time>2009-07-28T08:37:55Z</time></trkpt><trkpt lat="43.505539000" lon="12.925370000"><ele>653.440000</ele><time>2009-07-28T08:37:59Z</time></trkpt><trkpt lat="43.505526000" lon="12.925367000"><ele>653.321000</ele><time>2009-07-28T08:38:01Z</time></trkpt><trkpt lat="43.505498000" lon="12.925356000"><ele>653.168000</ele><time>2009-07-28T08:38:05Z</time></trkpt><trkpt lat="43.505489000" lon="12.925353000"><ele>653.296000</ele><time>2009-07-28T08:38:07Z</time></trkpt><trkpt lat="43.505512000" lon="12.925368000"><ele>653.797000</ele><time>2009-07-28T08:38:11Z</time></trkpt><trkpt lat="43.505513000" lon="12.925368000"><ele>653.846000</ele><time>2009-07-28T08:38:13Z</time></trkpt><trkpt lat="43.505504000" lon="12.925366000"><ele>653.954000</ele><time>2009-07-28T08:38:17Z</time></trkpt><trkpt lat="43.505495000" lon="12.925365000"><ele>654.003000</ele><time>2009-07-28T08:38:19Z</time></trkpt><trkpt lat="43.505498000" lon="12.925331000"><ele>654.373000</ele><time>2009-07-28T08:38:23Z</time></trkpt><trkpt lat="43.505494000" lon="12.925319000"><ele>654.334000</ele><time>2009-07-28T08:38:25Z</time></trkpt><trkpt lat="43.505493000" lon="12.925330000"><ele>654.730000</ele><time>2009-07-28T08:38:29Z</time></trkpt><trkpt lat="43.505491000" lon="12.925333000"><ele>654.729000</ele><time>2009-07-28T08:38:31Z</time></trkpt><trkpt lat="43.505486000" lon="12.925330000"><ele>654.730000</ele><time>2009-07-28T08:38:35Z</time></trkpt><trkpt lat="43.505481000" lon="12.925331000"><ele>654.727000</ele><time>2009-07-28T08:38:37Z</time></trkpt><trkpt lat="43.505462000" lon="12.925350000"><ele>654.797000</ele><time>2009-07-28T08:38:41Z</time></trkpt><trkpt lat="43.505459000" lon="12.925348000"><ele>654.796000</ele><time>2009-07-28T08:38:43Z</time></trkpt><trkpt lat="43.505453000" lon="12.925343000"><ele>654.796000</ele><time>2009-07-28T08:38:47Z</time></trkpt><trkpt lat="43.505451000" lon="12.925341000"><ele>654.795000</ele><time>2009-07-28T08:38:49Z</time></trkpt><trkpt lat="43.505452000" lon="12.925342000"><ele>654.797000</ele><time>2009-07-28T08:38:53Z</time></trkpt><trkpt lat="43.505452000" lon="12.925342000"><ele>654.799000</ele><time>2009-07-28T08:38:55Z</time></trkpt><trkpt lat="43.505433000" lon="12.925338000"><ele>655.195000</ele><time>2009-07-28T08:38:59Z</time></trkpt><trkpt lat="43.505420000" lon="12.925347000"><ele>655.395000</ele><time>2009-07-28T08:39:01Z</time></trkpt><trkpt lat="43.505408000" lon="12.925330000"><ele>655.729000</ele><time>2009-07-28T08:39:05Z</time></trkpt><trkpt lat="43.505404000" lon="12.925328000"><ele>655.799000</ele><time>2009-07-28T08:39:07Z</time></trkpt><trkpt lat="43.505399000" lon="12.925328000"><ele>655.820000</ele><time>2009-07-28T08:39:11Z</time></trkpt><trkpt lat="43.505402000" lon="12.925331000"><ele>655.822000</ele><time>2009-07-28T08:39:13Z</time></trkpt><trkpt lat="43.505410000" lon="12.925336000"><ele>655.829000</ele><time>2009-07-28T08:39:17Z</time></trkpt><trkpt lat="43.505413000" lon="12.925357000"><ele>655.646000</ele><time>2009-07-28T08:39:19Z</time></trkpt><trkpt lat="43.505391000" lon="12.925363000"><ele>655.833000</ele><time>2009-07-28T08:39:23Z</time></trkpt><trkpt lat="43.505391000" lon="12.925363000"><ele>655.864000</ele><time>2009-07-28T08:39:25Z</time></trkpt><trkpt lat="43.505394000" lon="12.925365000"><ele>655.873000</ele><time>2009-07-28T08:39:29Z</time></trkpt><trkpt lat="43.505395000" lon="12.925366000"><ele>655.867000</ele><time>2009-07-28T08:39:31Z</time></trkpt><trkpt lat="43.505395000" lon="12.925367000"><ele>655.857000</ele><time>2009-07-28T08:39:35Z</time></trkpt><trkpt lat="43.505396000" lon="12.925371000"><ele>655.783000</ele><time>2009-07-28T08:39:37Z</time></trkpt><trkpt lat="43.505400000" lon="12.925383000"><ele>656.064000</ele><time>2009-07-28T08:39:41Z</time></trkpt><trkpt lat="43.505418000" lon="12.925380000"><ele>656.459000</ele><time>2009-07-28T08:39:43Z</time></trkpt><trkpt lat="43.505417000" lon="12.925376000"><ele>655.803000</ele><time>2009-07-28T08:39:47Z</time></trkpt><trkpt lat="43.505422000" lon="12.925379000"><ele>655.328000</ele><time>2009-07-28T08:39:49Z</time></trkpt><trkpt lat="43.505454000" lon="12.925358000"><ele>656.687000</ele><time>2009-07-28T08:39:53Z</time></trkpt><trkpt lat="43.505453000" lon="12.925357000"><ele>656.614000</ele><time>2009-07-28T08:39:55Z</time></trkpt><trkpt lat="43.505453000" lon="12.925356000"><ele>656.436000</ele><time>2009-07-28T08:39:59Z</time></trkpt><trkpt lat="43.505454000" lon="12.925357000"><ele>656.389000</ele><time>2009-07-28T08:40:01Z</time></trkpt><trkpt lat="43.505457000" lon="12.925358000"><ele>656.408000</ele><time>2009-07-28T08:40:05Z</time></trkpt><trkpt lat="43.505458000" lon="12.925359000"><ele>656.447000</ele><time>2009-07-28T08:40:07Z</time></trkpt><trkpt lat="43.505462000" lon="12.925361000"><ele>656.515000</ele><time>2009-07-28T08:40:11Z</time></trkpt><trkpt lat="43.505465000" lon="12.925362000"><ele>656.603000</ele><time>2009-07-28T08:40:13Z</time></trkpt><trkpt lat="43.505470000" lon="12.925364000"><ele>656.834000</ele><time>2009-07-28T08:40:17Z</time></trkpt><trkpt lat="43.505473000" lon="12.925365000"><ele>656.912000</ele><time>2009-07-28T08:40:19Z</time></trkpt><trkpt lat="43.505476000" lon="12.925368000"><ele>657.027000</ele><time>2009-07-28T08:40:23Z</time></trkpt><trkpt lat="43.505476000" lon="12.925368000"><ele>657.077000</ele><time>2009-07-28T08:40:25Z</time></trkpt><trkpt lat="43.505477000" lon="12.925369000"><ele>657.112000</ele><time>2009-07-28T08:40:29Z</time></trkpt><trkpt lat="43.505479000" lon="12.925370000"><ele>657.105000</ele><time>2009-07-28T08:40:31Z</time></trkpt><trkpt lat="43.505481000" lon="12.925371000"><ele>657.107000</ele><time>2009-07-28T08:40:35Z</time></trkpt><trkpt lat="43.505482000" lon="12.925372000"><ele>657.108000</ele><time>2009-07-28T08:40:37Z</time></trkpt><trkpt lat="43.505481000" lon="12.925372000"><ele>657.115000</ele><time>2009-07-28T08:40:41Z</time></trkpt><trkpt lat="43.505481000" lon="12.925372000"><ele>657.116000</ele><time>2009-07-28T08:40:43Z</time></trkpt><trkpt lat="43.505482000" lon="12.925372000"><ele>657.117000</ele><time>2009-07-28T08:40:47Z</time></trkpt><trkpt lat="43.505482000" lon="12.925372000"><ele>657.119000</ele><time>2009-07-28T08:40:49Z</time></trkpt><trkpt lat="43.505482000" lon="12.925373000"><ele>657.130000</ele><time>2009-07-28T08:40:53Z</time></trkpt><trkpt lat="43.505482000" lon="12.925373000"><ele>657.131000</ele><time>2009-07-28T08:40:55Z</time></trkpt><trkpt lat="43.505482000" lon="12.925373000"><ele>657.130000</ele><time>2009-07-28T08:40:59Z</time></trkpt><trkpt lat="43.505482000" lon="12.925373000"><ele>657.135000</ele><time>2009-07-28T08:41:01Z</time></trkpt><trkpt lat="43.505483000" lon="12.925373000"><ele>657.142000</ele><time>2009-07-28T08:41:05Z</time></trkpt><trkpt lat="43.505483000" lon="12.925373000"><ele>657.143000</ele><time>2009-07-28T08:41:07Z</time></trkpt><trkpt lat="43.505483000" lon="12.925373000"><ele>657.150000</ele><time>2009-07-28T08:41:11Z</time></trkpt><trkpt lat="43.505483000" lon="12.925373000"><ele>657.147000</ele><time>2009-07-28T08:41:13Z</time></trkpt><trkpt lat="43.505482000" lon="12.925374000"><ele>657.150000</ele><time>2009-07-28T08:41:17Z</time></trkpt><trkpt lat="43.505482000" lon="12.925373000"><ele>657.143000</ele><time>2009-07-28T08:41:19Z</time></trkpt><trkpt lat="43.505482000" lon="12.925374000"><ele>657.133000</ele><time>2009-07-28T08:41:23Z</time></trkpt><trkpt lat="43.505482000" lon="12.925373000"><ele>657.115000</ele><time>2009-07-28T08:41:25Z</time></trkpt><trkpt lat="43.505481000" lon="12.925373000"><ele>657.097000</ele><time>2009-07-28T08:41:29Z</time></trkpt><trkpt lat="43.505481000" lon="12.925373000"><ele>657.086000</ele><time>2009-07-28T08:41:31Z</time></trkpt><trkpt lat="43.505480000" lon="12.925373000"><ele>657.064000</ele><time>2009-07-28T08:41:35Z</time></trkpt><trkpt lat="43.505480000" lon="12.925373000"><ele>657.055000</ele><time>2009-07-28T08:41:37Z</time></trkpt><trkpt lat="43.505480000" lon="12.925372000"><ele>657.032000</ele><time>2009-07-28T08:41:41Z</time></trkpt><trkpt lat="43.505480000" lon="12.925372000"><ele>657.007000</ele><time>2009-07-28T08:41:43Z</time></trkpt><trkpt lat="43.505480000" lon="12.925371000"><ele>656.961000</ele><time>2009-07-28T08:41:47Z</time></trkpt><trkpt lat="43.505480000" lon="12.925371000"><ele>656.945000</ele><time>2009-07-28T08:41:49Z</time></trkpt><trkpt lat="43.505479000" lon="12.925371000"><ele>656.907000</ele><time>2009-07-28T08:41:53Z</time></trkpt><trkpt lat="43.505479000" lon="12.925371000"><ele>656.903000</ele><time>2009-07-28T08:41:55Z</time></trkpt><trkpt lat="43.505479000" lon="12.925370000"><ele>656.874000</ele><time>2009-07-28T08:41:59Z</time></trkpt><trkpt lat="43.505479000" lon="12.925370000"><ele>656.859000</ele><time>2009-07-28T08:42:01Z</time></trkpt><trkpt lat="43.505479000" lon="12.925370000"><ele>656.825000</ele><time>2009-07-28T08:42:05Z</time></trkpt><trkpt lat="43.505479000" lon="12.925370000"><ele>656.817000</ele><time>2009-07-28T08:42:07Z</time></trkpt><trkpt lat="43.505479000" lon="12.925370000"><ele>656.826000</ele><time>2009-07-28T08:42:11Z</time></trkpt><trkpt lat="43.505479000" lon="12.925370000"><ele>656.826000</ele><time>2009-07-28T08:42:13Z</time></trkpt><trkpt lat="43.505479000" lon="12.925370000"><ele>656.835000</ele><time>2009-07-28T08:42:17Z</time></trkpt><trkpt lat="43.505479000" lon="12.925369000"><ele>656.844000</ele><time>2009-07-28T08:42:19Z</time></trkpt><trkpt lat="43.505479000" lon="12.925369000"><ele>656.845000</ele><time>2009-07-28T08:42:23Z</time></trkpt><trkpt lat="43.505480000" lon="12.925369000"><ele>656.855000</ele><time>2009-07-28T08:42:25Z</time></trkpt><trkpt lat="43.505480000" lon="12.925368000"><ele>656.861000</ele><time>2009-07-28T08:42:29Z</time></trkpt><trkpt lat="43.505481000" lon="12.925367000"><ele>656.871000</ele><time>2009-07-28T08:42:31Z</time></trkpt><trkpt lat="43.505481000" lon="12.925367000"><ele>656.888000</ele><time>2009-07-28T08:42:35Z</time></trkpt><trkpt lat="43.505481000" lon="12.925367000"><ele>656.887000</ele><time>2009-07-28T08:42:37Z</time></trkpt><trkpt lat="43.505481000" lon="12.925367000"><ele>656.903000</ele><time>2009-07-28T08:42:41Z</time></trkpt><trkpt lat="43.505481000" lon="12.925367000"><ele>656.902000</ele><time>2009-07-28T08:42:43Z</time></trkpt><trkpt lat="43.505481000" lon="12.925367000"><ele>656.912000</ele><time>2009-07-28T08:42:47Z</time></trkpt><trkpt lat="43.505481000" lon="12.925367000"><ele>656.906000</ele><time>2009-07-28T08:42:49Z</time></trkpt><trkpt lat="43.505481000" lon="12.925367000"><ele>656.908000</ele><time>2009-07-28T08:42:53Z</time></trkpt><trkpt lat="43.505481000" lon="12.925367000"><ele>656.905000</ele><time>2009-07-28T08:42:55Z</time></trkpt><trkpt lat="43.505480000" lon="12.925368000"><ele>656.894000</ele><time>2009-07-28T08:42:59Z</time></trkpt><trkpt lat="43.505481000" lon="12.925368000"><ele>656.900000</ele><time>2009-07-28T08:43:01Z</time></trkpt><trkpt lat="43.505481000" lon="12.925368000"><ele>656.929000</ele><time>2009-07-28T08:43:05Z</time></trkpt><trkpt lat="43.505481000" lon="12.925368000"><ele>656.933000</ele><time>2009-07-28T08:43:07Z</time></trkpt><trkpt lat="43.505481000" lon="12.925367000"><ele>656.948000</ele><time>2009-07-28T08:43:11Z</time></trkpt><trkpt lat="43.505481000" lon="12.925367000"><ele>656.967000</ele><time>2009-07-28T08:43:13Z</time></trkpt><trkpt lat="43.505481000" lon="12.925367000"><ele>656.966000</ele><time>2009-07-28T08:43:17Z</time></trkpt><trkpt lat="43.505481000" lon="12.925367000"><ele>656.969000</ele><time>2009-07-28T08:43:19Z</time></trkpt><trkpt lat="43.505481000" lon="12.925367000"><ele>656.943000</ele><time>2009-07-28T08:43:23Z</time></trkpt><trkpt lat="43.505481000" lon="12.925367000"><ele>656.936000</ele><time>2009-07-28T08:43:25Z</time></trkpt><trkpt lat="43.505482000" lon="12.925367000"><ele>656.927000</ele><time>2009-07-28T08:43:29Z</time></trkpt><trkpt lat="43.505481000" lon="12.925367000"><ele>656.917000</ele><time>2009-07-28T08:43:31Z</time></trkpt><trkpt lat="43.505481000" lon="12.925367000"><ele>656.871000</ele><time>2009-07-28T08:43:35Z</time></trkpt><trkpt lat="43.505481000" lon="12.925367000"><ele>656.858000</ele><time>2009-07-28T08:43:37Z</time></trkpt><trkpt lat="43.505481000" lon="12.925367000"><ele>656.836000</ele><time>2009-07-28T08:43:41Z</time></trkpt><trkpt lat="43.505481000" lon="12.925367000"><ele>656.807000</ele><time>2009-07-28T08:43:43Z</time></trkpt><trkpt lat="43.505481000" lon="12.925367000"><ele>656.747000</ele><time>2009-07-28T08:43:47Z</time></trkpt><trkpt lat="43.505481000" lon="12.925367000"><ele>656.738000</ele><time>2009-07-28T08:43:49Z</time></trkpt><trkpt lat="43.505481000" lon="12.925366000"><ele>656.692000</ele><time>2009-07-28T08:43:53Z</time></trkpt><trkpt lat="43.505481000" lon="12.925366000"><ele>656.665000</ele><time>2009-07-28T08:43:55Z</time></trkpt><trkpt lat="43.505481000" lon="12.925366000"><ele>656.629000</ele><time>2009-07-28T08:43:59Z</time></trkpt><trkpt lat="43.505481000" lon="12.925366000"><ele>656.597000</ele><time>2009-07-28T08:44:01Z</time></trkpt><trkpt lat="43.505481000" lon="12.925365000"><ele>656.551000</ele><time>2009-07-28T08:44:05Z</time></trkpt><trkpt lat="43.505481000" lon="12.925365000"><ele>656.529000</ele><time>2009-07-28T08:44:07Z</time></trkpt><trkpt lat="43.505480000" lon="12.925364000"><ele>656.488000</ele><time>2009-07-28T08:44:11Z</time></trkpt><trkpt lat="43.505480000" lon="12.925364000"><ele>656.459000</ele><time>2009-07-28T08:44:13Z</time></trkpt><trkpt lat="43.505480000" lon="12.925364000"><ele>656.397000</ele><time>2009-07-28T08:44:17Z</time></trkpt><trkpt lat="43.505479000" lon="12.925364000"><ele>656.369000</ele><time>2009-07-28T08:44:19Z</time></trkpt><trkpt lat="43.505479000" lon="12.925364000"><ele>656.310000</ele><time>2009-07-28T08:44:23Z</time></trkpt><trkpt lat="43.505479000" lon="12.925363000"><ele>656.303000</ele><time>2009-07-28T08:44:25Z</time></trkpt><trkpt lat="43.505479000" lon="12.925363000"><ele>656.267000</ele><time>2009-07-28T08:44:29Z</time></trkpt><trkpt lat="43.505479000" lon="12.925363000"><ele>656.256000</ele><time>2009-07-28T08:44:31Z</time></trkpt><trkpt lat="43.505478000" lon="12.925363000"><ele>656.220000</ele><time>2009-07-28T08:44:35Z</time></trkpt><trkpt lat="43.505478000" lon="12.925363000"><ele>656.198000</ele><time>2009-07-28T08:44:37Z</time></trkpt><trkpt lat="43.505478000" lon="12.925363000"><ele>656.166000</ele><time>2009-07-28T08:44:41Z</time></trkpt><trkpt lat="43.505478000" lon="12.925363000"><ele>656.152000</ele><time>2009-07-28T08:44:43Z</time></trkpt><trkpt lat="43.505478000" lon="12.925363000"><ele>656.122000</ele><time>2009-07-28T08:44:47Z</time></trkpt><trkpt lat="43.505477000" lon="12.925363000"><ele>656.107000</ele><time>2009-07-28T08:44:49Z</time></trkpt><trkpt lat="43.505478000" lon="12.925362000"><ele>656.103000</ele><time>2009-07-28T08:44:53Z</time></trkpt><trkpt lat="43.505478000" lon="12.925362000"><ele>656.107000</ele><time>2009-07-28T08:44:55Z</time></trkpt><trkpt lat="43.505478000" lon="12.925363000"><ele>656.119000</ele><time>2009-07-28T08:44:59Z</time></trkpt><trkpt lat="43.505478000" lon="12.925363000"><ele>656.121000</ele><time>2009-07-28T08:45:01Z</time></trkpt><trkpt lat="43.505478000" lon="12.925363000"><ele>656.139000</ele><time>2009-07-28T08:45:05Z</time></trkpt><trkpt lat="43.505478000" lon="12.925363000"><ele>656.140000</ele><time>2009-07-28T08:45:07Z</time></trkpt><trkpt lat="43.505478000" lon="12.925363000"><ele>656.150000</ele><time>2009-07-28T08:45:11Z</time></trkpt><trkpt lat="43.505478000" lon="12.925364000"><ele>656.155000</ele><time>2009-07-28T08:45:13Z</time></trkpt><trkpt lat="43.505478000" lon="12.925364000"><ele>656.166000</ele><time>2009-07-28T08:45:17Z</time></trkpt><trkpt lat="43.505478000" lon="12.925364000"><ele>656.169000</ele><time>2009-07-28T08:45:19Z</time></trkpt><trkpt lat="43.505479000" lon="12.925364000"><ele>656.166000</ele><time>2009-07-28T08:45:23Z</time></trkpt><trkpt lat="43.505479000" lon="12.925364000"><ele>656.167000</ele><time>2009-07-28T08:45:25Z</time></trkpt><trkpt lat="43.505479000" lon="12.925364000"><ele>656.167000</ele><time>2009-07-28T08:45:29Z</time></trkpt><trkpt lat="43.505479000" lon="12.925365000"><ele>656.163000</ele><time>2009-07-28T08:45:31Z</time></trkpt><trkpt lat="43.505479000" lon="12.925365000"><ele>656.157000</ele><time>2009-07-28T08:45:35Z</time></trkpt><trkpt lat="43.505479000" lon="12.925365000"><ele>656.157000</ele><time>2009-07-28T08:45:37Z</time></trkpt><trkpt lat="43.505479000" lon="12.925365000"><ele>656.135000</ele><time>2009-07-28T08:45:41Z</time></trkpt><trkpt lat="43.505479000" lon="12.925365000"><ele>656.123000</ele><time>2009-07-28T08:45:43Z</time></trkpt><trkpt lat="43.505478000" lon="12.925365000"><ele>656.081000</ele><time>2009-07-28T08:45:47Z</time></trkpt><trkpt lat="43.505478000" lon="12.925365000"><ele>656.067000</ele><time>2009-07-28T08:45:49Z</time></trkpt><trkpt lat="43.505478000" lon="12.925365000"><ele>656.035000</ele><time>2009-07-28T08:45:53Z</time></trkpt><trkpt lat="43.505478000" lon="12.925365000"><ele>656.013000</ele><time>2009-07-28T08:45:55Z</time></trkpt><trkpt lat="43.505478000" lon="12.925366000"><ele>655.970000</ele><time>2009-07-28T08:45:59Z</time></trkpt><trkpt lat="43.505478000" lon="12.925366000"><ele>655.933000</ele><time>2009-07-28T08:46:01Z</time></trkpt><trkpt lat="43.505477000" lon="12.925366000"><ele>655.857000</ele><time>2009-07-28T08:46:05Z</time></trkpt><trkpt lat="43.505477000" lon="12.925366000"><ele>655.821000</ele><time>2009-07-28T08:46:07Z</time></trkpt><trkpt lat="43.505477000" lon="12.925366000"><ele>655.749000</ele><time>2009-07-28T08:46:11Z</time></trkpt><trkpt lat="43.505477000" lon="12.925366000"><ele>655.713000</ele><time>2009-07-28T08:46:13Z</time></trkpt><trkpt lat="43.505475000" lon="12.925366000"><ele>655.648000</ele><time>2009-07-28T08:46:17Z</time></trkpt><trkpt lat="43.505475000" lon="12.925367000"><ele>655.627000</ele><time>2009-07-28T08:46:19Z</time></trkpt><trkpt lat="43.505475000" lon="12.925367000"><ele>655.591000</ele><time>2009-07-28T08:46:23Z</time></trkpt><trkpt lat="43.505475000" lon="12.925367000"><ele>655.571000</ele><time>2009-07-28T08:46:25Z</time></trkpt><trkpt lat="43.505475000" lon="12.925367000"><ele>655.520000</ele><time>2009-07-28T08:46:29Z</time></trkpt><trkpt lat="43.505474000" lon="12.925367000"><ele>655.493000</ele><time>2009-07-28T08:46:31Z</time></trkpt><trkpt lat="43.505474000" lon="12.925367000"><ele>655.448000</ele><time>2009-07-28T08:46:35Z</time></trkpt><trkpt lat="43.505474000" lon="12.925367000"><ele>655.434000</ele><time>2009-07-28T08:46:37Z</time></trkpt><trkpt lat="43.505474000" lon="12.925367000"><ele>655.405000</ele><time>2009-07-28T08:46:41Z</time></trkpt><trkpt lat="43.505474000" lon="12.925367000"><ele>655.384000</ele><time>2009-07-28T08:46:43Z</time></trkpt><trkpt lat="43.505474000" lon="12.925367000"><ele>655.336000</ele><time>2009-07-28T08:46:47Z</time></trkpt><trkpt lat="43.505474000" lon="12.925367000"><ele>655.251000</ele><time>2009-07-28T08:46:49Z</time></trkpt><trkpt lat="43.505474000" lon="12.925367000"><ele>655.208000</ele><time>2009-07-28T08:46:53Z</time></trkpt><trkpt lat="43.505474000" lon="12.925367000"><ele>655.204000</ele><time>2009-07-28T08:46:55Z</time></trkpt><trkpt lat="43.505474000" lon="12.925367000"><ele>655.187000</ele><time>2009-07-28T08:46:59Z</time></trkpt><trkpt lat="43.505474000" lon="12.925367000"><ele>655.190000</ele><time>2009-07-28T08:47:01Z</time></trkpt><trkpt lat="43.505474000" lon="12.925367000"><ele>655.176000</ele><time>2009-07-28T08:47:05Z</time></trkpt><trkpt lat="43.505474000" lon="12.925367000"><ele>655.179000</ele><time>2009-07-28T08:47:07Z</time></trkpt><trkpt lat="43.505474000" lon="12.925367000"><ele>655.171000</ele><time>2009-07-28T08:47:11Z</time></trkpt><trkpt lat="43.505475000" lon="12.925368000"><ele>655.167000</ele><time>2009-07-28T08:47:13Z</time></trkpt><trkpt lat="43.505475000" lon="12.925368000"><ele>655.165000</ele><time>2009-07-28T08:47:17Z</time></trkpt><trkpt lat="43.505475000" lon="12.925368000"><ele>655.169000</ele><time>2009-07-28T08:47:19Z</time></trkpt><trkpt lat="43.505475000" lon="12.925368000"><ele>655.158000</ele><time>2009-07-28T08:47:23Z</time></trkpt><trkpt lat="43.505475000" lon="12.925369000"><ele>655.163000</ele><time>2009-07-28T08:47:25Z</time></trkpt><trkpt lat="43.505474000" lon="12.925369000"><ele>655.144000</ele><time>2009-07-28T08:47:29Z</time></trkpt><trkpt lat="43.505474000" lon="12.925369000"><ele>655.130000</ele><time>2009-07-28T08:47:31Z</time></trkpt><trkpt lat="43.505473000" lon="12.925370000"><ele>655.136000</ele><time>2009-07-28T08:47:35Z</time></trkpt><trkpt lat="43.505472000" lon="12.925370000"><ele>655.128000</ele><time>2009-07-28T08:47:37Z</time></trkpt><trkpt lat="43.505471000" lon="12.925370000"><ele>655.049000</ele><time>2009-07-28T08:47:41Z</time></trkpt><trkpt lat="43.505471000" lon="12.925370000"><ele>655.009000</ele><time>2009-07-28T08:47:43Z</time></trkpt><trkpt lat="43.505469000" lon="12.925370000"><ele>654.913000</ele><time>2009-07-28T08:47:47Z</time></trkpt><trkpt lat="43.505468000" lon="12.925370000"><ele>654.870000</ele><time>2009-07-28T08:47:49Z</time></trkpt><trkpt lat="43.505467000" lon="12.925371000"><ele>654.796000</ele><time>2009-07-28T08:47:53Z</time></trkpt><trkpt lat="43.505467000" lon="12.925371000"><ele>654.771000</ele><time>2009-07-28T08:47:55Z</time></trkpt><trkpt lat="43.505466000" lon="12.925372000"><ele>654.731000</ele><time>2009-07-28T08:47:59Z</time></trkpt><trkpt lat="43.505466000" lon="12.925372000"><ele>654.726000</ele><time>2009-07-28T08:48:01Z</time></trkpt><trkpt lat="43.505466000" lon="12.925372000"><ele>654.698000</ele><time>2009-07-28T08:48:05Z</time></trkpt><trkpt lat="43.505466000" lon="12.925371000"><ele>654.684000</ele><time>2009-07-28T08:48:07Z</time></trkpt><trkpt lat="43.505465000" lon="12.925372000"><ele>654.609000</ele><time>2009-07-28T08:48:11Z</time></trkpt><trkpt lat="43.505464000" lon="12.925372000"><ele>654.550000</ele><time>2009-07-28T08:48:13Z</time></trkpt><trkpt lat="43.505465000" lon="12.925371000"><ele>654.409000</ele><time>2009-07-28T08:48:17Z</time></trkpt><trkpt lat="43.505465000" lon="12.925370000"><ele>654.330000</ele><time>2009-07-28T08:48:19Z</time></trkpt><trkpt lat="43.505465000" lon="12.925370000"><ele>654.153000</ele><time>2009-07-28T08:48:23Z</time></trkpt><trkpt lat="43.505465000" lon="12.925369000"><ele>654.058000</ele><time>2009-07-28T08:48:25Z</time></trkpt><trkpt lat="43.505465000" lon="12.925369000"><ele>654.038000</ele><time>2009-07-28T08:48:29Z</time></trkpt><trkpt lat="43.505464000" lon="12.925369000"><ele>654.031000</ele><time>2009-07-28T08:48:31Z</time></trkpt><trkpt lat="43.505464000" lon="12.925370000"><ele>654.024000</ele><time>2009-07-28T08:48:35Z</time></trkpt><trkpt lat="43.505464000" lon="12.925370000"><ele>654.029000</ele><time>2009-07-28T08:48:37Z</time></trkpt><trkpt lat="43.505464000" lon="12.925370000"><ele>654.028000</ele><time>2009-07-28T08:48:41Z</time></trkpt><trkpt lat="43.505464000" lon="12.925370000"><ele>654.023000</ele><time>2009-07-28T08:48:43Z</time></trkpt><trkpt lat="43.505463000" lon="12.925370000"><ele>654.023000</ele><time>2009-07-28T08:48:47Z</time></trkpt><trkpt lat="43.505463000" lon="12.925371000"><ele>654.021000</ele><time>2009-07-28T08:48:49Z</time></trkpt><trkpt lat="43.505463000" lon="12.925371000"><ele>654.015000</ele><time>2009-07-28T08:48:53Z</time></trkpt><trkpt lat="43.505462000" lon="12.925371000"><ele>654.006000</ele><time>2009-07-28T08:48:55Z</time></trkpt><trkpt lat="43.505462000" lon="12.925371000"><ele>654.005000</ele><time>2009-07-28T08:48:59Z</time></trkpt><trkpt lat="43.505462000" lon="12.925371000"><ele>653.998000</ele><time>2009-07-28T08:49:01Z</time></trkpt><trkpt lat="43.505462000" lon="12.925372000"><ele>653.999000</ele><time>2009-07-28T08:49:05Z</time></trkpt><trkpt lat="43.505461000" lon="12.925372000"><ele>653.988000</ele><time>2009-07-28T08:49:07Z</time></trkpt><trkpt lat="43.505457000" lon="12.925375000"><ele>653.995000</ele><time>2009-07-28T08:49:11Z</time></trkpt><trkpt lat="43.505452000" lon="12.925378000"><ele>654.006000</ele><time>2009-07-28T08:49:13Z</time></trkpt><trkpt lat="43.505444000" lon="12.925385000"><ele>654.038000</ele><time>2009-07-28T08:49:17Z</time></trkpt><trkpt lat="43.505437000" lon="12.925393000"><ele>654.000000</ele><time>2009-07-28T08:49:19Z</time></trkpt><trkpt lat="43.505427000" lon="12.925415000"><ele>654.544000</ele><time>2009-07-28T08:49:23Z</time></trkpt><trkpt lat="43.505419000" lon="12.925419000"><ele>654.599000</ele><time>2009-07-28T08:49:25Z</time></trkpt><trkpt lat="43.505413000" lon="12.925424000"><ele>654.709000</ele><time>2009-07-28T08:49:29Z</time></trkpt><trkpt lat="43.505411000" lon="12.925426000"><ele>654.772000</ele><time>2009-07-28T08:49:31Z</time></trkpt><trkpt lat="43.505410000" lon="12.925429000"><ele>654.900000</ele><time>2009-07-28T08:49:35Z</time></trkpt><trkpt lat="43.505412000" lon="12.925429000"><ele>654.965000</ele><time>2009-07-28T08:49:37Z</time></trkpt><trkpt lat="43.505416000" lon="12.925426000"><ele>655.105000</ele><time>2009-07-28T08:49:41Z</time></trkpt><trkpt lat="43.505418000" lon="12.925424000"><ele>655.169000</ele><time>2009-07-28T08:49:43Z</time></trkpt><trkpt lat="43.505424000" lon="12.925418000"><ele>655.228000</ele><time>2009-07-28T08:49:47Z</time></trkpt><trkpt lat="43.505427000" lon="12.925415000"><ele>655.196000</ele><time>2009-07-28T08:49:49Z</time></trkpt><trkpt lat="43.505434000" lon="12.925409000"><ele>655.064000</ele><time>2009-07-28T08:49:53Z</time></trkpt><trkpt lat="43.505437000" lon="12.925406000"><ele>654.976000</ele><time>2009-07-28T08:49:55Z</time></trkpt><trkpt lat="43.505443000" lon="12.925401000"><ele>654.770000</ele><time>2009-07-28T08:49:59Z</time></trkpt><trkpt lat="43.505446000" lon="12.925399000"><ele>654.639000</ele><time>2009-07-28T08:50:01Z</time></trkpt><trkpt lat="43.505449000" lon="12.925395000"><ele>654.276000</ele><time>2009-07-28T08:50:05Z</time></trkpt><trkpt lat="43.505449000" lon="12.925394000"><ele>654.088000</ele><time>2009-07-28T08:50:07Z</time></trkpt><trkpt lat="43.505447000" lon="12.925393000"><ele>653.704000</ele><time>2009-07-28T08:50:11Z</time></trkpt><trkpt lat="43.505445000" lon="12.925393000"><ele>653.535000</ele><time>2009-07-28T08:50:13Z</time></trkpt><trkpt lat="43.505438000" lon="12.925394000"><ele>653.189000</ele><time>2009-07-28T08:50:17Z</time></trkpt><trkpt lat="43.505434000" lon="12.925395000"><ele>653.038000</ele><time>2009-07-28T08:50:19Z</time></trkpt><trkpt lat="43.505426000" lon="12.925397000"><ele>652.768000</ele><time>2009-07-28T08:50:23Z</time></trkpt><trkpt lat="43.505424000" lon="12.925398000"><ele>652.683000</ele><time>2009-07-28T08:50:25Z</time></trkpt><trkpt lat="43.505419000" lon="12.925400000"><ele>652.573000</ele><time>2009-07-28T08:50:29Z</time></trkpt><trkpt lat="43.505416000" lon="12.925401000"><ele>652.547000</ele><time>2009-07-28T08:50:31Z</time></trkpt><trkpt lat="43.505413000" lon="12.925402000"><ele>652.551000</ele><time>2009-07-28T08:50:35Z</time></trkpt><trkpt lat="43.505413000" lon="12.925402000"><ele>652.571000</ele><time>2009-07-28T08:50:37Z</time></trkpt><trkpt lat="43.505415000" lon="12.925402000"><ele>652.748000</ele><time>2009-07-28T08:50:41Z</time></trkpt><trkpt lat="43.505416000" lon="12.925400000"><ele>652.874000</ele><time>2009-07-28T08:50:43Z</time></trkpt><trkpt lat="43.505419000" lon="12.925398000"><ele>653.279000</ele><time>2009-07-28T08:50:47Z</time></trkpt><trkpt lat="43.505420000" lon="12.925398000"><ele>653.553000</ele><time>2009-07-28T08:50:49Z</time></trkpt><trkpt lat="43.505421000" lon="12.925398000"><ele>654.309000</ele><time>2009-07-28T08:50:53Z</time></trkpt><trkpt lat="43.505424000" lon="12.925397000"><ele>654.753000</ele><time>2009-07-28T08:50:55Z</time></trkpt><trkpt lat="43.505437000" lon="12.925391000"><ele>656.540000</ele><time>2009-07-28T08:50:59Z</time></trkpt><trkpt lat="43.505458000" lon="12.925385000"><ele>657.268000</ele><time>2009-07-28T08:51:01Z</time></trkpt><trkpt lat="43.505475000" lon="12.925370000"><ele>657.443000</ele><time>2009-07-28T08:51:05Z</time></trkpt><trkpt lat="43.505478000" lon="12.925374000"><ele>658.256000</ele><time>2009-07-28T08:51:07Z</time></trkpt><trkpt lat="43.505485000" lon="12.925387000"><ele>658.459000</ele><time>2009-07-28T08:51:11Z</time></trkpt><trkpt lat="43.505489000" lon="12.925386000"><ele>658.917000</ele><time>2009-07-28T08:51:13Z</time></trkpt><trkpt lat="43.505495000" lon="12.925385000"><ele>659.779000</ele><time>2009-07-28T08:51:17Z</time></trkpt><trkpt lat="43.505497000" lon="12.925386000"><ele>660.189000</ele><time>2009-07-28T08:51:19Z</time></trkpt><trkpt lat="43.505498000" lon="12.925389000"><ele>660.954000</ele><time>2009-07-28T08:51:23Z</time></trkpt><trkpt lat="43.505498000" lon="12.925390000"><ele>661.332000</ele><time>2009-07-28T08:51:25Z</time></trkpt><trkpt lat="43.505502000" lon="12.925391000"><ele>662.104000</ele><time>2009-07-28T08:51:29Z</time></trkpt><trkpt lat="43.505505000" lon="12.925389000"><ele>662.480000</ele><time>2009-07-28T08:51:31Z</time></trkpt><trkpt lat="43.505511000" lon="12.925389000"><ele>663.238000</ele><time>2009-07-28T08:51:35Z</time></trkpt><trkpt lat="43.505514000" lon="12.925389000"><ele>663.637000</ele><time>2009-07-28T08:51:37Z</time></trkpt><trkpt lat="43.505523000" lon="12.925386000"><ele>664.352000</ele><time>2009-07-28T08:51:41Z</time></trkpt><trkpt lat="43.505528000" lon="12.925384000"><ele>664.676000</ele><time>2009-07-28T08:51:43Z</time></trkpt><trkpt lat="43.505536000" lon="12.925379000"><ele>665.282000</ele><time>2009-07-28T08:51:47Z</time></trkpt><trkpt lat="43.505540000" lon="12.925377000"><ele>665.564000</ele><time>2009-07-28T08:51:49Z</time></trkpt><trkpt lat="43.505546000" lon="12.925374000"><ele>666.135000</ele><time>2009-07-28T08:51:53Z</time></trkpt><trkpt lat="43.505549000" lon="12.925373000"><ele>666.417000</ele><time>2009-07-28T08:51:55Z</time></trkpt><trkpt lat="43.505550000" lon="12.925372000"><ele>666.864000</ele><time>2009-07-28T08:51:59Z</time></trkpt><trkpt lat="43.505550000" lon="12.925373000"><ele>667.027000</ele><time>2009-07-28T08:52:01Z</time></trkpt><trkpt lat="43.505549000" lon="12.925374000"><ele>667.206000</ele><time>2009-07-28T08:52:05Z</time></trkpt><trkpt lat="43.505548000" lon="12.925374000"><ele>667.216000</ele><time>2009-07-28T08:52:07Z</time></trkpt><trkpt lat="43.505547000" lon="12.925374000"><ele>667.149000</ele><time>2009-07-28T08:52:11Z</time></trkpt><trkpt lat="43.505546000" lon="12.925374000"><ele>667.092000</ele><time>2009-07-28T08:52:13Z</time></trkpt><trkpt lat="43.505545000" lon="12.925375000"><ele>666.974000</ele><time>2009-07-28T08:52:17Z</time></trkpt><trkpt lat="43.505544000" lon="12.925374000"><ele>666.921000</ele><time>2009-07-28T08:52:19Z</time></trkpt><trkpt lat="43.505542000" lon="12.925374000"><ele>666.850000</ele><time>2009-07-28T08:52:23Z</time></trkpt><trkpt lat="43.505542000" lon="12.925374000"><ele>666.827000</ele><time>2009-07-28T08:52:25Z</time></trkpt><trkpt lat="43.505541000" lon="12.925374000"><ele>666.734000</ele><time>2009-07-28T08:52:29Z</time></trkpt><trkpt lat="43.505540000" lon="12.925374000"><ele>666.711000</ele><time>2009-07-28T08:52:31Z</time></trkpt><trkpt lat="43.505540000" lon="12.925374000"><ele>666.637000</ele><time>2009-07-28T08:52:35Z</time></trkpt><trkpt lat="43.505539000" lon="12.925374000"><ele>666.590000</ele><time>2009-07-28T08:52:37Z</time></trkpt><trkpt lat="43.505539000" lon="12.925374000"><ele>666.522000</ele><time>2009-07-28T08:52:41Z</time></trkpt><trkpt lat="43.505539000" lon="12.925373000"><ele>666.504000</ele><time>2009-07-28T08:52:43Z</time></trkpt><trkpt lat="43.505538000" lon="12.925373000"><ele>666.454000</ele><time>2009-07-28T08:52:47Z</time></trkpt><trkpt lat="43.505538000" lon="12.925373000"><ele>666.424000</ele><time>2009-07-28T08:52:49Z</time></trkpt><trkpt lat="43.505538000" lon="12.925373000"><ele>666.374000</ele><time>2009-07-28T08:52:53Z</time></trkpt><trkpt lat="43.505537000" lon="12.925373000"><ele>666.341000</ele><time>2009-07-28T08:52:55Z</time></trkpt><trkpt lat="43.505537000" lon="12.925373000"><ele>666.303000</ele><time>2009-07-28T08:52:59Z</time></trkpt><trkpt lat="43.505537000" lon="12.925373000"><ele>666.292000</ele><time>2009-07-28T08:53:01Z</time></trkpt><trkpt lat="43.505536000" lon="12.925373000"><ele>666.258000</ele><time>2009-07-28T08:53:05Z</time></trkpt><trkpt lat="43.505536000" lon="12.925373000"><ele>666.243000</ele><time>2009-07-28T08:53:07Z</time></trkpt><trkpt lat="43.505536000" lon="12.925373000"><ele>666.217000</ele><time>2009-07-28T08:53:11Z</time></trkpt><trkpt lat="43.505536000" lon="12.925373000"><ele>666.206000</ele><time>2009-07-28T08:53:13Z</time></trkpt><trkpt lat="43.505536000" lon="12.925373000"><ele>666.187000</ele><time>2009-07-28T08:53:17Z</time></trkpt><trkpt lat="43.505535000" lon="12.925373000"><ele>666.172000</ele><time>2009-07-28T08:53:19Z</time></trkpt><trkpt lat="43.505535000" lon="12.925374000"><ele>666.144000</ele><time>2009-07-28T08:53:23Z</time></trkpt><trkpt lat="43.505535000" lon="12.925374000"><ele>666.125000</ele><time>2009-07-28T08:53:25Z</time></trkpt><trkpt lat="43.505535000" lon="12.925373000"><ele>666.123000</ele><time>2009-07-28T08:53:29Z</time></trkpt><trkpt lat="43.505534000" lon="12.925373000"><ele>666.115000</ele><time>2009-07-28T08:53:31Z</time></trkpt><trkpt lat="43.505534000" lon="12.925373000"><ele>666.110000</ele><time>2009-07-28T08:53:35Z</time></trkpt><trkpt lat="43.505534000" lon="12.925373000"><ele>666.102000</ele><time>2009-07-28T08:53:37Z</time></trkpt><trkpt lat="43.505534000" lon="12.925373000"><ele>666.069000</ele><time>2009-07-28T08:53:41Z</time></trkpt><trkpt lat="43.505534000" lon="12.925373000"><ele>666.051000</ele><time>2009-07-28T08:53:43Z</time></trkpt><trkpt lat="43.505534000" lon="12.925373000"><ele>665.993000</ele><time>2009-07-28T08:53:47Z</time></trkpt><trkpt lat="43.505534000" lon="12.925373000"><ele>665.950000</ele><time>2009-07-28T08:53:49Z</time></trkpt><trkpt lat="43.505534000" lon="12.925373000"><ele>665.903000</ele><time>2009-07-28T08:53:53Z</time></trkpt><trkpt lat="43.505534000" lon="12.925373000"><ele>665.878000</ele><time>2009-07-28T08:53:55Z</time></trkpt><trkpt lat="43.505534000" lon="12.925373000"><ele>665.815000</ele><time>2009-07-28T08:53:59Z</time></trkpt><trkpt lat="43.505534000" lon="12.925373000"><ele>665.789000</ele><time>2009-07-28T08:54:01Z</time></trkpt><trkpt lat="43.505534000" lon="12.925373000"><ele>665.764000</ele><time>2009-07-28T08:54:05Z</time></trkpt><trkpt lat="43.505535000" lon="12.925373000"><ele>665.768000</ele><time>2009-07-28T08:54:07Z</time></trkpt><trkpt lat="43.505535000" lon="12.925373000"><ele>665.772000</ele><time>2009-07-28T08:54:11Z</time></trkpt><trkpt lat="43.505535000" lon="12.925374000"><ele>665.778000</ele><time>2009-07-28T08:54:13Z</time></trkpt><trkpt lat="43.505535000" lon="12.925374000"><ele>665.766000</ele><time>2009-07-28T08:54:17Z</time></trkpt><trkpt lat="43.505535000" lon="12.925374000"><ele>665.767000</ele><time>2009-07-28T08:54:19Z</time></trkpt><trkpt lat="43.505535000" lon="12.925374000"><ele>665.765000</ele><time>2009-07-28T08:54:23Z</time></trkpt><trkpt lat="43.505535000" lon="12.925374000"><ele>665.787000</ele><time>2009-07-28T08:54:25Z</time></trkpt><trkpt lat="43.505536000" lon="12.925375000"><ele>665.826000</ele><time>2009-07-28T08:54:29Z</time></trkpt><trkpt lat="43.505536000" lon="12.925375000"><ele>665.831000</ele><time>2009-07-28T08:54:31Z</time></trkpt><trkpt lat="43.505536000" lon="12.925375000"><ele>665.826000</ele><time>2009-07-28T08:54:35Z</time></trkpt><trkpt lat="43.505536000" lon="12.925375000"><ele>665.833000</ele><time>2009-07-28T08:54:37Z</time></trkpt><trkpt lat="43.505535000" lon="12.925376000"><ele>665.842000</ele><time>2009-07-28T08:54:41Z</time></trkpt><trkpt lat="43.505535000" lon="12.925376000"><ele>665.852000</ele><time>2009-07-28T08:54:43Z</time></trkpt><trkpt lat="43.505535000" lon="12.925376000"><ele>665.880000</ele><time>2009-07-28T08:54:47Z</time></trkpt><trkpt lat="43.505535000" lon="12.925376000"><ele>665.884000</ele><time>2009-07-28T08:54:49Z</time></trkpt><trkpt lat="43.505535000" lon="12.925376000"><ele>665.898000</ele><time>2009-07-28T08:54:53Z</time></trkpt><trkpt lat="43.505535000" lon="12.925376000"><ele>665.901000</ele><time>2009-07-28T08:54:55Z</time></trkpt><trkpt lat="43.505535000" lon="12.925376000"><ele>665.910000</ele><time>2009-07-28T08:54:59Z</time></trkpt><trkpt lat="43.505535000" lon="12.925376000"><ele>665.906000</ele><time>2009-07-28T08:55:01Z</time></trkpt><trkpt lat="43.505535000" lon="12.925376000"><ele>665.904000</ele><time>2009-07-28T08:55:05Z</time></trkpt><trkpt lat="43.505535000" lon="12.925376000"><ele>665.900000</ele><time>2009-07-28T08:55:07Z</time></trkpt><trkpt lat="43.505535000" lon="12.925376000"><ele>665.925000</ele><time>2009-07-28T08:55:11Z</time></trkpt><trkpt lat="43.505535000" lon="12.925376000"><ele>665.932000</ele><time>2009-07-28T08:55:13Z</time></trkpt><trkpt lat="43.505535000" lon="12.925377000"><ele>665.947000</ele><time>2009-07-28T08:55:17Z</time></trkpt><trkpt lat="43.505535000" lon="12.925377000"><ele>665.950000</ele><time>2009-07-28T08:55:19Z</time></trkpt><trkpt lat="43.505535000" lon="12.925377000"><ele>665.966000</ele><time>2009-07-28T08:55:23Z</time></trkpt><trkpt lat="43.505535000" lon="12.925377000"><ele>665.963000</ele><time>2009-07-28T08:55:25Z</time></trkpt><trkpt lat="43.505535000" lon="12.925377000"><ele>665.951000</ele><time>2009-07-28T08:55:29Z</time></trkpt><trkpt lat="43.505535000" lon="12.925378000"><ele>665.943000</ele><time>2009-07-28T08:55:31Z</time></trkpt><trkpt lat="43.505534000" lon="12.925378000"><ele>665.923000</ele><time>2009-07-28T08:55:35Z</time></trkpt><trkpt lat="43.505534000" lon="12.925378000"><ele>665.904000</ele><time>2009-07-28T08:55:37Z</time></trkpt><trkpt lat="43.505534000" lon="12.925378000"><ele>665.887000</ele><time>2009-07-28T08:55:41Z</time></trkpt><trkpt lat="43.505534000" lon="12.925378000"><ele>665.869000</ele><time>2009-07-28T08:55:43Z</time></trkpt><trkpt lat="43.505533000" lon="12.925378000"><ele>665.837000</ele><time>2009-07-28T08:55:47Z</time></trkpt><trkpt lat="43.505533000" lon="12.925378000"><ele>665.799000</ele><time>2009-07-28T08:55:49Z</time></trkpt><trkpt lat="43.505533000" lon="12.925378000"><ele>665.774000</ele><time>2009-07-28T08:55:53Z</time></trkpt><trkpt lat="43.505533000" lon="12.925378000"><ele>665.759000</ele><time>2009-07-28T08:55:55Z</time></trkpt><trkpt lat="43.505532000" lon="12.925378000"><ele>665.731000</ele><time>2009-07-28T08:55:59Z</time></trkpt><trkpt lat="43.505532000" lon="12.925378000"><ele>665.719000</ele><time>2009-07-28T08:56:01Z</time></trkpt><trkpt lat="43.505532000" lon="12.925377000"><ele>665.687000</ele><time>2009-07-28T08:56:05Z</time></trkpt><trkpt lat="43.505531000" lon="12.925377000"><ele>665.669000</ele><time>2009-07-28T08:56:07Z</time></trkpt><trkpt lat="43.505531000" lon="12.925377000"><ele>665.615000</ele><time>2009-07-28T08:56:11Z</time></trkpt><trkpt lat="43.505531000" lon="12.925377000"><ele>665.580000</ele><time>2009-07-28T08:56:13Z</time></trkpt><trkpt lat="43.505530000" lon="12.925377000"><ele>665.543000</ele><time>2009-07-28T08:56:17Z</time></trkpt><trkpt lat="43.505530000" lon="12.925377000"><ele>665.536000</ele><time>2009-07-28T08:56:19Z</time></trkpt><trkpt lat="43.505530000" lon="12.925376000"><ele>665.531000</ele><time>2009-07-28T08:56:23Z</time></trkpt><trkpt lat="43.505530000" lon="12.925376000"><ele>665.526000</ele><time>2009-07-28T08:56:25Z</time></trkpt><trkpt lat="43.505530000" lon="12.925376000"><ele>665.505000</ele><time>2009-07-28T08:56:29Z</time></trkpt><trkpt lat="43.505530000" lon="12.925376000"><ele>665.499000</ele><time>2009-07-28T08:56:31Z</time></trkpt><trkpt lat="43.505530000" lon="12.925375000"><ele>665.431000</ele><time>2009-07-28T08:56:35Z</time></trkpt><trkpt lat="43.505530000" lon="12.925375000"><ele>665.421000</ele><time>2009-07-28T08:56:37Z</time></trkpt><trkpt lat="43.505530000" lon="12.925374000"><ele>665.399000</ele><time>2009-07-28T08:56:41Z</time></trkpt><trkpt lat="43.505529000" lon="12.925374000"><ele>665.390000</ele><time>2009-07-28T08:56:43Z</time></trkpt><trkpt lat="43.505529000" lon="12.925374000"><ele>665.359000</ele><time>2009-07-28T08:56:47Z</time></trkpt><trkpt lat="43.505529000" lon="12.925374000"><ele>665.356000</ele><time>2009-07-28T08:56:49Z</time></trkpt><trkpt lat="43.505529000" lon="12.925374000"><ele>665.345000</ele><time>2009-07-28T08:56:53Z</time></trkpt><trkpt lat="43.505529000" lon="12.925374000"><ele>665.304000</ele><time>2009-07-28T08:56:55Z</time></trkpt><trkpt lat="43.505528000" lon="12.925373000"><ele>665.232000</ele><time>2009-07-28T08:56:59Z</time></trkpt><trkpt lat="43.505528000" lon="12.925373000"><ele>665.187000</ele><time>2009-07-28T08:57:01Z</time></trkpt><trkpt lat="43.505526000" lon="12.925372000"><ele>665.087000</ele><time>2009-07-28T08:57:05Z</time></trkpt><trkpt lat="43.505526000" lon="12.925372000"><ele>665.055000</ele><time>2009-07-28T08:57:07Z</time></trkpt><trkpt lat="43.505525000" lon="12.925372000"><ele>664.981000</ele><time>2009-07-28T08:57:11Z</time></trkpt><trkpt lat="43.505525000" lon="12.925371000"><ele>664.952000</ele><time>2009-07-28T08:57:13Z</time></trkpt><trkpt lat="43.505524000" lon="12.925371000"><ele>664.911000</ele><time>2009-07-28T08:57:17Z</time></trkpt><trkpt lat="43.505524000" lon="12.925371000"><ele>664.887000</ele><time>2009-07-28T08:57:19Z</time></trkpt><trkpt lat="43.505524000" lon="12.925370000"><ele>664.860000</ele><time>2009-07-28T08:57:23Z</time></trkpt><trkpt lat="43.505524000" lon="12.925370000"><ele>664.843000</ele><time>2009-07-28T08:57:25Z</time></trkpt><trkpt lat="43.505524000" lon="12.925370000"><ele>664.810000</ele><time>2009-07-28T08:57:29Z</time></trkpt><trkpt lat="43.505523000" lon="12.925370000"><ele>664.786000</ele><time>2009-07-28T08:57:31Z</time></trkpt><trkpt lat="43.505523000" lon="12.925369000"><ele>664.746000</ele><time>2009-07-28T08:57:35Z</time></trkpt><trkpt lat="43.505523000" lon="12.925369000"><ele>664.724000</ele><time>2009-07-28T08:57:37Z</time></trkpt><trkpt lat="43.505523000" lon="12.925369000"><ele>664.686000</ele><time>2009-07-28T08:57:41Z</time></trkpt><trkpt lat="43.505523000" lon="12.925368000"><ele>664.659000</ele><time>2009-07-28T08:57:43Z</time></trkpt><trkpt lat="43.505523000" lon="12.925368000"><ele>664.642000</ele><time>2009-07-28T08:57:47Z</time></trkpt><trkpt lat="43.505522000" lon="12.925368000"><ele>664.623000</ele><time>2009-07-28T08:57:49Z</time></trkpt><trkpt lat="43.505522000" lon="12.925367000"><ele>664.594000</ele><time>2009-07-28T08:57:53Z</time></trkpt><trkpt lat="43.505522000" lon="12.925367000"><ele>664.566000</ele><time>2009-07-28T08:57:55Z</time></trkpt><trkpt lat="43.505522000" lon="12.925367000"><ele>664.543000</ele><time>2009-07-28T08:57:59Z</time></trkpt><trkpt lat="43.505522000" lon="12.925366000"><ele>664.524000</ele><time>2009-07-28T08:58:01Z</time></trkpt><trkpt lat="43.505522000" lon="12.925366000"><ele>664.531000</ele><time>2009-07-28T08:58:05Z</time></trkpt><trkpt lat="43.505522000" lon="12.925365000"><ele>664.536000</ele><time>2009-07-28T08:58:07Z</time></trkpt><trkpt lat="43.505522000" lon="12.925365000"><ele>664.547000</ele><time>2009-07-28T08:58:11Z</time></trkpt><trkpt lat="43.505522000" lon="12.925364000"><ele>664.558000</ele><time>2009-07-28T08:58:13Z</time></trkpt><trkpt lat="43.505522000" lon="12.925363000"><ele>664.568000</ele><time>2009-07-28T08:58:17Z</time></trkpt><trkpt lat="43.505522000" lon="12.925363000"><ele>664.572000</ele><time>2009-07-28T08:58:19Z</time></trkpt><trkpt lat="43.505523000" lon="12.925362000"><ele>664.579000</ele><time>2009-07-28T08:58:23Z</time></trkpt><trkpt lat="43.505523000" lon="12.925362000"><ele>664.585000</ele><time>2009-07-28T08:58:25Z</time></trkpt><trkpt lat="43.505523000" lon="12.925358000"><ele>664.587000</ele><time>2009-07-28T08:58:29Z</time></trkpt><trkpt lat="43.505522000" lon="12.925354000"><ele>664.563000</ele><time>2009-07-28T08:58:31Z</time></trkpt><trkpt lat="43.505522000" lon="12.925348000"><ele>664.470000</ele><time>2009-07-28T08:58:35Z</time></trkpt><trkpt lat="43.505521000" lon="12.925344000"><ele>664.404000</ele><time>2009-07-28T08:58:37Z</time></trkpt><trkpt lat="43.505520000" lon="12.925338000"><ele>664.142000</ele><time>2009-07-28T08:58:41Z</time></trkpt><trkpt lat="43.505519000" lon="12.925336000"><ele>663.984000</ele><time>2009-07-28T08:58:43Z</time></trkpt><trkpt lat="43.505514000" lon="12.925331000"><ele>663.571000</ele><time>2009-07-28T08:58:47Z</time></trkpt><trkpt lat="43.505511000" lon="12.925329000"><ele>663.321000</ele><time>2009-07-28T08:58:49Z</time></trkpt><trkpt lat="43.505504000" lon="12.925327000"><ele>662.681000</ele><time>2009-07-28T08:58:53Z</time></trkpt><trkpt lat="43.505500000" lon="12.925326000"><ele>662.329000</ele><time>2009-07-28T08:58:55Z</time></trkpt><trkpt lat="43.505489000" lon="12.925322000"><ele>661.210000</ele><time>2009-07-28T08:58:59Z</time></trkpt><trkpt lat="43.505463000" lon="12.925316000"><ele>658.654000</ele><time>2009-07-28T08:59:01Z</time></trkpt><trkpt lat="43.505457000" lon="12.925326000"><ele>656.499000</ele><time>2009-07-28T08:59:05Z</time></trkpt><trkpt lat="43.505454000" lon="12.925325000"><ele>655.672000</ele><time>2009-07-28T08:59:07Z</time></trkpt><trkpt lat="43.505448000" lon="12.925324000"><ele>654.651000</ele><time>2009-07-28T08:59:11Z</time></trkpt><trkpt lat="43.505446000" lon="12.925323000"><ele>654.128000</ele><time>2009-07-28T08:59:13Z</time></trkpt><trkpt lat="43.505443000" lon="12.925323000"><ele>653.064000</ele><time>2009-07-28T08:59:17Z</time></trkpt><trkpt lat="43.505441000" lon="12.925323000"><ele>652.521000</ele><time>2009-07-28T08:59:19Z</time></trkpt><trkpt lat="43.505436000" lon="12.925323000"><ele>651.413000</ele><time>2009-07-28T08:59:23Z</time></trkpt><trkpt lat="43.505434000" lon="12.925321000"><ele>650.878000</ele><time>2009-07-28T08:59:25Z</time></trkpt><trkpt lat="43.505428000" lon="12.925319000"><ele>649.824000</ele><time>2009-07-28T08:59:29Z</time></trkpt><trkpt lat="43.505425000" lon="12.925320000"><ele>649.291000</ele><time>2009-07-28T08:59:31Z</time></trkpt><trkpt lat="43.505421000" lon="12.925319000"><ele>648.226000</ele><time>2009-07-28T08:59:35Z</time></trkpt><trkpt lat="43.505419000" lon="12.925318000"><ele>647.727000</ele><time>2009-07-28T08:59:37Z</time></trkpt><trkpt lat="43.505416000" lon="12.925319000"><ele>646.742000</ele><time>2009-07-28T08:59:41Z</time></trkpt><trkpt lat="43.505415000" lon="12.925321000"><ele>646.289000</ele><time>2009-07-28T08:59:43Z</time></trkpt><trkpt lat="43.505413000" lon="12.925323000"><ele>645.443000</ele><time>2009-07-28T08:59:47Z</time></trkpt><trkpt lat="43.505413000" lon="12.925324000"><ele>645.098000</ele><time>2009-07-28T08:59:49Z</time></trkpt><trkpt lat="43.505414000" lon="12.925324000"><ele>644.523000</ele><time>2009-07-28T08:59:53Z</time></trkpt><trkpt lat="43.505416000" lon="12.925325000"><ele>644.297000</ele><time>2009-07-28T08:59:55Z</time></trkpt><trkpt lat="43.505419000" lon="12.925324000"><ele>644.030000</ele><time>2009-07-28T08:59:59Z</time></trkpt><trkpt lat="43.505421000" lon="12.925323000"><ele>643.948000</ele><time>2009-07-28T09:00:01Z</time></trkpt><trkpt lat="43.505426000" lon="12.925321000"><ele>643.941000</ele><time>2009-07-28T09:00:05Z</time></trkpt><trkpt lat="43.505430000" lon="12.925321000"><ele>643.970000</ele><time>2009-07-28T09:00:07Z</time></trkpt><trkpt lat="43.505437000" lon="12.925323000"><ele>644.152000</ele><time>2009-07-28T09:00:11Z</time></trkpt><trkpt lat="43.505440000" lon="12.925323000"><ele>644.290000</ele><time>2009-07-28T09:00:13Z</time></trkpt><trkpt lat="43.505447000" lon="12.925325000"><ele>644.743000</ele><time>2009-07-28T09:00:17Z</time></trkpt><trkpt lat="43.505450000" lon="12.925325000"><ele>645.029000</ele><time>2009-07-28T09:00:19Z</time></trkpt><trkpt lat="43.505456000" lon="12.925326000"><ele>645.684000</ele><time>2009-07-28T09:00:23Z</time></trkpt><trkpt lat="43.505458000" lon="12.925327000"><ele>646.024000</ele><time>2009-07-28T09:00:25Z</time></trkpt><trkpt lat="43.505464000" lon="12.925329000"><ele>646.719000</ele><time>2009-07-28T09:00:29Z</time></trkpt><trkpt lat="43.505466000" lon="12.925330000"><ele>647.083000</ele><time>2009-07-28T09:00:31Z</time></trkpt><trkpt lat="43.505470000" lon="12.925332000"><ele>647.874000</ele><time>2009-07-28T09:00:35Z</time></trkpt><trkpt lat="43.505472000" lon="12.925334000"><ele>648.299000</ele><time>2009-07-28T09:00:37Z</time></trkpt><trkpt lat="43.505462000" lon="12.925347000"><ele>650.302000</ele><time>2009-07-28T09:00:41Z</time></trkpt><trkpt lat="43.505464000" lon="12.925349000"><ele>651.331000</ele><time>2009-07-28T09:00:43Z</time></trkpt><trkpt lat="43.505468000" lon="12.925357000"><ele>653.552000</ele><time>2009-07-28T09:00:47Z</time></trkpt><trkpt lat="43.505465000" lon="12.925364000"><ele>654.259000</ele><time>2009-07-28T09:00:49Z</time></trkpt><trkpt lat="43.505454000" lon="12.925368000"><ele>654.928000</ele><time>2009-07-28T09:00:53Z</time></trkpt><trkpt lat="43.505454000" lon="12.925370000"><ele>655.223000</ele><time>2009-07-28T09:00:55Z</time></trkpt><trkpt lat="43.505451000" lon="12.925373000"><ele>655.814000</ele><time>2009-07-28T09:00:59Z</time></trkpt><trkpt lat="43.505454000" lon="12.925373000"><ele>656.099000</ele><time>2009-07-28T09:01:01Z</time></trkpt><trkpt lat="43.505456000" lon="12.925371000"><ele>657.125000</ele><time>2009-07-28T09:01:05Z</time></trkpt><trkpt lat="43.505452000" lon="12.925366000"><ele>656.737000</ele><time>2009-07-28T09:01:07Z</time></trkpt><trkpt lat="43.505458000" lon="12.925370000"><ele>657.099000</ele><time>2009-07-28T09:01:11Z</time></trkpt><trkpt lat="43.505454000" lon="12.925376000"><ele>656.808000</ele><time>2009-07-28T09:01:13Z</time></trkpt><trkpt lat="43.505449000" lon="12.925367000"><ele>655.988000</ele><time>2009-07-28T09:01:17Z</time></trkpt><trkpt lat="43.505448000" lon="12.925361000"><ele>655.903000</ele><time>2009-07-28T09:01:19Z</time></trkpt><trkpt lat="43.505447000" lon="12.925360000"><ele>655.706000</ele><time>2009-07-28T09:01:23Z</time></trkpt><trkpt lat="43.505447000" lon="12.925360000"><ele>655.914000</ele><time>2009-07-28T09:01:25Z</time></trkpt><trkpt lat="43.505447000" lon="12.925361000"><ele>656.281000</ele><time>2009-07-28T09:01:29Z</time></trkpt><trkpt lat="43.505447000" lon="12.925361000"><ele>656.460000</ele><time>2009-07-28T09:01:31Z</time></trkpt><trkpt lat="43.505446000" lon="12.925362000"><ele>656.785000</ele><time>2009-07-28T09:01:35Z</time></trkpt><trkpt lat="43.505446000" lon="12.925362000"><ele>656.936000</ele><time>2009-07-28T09:01:37Z</time></trkpt><trkpt lat="43.505445000" lon="12.925362000"><ele>657.055000</ele><time>2009-07-28T09:01:41Z</time></trkpt><trkpt lat="43.505445000" lon="12.925362000"><ele>657.052000</ele><time>2009-07-28T09:01:43Z</time></trkpt><trkpt lat="43.505446000" lon="12.925362000"><ele>657.040000</ele><time>2009-07-28T09:01:47Z</time></trkpt><trkpt lat="43.505446000" lon="12.925362000"><ele>657.040000</ele><time>2009-07-28T09:01:49Z</time></trkpt><trkpt lat="43.505445000" lon="12.925362000"><ele>657.020000</ele><time>2009-07-28T09:01:53Z</time></trkpt><trkpt lat="43.505445000" lon="12.925363000"><ele>657.014000</ele><time>2009-07-28T09:01:55Z</time></trkpt><trkpt lat="43.505445000" lon="12.925363000"><ele>657.008000</ele><time>2009-07-28T09:01:59Z</time></trkpt><trkpt lat="43.505445000" lon="12.925363000"><ele>656.994000</ele><time>2009-07-28T09:02:01Z</time></trkpt><trkpt lat="43.505445000" lon="12.925364000"><ele>656.979000</ele><time>2009-07-28T09:02:05Z</time></trkpt><trkpt lat="43.505445000" lon="12.925364000"><ele>656.967000</ele><time>2009-07-28T09:02:07Z</time></trkpt><trkpt lat="43.505445000" lon="12.925364000"><ele>656.949000</ele><time>2009-07-28T09:02:11Z</time></trkpt><trkpt lat="43.505445000" lon="12.925364000"><ele>656.947000</ele><time>2009-07-28T09:02:13Z</time></trkpt><trkpt lat="43.505445000" lon="12.925365000"><ele>656.943000</ele><time>2009-07-28T09:02:17Z</time></trkpt><trkpt lat="43.505445000" lon="12.925365000"><ele>656.939000</ele><time>2009-07-28T09:02:19Z</time></trkpt><trkpt lat="43.505445000" lon="12.925365000"><ele>656.931000</ele><time>2009-07-28T09:02:23Z</time></trkpt><trkpt lat="43.505445000" lon="12.925365000"><ele>656.923000</ele><time>2009-07-28T09:02:25Z</time></trkpt><trkpt lat="43.505445000" lon="12.925365000"><ele>656.921000</ele><time>2009-07-28T09:02:29Z</time></trkpt><trkpt lat="43.505445000" lon="12.925365000"><ele>656.916000</ele><time>2009-07-28T09:02:31Z</time></trkpt><trkpt lat="43.505445000" lon="12.925365000"><ele>656.874000</ele><time>2009-07-28T09:02:35Z</time></trkpt><trkpt lat="43.505445000" lon="12.925365000"><ele>656.847000</ele><time>2009-07-28T09:02:37Z</time></trkpt><trkpt lat="43.505445000" lon="12.925366000"><ele>656.831000</ele><time>2009-07-28T09:02:41Z</time></trkpt><trkpt lat="43.505445000" lon="12.925366000"><ele>656.808000</ele><time>2009-07-28T09:02:43Z</time></trkpt><trkpt lat="43.505445000" lon="12.925366000"><ele>656.750000</ele><time>2009-07-28T09:02:47Z</time></trkpt><trkpt lat="43.505444000" lon="12.925366000"><ele>656.726000</ele><time>2009-07-28T09:02:49Z</time></trkpt><trkpt lat="43.505445000" lon="12.925366000"><ele>656.692000</ele><time>2009-07-28T09:02:53Z</time></trkpt><trkpt lat="43.505444000" lon="12.925366000"><ele>656.686000</ele><time>2009-07-28T09:02:55Z</time></trkpt><trkpt lat="43.505444000" lon="12.925366000"><ele>656.683000</ele><time>2009-07-28T09:02:59Z</time></trkpt><trkpt lat="43.505444000" lon="12.925366000"><ele>656.681000</ele><time>2009-07-28T09:03:01Z</time></trkpt><trkpt lat="43.505444000" lon="12.925366000"><ele>656.680000</ele><time>2009-07-28T09:03:05Z</time></trkpt><trkpt lat="43.505444000" lon="12.925366000"><ele>656.678000</ele><time>2009-07-28T09:03:07Z</time></trkpt><trkpt lat="43.505444000" lon="12.925366000"><ele>656.674000</ele><time>2009-07-28T09:03:11Z</time></trkpt><trkpt lat="43.505444000" lon="12.925366000"><ele>656.669000</ele><time>2009-07-28T09:03:13Z</time></trkpt><trkpt lat="43.505444000" lon="12.925366000"><ele>656.664000</ele><time>2009-07-28T09:03:17Z</time></trkpt><trkpt lat="43.505444000" lon="12.925366000"><ele>656.662000</ele><time>2009-07-28T09:03:19Z</time></trkpt><trkpt lat="43.505443000" lon="12.925366000"><ele>656.659000</ele><time>2009-07-28T09:03:23Z</time></trkpt><trkpt lat="43.505443000" lon="12.925366000"><ele>656.659000</ele><time>2009-07-28T09:03:25Z</time></trkpt><trkpt lat="43.505444000" lon="12.925366000"><ele>656.657000</ele><time>2009-07-28T09:03:29Z</time></trkpt><trkpt lat="43.505444000" lon="12.925366000"><ele>656.657000</ele><time>2009-07-28T09:03:31Z</time></trkpt><trkpt lat="43.505444000" lon="12.925366000"><ele>656.659000</ele><time>2009-07-28T09:03:35Z</time></trkpt><trkpt lat="43.505444000" lon="12.925366000"><ele>656.660000</ele><time>2009-07-28T09:03:37Z</time></trkpt><trkpt lat="43.505444000" lon="12.925367000"><ele>656.660000</ele><time>2009-07-28T09:03:41Z</time></trkpt><trkpt lat="43.505444000" lon="12.925367000"><ele>656.660000</ele><time>2009-07-28T09:03:43Z</time></trkpt><trkpt lat="43.505444000" lon="12.925368000"><ele>656.661000</ele><time>2009-07-28T09:03:47Z</time></trkpt><trkpt lat="43.505444000" lon="12.925368000"><ele>656.661000</ele><time>2009-07-28T09:03:49Z</time></trkpt><trkpt lat="43.505445000" lon="12.925367000"><ele>656.664000</ele><time>2009-07-28T09:03:53Z</time></trkpt><trkpt lat="43.505446000" lon="12.925367000"><ele>656.661000</ele><time>2009-07-28T09:03:55Z</time></trkpt><trkpt lat="43.505446000" lon="12.925367000"><ele>656.655000</ele><time>2009-07-28T09:03:59Z</time></trkpt><trkpt lat="43.505447000" lon="12.925367000"><ele>656.653000</ele><time>2009-07-28T09:04:01Z</time></trkpt><trkpt lat="43.505447000" lon="12.925367000"><ele>656.650000</ele><time>2009-07-28T09:04:05Z</time></trkpt><trkpt lat="43.505446000" lon="12.925367000"><ele>656.637000</ele><time>2009-07-28T09:04:07Z</time></trkpt><trkpt lat="43.505446000" lon="12.925366000"><ele>656.620000</ele><time>2009-07-28T09:04:11Z</time></trkpt><trkpt lat="43.505446000" lon="12.925366000"><ele>656.614000</ele><time>2009-07-28T09:04:13Z</time></trkpt><trkpt lat="43.505446000" lon="12.925366000"><ele>656.612000</ele><time>2009-07-28T09:04:17Z</time></trkpt><trkpt lat="43.505446000" lon="12.925366000"><ele>656.606000</ele><time>2009-07-28T09:04:19Z</time></trkpt><trkpt lat="43.505446000" lon="12.925365000"><ele>656.598000</ele><time>2009-07-28T09:04:23Z</time></trkpt><trkpt lat="43.505446000" lon="12.925365000"><ele>656.593000</ele><time>2009-07-28T09:04:25Z</time></trkpt><trkpt lat="43.505447000" lon="12.925365000"><ele>656.597000</ele><time>2009-07-28T09:04:29Z</time></trkpt><trkpt lat="43.505447000" lon="12.925365000"><ele>656.601000</ele><time>2009-07-28T09:04:31Z</time></trkpt><trkpt lat="43.505448000" lon="12.925366000"><ele>656.602000</ele><time>2009-07-28T09:04:35Z</time></trkpt><trkpt lat="43.505448000" lon="12.925366000"><ele>656.604000</ele><time>2009-07-28T09:04:37Z</time></trkpt><trkpt lat="43.505447000" lon="12.925366000"><ele>656.600000</ele><time>2009-07-28T09:04:41Z</time></trkpt><trkpt lat="43.505447000" lon="12.925366000"><ele>656.600000</ele><time>2009-07-28T09:04:43Z</time></trkpt><trkpt lat="43.505448000" lon="12.925365000"><ele>656.597000</ele><time>2009-07-28T09:04:47Z</time></trkpt><trkpt lat="43.505449000" lon="12.925365000"><ele>656.588000</ele><time>2009-07-28T09:04:49Z</time></trkpt><trkpt lat="43.505449000" lon="12.925365000"><ele>656.578000</ele><time>2009-07-28T09:04:53Z</time></trkpt><trkpt lat="43.505449000" lon="12.925365000"><ele>656.577000</ele><time>2009-07-28T09:04:55Z</time></trkpt><trkpt lat="43.505452000" lon="12.925366000"><ele>656.573000</ele><time>2009-07-28T09:04:59Z</time></trkpt><trkpt lat="43.505467000" lon="12.925372000"><ele>656.555000</ele><time>2009-07-28T09:05:01Z</time></trkpt><trkpt lat="43.505511000" lon="12.925430000"><ele>656.455000</ele><time>2009-07-28T09:05:05Z</time></trkpt><trkpt lat="43.505541000" lon="12.925433000"><ele>656.253000</ele><time>2009-07-28T09:05:07Z</time></trkpt><trkpt lat="43.505597000" lon="12.925399000"><ele>655.570000</ele><time>2009-07-28T09:05:11Z</time></trkpt><trkpt lat="43.505617000" lon="12.925393000"><ele>655.358000</ele><time>2009-07-28T09:05:13Z</time></trkpt><trkpt lat="43.505601000" lon="12.925401000"><ele>654.559000</ele><time>2009-07-28T09:05:17Z</time></trkpt><trkpt lat="43.505609000" lon="12.925395000"><ele>654.314000</ele><time>2009-07-28T09:05:19Z</time></trkpt><trkpt lat="43.505634000" lon="12.925374000"><ele>653.695000</ele><time>2009-07-28T09:05:23Z</time></trkpt><trkpt lat="43.505659000" lon="12.925350000"><ele>653.360000</ele><time>2009-07-28T09:05:25Z</time></trkpt><trkpt lat="43.505664000" lon="12.925308000"><ele>651.964000</ele><time>2009-07-28T09:05:29Z</time></trkpt><trkpt lat="43.505656000" lon="12.925306000"><ele>651.851000</ele><time>2009-07-28T09:05:31Z</time></trkpt><trkpt lat="43.505609000" lon="12.925303000"><ele>651.863000</ele><time>2009-07-28T09:05:35Z</time></trkpt><trkpt lat="43.505605000" lon="12.925302000"><ele>651.778000</ele><time>2009-07-28T09:05:37Z</time></trkpt><trkpt lat="43.505599000" lon="12.925299000"><ele>651.759000</ele><time>2009-07-28T09:05:41Z</time></trkpt><trkpt lat="43.505596000" lon="12.925297000"><ele>651.743000</ele><time>2009-07-28T09:05:43Z</time></trkpt><trkpt lat="43.505592000" lon="12.925294000"><ele>651.709000</ele><time>2009-07-28T09:05:47Z</time></trkpt><trkpt lat="43.505594000" lon="12.925295000"><ele>651.700000</ele><time>2009-07-28T09:05:49Z</time></trkpt><trkpt lat="43.505595000" lon="12.925295000"><ele>651.674000</ele><time>2009-07-28T09:05:53Z</time></trkpt><trkpt lat="43.505594000" lon="12.925295000"><ele>651.661000</ele><time>2009-07-28T09:05:55Z</time></trkpt><trkpt lat="43.505594000" lon="12.925295000"><ele>651.637000</ele><time>2009-07-28T09:05:59Z</time></trkpt><trkpt lat="43.505610000" lon="12.925305000"><ele>651.576000</ele><time>2009-07-28T09:06:01Z</time></trkpt><trkpt lat="43.505646000" lon="12.925304000"><ele>651.457000</ele><time>2009-07-28T09:06:05Z</time></trkpt><trkpt lat="43.505656000" lon="12.925304000"><ele>651.378000</ele><time>2009-07-28T09:06:07Z</time></trkpt><trkpt lat="43.505654000" lon="12.925305000"><ele>651.283000</ele><time>2009-07-28T09:06:11Z</time></trkpt><trkpt lat="43.505652000" lon="12.925304000"><ele>651.289000</ele><time>2009-07-28T09:06:13Z</time></trkpt><trkpt lat="43.505650000" lon="12.925302000"><ele>651.313000</ele><time>2009-07-28T09:06:17Z</time></trkpt><trkpt lat="43.505652000" lon="12.925303000"><ele>651.331000</ele><time>2009-07-28T09:06:19Z</time></trkpt><trkpt lat="43.505654000" lon="12.925305000"><ele>651.347000</ele><time>2009-07-28T09:06:23Z</time></trkpt><trkpt lat="43.505656000" lon="12.925306000"><ele>651.348000</ele><time>2009-07-28T09:06:25Z</time></trkpt><trkpt lat="43.505659000" lon="12.925309000"><ele>651.327000</ele><time>2009-07-28T09:06:29Z</time></trkpt><trkpt lat="43.505659000" lon="12.925310000"><ele>651.314000</ele><time>2009-07-28T09:06:31Z</time></trkpt><trkpt lat="43.505658000" lon="12.925310000"><ele>651.289000</ele><time>2009-07-28T09:06:35Z</time></trkpt><trkpt lat="43.505658000" lon="12.925310000"><ele>651.279000</ele><time>2009-07-28T09:06:37Z</time></trkpt><trkpt lat="43.505655000" lon="12.925308000"><ele>651.267000</ele><time>2009-07-28T09:06:41Z</time></trkpt><trkpt lat="43.505654000" lon="12.925308000"><ele>651.268000</ele><time>2009-07-28T09:06:43Z</time></trkpt><trkpt lat="43.505654000" lon="12.925307000"><ele>651.278000</ele><time>2009-07-28T09:06:47Z</time></trkpt><trkpt lat="43.505658000" lon="12.925310000"><ele>651.284000</ele><time>2009-07-28T09:06:49Z</time></trkpt><trkpt lat="43.505666000" lon="12.925317000"><ele>651.292000</ele><time>2009-07-28T09:06:53Z</time></trkpt><trkpt lat="43.505669000" lon="12.925319000"><ele>651.294000</ele><time>2009-07-28T09:06:55Z</time></trkpt><trkpt lat="43.505668000" lon="12.925319000"><ele>651.299000</ele><time>2009-07-28T09:06:59Z</time></trkpt><trkpt lat="43.505666000" lon="12.925318000"><ele>651.302000</ele><time>2009-07-28T09:07:01Z</time></trkpt><trkpt lat="43.505664000" lon="12.925316000"><ele>651.307000</ele><time>2009-07-28T09:07:05Z</time></trkpt><trkpt lat="43.505662000" lon="12.925314000"><ele>651.310000</ele><time>2009-07-28T09:07:07Z</time></trkpt><trkpt lat="43.505658000" lon="12.925311000"><ele>651.312000</ele><time>2009-07-28T09:07:11Z</time></trkpt><trkpt lat="43.505655000" lon="12.925309000"><ele>651.315000</ele><time>2009-07-28T09:07:13Z</time></trkpt><trkpt lat="43.505656000" lon="12.925308000"><ele>651.332000</ele><time>2009-07-28T09:07:17Z</time></trkpt><trkpt lat="43.505657000" lon="12.925309000"><ele>651.341000</ele><time>2009-07-28T09:07:19Z</time></trkpt><trkpt lat="43.505655000" lon="12.925308000"><ele>651.349000</ele><time>2009-07-28T09:07:23Z</time></trkpt><trkpt lat="43.505653000" lon="12.925307000"><ele>651.347000</ele><time>2009-07-28T09:07:25Z</time></trkpt><trkpt lat="43.505647000" lon="12.925304000"><ele>651.342000</ele><time>2009-07-28T09:07:29Z</time></trkpt><trkpt lat="43.505646000" lon="12.925304000"><ele>651.341000</ele><time>2009-07-28T09:07:31Z</time></trkpt><trkpt lat="43.505639000" lon="12.925300000"><ele>651.334000</ele><time>2009-07-28T09:07:35Z</time></trkpt><trkpt lat="43.505635000" lon="12.925298000"><ele>651.328000</ele><time>2009-07-28T09:07:37Z</time></trkpt><trkpt lat="43.505608000" lon="12.925291000"><ele>651.261000</ele><time>2009-07-28T09:07:41Z</time></trkpt><trkpt lat="43.505586000" lon="12.925290000"><ele>651.165000</ele><time>2009-07-28T09:07:43Z</time></trkpt><trkpt lat="43.505541000" lon="12.925301000"><ele>651.121000</ele><time>2009-07-28T09:07:47Z</time></trkpt><trkpt lat="43.505536000" lon="12.925304000"><ele>651.126000</ele><time>2009-07-28T09:07:49Z</time></trkpt><trkpt lat="43.505557000" lon="12.925326000"><ele>651.044000</ele><time>2009-07-28T09:07:53Z</time></trkpt><trkpt lat="43.505559000" lon="12.925326000"><ele>651.016000</ele><time>2009-07-28T09:07:55Z</time></trkpt><trkpt lat="43.505552000" lon="12.925341000"><ele>650.968000</ele><time>2009-07-28T09:07:59Z</time></trkpt><trkpt lat="43.505551000" lon="12.925340000"><ele>650.962000</ele><time>2009-07-28T09:08:01Z</time></trkpt><trkpt lat="43.505551000" lon="12.925340000"><ele>650.959000</ele><time>2009-07-28T09:08:05Z</time></trkpt><trkpt lat="43.505554000" lon="12.925341000"><ele>650.964000</ele><time>2009-07-28T09:08:07Z</time></trkpt><trkpt lat="43.505588000" lon="12.925350000"><ele>651.036000</ele><time>2009-07-28T09:08:11Z</time></trkpt><trkpt lat="43.505603000" lon="12.925351000"><ele>651.048000</ele><time>2009-07-28T09:08:13Z</time></trkpt><trkpt lat="43.505615000" lon="12.925341000"><ele>651.080000</ele><time>2009-07-28T09:08:17Z</time></trkpt><trkpt lat="43.505614000" lon="12.925340000"><ele>651.090000</ele><time>2009-07-28T09:08:19Z</time></trkpt><trkpt lat="43.505608000" lon="12.925336000"><ele>651.098000</ele><time>2009-07-28T09:08:23Z</time></trkpt><trkpt lat="43.505603000" lon="12.925329000"><ele>651.110000</ele><time>2009-07-28T09:08:25Z</time></trkpt><trkpt lat="43.505572000" lon="12.925280000"><ele>651.171000</ele><time>2009-07-28T09:08:34Z</time></trkpt><trkpt lat="43.505558000" lon="12.925256000"><ele>651.031000</ele><time>2009-07-28T09:08:36Z</time></trkpt><trkpt lat="43.505596000" lon="12.925241000"><ele>650.856000</ele><time>2009-07-28T09:08:40Z</time></trkpt><trkpt lat="43.505590000" lon="12.925235000"><ele>650.858000</ele><time>2009-07-28T09:08:42Z</time></trkpt><trkpt lat="43.505593000" lon="12.925236000"><ele>650.865000</ele><time>2009-07-28T09:08:48Z</time></trkpt><trkpt lat="43.505592000" lon="12.925236000"><ele>650.870000</ele><time>2009-07-28T09:08:50Z</time></trkpt><trkpt lat="43.505573000" lon="12.925228000"><ele>650.878000</ele><time>2009-07-28T09:08:55Z</time></trkpt><trkpt lat="43.505561000" lon="12.925220000"><ele>650.885000</ele><time>2009-07-28T09:08:57Z</time></trkpt><trkpt lat="43.505512000" lon="12.925234000"><ele>650.901000</ele><time>2009-07-28T09:09:01Z</time></trkpt><trkpt lat="43.505475000" lon="12.925260000"><ele>650.967000</ele><time>2009-07-28T09:09:03Z</time></trkpt><trkpt lat="43.505487000" lon="12.925249000"><ele>651.193000</ele><time>2009-07-28T09:09:07Z</time></trkpt><trkpt lat="43.505453000" lon="12.925281000"><ele>651.241000</ele><time>2009-07-28T09:09:09Z</time></trkpt><trkpt lat="43.505448000" lon="12.925277000"><ele>651.272000</ele><time>2009-07-28T09:09:13Z</time></trkpt><trkpt lat="43.505441000" lon="12.925272000"><ele>651.260000</ele><time>2009-07-28T09:09:15Z</time></trkpt><trkpt lat="43.505459000" lon="12.925311000"><ele>651.240000</ele><time>2009-07-28T09:09:19Z</time></trkpt><trkpt lat="43.505463000" lon="12.925317000"><ele>651.210000</ele><time>2009-07-28T09:09:21Z</time></trkpt><trkpt lat="43.505459000" lon="12.925315000"><ele>651.209000</ele><time>2009-07-28T09:09:25Z</time></trkpt><trkpt lat="43.505456000" lon="12.925313000"><ele>651.206000</ele><time>2009-07-28T09:09:27Z</time></trkpt><trkpt lat="43.505465000" lon="12.925325000"><ele>651.242000</ele><time>2009-07-28T09:09:31Z</time></trkpt><trkpt lat="43.505458000" lon="12.925326000"><ele>651.270000</ele><time>2009-07-28T09:09:33Z</time></trkpt><trkpt lat="43.505457000" lon="12.925325000"><ele>651.282000</ele><time>2009-07-28T09:09:37Z</time></trkpt><trkpt lat="43.505460000" lon="12.925327000"><ele>651.291000</ele><time>2009-07-28T09:09:39Z</time></trkpt><trkpt lat="43.505499000" lon="12.925326000"><ele>651.226000</ele><time>2009-07-28T09:09:43Z</time></trkpt><trkpt lat="43.505511000" lon="12.925330000"><ele>651.192000</ele><time>2009-07-28T09:09:45Z</time></trkpt><trkpt lat="43.505515000" lon="12.925333000"><ele>651.196000</ele><time>2009-07-28T09:09:49Z</time></trkpt><trkpt lat="43.505515000" lon="12.925333000"><ele>651.199000</ele><time>2009-07-28T09:09:51Z</time></trkpt><trkpt lat="43.505514000" lon="12.925332000"><ele>651.195000</ele><time>2009-07-28T09:09:55Z</time></trkpt><trkpt lat="43.505513000" lon="12.925332000"><ele>651.198000</ele><time>2009-07-28T09:09:57Z</time></trkpt><trkpt lat="43.505509000" lon="12.925329000"><ele>651.221000</ele><time>2009-07-28T09:10:01Z</time></trkpt><trkpt lat="43.505509000" lon="12.925329000"><ele>651.229000</ele><time>2009-07-28T09:10:03Z</time></trkpt><trkpt lat="43.505505000" lon="12.925327000"><ele>651.244000</ele><time>2009-07-28T09:10:07Z</time></trkpt><trkpt lat="43.505502000" lon="12.925325000"><ele>651.250000</ele><time>2009-07-28T09:10:09Z</time></trkpt><trkpt lat="43.505498000" lon="12.925321000"><ele>651.249000</ele><time>2009-07-28T09:10:13Z</time></trkpt><trkpt lat="43.505498000" lon="12.925321000"><ele>651.246000</ele><time>2009-07-28T09:10:15Z</time></trkpt><trkpt lat="43.505494000" lon="12.925318000"><ele>651.229000</ele><time>2009-07-28T09:10:19Z</time></trkpt><trkpt lat="43.505494000" lon="12.925318000"><ele>651.218000</ele><time>2009-07-28T09:10:21Z</time></trkpt><trkpt lat="43.505503000" lon="12.925324000"><ele>651.177000</ele><time>2009-07-28T09:10:25Z</time></trkpt><trkpt lat="43.505503000" lon="12.925325000"><ele>651.170000</ele><time>2009-07-28T09:10:27Z</time></trkpt><trkpt lat="43.505504000" lon="12.925326000"><ele>651.158000</ele><time>2009-07-28T09:10:31Z</time></trkpt><trkpt lat="43.505504000" lon="12.925326000"><ele>651.143000</ele><time>2009-07-28T09:10:33Z</time></trkpt><trkpt lat="43.505514000" lon="12.925344000"><ele>651.190000</ele><time>2009-07-28T09:10:37Z</time></trkpt><trkpt lat="43.505527000" lon="12.925340000"><ele>651.188000</ele><time>2009-07-28T09:10:39Z</time></trkpt><trkpt lat="43.505537000" lon="12.925340000"><ele>651.183000</ele><time>2009-07-28T09:10:43Z</time></trkpt><trkpt lat="43.505532000" lon="12.925343000"><ele>651.174000</ele><time>2009-07-28T09:10:45Z</time></trkpt><trkpt lat="43.505536000" lon="12.925344000"><ele>651.192000</ele><time>2009-07-28T09:10:49Z</time></trkpt><trkpt lat="43.505537000" lon="12.925344000"><ele>651.199000</ele><time>2009-07-28T09:10:51Z</time></trkpt><trkpt lat="43.505538000" lon="12.925344000"><ele>651.214000</ele><time>2009-07-28T09:10:55Z</time></trkpt><trkpt lat="43.505538000" lon="12.925345000"><ele>651.220000</ele><time>2009-07-28T09:10:57Z</time></trkpt><trkpt lat="43.505542000" lon="12.925347000"><ele>651.234000</ele><time>2009-07-28T09:11:01Z</time></trkpt><trkpt lat="43.505543000" lon="12.925347000"><ele>651.235000</ele><time>2009-07-28T09:11:03Z</time></trkpt><trkpt lat="43.505539000" lon="12.925344000"><ele>651.223000</ele><time>2009-07-28T09:11:07Z</time></trkpt><trkpt lat="43.505540000" lon="12.925344000"><ele>651.227000</ele><time>2009-07-28T09:11:09Z</time></trkpt><trkpt lat="43.505547000" lon="12.925343000"><ele>651.145000</ele><time>2009-07-28T09:11:13Z</time></trkpt><trkpt lat="43.505563000" lon="12.925344000"><ele>651.063000</ele><time>2009-07-28T09:11:15Z</time></trkpt><trkpt lat="43.505575000" lon="12.925332000"><ele>650.994000</ele><time>2009-07-28T09:11:19Z</time></trkpt><trkpt lat="43.505578000" lon="12.925315000"><ele>650.944000</ele><time>2009-07-28T09:11:21Z</time></trkpt><trkpt lat="43.505569000" lon="12.925296000"><ele>650.863000</ele><time>2009-07-28T09:11:25Z</time></trkpt><trkpt lat="43.505579000" lon="12.925284000"><ele>650.698000</ele><time>2009-07-28T09:11:27Z</time></trkpt><trkpt lat="43.505601000" lon="12.925264000"><ele>650.494000</ele><time>2009-07-28T09:11:31Z</time></trkpt><trkpt lat="43.505614000" lon="12.925266000"><ele>650.317000</ele><time>2009-07-28T09:11:33Z</time></trkpt><trkpt lat="43.505611000" lon="12.925278000"><ele>650.144000</ele><time>2009-07-28T09:11:37Z</time></trkpt><trkpt lat="43.505635000" lon="12.925275000"><ele>650.029000</ele><time>2009-07-28T09:11:39Z</time></trkpt><trkpt lat="43.505662000" lon="12.925279000"><ele>649.981000</ele><time>2009-07-28T09:11:43Z</time></trkpt><trkpt lat="43.505653000" lon="12.925286000"><ele>649.915000</ele><time>2009-07-28T09:11:45Z</time></trkpt><trkpt lat="43.505660000" lon="12.925275000"><ele>649.925000</ele><time>2009-07-28T09:11:49Z</time></trkpt><trkpt lat="43.505660000" lon="12.925276000"><ele>650.029000</ele><time>2009-07-28T09:11:51Z</time></trkpt><trkpt lat="43.505654000" lon="12.925280000"><ele>650.105000</ele><time>2009-07-28T09:11:55Z</time></trkpt><trkpt lat="43.505654000" lon="12.925280000"><ele>650.114000</ele><time>2009-07-28T09:11:57Z</time></trkpt><trkpt lat="43.505674000" lon="12.925305000"><ele>650.148000</ele><time>2009-07-28T09:12:01Z</time></trkpt><trkpt lat="43.505678000" lon="12.925316000"><ele>650.165000</ele><time>2009-07-28T09:12:03Z</time></trkpt><trkpt lat="43.505658000" lon="12.925323000"><ele>650.195000</ele><time>2009-07-28T09:12:07Z</time></trkpt><trkpt lat="43.505658000" lon="12.925320000"><ele>650.211000</ele><time>2009-07-28T09:12:09Z</time></trkpt><trkpt lat="43.505656000" lon="12.925330000"><ele>650.055000</ele><time>2009-07-28T09:12:13Z</time></trkpt><trkpt lat="43.505649000" lon="12.925331000"><ele>649.971000</ele><time>2009-07-28T09:12:15Z</time></trkpt><trkpt lat="43.505655000" lon="12.925341000"><ele>649.906000</ele><time>2009-07-28T09:12:19Z</time></trkpt><trkpt lat="43.505650000" lon="12.925340000"><ele>649.886000</ele><time>2009-07-28T09:12:21Z</time></trkpt><trkpt lat="43.505685000" lon="12.925326000"><ele>649.925000</ele><time>2009-07-28T09:12:25Z</time></trkpt><trkpt lat="43.505694000" lon="12.925320000"><ele>649.947000</ele><time>2009-07-28T09:12:27Z</time></trkpt><trkpt lat="43.505674000" lon="12.925336000"><ele>649.898000</ele><time>2009-07-28T09:12:31Z</time></trkpt><trkpt lat="43.505671000" lon="12.925328000"><ele>649.863000</ele><time>2009-07-28T09:12:33Z</time></trkpt><trkpt lat="43.505678000" lon="12.925343000"><ele>649.798000</ele><time>2009-07-28T09:12:37Z</time></trkpt><trkpt lat="43.505675000" lon="12.925344000"><ele>649.811000</ele><time>2009-07-28T09:12:39Z</time></trkpt><trkpt lat="43.505672000" lon="12.925342000"><ele>649.755000</ele><time>2009-07-28T09:12:43Z</time></trkpt><trkpt lat="43.505667000" lon="12.925340000"><ele>649.729000</ele><time>2009-07-28T09:12:45Z</time></trkpt><trkpt lat="43.505664000" lon="12.925338000"><ele>649.690000</ele><time>2009-07-28T09:12:49Z</time></trkpt><trkpt lat="43.505664000" lon="12.925338000"><ele>649.672000</ele><time>2009-07-28T09:12:51Z</time></trkpt><trkpt lat="43.505662000" lon="12.925337000"><ele>649.639000</ele><time>2009-07-28T09:12:55Z</time></trkpt><trkpt lat="43.505664000" lon="12.925339000"><ele>649.623000</ele><time>2009-07-28T09:12:57Z</time></trkpt><trkpt lat="43.505666000" lon="12.925341000"><ele>649.631000</ele><time>2009-07-28T09:13:01Z</time></trkpt><trkpt lat="43.505666000" lon="12.925341000"><ele>649.624000</ele><time>2009-07-28T09:13:03Z</time></trkpt><trkpt lat="43.505664000" lon="12.925340000"><ele>649.592000</ele><time>2009-07-28T09:13:07Z</time></trkpt><trkpt lat="43.505664000" lon="12.925341000"><ele>649.589000</ele><time>2009-07-28T09:13:09Z</time></trkpt><trkpt lat="43.505663000" lon="12.925340000"><ele>649.616000</ele><time>2009-07-28T09:13:13Z</time></trkpt><trkpt lat="43.505660000" lon="12.925339000"><ele>649.636000</ele><time>2009-07-28T09:13:15Z</time></trkpt><trkpt lat="43.505640000" lon="12.925337000"><ele>649.705000</ele><time>2009-07-28T09:13:19Z</time></trkpt><trkpt lat="43.505623000" lon="12.925332000"><ele>649.804000</ele><time>2009-07-28T09:13:21Z</time></trkpt><trkpt lat="43.505607000" lon="12.925324000"><ele>650.081000</ele><time>2009-07-28T09:13:25Z</time></trkpt><trkpt lat="43.505580000" lon="12.925324000"><ele>650.257000</ele><time>2009-07-28T09:13:27Z</time></trkpt><trkpt lat="43.505584000" lon="12.925315000"><ele>650.284000</ele><time>2009-07-28T09:13:31Z</time></trkpt><trkpt lat="43.505574000" lon="12.925314000"><ele>650.304000</ele><time>2009-07-28T09:13:33Z</time></trkpt><trkpt lat="43.505565000" lon="12.925305000"><ele>650.358000</ele><time>2009-07-28T09:13:37Z</time></trkpt><trkpt lat="43.505578000" lon="12.925305000"><ele>650.311000</ele><time>2009-07-28T09:13:39Z</time></trkpt><trkpt lat="43.505575000" lon="12.925314000"><ele>650.289000</ele><time>2009-07-28T09:13:43Z</time></trkpt><trkpt lat="43.505575000" lon="12.925314000"><ele>650.291000</ele><time>2009-07-28T09:13:45Z</time></trkpt><trkpt lat="43.505591000" lon="12.925323000"><ele>650.246000</ele><time>2009-07-28T09:13:49Z</time></trkpt><trkpt lat="43.505610000" lon="12.925319000"><ele>650.151000</ele><time>2009-07-28T09:13:51Z</time></trkpt><trkpt lat="43.505608000" lon="12.925320000"><ele>650.112000</ele><time>2009-07-28T09:13:55Z</time></trkpt><trkpt lat="43.505607000" lon="12.925319000"><ele>650.093000</ele><time>2009-07-28T09:13:57Z</time></trkpt><trkpt lat="43.505603000" lon="12.925315000"><ele>650.110000</ele><time>2009-07-28T09:14:01Z</time></trkpt><trkpt lat="43.505602000" lon="12.925314000"><ele>650.139000</ele><time>2009-07-28T09:14:03Z</time></trkpt><trkpt lat="43.505604000" lon="12.925315000"><ele>650.194000</ele><time>2009-07-28T09:14:07Z</time></trkpt><trkpt lat="43.505607000" lon="12.925317000"><ele>650.221000</ele><time>2009-07-28T09:14:09Z</time></trkpt><trkpt lat="43.505610000" lon="12.925319000"><ele>650.261000</ele><time>2009-07-28T09:14:13Z</time></trkpt><trkpt lat="43.505609000" lon="12.925318000"><ele>650.278000</ele><time>2009-07-28T09:14:15Z</time></trkpt><trkpt lat="43.505610000" lon="12.925318000"><ele>650.319000</ele><time>2009-07-28T09:14:19Z</time></trkpt><trkpt lat="43.505609000" lon="12.925318000"><ele>650.331000</ele><time>2009-07-28T09:14:21Z</time></trkpt><trkpt lat="43.505579000" lon="12.925316000"><ele>650.041000</ele><time>2009-07-28T09:14:25Z</time></trkpt><trkpt lat="43.505567000" lon="12.925333000"><ele>649.665000</ele><time>2009-07-28T09:14:27Z</time></trkpt><trkpt lat="43.505559000" lon="12.925340000"><ele>649.207000</ele><time>2009-07-28T09:14:31Z</time></trkpt><trkpt lat="43.505537000" lon="12.925338000"><ele>649.169000</ele><time>2009-07-28T09:14:33Z</time></trkpt><trkpt lat="43.505520000" lon="12.925339000"><ele>649.062000</ele><time>2009-07-28T09:14:37Z</time></trkpt><trkpt lat="43.505533000" lon="12.925337000"><ele>648.868000</ele><time>2009-07-28T09:14:39Z</time></trkpt><trkpt lat="43.505538000" lon="12.925332000"><ele>648.283000</ele><time>2009-07-28T09:14:43Z</time></trkpt><trkpt lat="43.505533000" lon="12.925326000"><ele>648.110000</ele><time>2009-07-28T09:14:45Z</time></trkpt><trkpt lat="43.505558000" lon="12.925327000"><ele>647.806000</ele><time>2009-07-28T09:14:49Z</time></trkpt><trkpt lat="43.505579000" lon="12.925331000"><ele>647.690000</ele><time>2009-07-28T09:14:51Z</time></trkpt><trkpt lat="43.505599000" lon="12.925345000"><ele>647.572000</ele><time>2009-07-28T09:14:55Z</time></trkpt><trkpt lat="43.505609000" lon="12.925354000"><ele>647.542000</ele><time>2009-07-28T09:14:57Z</time></trkpt><trkpt lat="43.505626000" lon="12.925353000"><ele>647.485000</ele><time>2009-07-28T09:15:01Z</time></trkpt><trkpt lat="43.505619000" lon="12.925339000"><ele>647.513000</ele><time>2009-07-28T09:15:03Z</time></trkpt><trkpt lat="43.505567000" lon="12.925311000"><ele>647.378000</ele><time>2009-07-28T09:15:07Z</time></trkpt><trkpt lat="43.505556000" lon="12.925288000"><ele>647.368000</ele><time>2009-07-28T09:15:09Z</time></trkpt><trkpt lat="43.505549000" lon="12.925282000"><ele>647.351000</ele><time>2009-07-28T09:15:13Z</time></trkpt><trkpt lat="43.505545000" lon="12.925280000"><ele>647.353000</ele><time>2009-07-28T09:15:15Z</time></trkpt><trkpt lat="43.505533000" lon="12.925269000"><ele>647.378000</ele><time>2009-07-28T09:15:19Z</time></trkpt><trkpt lat="43.505533000" lon="12.925263000"><ele>647.460000</ele><time>2009-07-28T09:15:21Z</time></trkpt><trkpt lat="43.505529000" lon="12.925259000"><ele>647.488000</ele><time>2009-07-28T09:15:25Z</time></trkpt><trkpt lat="43.505508000" lon="12.925233000"><ele>647.486000</ele><time>2009-07-28T09:15:27Z</time></trkpt><trkpt lat="43.505520000" lon="12.925230000"><ele>647.323000</ele><time>2009-07-28T09:15:31Z</time></trkpt><trkpt lat="43.505547000" lon="12.925238000"><ele>646.907000</ele><time>2009-07-28T09:15:33Z</time></trkpt><trkpt lat="43.505537000" lon="12.925234000"><ele>646.534000</ele><time>2009-07-28T09:15:37Z</time></trkpt><trkpt lat="43.505541000" lon="12.925230000"><ele>646.522000</ele><time>2009-07-28T09:15:39Z</time></trkpt><trkpt lat="43.505542000" lon="12.925233000"><ele>646.217000</ele><time>2009-07-28T09:15:43Z</time></trkpt><trkpt lat="43.505540000" lon="12.925247000"><ele>646.025000</ele><time>2009-07-28T09:15:45Z</time></trkpt><trkpt lat="43.505550000" lon="12.925281000"><ele>645.534000</ele><time>2009-07-28T09:15:49Z</time></trkpt><trkpt lat="43.505547000" lon="12.925288000"><ele>645.379000</ele><time>2009-07-28T09:15:51Z</time></trkpt><trkpt lat="43.505545000" lon="12.925306000"><ele>645.300000</ele><time>2009-07-28T09:15:55Z</time></trkpt><trkpt lat="43.505538000" lon="12.925310000"><ele>645.287000</ele><time>2009-07-28T09:15:57Z</time></trkpt><trkpt lat="43.505532000" lon="12.925307000"><ele>645.245000</ele><time>2009-07-28T09:16:01Z</time></trkpt><trkpt lat="43.505528000" lon="12.925305000"><ele>645.213000</ele><time>2009-07-28T09:16:03Z</time></trkpt><trkpt lat="43.505522000" lon="12.925301000"><ele>645.154000</ele><time>2009-07-28T09:16:07Z</time></trkpt><trkpt lat="43.505522000" lon="12.925294000"><ele>645.161000</ele><time>2009-07-28T09:16:09Z</time></trkpt><trkpt lat="43.505509000" lon="12.925302000"><ele>645.415000</ele><time>2009-07-28T09:16:13Z</time></trkpt><trkpt lat="43.505509000" lon="12.925302000"><ele>645.416000</ele><time>2009-07-28T09:16:15Z</time></trkpt><trkpt lat="43.505507000" lon="12.925300000"><ele>645.423000</ele><time>2009-07-28T09:16:19Z</time></trkpt><trkpt lat="43.505505000" lon="12.925299000"><ele>645.429000</ele><time>2009-07-28T09:16:21Z</time></trkpt><trkpt lat="43.505503000" lon="12.925297000"><ele>645.445000</ele><time>2009-07-28T09:16:25Z</time></trkpt><trkpt lat="43.505505000" lon="12.925299000"><ele>645.457000</ele><time>2009-07-28T09:16:27Z</time></trkpt><trkpt lat="43.505534000" lon="12.925311000"><ele>645.519000</ele><time>2009-07-28T09:16:31Z</time></trkpt><trkpt lat="43.505551000" lon="12.925305000"><ele>645.673000</ele><time>2009-07-28T09:16:33Z</time></trkpt><trkpt lat="43.505580000" lon="12.925323000"><ele>646.111000</ele><time>2009-07-28T09:16:37Z</time></trkpt><trkpt lat="43.505591000" lon="12.925308000"><ele>646.410000</ele><time>2009-07-28T09:16:39Z</time></trkpt><trkpt lat="43.505611000" lon="12.925305000"><ele>647.024000</ele><time>2009-07-28T09:16:43Z</time></trkpt><trkpt lat="43.505608000" lon="12.925301000"><ele>647.268000</ele><time>2009-07-28T09:16:45Z</time></trkpt><trkpt lat="43.505597000" lon="12.925289000"><ele>647.424000</ele><time>2009-07-28T09:16:49Z</time></trkpt><trkpt lat="43.505593000" lon="12.925287000"><ele>647.441000</ele><time>2009-07-28T09:16:51Z</time></trkpt><trkpt lat="43.505585000" lon="12.925281000"><ele>647.444000</ele><time>2009-07-28T09:16:55Z</time></trkpt><trkpt lat="43.505576000" lon="12.925264000"><ele>647.585000</ele><time>2009-07-28T09:16:57Z</time></trkpt><trkpt lat="43.505540000" lon="12.925261000"><ele>648.040000</ele><time>2009-07-28T09:17:01Z</time></trkpt><trkpt lat="43.505526000" lon="12.925260000"><ele>648.222000</ele><time>2009-07-28T09:17:03Z</time></trkpt><trkpt lat="43.505516000" lon="12.925261000"><ele>648.310000</ele><time>2009-07-28T09:17:07Z</time></trkpt><trkpt lat="43.505514000" lon="12.925260000"><ele>648.303000</ele><time>2009-07-28T09:17:09Z</time></trkpt><trkpt lat="43.505511000" lon="12.925257000"><ele>648.267000</ele><time>2009-07-28T09:17:13Z</time></trkpt><trkpt lat="43.505512000" lon="12.925257000"><ele>648.262000</ele><time>2009-07-28T09:17:15Z</time></trkpt><trkpt lat="43.505519000" lon="12.925261000"><ele>648.283000</ele><time>2009-07-28T09:17:19Z</time></trkpt><trkpt lat="43.505534000" lon="12.925257000"><ele>648.452000</ele><time>2009-07-28T09:17:21Z</time></trkpt><trkpt lat="43.505552000" lon="12.925247000"><ele>648.648000</ele><time>2009-07-28T09:17:25Z</time></trkpt><trkpt lat="43.505560000" lon="12.925248000"><ele>648.646000</ele><time>2009-07-28T09:17:27Z</time></trkpt><trkpt lat="43.505564000" lon="12.925243000"><ele>648.674000</ele><time>2009-07-28T09:17:31Z</time></trkpt><trkpt lat="43.505564000" lon="12.925243000"><ele>648.674000</ele><time>2009-07-28T09:17:33Z</time></trkpt><trkpt lat="43.505568000" lon="12.925245000"><ele>648.681000</ele><time>2009-07-28T09:17:37Z</time></trkpt><trkpt lat="43.505571000" lon="12.925246000"><ele>648.685000</ele><time>2009-07-28T09:17:39Z</time></trkpt><trkpt lat="43.505570000" lon="12.925246000"><ele>648.691000</ele><time>2009-07-28T09:17:43Z</time></trkpt><trkpt lat="43.505569000" lon="12.925246000"><ele>648.708000</ele><time>2009-07-28T09:17:45Z</time></trkpt><trkpt lat="43.505571000" lon="12.925259000"><ele>648.725000</ele><time>2009-07-28T09:17:49Z</time></trkpt><trkpt lat="43.505572000" lon="12.925268000"><ele>648.703000</ele><time>2009-07-28T09:17:51Z</time></trkpt><trkpt lat="43.505585000" lon="12.925291000"><ele>648.526000</ele><time>2009-07-28T09:17:55Z</time></trkpt><trkpt lat="43.505594000" lon="12.925304000"><ele>648.407000</ele><time>2009-07-28T09:17:57Z</time></trkpt><trkpt lat="43.505598000" lon="12.925280000"><ele>648.512000</ele><time>2009-07-28T09:18:01Z</time></trkpt><trkpt lat="43.505581000" lon="12.925296000"><ele>648.501000</ele><time>2009-07-28T09:18:03Z</time></trkpt><trkpt lat="43.505569000" lon="12.925306000"><ele>648.479000</ele><time>2009-07-28T09:18:07Z</time></trkpt><trkpt lat="43.505576000" lon="12.925311000"><ele>648.515000</ele><time>2009-07-28T09:18:09Z</time></trkpt><trkpt lat="43.505583000" lon="12.925324000"><ele>648.446000</ele><time>2009-07-28T09:18:13Z</time></trkpt><trkpt lat="43.505591000" lon="12.925331000"><ele>648.307000</ele><time>2009-07-28T09:18:15Z</time></trkpt><trkpt lat="43.505605000" lon="12.925332000"><ele>648.084000</ele><time>2009-07-28T09:18:19Z</time></trkpt><trkpt lat="43.505604000" lon="12.925338000"><ele>648.020000</ele><time>2009-07-28T09:18:21Z</time></trkpt><trkpt lat="43.505624000" lon="12.925350000"><ele>647.869000</ele><time>2009-07-28T09:18:25Z</time></trkpt><trkpt lat="43.505625000" lon="12.925345000"><ele>647.859000</ele><time>2009-07-28T09:18:27Z</time></trkpt><trkpt lat="43.505621000" lon="12.925338000"><ele>647.840000</ele><time>2009-07-28T09:18:31Z</time></trkpt><trkpt lat="43.505617000" lon="12.925331000"><ele>647.976000</ele><time>2009-07-28T09:18:33Z</time></trkpt><trkpt lat="43.505606000" lon="12.925336000"><ele>648.148000</ele><time>2009-07-28T09:18:37Z</time></trkpt><trkpt lat="43.505605000" lon="12.925339000"><ele>648.226000</ele><time>2009-07-28T09:18:39Z</time></trkpt><trkpt lat="43.505601000" lon="12.925336000"><ele>648.255000</ele><time>2009-07-28T09:18:43Z</time></trkpt><trkpt lat="43.505598000" lon="12.925334000"><ele>648.267000</ele><time>2009-07-28T09:18:45Z</time></trkpt><trkpt lat="43.505596000" lon="12.925332000"><ele>648.290000</ele><time>2009-07-28T09:18:49Z</time></trkpt><trkpt lat="43.505597000" lon="12.925333000"><ele>648.303000</ele><time>2009-07-28T09:18:51Z</time></trkpt><trkpt lat="43.505604000" lon="12.925337000"><ele>648.319000</ele><time>2009-07-28T09:18:55Z</time></trkpt><trkpt lat="43.505617000" lon="12.925341000"><ele>648.336000</ele><time>2009-07-28T09:18:57Z</time></trkpt><trkpt lat="43.505664000" lon="12.925358000"><ele>648.315000</ele><time>2009-07-28T09:19:01Z</time></trkpt><trkpt lat="43.505671000" lon="12.925365000"><ele>648.200000</ele><time>2009-07-28T09:19:03Z</time></trkpt><trkpt lat="43.505675000" lon="12.925378000"><ele>647.937000</ele><time>2009-07-28T09:19:07Z</time></trkpt><trkpt lat="43.505693000" lon="12.925384000"><ele>647.761000</ele><time>2009-07-28T09:19:09Z</time></trkpt><trkpt lat="43.505734000" lon="12.925386000"><ele>647.149000</ele><time>2009-07-28T09:19:13Z</time></trkpt><trkpt lat="43.505719000" lon="12.925402000"><ele>646.494000</ele><time>2009-07-28T09:19:15Z</time></trkpt><trkpt lat="43.505718000" lon="12.925396000"><ele>646.207000</ele><time>2009-07-28T09:19:19Z</time></trkpt><trkpt lat="43.505719000" lon="12.925396000"><ele>646.170000</ele><time>2009-07-28T09:19:21Z</time></trkpt><trkpt lat="43.505721000" lon="12.925397000"><ele>646.119000</ele><time>2009-07-28T09:19:25Z</time></trkpt><trkpt lat="43.505719000" lon="12.925395000"><ele>646.089000</ele><time>2009-07-28T09:19:27Z</time></trkpt><trkpt lat="43.505711000" lon="12.925389000"><ele>646.060000</ele><time>2009-07-28T09:19:31Z</time></trkpt><trkpt lat="43.505708000" lon="12.925387000"><ele>646.068000</ele><time>2009-07-28T09:19:33Z</time></trkpt><trkpt lat="43.505708000" lon="12.925387000"><ele>646.104000</ele><time>2009-07-28T09:19:37Z</time></trkpt><trkpt lat="43.505707000" lon="12.925386000"><ele>646.127000</ele><time>2009-07-28T09:19:39Z</time></trkpt><trkpt lat="43.505705000" lon="12.925384000"><ele>646.174000</ele><time>2009-07-28T09:19:43Z</time></trkpt><trkpt lat="43.505701000" lon="12.925381000"><ele>646.202000</ele><time>2009-07-28T09:19:45Z</time></trkpt><trkpt lat="43.505667000" lon="12.925367000"><ele>646.176000</ele><time>2009-07-28T09:19:49Z</time></trkpt><trkpt lat="43.505649000" lon="12.925349000"><ele>646.056000</ele><time>2009-07-28T09:19:51Z</time></trkpt><trkpt lat="43.505620000" lon="12.925319000"><ele>645.720000</ele><time>2009-07-28T09:19:55Z</time></trkpt><trkpt lat="43.505593000" lon="12.925315000"><ele>645.647000</ele><time>2009-07-28T09:19:57Z</time></trkpt><trkpt lat="43.505569000" lon="12.925284000"><ele>645.342000</ele><time>2009-07-28T09:20:01Z</time></trkpt><trkpt lat="43.505574000" lon="12.925281000"><ele>645.163000</ele><time>2009-07-28T09:20:03Z</time></trkpt><trkpt lat="43.505584000" lon="12.925289000"><ele>644.937000</ele><time>2009-07-28T09:20:07Z</time></trkpt><trkpt lat="43.505588000" lon="12.925292000"><ele>644.923000</ele><time>2009-07-28T09:20:09Z</time></trkpt><trkpt lat="43.505594000" lon="12.925312000"><ele>644.995000</ele><time>2009-07-28T09:20:13Z</time></trkpt><trkpt lat="43.505590000" lon="12.925321000"><ele>645.043000</ele><time>2009-07-28T09:20:15Z</time></trkpt><trkpt lat="43.505581000" lon="12.925317000"><ele>645.131000</ele><time>2009-07-28T09:20:19Z</time></trkpt><trkpt lat="43.505578000" lon="12.925314000"><ele>645.134000</ele><time>2009-07-28T09:20:21Z</time></trkpt><trkpt lat="43.505575000" lon="12.925307000"><ele>645.135000</ele><time>2009-07-28T09:20:25Z</time></trkpt><trkpt lat="43.505577000" lon="12.925291000"><ele>645.104000</ele><time>2009-07-28T09:20:27Z</time></trkpt><trkpt lat="43.505574000" lon="12.925270000"><ele>645.310000</ele><time>2009-07-28T09:20:31Z</time></trkpt><trkpt lat="43.505583000" lon="12.925269000"><ele>645.376000</ele><time>2009-07-28T09:20:33Z</time></trkpt><trkpt lat="43.505606000" lon="12.925275000"><ele>645.370000</ele><time>2009-07-28T09:20:37Z</time></trkpt><trkpt lat="43.505609000" lon="12.925277000"><ele>645.355000</ele><time>2009-07-28T09:20:39Z</time></trkpt><trkpt lat="43.505612000" lon="12.925279000"><ele>645.348000</ele><time>2009-07-28T09:20:43Z</time></trkpt><trkpt lat="43.505614000" lon="12.925280000"><ele>645.350000</ele><time>2009-07-28T09:20:45Z</time></trkpt><trkpt lat="43.505615000" lon="12.925281000"><ele>645.346000</ele><time>2009-07-28T09:20:49Z</time></trkpt><trkpt lat="43.505616000" lon="12.925281000"><ele>645.342000</ele><time>2009-07-28T09:20:51Z</time></trkpt><trkpt lat="43.505617000" lon="12.925283000"><ele>645.324000</ele><time>2009-07-28T09:20:55Z</time></trkpt><trkpt lat="43.505615000" lon="12.925281000"><ele>645.316000</ele><time>2009-07-28T09:20:57Z</time></trkpt><trkpt lat="43.505606000" lon="12.925276000"><ele>645.305000</ele><time>2009-07-28T09:21:01Z</time></trkpt><trkpt lat="43.505588000" lon="12.925280000"><ele>645.375000</ele><time>2009-07-28T09:21:03Z</time></trkpt><trkpt lat="43.505570000" lon="12.925279000"><ele>645.412000</ele><time>2009-07-28T09:21:07Z</time></trkpt><trkpt lat="43.505565000" lon="12.925281000"><ele>645.395000</ele><time>2009-07-28T09:21:09Z</time></trkpt><trkpt lat="43.505554000" lon="12.925289000"><ele>645.264000</ele><time>2009-07-28T09:21:13Z</time></trkpt><trkpt lat="43.505550000" lon="12.925288000"><ele>645.273000</ele><time>2009-07-28T09:21:15Z</time></trkpt><trkpt lat="43.505539000" lon="12.925277000"><ele>645.307000</ele><time>2009-07-28T09:21:19Z</time></trkpt><trkpt lat="43.505529000" lon="12.925275000"><ele>645.330000</ele><time>2009-07-28T09:21:21Z</time></trkpt><trkpt lat="43.505542000" lon="12.925281000"><ele>645.474000</ele><time>2009-07-28T09:21:25Z</time></trkpt><trkpt lat="43.505548000" lon="12.925282000"><ele>645.494000</ele><time>2009-07-28T09:21:27Z</time></trkpt><trkpt lat="43.505545000" lon="12.925282000"><ele>645.497000</ele><time>2009-07-28T09:21:31Z</time></trkpt><trkpt lat="43.505543000" lon="12.925280000"><ele>645.497000</ele><time>2009-07-28T09:21:33Z</time></trkpt><trkpt lat="43.505542000" lon="12.925279000"><ele>645.520000</ele><time>2009-07-28T09:21:37Z</time></trkpt><trkpt lat="43.505544000" lon="12.925280000"><ele>645.536000</ele><time>2009-07-28T09:21:39Z</time></trkpt><trkpt lat="43.505545000" lon="12.925281000"><ele>645.560000</ele><time>2009-07-28T09:21:43Z</time></trkpt><trkpt lat="43.505545000" lon="12.925282000"><ele>645.568000</ele><time>2009-07-28T09:21:45Z</time></trkpt><trkpt lat="43.505544000" lon="12.925280000"><ele>645.572000</ele><time>2009-07-28T09:21:49Z</time></trkpt><trkpt lat="43.505543000" lon="12.925278000"><ele>645.580000</ele><time>2009-07-28T09:21:51Z</time></trkpt><trkpt lat="43.505541000" lon="12.925276000"><ele>645.602000</ele><time>2009-07-28T09:21:55Z</time></trkpt><trkpt lat="43.505542000" lon="12.925276000"><ele>645.620000</ele><time>2009-07-28T09:21:57Z</time></trkpt><trkpt lat="43.505546000" lon="12.925279000"><ele>645.664000</ele><time>2009-07-28T09:22:01Z</time></trkpt><trkpt lat="43.505549000" lon="12.925281000"><ele>645.682000</ele><time>2009-07-28T09:22:03Z</time></trkpt><trkpt lat="43.505556000" lon="12.925286000"><ele>645.714000</ele><time>2009-07-28T09:22:07Z</time></trkpt><trkpt lat="43.505557000" lon="12.925287000"><ele>645.724000</ele><time>2009-07-28T09:22:09Z</time></trkpt><trkpt lat="43.505559000" lon="12.925290000"><ele>645.706000</ele><time>2009-07-28T09:22:13Z</time></trkpt><trkpt lat="43.505562000" lon="12.925293000"><ele>645.689000</ele><time>2009-07-28T09:22:15Z</time></trkpt><trkpt lat="43.505567000" lon="12.925297000"><ele>645.661000</ele><time>2009-07-28T09:22:19Z</time></trkpt><trkpt lat="43.505566000" lon="12.925297000"><ele>645.670000</ele><time>2009-07-28T09:22:21Z</time></trkpt><trkpt lat="43.505568000" lon="12.925298000"><ele>645.688000</ele><time>2009-07-28T09:22:25Z</time></trkpt><trkpt lat="43.505570000" lon="12.925300000"><ele>645.705000</ele><time>2009-07-28T09:22:27Z</time></trkpt><trkpt lat="43.505572000" lon="12.925302000"><ele>645.747000</ele><time>2009-07-28T09:22:31Z</time></trkpt><trkpt lat="43.505574000" lon="12.925303000"><ele>645.757000</ele><time>2009-07-28T09:22:33Z</time></trkpt><trkpt lat="43.505584000" lon="12.925310000"><ele>645.999000</ele><time>2009-07-28T09:22:37Z</time></trkpt><trkpt lat="43.505577000" lon="12.925313000"><ele>646.105000</ele><time>2009-07-28T09:22:39Z</time></trkpt><trkpt lat="43.505554000" lon="12.925354000"><ele>646.464000</ele><time>2009-07-28T09:22:43Z</time></trkpt><trkpt lat="43.505554000" lon="12.925355000"><ele>646.462000</ele><time>2009-07-28T09:22:45Z</time></trkpt><trkpt lat="43.505547000" lon="12.925351000"><ele>646.479000</ele><time>2009-07-28T09:22:49Z</time></trkpt><trkpt lat="43.505543000" lon="12.925348000"><ele>646.498000</ele><time>2009-07-28T09:22:51Z</time></trkpt><trkpt lat="43.505538000" lon="12.925343000"><ele>646.528000</ele><time>2009-07-28T09:22:55Z</time></trkpt><trkpt lat="43.505534000" lon="12.925340000"><ele>646.537000</ele><time>2009-07-28T09:22:57Z</time></trkpt><trkpt lat="43.505512000" lon="12.925345000"><ele>646.898000</ele><time>2009-07-28T09:23:01Z</time></trkpt><trkpt lat="43.505488000" lon="12.925377000"><ele>647.476000</ele><time>2009-07-28T09:23:03Z</time></trkpt><trkpt lat="43.505478000" lon="12.925374000"><ele>647.717000</ele><time>2009-07-28T09:23:07Z</time></trkpt><trkpt lat="43.505461000" lon="12.925363000"><ele>648.105000</ele><time>2009-07-28T09:23:09Z</time></trkpt><trkpt lat="43.505434000" lon="12.925352000"><ele>648.762000</ele><time>2009-07-28T09:23:13Z</time></trkpt><trkpt lat="43.505417000" lon="12.925350000"><ele>649.049000</ele><time>2009-07-28T09:23:15Z</time></trkpt><trkpt lat="43.505401000" lon="12.925355000"><ele>649.503000</ele><time>2009-07-28T09:23:19Z</time></trkpt><trkpt lat="43.505400000" lon="12.925356000"><ele>649.639000</ele><time>2009-07-28T09:23:21Z</time></trkpt><trkpt lat="43.505387000" lon="12.925359000"><ele>649.903000</ele><time>2009-07-28T09:23:25Z</time></trkpt><trkpt lat="43.505391000" lon="12.925355000"><ele>649.770000</ele><time>2009-07-28T09:23:27Z</time></trkpt><trkpt lat="43.505388000" lon="12.925350000"><ele>649.799000</ele><time>2009-07-28T09:23:31Z</time></trkpt><trkpt lat="43.505388000" lon="12.925351000"><ele>649.797000</ele><time>2009-07-28T09:23:33Z</time></trkpt><trkpt lat="43.505395000" lon="12.925357000"><ele>649.810000</ele><time>2009-07-28T09:23:37Z</time></trkpt><trkpt lat="43.505398000" lon="12.925359000"><ele>649.822000</ele><time>2009-07-28T09:23:39Z</time></trkpt><trkpt lat="43.505402000" lon="12.925361000"><ele>649.866000</ele><time>2009-07-28T09:23:43Z</time></trkpt><trkpt lat="43.505405000" lon="12.925363000"><ele>649.896000</ele><time>2009-07-28T09:23:45Z</time></trkpt><trkpt lat="43.505410000" lon="12.925365000"><ele>649.953000</ele><time>2009-07-28T09:23:49Z</time></trkpt><trkpt lat="43.505414000" lon="12.925368000"><ele>649.974000</ele><time>2009-07-28T09:23:51Z</time></trkpt><trkpt lat="43.505455000" lon="12.925358000"><ele>650.442000</ele><time>2009-07-28T09:23:55Z</time></trkpt><trkpt lat="43.505473000" lon="12.925349000"><ele>650.781000</ele><time>2009-07-28T09:23:57Z</time></trkpt><trkpt lat="43.505499000" lon="12.925357000"><ele>651.329000</ele><time>2009-07-28T09:24:01Z</time></trkpt><trkpt lat="43.505501000" lon="12.925361000"><ele>651.509000</ele><time>2009-07-28T09:24:03Z</time></trkpt><trkpt lat="43.505484000" lon="12.925370000"><ele>651.448000</ele><time>2009-07-28T09:24:07Z</time></trkpt><trkpt lat="43.505476000" lon="12.925372000"><ele>651.475000</ele><time>2009-07-28T09:24:09Z</time></trkpt><trkpt lat="43.505472000" lon="12.925368000"><ele>651.436000</ele><time>2009-07-28T09:24:13Z</time></trkpt><trkpt lat="43.505462000" lon="12.925358000"><ele>651.558000</ele><time>2009-07-28T09:24:15Z</time></trkpt><trkpt lat="43.505452000" lon="12.925310000"><ele>652.065000</ele><time>2009-07-28T09:24:19Z</time></trkpt><trkpt lat="43.505447000" lon="12.925307000"><ele>652.089000</ele><time>2009-07-28T09:24:21Z</time></trkpt><trkpt lat="43.505446000" lon="12.925290000"><ele>652.507000</ele><time>2009-07-28T09:24:25Z</time></trkpt><trkpt lat="43.505448000" lon="12.925281000"><ele>652.691000</ele><time>2009-07-28T09:24:27Z</time></trkpt><trkpt lat="43.505435000" lon="12.925278000"><ele>652.899000</ele><time>2009-07-28T09:24:31Z</time></trkpt><trkpt lat="43.505442000" lon="12.925282000"><ele>653.248000</ele><time>2009-07-28T09:24:33Z</time></trkpt><trkpt lat="43.505451000" lon="12.925275000"><ele>653.628000</ele><time>2009-07-28T09:24:37Z</time></trkpt><trkpt lat="43.505448000" lon="12.925274000"><ele>653.669000</ele><time>2009-07-28T09:24:39Z</time></trkpt><trkpt lat="43.505451000" lon="12.925281000"><ele>655.262000</ele><time>2009-07-28T09:24:43Z</time></trkpt><trkpt lat="43.505469000" lon="12.925294000"><ele>656.311000</ele><time>2009-07-28T09:24:45Z</time></trkpt><trkpt lat="43.505472000" lon="12.925295000"><ele>656.471000</ele><time>2009-07-28T09:24:49Z</time></trkpt><trkpt lat="43.505474000" lon="12.925297000"><ele>656.524000</ele><time>2009-07-28T09:24:51Z</time></trkpt><trkpt lat="43.505479000" lon="12.925300000"><ele>656.591000</ele><time>2009-07-28T09:24:55Z</time></trkpt><trkpt lat="43.505483000" lon="12.925302000"><ele>656.560000</ele><time>2009-07-28T09:24:57Z</time></trkpt><trkpt lat="43.505487000" lon="12.925306000"><ele>656.475000</ele><time>2009-07-28T09:25:01Z</time></trkpt><trkpt lat="43.505486000" lon="12.925305000"><ele>656.455000</ele><time>2009-07-28T09:25:03Z</time></trkpt><trkpt lat="43.505483000" lon="12.925303000"><ele>656.462000</ele><time>2009-07-28T09:25:07Z</time></trkpt><trkpt lat="43.505483000" lon="12.925303000"><ele>656.478000</ele><time>2009-07-28T09:25:09Z</time></trkpt><trkpt lat="43.505487000" lon="12.925304000"><ele>656.523000</ele><time>2009-07-28T09:25:13Z</time></trkpt><trkpt lat="43.505490000" lon="12.925305000"><ele>656.573000</ele><time>2009-07-28T09:25:15Z</time></trkpt><trkpt lat="43.505524000" lon="12.925290000"><ele>657.351000</ele><time>2009-07-28T09:25:19Z</time></trkpt><trkpt lat="43.505549000" lon="12.925286000"><ele>658.018000</ele><time>2009-07-28T09:25:21Z</time></trkpt><trkpt lat="43.505556000" lon="12.925304000"><ele>658.872000</ele><time>2009-07-28T09:25:25Z</time></trkpt><trkpt lat="43.505577000" lon="12.925292000"><ele>658.937000</ele><time>2009-07-28T09:25:27Z</time></trkpt><trkpt lat="43.505580000" lon="12.925293000"><ele>659.884000</ele><time>2009-07-28T09:25:31Z</time></trkpt><trkpt lat="43.505581000" lon="12.925293000"><ele>659.878000</ele><time>2009-07-28T09:25:33Z</time></trkpt><trkpt lat="43.505583000" lon="12.925294000"><ele>659.870000</ele><time>2009-07-28T09:25:37Z</time></trkpt><trkpt lat="43.505583000" lon="12.925293000"><ele>659.862000</ele><time>2009-07-28T09:25:39Z</time></trkpt><trkpt lat="43.505581000" lon="12.925292000"><ele>659.851000</ele><time>2009-07-28T09:25:43Z</time></trkpt><trkpt lat="43.505580000" lon="12.925291000"><ele>659.843000</ele><time>2009-07-28T09:25:45Z</time></trkpt><trkpt lat="43.505584000" lon="12.925292000"><ele>659.782000</ele><time>2009-07-28T09:25:49Z</time></trkpt><trkpt lat="43.505587000" lon="12.925294000"><ele>659.752000</ele><time>2009-07-28T09:25:51Z</time></trkpt><trkpt lat="43.505590000" lon="12.925297000"><ele>659.715000</ele><time>2009-07-28T09:25:55Z</time></trkpt><trkpt lat="43.505594000" lon="12.925298000"><ele>659.708000</ele><time>2009-07-28T09:25:57Z</time></trkpt><trkpt lat="43.505595000" lon="12.925299000"><ele>659.722000</ele><time>2009-07-28T09:26:01Z</time></trkpt><trkpt lat="43.505592000" lon="12.925297000"><ele>659.744000</ele><time>2009-07-28T09:26:03Z</time></trkpt><trkpt lat="43.505591000" lon="12.925297000"><ele>659.788000</ele><time>2009-07-28T09:26:07Z</time></trkpt><trkpt lat="43.505594000" lon="12.925299000"><ele>659.800000</ele><time>2009-07-28T09:26:09Z</time></trkpt><trkpt lat="43.505597000" lon="12.925301000"><ele>659.786000</ele><time>2009-07-28T09:26:13Z</time></trkpt><trkpt lat="43.505599000" lon="12.925303000"><ele>659.784000</ele><time>2009-07-28T09:26:15Z</time></trkpt><trkpt lat="43.505599000" lon="12.925304000"><ele>659.775000</ele><time>2009-07-28T09:26:19Z</time></trkpt><trkpt lat="43.505597000" lon="12.925302000"><ele>659.767000</ele><time>2009-07-28T09:26:21Z</time></trkpt><trkpt lat="43.505592000" lon="12.925299000"><ele>659.783000</ele><time>2009-07-28T09:26:25Z</time></trkpt><trkpt lat="43.505589000" lon="12.925297000"><ele>659.791000</ele><time>2009-07-28T09:26:27Z</time></trkpt><trkpt lat="43.505588000" lon="12.925296000"><ele>659.793000</ele><time>2009-07-28T09:26:31Z</time></trkpt><trkpt lat="43.505587000" lon="12.925295000"><ele>659.781000</ele><time>2009-07-28T09:26:33Z</time></trkpt><trkpt lat="43.505588000" lon="12.925297000"><ele>659.740000</ele><time>2009-07-28T09:26:37Z</time></trkpt><trkpt lat="43.505588000" lon="12.925297000"><ele>659.720000</ele><time>2009-07-28T09:26:39Z</time></trkpt><trkpt lat="43.505591000" lon="12.925299000"><ele>659.647000</ele><time>2009-07-28T09:26:43Z</time></trkpt><trkpt lat="43.505590000" lon="12.925299000"><ele>659.608000</ele><time>2009-07-28T09:26:45Z</time></trkpt><trkpt lat="43.505590000" lon="12.925299000"><ele>659.555000</ele><time>2009-07-28T09:26:49Z</time></trkpt><trkpt lat="43.505593000" lon="12.925300000"><ele>659.543000</ele><time>2009-07-28T09:26:51Z</time></trkpt><trkpt lat="43.505591000" lon="12.925312000"><ele>659.460000</ele><time>2009-07-28T09:26:55Z</time></trkpt><trkpt lat="43.505592000" lon="12.925313000"><ele>659.439000</ele><time>2009-07-28T09:26:57Z</time></trkpt><trkpt lat="43.505590000" lon="12.925311000"><ele>659.421000</ele><time>2009-07-28T09:27:01Z</time></trkpt><trkpt lat="43.505589000" lon="12.925311000"><ele>659.414000</ele><time>2009-07-28T09:27:03Z</time></trkpt><trkpt lat="43.505589000" lon="12.925313000"><ele>659.385000</ele><time>2009-07-28T09:27:07Z</time></trkpt><trkpt lat="43.505592000" lon="12.925315000"><ele>659.352000</ele><time>2009-07-28T09:27:09Z</time></trkpt><trkpt lat="43.505591000" lon="12.925315000"><ele>659.259000</ele><time>2009-07-28T09:27:13Z</time></trkpt><trkpt lat="43.505592000" lon="12.925315000"><ele>659.224000</ele><time>2009-07-28T09:27:15Z</time></trkpt><trkpt lat="43.505592000" lon="12.925315000"><ele>659.277000</ele><time>2009-07-28T09:27:19Z</time></trkpt><trkpt lat="43.505591000" lon="12.925314000"><ele>659.331000</ele><time>2009-07-28T09:27:21Z</time></trkpt><trkpt lat="43.505587000" lon="12.925311000"><ele>659.449000</ele><time>2009-07-28T09:27:25Z</time></trkpt><trkpt lat="43.505616000" lon="12.925269000"><ele>659.544000</ele><time>2009-07-28T09:27:27Z</time></trkpt><trkpt lat="43.505657000" lon="12.925233000"><ele>659.759000</ele><time>2009-07-28T09:27:31Z</time></trkpt><trkpt lat="43.505677000" lon="12.925231000"><ele>659.416000</ele><time>2009-07-28T09:27:33Z</time></trkpt><trkpt lat="43.505720000" lon="12.925286000"><ele>658.311000</ele><time>2009-07-28T09:27:37Z</time></trkpt><trkpt lat="43.505712000" lon="12.925303000"><ele>658.186000</ele><time>2009-07-28T09:27:39Z</time></trkpt><trkpt lat="43.505682000" lon="12.925339000"><ele>658.992000</ele><time>2009-07-28T09:27:43Z</time></trkpt><trkpt lat="43.505647000" lon="12.925368000"><ele>659.009000</ele><time>2009-07-28T09:27:45Z</time></trkpt><trkpt lat="43.505607000" lon="12.925394000"><ele>659.321000</ele><time>2009-07-28T09:27:49Z</time></trkpt><trkpt lat="43.505605000" lon="12.925397000"><ele>659.546000</ele><time>2009-07-28T09:27:51Z</time></trkpt><trkpt lat="43.505605000" lon="12.925398000"><ele>659.601000</ele><time>2009-07-28T09:27:55Z</time></trkpt><trkpt lat="43.505607000" lon="12.925399000"><ele>659.639000</ele><time>2009-07-28T09:27:57Z</time></trkpt><trkpt lat="43.505664000" lon="12.925375000"><ele>660.115000</ele><time>2009-07-28T09:28:01Z</time></trkpt><trkpt lat="43.505682000" lon="12.925334000"><ele>660.459000</ele><time>2009-07-28T09:28:03Z</time></trkpt><trkpt lat="43.505666000" lon="12.925266000"><ele>661.282000</ele><time>2009-07-28T09:28:07Z</time></trkpt><trkpt lat="43.505665000" lon="12.925264000"><ele>661.317000</ele><time>2009-07-28T09:28:09Z</time></trkpt><trkpt lat="43.505664000" lon="12.925261000"><ele>661.363000</ele><time>2009-07-28T09:28:13Z</time></trkpt><trkpt lat="43.505666000" lon="12.925255000"><ele>661.424000</ele><time>2009-07-28T09:28:15Z</time></trkpt><trkpt lat="43.505657000" lon="12.925194000"><ele>660.785000</ele><time>2009-07-28T09:28:19Z</time></trkpt><trkpt lat="43.505656000" lon="12.925194000"><ele>660.749000</ele><time>2009-07-28T09:28:21Z</time></trkpt><trkpt lat="43.505656000" lon="12.925195000"><ele>660.675000</ele><time>2009-07-28T09:28:25Z</time></trkpt><trkpt lat="43.505657000" lon="12.925196000"><ele>660.648000</ele><time>2009-07-28T09:28:27Z</time></trkpt><trkpt lat="43.505653000" lon="12.925193000"><ele>660.587000</ele><time>2009-07-28T09:28:31Z</time></trkpt><trkpt lat="43.505646000" lon="12.925195000"><ele>660.243000</ele><time>2009-07-28T09:28:33Z</time></trkpt><trkpt lat="43.505642000" lon="12.925210000"><ele>660.144000</ele><time>2009-07-28T09:28:37Z</time></trkpt><trkpt lat="43.505640000" lon="12.925210000"><ele>660.162000</ele><time>2009-07-28T09:28:39Z</time></trkpt><trkpt lat="43.505632000" lon="12.925218000"><ele>660.224000</ele><time>2009-07-28T09:28:43Z</time></trkpt><trkpt lat="43.505612000" lon="12.925238000"><ele>660.151000</ele><time>2009-07-28T09:28:45Z</time></trkpt><trkpt lat="43.505587000" lon="12.925257000"><ele>660.223000</ele><time>2009-07-28T09:28:49Z</time></trkpt><trkpt lat="43.505573000" lon="12.925272000"><ele>660.239000</ele><time>2009-07-28T09:28:51Z</time></trkpt><trkpt lat="43.505567000" lon="12.925278000"><ele>660.467000</ele><time>2009-07-28T09:28:55Z</time></trkpt><trkpt lat="43.505531000" lon="12.925312000"><ele>660.518000</ele><time>2009-07-28T09:28:57Z</time></trkpt><trkpt lat="43.505527000" lon="12.925309000"><ele>660.539000</ele><time>2009-07-28T09:29:01Z</time></trkpt><trkpt lat="43.505528000" lon="12.925308000"><ele>660.543000</ele><time>2009-07-28T09:29:03Z</time></trkpt><trkpt lat="43.505529000" lon="12.925308000"><ele>660.506000</ele><time>2009-07-28T09:29:07Z</time></trkpt><trkpt lat="43.505529000" lon="12.925308000"><ele>660.479000</ele><time>2009-07-28T09:29:09Z</time></trkpt><trkpt lat="43.505531000" lon="12.925308000"><ele>660.438000</ele><time>2009-07-28T09:29:13Z</time></trkpt><trkpt lat="43.505535000" lon="12.925311000"><ele>660.425000</ele><time>2009-07-28T09:29:15Z</time></trkpt><trkpt lat="43.505556000" lon="12.925325000"><ele>659.838000</ele><time>2009-07-28T09:29:19Z</time></trkpt><trkpt lat="43.505571000" lon="12.925328000"><ele>659.740000</ele><time>2009-07-28T09:29:21Z</time></trkpt><trkpt lat="43.505596000" lon="12.925308000"><ele>659.416000</ele><time>2009-07-28T09:29:25Z</time></trkpt><trkpt lat="43.505595000" lon="12.925314000"><ele>659.257000</ele><time>2009-07-28T09:29:27Z</time></trkpt><trkpt lat="43.505590000" lon="12.925310000"><ele>659.136000</ele><time>2009-07-28T09:29:31Z</time></trkpt><trkpt lat="43.505590000" lon="12.925310000"><ele>659.139000</ele><time>2009-07-28T09:29:33Z</time></trkpt><trkpt lat="43.505591000" lon="12.925310000"><ele>659.150000</ele><time>2009-07-28T09:29:37Z</time></trkpt><trkpt lat="43.505590000" lon="12.925309000"><ele>659.153000</ele><time>2009-07-28T09:29:39Z</time></trkpt><trkpt lat="43.505586000" lon="12.925306000"><ele>659.188000</ele><time>2009-07-28T09:29:43Z</time></trkpt><trkpt lat="43.505588000" lon="12.925308000"><ele>659.215000</ele><time>2009-07-28T09:29:45Z</time></trkpt><trkpt lat="43.505593000" lon="12.925310000"><ele>659.258000</ele><time>2009-07-28T09:29:49Z</time></trkpt><trkpt lat="43.505592000" lon="12.925309000"><ele>659.271000</ele><time>2009-07-28T09:29:51Z</time></trkpt><trkpt lat="43.505587000" lon="12.925304000"><ele>659.279000</ele><time>2009-07-28T09:29:55Z</time></trkpt><trkpt lat="43.505585000" lon="12.925303000"><ele>659.279000</ele><time>2009-07-28T09:29:57Z</time></trkpt><trkpt lat="43.505583000" lon="12.925300000"><ele>659.261000</ele><time>2009-07-28T09:30:01Z</time></trkpt><trkpt lat="43.505579000" lon="12.925298000"><ele>659.235000</ele><time>2009-07-28T09:30:03Z</time></trkpt><trkpt lat="43.505565000" lon="12.925290000"><ele>658.951000</ele><time>2009-07-28T09:30:07Z</time></trkpt><trkpt lat="43.505561000" lon="12.925288000"><ele>658.758000</ele><time>2009-07-28T09:30:09Z</time></trkpt><trkpt lat="43.505575000" lon="12.925287000"><ele>658.389000</ele><time>2009-07-28T09:30:13Z</time></trkpt><trkpt lat="43.505585000" lon="12.925284000"><ele>658.286000</ele><time>2009-07-28T09:30:15Z</time></trkpt><trkpt lat="43.505593000" lon="12.925284000"><ele>658.160000</ele><time>2009-07-28T09:30:19Z</time></trkpt><trkpt lat="43.505596000" lon="12.925286000"><ele>658.156000</ele><time>2009-07-28T09:30:21Z</time></trkpt><trkpt lat="43.505603000" lon="12.925291000"><ele>658.162000</ele><time>2009-07-28T09:30:25Z</time></trkpt><trkpt lat="43.505606000" lon="12.925293000"><ele>658.163000</ele><time>2009-07-28T09:30:27Z</time></trkpt><trkpt lat="43.505607000" lon="12.925294000"><ele>658.158000</ele><time>2009-07-28T09:30:31Z</time></trkpt><trkpt lat="43.505609000" lon="12.925296000"><ele>658.157000</ele><time>2009-07-28T09:30:33Z</time></trkpt><trkpt lat="43.505616000" lon="12.925300000"><ele>658.163000</ele><time>2009-07-28T09:30:37Z</time></trkpt><trkpt lat="43.505619000" lon="12.925312000"><ele>658.185000</ele><time>2009-07-28T09:30:39Z</time></trkpt><trkpt lat="43.505623000" lon="12.925296000"><ele>658.296000</ele><time>2009-07-28T09:30:43Z</time></trkpt><trkpt lat="43.505622000" lon="12.925294000"><ele>658.298000</ele><time>2009-07-28T09:30:45Z</time></trkpt><trkpt lat="43.505618000" lon="12.925292000"><ele>658.299000</ele><time>2009-07-28T09:30:49Z</time></trkpt><trkpt lat="43.505611000" lon="12.925292000"><ele>658.303000</ele><time>2009-07-28T09:30:51Z</time></trkpt><trkpt lat="43.505597000" lon="12.925307000"><ele>658.389000</ele><time>2009-07-28T09:30:55Z</time></trkpt><trkpt lat="43.505590000" lon="12.925321000"><ele>658.358000</ele><time>2009-07-28T09:30:57Z</time></trkpt><trkpt lat="43.505624000" lon="12.925298000"><ele>658.747000</ele><time>2009-07-28T09:31:01Z</time></trkpt><trkpt lat="43.505623000" lon="12.925298000"><ele>658.743000</ele><time>2009-07-28T09:31:03Z</time></trkpt><trkpt lat="43.505621000" lon="12.925302000"><ele>659.045000</ele><time>2009-07-28T09:31:07Z</time></trkpt><trkpt lat="43.505618000" lon="12.925302000"><ele>659.362000</ele><time>2009-07-28T09:31:09Z</time></trkpt><trkpt lat="43.505619000" lon="12.925305000"><ele>659.625000</ele><time>2009-07-28T09:31:13Z</time></trkpt><trkpt lat="43.505616000" lon="12.925303000"><ele>659.645000</ele><time>2009-07-28T09:31:15Z</time></trkpt><trkpt lat="43.505608000" lon="12.925302000"><ele>659.892000</ele><time>2009-07-28T09:31:19Z</time></trkpt><trkpt lat="43.505608000" lon="12.925320000"><ele>660.667000</ele><time>2009-07-28T09:31:21Z</time></trkpt><trkpt lat="43.505604000" lon="12.925318000"><ele>660.664000</ele><time>2009-07-28T09:31:25Z</time></trkpt><trkpt lat="43.505605000" lon="12.925318000"><ele>660.691000</ele><time>2009-07-28T09:31:27Z</time></trkpt><trkpt lat="43.505610000" lon="12.925305000"><ele>660.943000</ele><time>2009-07-28T09:31:31Z</time></trkpt><trkpt lat="43.505606000" lon="12.925306000"><ele>661.332000</ele><time>2009-07-28T09:31:33Z</time></trkpt><trkpt lat="43.505601000" lon="12.925294000"><ele>662.347000</ele><time>2009-07-28T09:31:37Z</time></trkpt><trkpt lat="43.505601000" lon="12.925294000"><ele>662.385000</ele><time>2009-07-28T09:31:39Z</time></trkpt><trkpt lat="43.505601000" lon="12.925279000"><ele>662.481000</ele><time>2009-07-28T09:31:43Z</time></trkpt><trkpt lat="43.505595000" lon="12.925281000"><ele>662.479000</ele><time>2009-07-28T09:31:45Z</time></trkpt><trkpt lat="43.505595000" lon="12.925283000"><ele>662.890000</ele><time>2009-07-28T09:31:49Z</time></trkpt><trkpt lat="43.505589000" lon="12.925275000"><ele>662.737000</ele><time>2009-07-28T09:31:51Z</time></trkpt><trkpt lat="43.505579000" lon="12.925270000"><ele>663.093000</ele><time>2009-07-28T09:31:55Z</time></trkpt><trkpt lat="43.505584000" lon="12.925260000"><ele>663.357000</ele><time>2009-07-28T09:31:57Z</time></trkpt><trkpt lat="43.505604000" lon="12.925253000"><ele>663.285000</ele><time>2009-07-28T09:32:01Z</time></trkpt><trkpt lat="43.505609000" lon="12.925264000"><ele>663.279000</ele><time>2009-07-28T09:32:03Z</time></trkpt><trkpt lat="43.505619000" lon="12.925273000"><ele>663.363000</ele><time>2009-07-28T09:32:07Z</time></trkpt><trkpt lat="43.505623000" lon="12.925275000"><ele>663.376000</ele><time>2009-07-28T09:32:09Z</time></trkpt><trkpt lat="43.505641000" lon="12.925288000"><ele>663.553000</ele><time>2009-07-28T09:32:13Z</time></trkpt><trkpt lat="43.505652000" lon="12.925282000"><ele>663.655000</ele><time>2009-07-28T09:32:15Z</time></trkpt><trkpt lat="43.505651000" lon="12.925282000"><ele>663.690000</ele><time>2009-07-28T09:32:19Z</time></trkpt><trkpt lat="43.505651000" lon="12.925281000"><ele>663.701000</ele><time>2009-07-28T09:32:21Z</time></trkpt><trkpt lat="43.505650000" lon="12.925280000"><ele>663.708000</ele><time>2009-07-28T09:32:25Z</time></trkpt><trkpt lat="43.505652000" lon="12.925281000"><ele>663.723000</ele><time>2009-07-28T09:32:27Z</time></trkpt><trkpt lat="43.505652000" lon="12.925281000"><ele>663.755000</ele><time>2009-07-28T09:32:31Z</time></trkpt><trkpt lat="43.505650000" lon="12.925280000"><ele>663.774000</ele><time>2009-07-28T09:32:33Z</time></trkpt><trkpt lat="43.505656000" lon="12.925273000"><ele>663.148000</ele><time>2009-07-28T09:32:37Z</time></trkpt><trkpt lat="43.505675000" lon="12.925266000"><ele>663.174000</ele><time>2009-07-28T09:32:39Z</time></trkpt><trkpt lat="43.505679000" lon="12.925252000"><ele>662.848000</ele><time>2009-07-28T09:32:43Z</time></trkpt><trkpt lat="43.505681000" lon="12.925231000"><ele>662.529000</ele><time>2009-07-28T09:32:45Z</time></trkpt><trkpt lat="43.505660000" lon="12.925224000"><ele>662.472000</ele><time>2009-07-28T09:32:49Z</time></trkpt><trkpt lat="43.505659000" lon="12.925224000"><ele>662.456000</ele><time>2009-07-28T09:32:51Z</time></trkpt><trkpt lat="43.505663000" lon="12.925227000"><ele>662.452000</ele><time>2009-07-28T09:32:55Z</time></trkpt><trkpt lat="43.505664000" lon="12.925228000"><ele>662.465000</ele><time>2009-07-28T09:32:57Z</time></trkpt><trkpt lat="43.505660000" lon="12.925225000"><ele>662.474000</ele><time>2009-07-28T09:33:01Z</time></trkpt><trkpt lat="43.505656000" lon="12.925222000"><ele>662.469000</ele><time>2009-07-28T09:33:03Z</time></trkpt><trkpt lat="43.505652000" lon="12.925219000"><ele>662.471000</ele><time>2009-07-28T09:33:07Z</time></trkpt><trkpt lat="43.505650000" lon="12.925218000"><ele>662.465000</ele><time>2009-07-28T09:33:09Z</time></trkpt><trkpt lat="43.505651000" lon="12.925219000"><ele>662.460000</ele><time>2009-07-28T09:33:13Z</time></trkpt><trkpt lat="43.505652000" lon="12.925220000"><ele>662.470000</ele><time>2009-07-28T09:33:15Z</time></trkpt><trkpt lat="43.505648000" lon="12.925218000"><ele>662.505000</ele><time>2009-07-28T09:33:19Z</time></trkpt><trkpt lat="43.505637000" lon="12.925216000"><ele>662.457000</ele><time>2009-07-28T09:33:21Z</time></trkpt><trkpt lat="43.505629000" lon="12.925214000"><ele>662.588000</ele><time>2009-07-28T09:33:25Z</time></trkpt><trkpt lat="43.505610000" lon="12.925228000"><ele>662.738000</ele><time>2009-07-28T09:33:27Z</time></trkpt><trkpt lat="43.505592000" lon="12.925232000"><ele>662.919000</ele><time>2009-07-28T09:33:31Z</time></trkpt><trkpt lat="43.505581000" lon="12.925240000"><ele>662.909000</ele><time>2009-07-28T09:33:33Z</time></trkpt><trkpt lat="43.505561000" lon="12.925235000"><ele>663.065000</ele><time>2009-07-28T09:33:37Z</time></trkpt><trkpt lat="43.505561000" lon="12.925234000"><ele>663.098000</ele><time>2009-07-28T09:33:39Z</time></trkpt><trkpt lat="43.505563000" lon="12.925245000"><ele>663.111000</ele><time>2009-07-28T09:33:43Z</time></trkpt><trkpt lat="43.505553000" lon="12.925256000"><ele>663.211000</ele><time>2009-07-28T09:33:45Z</time></trkpt><trkpt lat="43.505548000" lon="12.925264000"><ele>663.153000</ele><time>2009-07-28T09:33:49Z</time></trkpt><trkpt lat="43.505549000" lon="12.925265000"><ele>663.168000</ele><time>2009-07-28T09:33:51Z</time></trkpt><trkpt lat="43.505549000" lon="12.925266000"><ele>663.249000</ele><time>2009-07-28T09:33:55Z</time></trkpt><trkpt lat="43.505548000" lon="12.925265000"><ele>663.281000</ele><time>2009-07-28T09:33:57Z</time></trkpt><trkpt lat="43.505544000" lon="12.925263000"><ele>663.317000</ele><time>2009-07-28T09:34:01Z</time></trkpt><trkpt lat="43.505542000" lon="12.925261000"><ele>663.326000</ele><time>2009-07-28T09:34:03Z</time></trkpt><trkpt lat="43.505537000" lon="12.925258000"><ele>663.333000</ele><time>2009-07-28T09:34:07Z</time></trkpt><trkpt lat="43.505537000" lon="12.925258000"><ele>663.323000</ele><time>2009-07-28T09:34:09Z</time></trkpt><trkpt lat="43.505537000" lon="12.925258000"><ele>663.292000</ele><time>2009-07-28T09:34:13Z</time></trkpt><trkpt lat="43.505536000" lon="12.925258000"><ele>663.284000</ele><time>2009-07-28T09:34:15Z</time></trkpt><trkpt lat="43.505534000" lon="12.925257000"><ele>663.268000</ele><time>2009-07-28T09:34:19Z</time></trkpt><trkpt lat="43.505533000" lon="12.925257000"><ele>663.258000</ele><time>2009-07-28T09:34:21Z</time></trkpt><trkpt lat="43.505528000" lon="12.925253000"><ele>663.206000</ele><time>2009-07-28T09:34:25Z</time></trkpt><trkpt lat="43.505530000" lon="12.925255000"><ele>663.162000</ele><time>2009-07-28T09:34:27Z</time></trkpt><trkpt lat="43.505536000" lon="12.925258000"><ele>663.108000</ele><time>2009-07-28T09:34:31Z</time></trkpt><trkpt lat="43.505588000" lon="12.925265000"><ele>663.024000</ele><time>2009-07-28T09:34:33Z</time></trkpt><trkpt lat="43.505625000" lon="12.925275000"><ele>662.540000</ele><time>2009-07-28T09:34:37Z</time></trkpt><trkpt lat="43.505629000" lon="12.925277000"><ele>662.539000</ele><time>2009-07-28T09:34:39Z</time></trkpt><trkpt lat="43.505632000" lon="12.925279000"><ele>662.576000</ele><time>2009-07-28T09:34:43Z</time></trkpt><trkpt lat="43.505631000" lon="12.925279000"><ele>662.619000</ele><time>2009-07-28T09:34:45Z</time></trkpt><trkpt lat="43.505630000" lon="12.925278000"><ele>662.670000</ele><time>2009-07-28T09:34:49Z</time></trkpt><trkpt lat="43.505631000" lon="12.925279000"><ele>662.682000</ele><time>2009-07-28T09:34:51Z</time></trkpt><trkpt lat="43.505629000" lon="12.925278000"><ele>662.679000</ele><time>2009-07-28T09:34:55Z</time></trkpt><trkpt lat="43.505626000" lon="12.925276000"><ele>662.669000</ele><time>2009-07-28T09:34:57Z</time></trkpt><trkpt lat="43.505621000" lon="12.925273000"><ele>662.651000</ele><time>2009-07-28T09:35:01Z</time></trkpt><trkpt lat="43.505622000" lon="12.925274000"><ele>662.651000</ele><time>2009-07-28T09:35:03Z</time></trkpt><trkpt lat="43.505627000" lon="12.925279000"><ele>662.679000</ele><time>2009-07-28T09:35:07Z</time></trkpt><trkpt lat="43.505629000" lon="12.925303000"><ele>662.578000</ele><time>2009-07-28T09:35:09Z</time></trkpt><trkpt lat="43.505642000" lon="12.925358000"><ele>662.369000</ele><time>2009-07-28T09:35:13Z</time></trkpt><trkpt lat="43.505635000" lon="12.925366000"><ele>662.374000</ele><time>2009-07-28T09:35:15Z</time></trkpt><trkpt lat="43.505609000" lon="12.925383000"><ele>662.197000</ele><time>2009-07-28T09:35:19Z</time></trkpt><trkpt lat="43.505607000" lon="12.925382000"><ele>662.202000</ele><time>2009-07-28T09:35:21Z</time></trkpt><trkpt lat="43.505601000" lon="12.925378000"><ele>662.186000</ele><time>2009-07-28T09:35:25Z</time></trkpt><trkpt lat="43.505589000" lon="12.925382000"><ele>662.087000</ele><time>2009-07-28T09:35:27Z</time></trkpt><trkpt lat="43.505544000" lon="12.925416000"><ele>661.839000</ele><time>2009-07-28T09:35:31Z</time></trkpt><trkpt lat="43.505545000" lon="12.925402000"><ele>661.649000</ele><time>2009-07-28T09:35:33Z</time></trkpt><trkpt lat="43.505548000" lon="12.925367000"><ele>661.325000</ele><time>2009-07-28T09:35:37Z</time></trkpt><trkpt lat="43.505562000" lon="12.925351000"><ele>661.189000</ele><time>2009-07-28T09:35:39Z</time></trkpt><trkpt lat="43.505613000" lon="12.925333000"><ele>660.617000</ele><time>2009-07-28T09:35:43Z</time></trkpt><trkpt lat="43.505618000" lon="12.925329000"><ele>660.178000</ele><time>2009-07-28T09:35:45Z</time></trkpt><trkpt lat="43.505613000" lon="12.925322000"><ele>660.073000</ele><time>2009-07-28T09:35:49Z</time></trkpt><trkpt lat="43.505604000" lon="12.925336000"><ele>660.163000</ele><time>2009-07-28T09:35:51Z</time></trkpt><trkpt lat="43.505592000" lon="12.925362000"><ele>660.164000</ele><time>2009-07-28T09:35:55Z</time></trkpt><trkpt lat="43.505593000" lon="12.925363000"><ele>660.174000</ele><time>2009-07-28T09:35:57Z</time></trkpt><trkpt lat="43.505596000" lon="12.925365000"><ele>660.196000</ele><time>2009-07-28T09:36:01Z</time></trkpt><trkpt lat="43.505599000" lon="12.925366000"><ele>660.210000</ele><time>2009-07-28T09:36:03Z</time></trkpt><trkpt lat="43.505602000" lon="12.925367000"><ele>660.207000</ele><time>2009-07-28T09:36:07Z</time></trkpt><trkpt lat="43.505600000" lon="12.925365000"><ele>660.189000</ele><time>2009-07-28T09:36:09Z</time></trkpt><trkpt lat="43.505590000" lon="12.925324000"><ele>660.211000</ele><time>2009-07-28T09:36:13Z</time></trkpt><trkpt lat="43.505593000" lon="12.925312000"><ele>660.299000</ele><time>2009-07-28T09:36:15Z</time></trkpt><trkpt lat="43.505620000" lon="12.925322000"><ele>660.784000</ele><time>2009-07-28T09:36:19Z</time></trkpt><trkpt lat="43.505618000" lon="12.925317000"><ele>660.936000</ele><time>2009-07-28T09:36:21Z</time></trkpt><trkpt lat="43.505612000" lon="12.925313000"><ele>660.921000</ele><time>2009-07-28T09:36:25Z</time></trkpt><trkpt lat="43.505611000" lon="12.925312000"><ele>660.913000</ele><time>2009-07-28T09:36:27Z</time></trkpt><trkpt lat="43.505618000" lon="12.925322000"><ele>660.837000</ele><time>2009-07-28T09:36:31Z</time></trkpt><trkpt lat="43.505628000" lon="12.925330000"><ele>660.643000</ele><time>2009-07-28T09:36:33Z</time></trkpt><trkpt lat="43.505656000" lon="12.925363000"><ele>660.258000</ele><time>2009-07-28T09:36:37Z</time></trkpt><trkpt lat="43.505662000" lon="12.925345000"><ele>659.844000</ele><time>2009-07-28T09:36:39Z</time></trkpt><trkpt lat="43.505664000" lon="12.925330000"><ele>659.387000</ele><time>2009-07-28T09:36:43Z</time></trkpt><trkpt lat="43.505661000" lon="12.925328000"><ele>659.343000</ele><time>2009-07-28T09:36:45Z</time></trkpt><trkpt lat="43.505656000" lon="12.925324000"><ele>659.327000</ele><time>2009-07-28T09:36:49Z</time></trkpt><trkpt lat="43.505656000" lon="12.925324000"><ele>659.370000</ele><time>2009-07-28T09:36:51Z</time></trkpt><trkpt lat="43.505657000" lon="12.925323000"><ele>659.522000</ele><time>2009-07-28T09:36:55Z</time></trkpt><trkpt lat="43.505655000" lon="12.925322000"><ele>659.585000</ele><time>2009-07-28T09:36:57Z</time></trkpt><trkpt lat="43.505648000" lon="12.925316000"><ele>659.660000</ele><time>2009-07-28T09:37:01Z</time></trkpt><trkpt lat="43.505645000" lon="12.925313000"><ele>659.676000</ele><time>2009-07-28T09:37:03Z</time></trkpt><trkpt lat="43.505634000" lon="12.925281000"><ele>659.901000</ele><time>2009-07-28T09:37:07Z</time></trkpt><trkpt lat="43.505627000" lon="12.925265000"><ele>659.705000</ele><time>2009-07-28T09:37:09Z</time></trkpt><trkpt lat="43.505607000" lon="12.925261000"><ele>659.605000</ele><time>2009-07-28T09:37:13Z</time></trkpt><trkpt lat="43.505607000" lon="12.925275000"><ele>659.780000</ele><time>2009-07-28T09:37:15Z</time></trkpt><trkpt lat="43.505615000" lon="12.925281000"><ele>659.768000</ele><time>2009-07-28T09:37:19Z</time></trkpt><trkpt lat="43.505612000" lon="12.925279000"><ele>659.730000</ele><time>2009-07-28T09:37:21Z</time></trkpt><trkpt lat="43.505617000" lon="12.925281000"><ele>659.671000</ele><time>2009-07-28T09:37:25Z</time></trkpt><trkpt lat="43.505615000" lon="12.925279000"><ele>659.384000</ele><time>2009-07-28T09:37:27Z</time></trkpt><trkpt lat="43.505606000" lon="12.925272000"><ele>659.140000</ele><time>2009-07-28T09:37:31Z</time></trkpt><trkpt lat="43.505627000" lon="12.925248000"><ele>658.749000</ele><time>2009-07-28T09:37:33Z</time></trkpt><trkpt lat="43.505639000" lon="12.925270000"><ele>658.738000</ele><time>2009-07-28T09:37:37Z</time></trkpt><trkpt lat="43.505644000" lon="12.925273000"><ele>658.763000</ele><time>2009-07-28T09:37:39Z</time></trkpt><trkpt lat="43.505646000" lon="12.925294000"><ele>658.344000</ele><time>2009-07-28T09:37:43Z</time></trkpt><trkpt lat="43.505645000" lon="12.925297000"><ele>658.108000</ele><time>2009-07-28T09:37:45Z</time></trkpt><trkpt lat="43.505643000" lon="12.925302000"><ele>658.103000</ele><time>2009-07-28T09:37:49Z</time></trkpt><trkpt lat="43.505643000" lon="12.925302000"><ele>658.109000</ele><time>2009-07-28T09:37:51Z</time></trkpt><trkpt lat="43.505645000" lon="12.925303000"><ele>658.082000</ele><time>2009-07-28T09:37:55Z</time></trkpt><trkpt lat="43.505647000" lon="12.925304000"><ele>658.056000</ele><time>2009-07-28T09:37:57Z</time></trkpt><trkpt lat="43.505652000" lon="12.925306000"><ele>658.004000</ele><time>2009-07-28T09:38:01Z</time></trkpt><trkpt lat="43.505655000" lon="12.925307000"><ele>657.976000</ele><time>2009-07-28T09:38:03Z</time></trkpt><trkpt lat="43.505651000" lon="12.925305000"><ele>657.971000</ele><time>2009-07-28T09:38:07Z</time></trkpt><trkpt lat="43.505647000" lon="12.925303000"><ele>657.968000</ele><time>2009-07-28T09:38:09Z</time></trkpt><trkpt lat="43.505641000" lon="12.925299000"><ele>657.952000</ele><time>2009-07-28T09:38:13Z</time></trkpt><trkpt lat="43.505637000" lon="12.925296000"><ele>657.955000</ele><time>2009-07-28T09:38:15Z</time></trkpt><trkpt lat="43.505636000" lon="12.925296000"><ele>657.974000</ele><time>2009-07-28T09:38:19Z</time></trkpt><trkpt lat="43.505636000" lon="12.925296000"><ele>658.000000</ele><time>2009-07-28T09:38:21Z</time></trkpt><trkpt lat="43.505638000" lon="12.925297000"><ele>658.073000</ele><time>2009-07-28T09:38:25Z</time></trkpt><trkpt lat="43.505642000" lon="12.925299000"><ele>658.107000</ele><time>2009-07-28T09:38:27Z</time></trkpt><trkpt lat="43.505643000" lon="12.925299000"><ele>658.132000</ele><time>2009-07-28T09:38:31Z</time></trkpt><trkpt lat="43.505640000" lon="12.925297000"><ele>658.141000</ele><time>2009-07-28T09:38:33Z</time></trkpt><trkpt lat="43.505635000" lon="12.925293000"><ele>658.141000</ele><time>2009-07-28T09:38:37Z</time></trkpt><trkpt lat="43.505635000" lon="12.925293000"><ele>658.141000</ele><time>2009-07-28T09:38:39Z</time></trkpt><trkpt lat="43.505632000" lon="12.925291000"><ele>658.167000</ele><time>2009-07-28T09:38:43Z</time></trkpt><trkpt lat="43.505631000" lon="12.925290000"><ele>658.179000</ele><time>2009-07-28T09:38:45Z</time></trkpt><trkpt lat="43.505632000" lon="12.925293000"><ele>658.255000</ele><time>2009-07-28T09:38:49Z</time></trkpt><trkpt lat="43.505634000" lon="12.925294000"><ele>658.289000</ele><time>2009-07-28T09:38:51Z</time></trkpt><trkpt lat="43.505630000" lon="12.925292000"><ele>658.326000</ele><time>2009-07-28T09:38:55Z</time></trkpt><trkpt lat="43.505628000" lon="12.925291000"><ele>658.633000</ele><time>2009-07-28T09:38:57Z</time></trkpt><trkpt lat="43.505609000" lon="12.925290000"><ele>659.237000</ele><time>2009-07-28T09:39:01Z</time></trkpt><trkpt lat="43.505599000" lon="12.925292000"><ele>659.329000</ele><time>2009-07-28T09:39:03Z</time></trkpt><trkpt lat="43.505606000" lon="12.925300000"><ele>658.984000</ele><time>2009-07-28T09:39:07Z</time></trkpt><trkpt lat="43.505622000" lon="12.925311000"><ele>658.828000</ele><time>2009-07-28T09:39:09Z</time></trkpt><trkpt lat="43.505609000" lon="12.925294000"><ele>658.943000</ele><time>2009-07-28T09:39:13Z</time></trkpt><trkpt lat="43.505610000" lon="12.925296000"><ele>658.952000</ele><time>2009-07-28T09:39:15Z</time></trkpt><trkpt lat="43.505596000" lon="12.925289000"><ele>658.903000</ele><time>2009-07-28T09:39:19Z</time></trkpt><trkpt lat="43.505591000" lon="12.925290000"><ele>658.841000</ele><time>2009-07-28T09:39:21Z</time></trkpt><trkpt lat="43.505605000" lon="12.925276000"><ele>658.769000</ele><time>2009-07-28T09:39:25Z</time></trkpt><trkpt lat="43.505605000" lon="12.925275000"><ele>658.765000</ele><time>2009-07-28T09:39:27Z</time></trkpt><trkpt lat="43.505611000" lon="12.925277000"><ele>658.764000</ele><time>2009-07-28T09:39:31Z</time></trkpt><trkpt lat="43.505626000" lon="12.925268000"><ele>658.764000</ele><time>2009-07-28T09:39:33Z</time></trkpt><trkpt lat="43.505649000" lon="12.925247000"><ele>658.775000</ele><time>2009-07-28T09:39:37Z</time></trkpt><trkpt lat="43.505658000" lon="12.925227000"><ele>658.788000</ele><time>2009-07-28T09:39:39Z</time></trkpt><trkpt lat="43.505670000" lon="12.925181000"><ele>658.742000</ele><time>2009-07-28T09:39:43Z</time></trkpt><trkpt lat="43.505684000" lon="12.925160000"><ele>658.720000</ele><time>2009-07-28T09:39:45Z</time></trkpt><trkpt lat="43.505738000" lon="12.925136000"><ele>658.800000</ele><time>2009-07-28T09:39:49Z</time></trkpt><trkpt lat="43.505754000" lon="12.925124000"><ele>658.866000</ele><time>2009-07-28T09:39:51Z</time></trkpt><trkpt lat="43.505809000" lon="12.925097000"><ele>658.974000</ele><time>2009-07-28T09:39:55Z</time></trkpt><trkpt lat="43.505832000" lon="12.925094000"><ele>659.041000</ele><time>2009-07-28T09:39:57Z</time></trkpt><trkpt lat="43.505871000" lon="12.925096000"><ele>659.082000</ele><time>2009-07-28T09:40:01Z</time></trkpt><trkpt lat="43.505894000" lon="12.925107000"><ele>659.064000</ele><time>2009-07-28T09:40:03Z</time></trkpt><trkpt lat="43.505921000" lon="12.925213000"><ele>658.639000</ele><time>2009-07-28T09:40:07Z</time></trkpt><trkpt lat="43.505908000" lon="12.925268000"><ele>656.755000</ele><time>2009-07-28T09:40:09Z</time></trkpt><trkpt lat="43.505909000" lon="12.925329000"><ele>657.306000</ele><time>2009-07-28T09:40:13Z</time></trkpt><trkpt lat="43.505910000" lon="12.925349000"><ele>657.065000</ele><time>2009-07-28T09:40:15Z</time></trkpt><trkpt lat="43.505894000" lon="12.925350000"><ele>655.802000</ele><time>2009-07-28T09:40:19Z</time></trkpt><trkpt lat="43.505892000" lon="12.925350000"><ele>655.851000</ele><time>2009-07-28T09:40:21Z</time></trkpt><trkpt lat="43.505891000" lon="12.925349000"><ele>655.863000</ele><time>2009-07-28T09:40:25Z</time></trkpt><trkpt lat="43.505892000" lon="12.925349000"><ele>655.822000</ele><time>2009-07-28T09:40:27Z</time></trkpt><trkpt lat="43.505896000" lon="12.925352000"><ele>655.362000</ele><time>2009-07-28T09:40:31Z</time></trkpt><trkpt lat="43.505881000" lon="12.925378000"><ele>654.417000</ele><time>2009-07-28T09:40:33Z</time></trkpt><trkpt lat="43.505891000" lon="12.925403000"><ele>653.395000</ele><time>2009-07-28T09:40:37Z</time></trkpt><trkpt lat="43.505892000" lon="12.925412000"><ele>652.984000</ele><time>2009-07-28T09:40:39Z</time></trkpt><trkpt lat="43.505895000" lon="12.925472000"><ele>651.841000</ele><time>2009-07-28T09:40:43Z</time></trkpt><trkpt lat="43.505903000" lon="12.925499000"><ele>651.124000</ele><time>2009-07-28T09:40:45Z</time></trkpt><trkpt lat="43.505906000" lon="12.925525000"><ele>649.442000</ele><time>2009-07-28T09:40:49Z</time></trkpt><trkpt lat="43.505902000" lon="12.925558000"><ele>649.234000</ele><time>2009-07-28T09:40:51Z</time></trkpt><trkpt lat="43.505929000" lon="12.925596000"><ele>648.827000</ele><time>2009-07-28T09:40:55Z</time></trkpt><trkpt lat="43.505936000" lon="12.925615000"><ele>648.732000</ele><time>2009-07-28T09:40:57Z</time></trkpt><trkpt lat="43.505944000" lon="12.925664000"><ele>647.678000</ele><time>2009-07-28T09:41:01Z</time></trkpt><trkpt lat="43.505952000" lon="12.925692000"><ele>647.433000</ele><time>2009-07-28T09:41:03Z</time></trkpt><trkpt lat="43.505968000" lon="12.925722000"><ele>647.138000</ele><time>2009-07-28T09:41:07Z</time></trkpt><trkpt lat="43.505982000" lon="12.925740000"><ele>646.907000</ele><time>2009-07-28T09:41:09Z</time></trkpt><trkpt lat="43.505992000" lon="12.925776000"><ele>646.906000</ele><time>2009-07-28T09:41:13Z</time></trkpt><trkpt lat="43.506000000" lon="12.925794000"><ele>646.893000</ele><time>2009-07-28T09:41:15Z</time></trkpt><trkpt lat="43.506006000" lon="12.925839000"><ele>646.952000</ele><time>2009-07-28T09:41:19Z</time></trkpt><trkpt lat="43.506015000" lon="12.925846000"><ele>646.868000</ele><time>2009-07-28T09:41:21Z</time></trkpt><trkpt lat="43.506027000" lon="12.925874000"><ele>646.747000</ele><time>2009-07-28T09:41:25Z</time></trkpt><trkpt lat="43.506032000" lon="12.925890000"><ele>646.729000</ele><time>2009-07-28T09:41:27Z</time></trkpt><trkpt lat="43.506035000" lon="12.925918000"><ele>646.682000</ele><time>2009-07-28T09:41:31Z</time></trkpt><trkpt lat="43.506051000" lon="12.925935000"><ele>646.748000</ele><time>2009-07-28T09:41:33Z</time></trkpt><trkpt lat="43.506045000" lon="12.926001000"><ele>646.755000</ele><time>2009-07-28T09:41:37Z</time></trkpt><trkpt lat="43.506057000" lon="12.926029000"><ele>646.796000</ele><time>2009-07-28T09:41:39Z</time></trkpt><trkpt lat="43.506059000" lon="12.926076000"><ele>646.827000</ele><time>2009-07-28T09:41:43Z</time></trkpt><trkpt lat="43.506063000" lon="12.926095000"><ele>646.896000</ele><time>2009-07-28T09:41:45Z</time></trkpt><trkpt lat="43.506087000" lon="12.926143000"><ele>646.915000</ele><time>2009-07-28T09:41:49Z</time></trkpt><trkpt lat="43.506096000" lon="12.926152000"><ele>646.917000</ele><time>2009-07-28T09:41:51Z</time></trkpt><trkpt lat="43.506121000" lon="12.926141000"><ele>646.907000</ele><time>2009-07-28T09:41:55Z</time></trkpt><trkpt lat="43.506124000" lon="12.926141000"><ele>646.939000</ele><time>2009-07-28T09:41:57Z</time></trkpt><trkpt lat="43.506137000" lon="12.926150000"><ele>646.984000</ele><time>2009-07-28T09:42:01Z</time></trkpt><trkpt lat="43.506144000" lon="12.926153000"><ele>647.000000</ele><time>2009-07-28T09:42:03Z</time></trkpt><trkpt lat="43.506169000" lon="12.926170000"><ele>647.056000</ele><time>2009-07-28T09:42:07Z</time></trkpt><trkpt lat="43.506185000" lon="12.926173000"><ele>647.050000</ele><time>2009-07-28T09:42:09Z</time></trkpt><trkpt lat="43.506234000" lon="12.926188000"><ele>647.090000</ele><time>2009-07-28T09:42:13Z</time></trkpt><trkpt lat="43.506257000" lon="12.926197000"><ele>647.132000</ele><time>2009-07-28T09:42:15Z</time></trkpt><trkpt lat="43.506289000" lon="12.926217000"><ele>647.196000</ele><time>2009-07-28T09:42:19Z</time></trkpt><trkpt lat="43.506309000" lon="12.926227000"><ele>647.225000</ele><time>2009-07-28T09:42:21Z</time></trkpt><trkpt lat="43.506356000" lon="12.926226000"><ele>647.260000</ele><time>2009-07-28T09:42:25Z</time></trkpt><trkpt lat="43.506375000" lon="12.926231000"><ele>647.255000</ele><time>2009-07-28T09:42:27Z</time></trkpt><trkpt lat="43.506391000" lon="12.926257000"><ele>647.258000</ele><time>2009-07-28T09:42:31Z</time></trkpt><trkpt lat="43.506415000" lon="12.926252000"><ele>647.258000</ele><time>2009-07-28T09:42:33Z</time></trkpt><trkpt lat="43.506475000" lon="12.926252000"><ele>647.235000</ele><time>2009-07-28T09:42:37Z</time></trkpt><trkpt lat="43.506503000" lon="12.926250000"><ele>647.233000</ele><time>2009-07-28T09:42:39Z</time></trkpt><trkpt lat="43.506555000" lon="12.926235000"><ele>647.291000</ele><time>2009-07-28T09:42:43Z</time></trkpt><trkpt lat="43.506565000" lon="12.926237000"><ele>647.306000</ele><time>2009-07-28T09:42:45Z</time></trkpt><trkpt lat="43.506596000" lon="12.926249000"><ele>647.343000</ele><time>2009-07-28T09:42:49Z</time></trkpt><trkpt lat="43.506618000" lon="12.926238000"><ele>647.378000</ele><time>2009-07-28T09:42:51Z</time></trkpt><trkpt lat="43.506650000" lon="12.926250000"><ele>647.408000</ele><time>2009-07-28T09:42:55Z</time></trkpt><trkpt lat="43.506674000" lon="12.926255000"><ele>647.410000</ele><time>2009-07-28T09:42:57Z</time></trkpt><trkpt lat="43.506713000" lon="12.926239000"><ele>647.524000</ele><time>2009-07-28T09:43:01Z</time></trkpt><trkpt lat="43.506741000" lon="12.926236000"><ele>647.667000</ele><time>2009-07-28T09:43:03Z</time></trkpt><trkpt lat="43.506779000" lon="12.926223000"><ele>647.820000</ele><time>2009-07-28T09:43:07Z</time></trkpt><trkpt lat="43.506802000" lon="12.926213000"><ele>647.913000</ele><time>2009-07-28T09:43:09Z</time></trkpt><trkpt lat="43.506846000" lon="12.926171000"><ele>648.140000</ele><time>2009-07-28T09:43:13Z</time></trkpt><trkpt lat="43.506884000" lon="12.926163000"><ele>648.221000</ele><time>2009-07-28T09:43:15Z</time></trkpt><trkpt lat="43.506937000" lon="12.926158000"><ele>648.974000</ele><time>2009-07-28T09:43:19Z</time></trkpt><trkpt lat="43.506987000" lon="12.926202000"><ele>649.753000</ele><time>2009-07-28T09:43:21Z</time></trkpt><trkpt lat="43.507023000" lon="12.926219000"><ele>650.265000</ele><time>2009-07-28T09:43:25Z</time></trkpt><trkpt lat="43.507041000" lon="12.926220000"><ele>650.450000</ele><time>2009-07-28T09:43:27Z</time></trkpt><trkpt lat="43.507068000" lon="12.926218000"><ele>650.870000</ele><time>2009-07-28T09:43:31Z</time></trkpt><trkpt lat="43.507078000" lon="12.926219000"><ele>651.034000</ele><time>2009-07-28T09:43:33Z</time></trkpt><trkpt lat="43.507117000" lon="12.926241000"><ele>651.579000</ele><time>2009-07-28T09:43:37Z</time></trkpt><trkpt lat="43.507123000" lon="12.926254000"><ele>651.621000</ele><time>2009-07-28T09:43:39Z</time></trkpt><trkpt lat="43.507144000" lon="12.926258000"><ele>651.941000</ele><time>2009-07-28T09:43:43Z</time></trkpt><trkpt lat="43.507173000" lon="12.926269000"><ele>652.344000</ele><time>2009-07-28T09:43:45Z</time></trkpt><trkpt lat="43.507213000" lon="12.926275000"><ele>652.461000</ele><time>2009-07-28T09:43:49Z</time></trkpt><trkpt lat="43.507236000" lon="12.926280000"><ele>652.260000</ele><time>2009-07-28T09:43:51Z</time></trkpt><trkpt lat="43.507268000" lon="12.926284000"><ele>652.211000</ele><time>2009-07-28T09:43:55Z</time></trkpt><trkpt lat="43.507290000" lon="12.926288000"><ele>652.269000</ele><time>2009-07-28T09:43:57Z</time></trkpt><trkpt lat="43.507329000" lon="12.926279000"><ele>652.661000</ele><time>2009-07-28T09:44:01Z</time></trkpt><trkpt lat="43.507358000" lon="12.926290000"><ele>653.021000</ele><time>2009-07-28T09:44:03Z</time></trkpt><trkpt lat="43.507391000" lon="12.926295000"><ele>653.130000</ele><time>2009-07-28T09:44:07Z</time></trkpt><trkpt lat="43.507419000" lon="12.926286000"><ele>653.169000</ele><time>2009-07-28T09:44:09Z</time></trkpt><trkpt lat="43.507459000" lon="12.926284000"><ele>653.525000</ele><time>2009-07-28T09:44:13Z</time></trkpt><trkpt lat="43.507483000" lon="12.926283000"><ele>653.851000</ele><time>2009-07-28T09:44:15Z</time></trkpt><trkpt lat="43.507513000" lon="12.926311000"><ele>654.250000</ele><time>2009-07-28T09:44:19Z</time></trkpt><trkpt lat="43.507524000" lon="12.926311000"><ele>654.644000</ele><time>2009-07-28T09:44:21Z</time></trkpt><trkpt lat="43.507567000" lon="12.926327000"><ele>654.881000</ele><time>2009-07-28T09:44:25Z</time></trkpt><trkpt lat="43.507592000" lon="12.926327000"><ele>655.259000</ele><time>2009-07-28T09:44:27Z</time></trkpt><trkpt lat="43.507622000" lon="12.926326000"><ele>655.960000</ele><time>2009-07-28T09:44:31Z</time></trkpt><trkpt lat="43.507625000" lon="12.926323000"><ele>656.342000</ele><time>2009-07-28T09:44:33Z</time></trkpt><trkpt lat="43.507675000" lon="12.926345000"><ele>656.612000</ele><time>2009-07-28T09:44:37Z</time></trkpt><trkpt lat="43.507668000" lon="12.926360000"><ele>656.790000</ele><time>2009-07-28T09:44:39Z</time></trkpt><trkpt lat="43.507704000" lon="12.926376000"><ele>656.506000</ele><time>2009-07-28T09:44:43Z</time></trkpt><trkpt lat="43.507712000" lon="12.926393000"><ele>656.531000</ele><time>2009-07-28T09:44:45Z</time></trkpt><trkpt lat="43.507753000" lon="12.926463000"><ele>656.527000</ele><time>2009-07-28T09:44:49Z</time></trkpt><trkpt lat="43.507791000" lon="12.926458000"><ele>656.662000</ele><time>2009-07-28T09:44:51Z</time></trkpt><trkpt lat="43.507818000" lon="12.926511000"><ele>656.705000</ele><time>2009-07-28T09:44:55Z</time></trkpt><trkpt lat="43.507825000" lon="12.926525000"><ele>656.716000</ele><time>2009-07-28T09:44:57Z</time></trkpt><trkpt lat="43.507867000" lon="12.926542000"><ele>656.862000</ele><time>2009-07-28T09:45:01Z</time></trkpt><trkpt lat="43.507885000" lon="12.926548000"><ele>656.923000</ele><time>2009-07-28T09:45:03Z</time></trkpt><trkpt lat="43.507917000" lon="12.926555000"><ele>657.006000</ele><time>2009-07-28T09:45:07Z</time></trkpt><trkpt lat="43.507923000" lon="12.926563000"><ele>657.061000</ele><time>2009-07-28T09:45:09Z</time></trkpt><trkpt lat="43.507968000" lon="12.926592000"><ele>657.130000</ele><time>2009-07-28T09:45:13Z</time></trkpt><trkpt lat="43.507967000" lon="12.926617000"><ele>657.024000</ele><time>2009-07-28T09:45:15Z</time></trkpt><trkpt lat="43.507994000" lon="12.926621000"><ele>657.064000</ele><time>2009-07-28T09:45:19Z</time></trkpt><trkpt lat="43.508009000" lon="12.926625000"><ele>657.056000</ele><time>2009-07-28T09:45:21Z</time></trkpt><trkpt lat="43.508053000" lon="12.926699000"><ele>656.742000</ele><time>2009-07-28T09:45:25Z</time></trkpt><trkpt lat="43.508070000" lon="12.926702000"><ele>656.752000</ele><time>2009-07-28T09:45:27Z</time></trkpt><trkpt lat="43.508100000" lon="12.926700000"><ele>656.867000</ele><time>2009-07-28T09:45:31Z</time></trkpt><trkpt lat="43.508110000" lon="12.926691000"><ele>656.975000</ele><time>2009-07-28T09:45:33Z</time></trkpt><trkpt lat="43.508137000" lon="12.926685000"><ele>657.117000</ele><time>2009-07-28T09:45:37Z</time></trkpt><trkpt lat="43.508152000" lon="12.926697000"><ele>657.132000</ele><time>2009-07-28T09:45:39Z</time></trkpt><trkpt lat="43.508194000" lon="12.926707000"><ele>657.324000</ele><time>2009-07-28T09:45:43Z</time></trkpt><trkpt lat="43.508205000" lon="12.926716000"><ele>657.393000</ele><time>2009-07-28T09:45:45Z</time></trkpt><trkpt lat="43.508225000" lon="12.926729000"><ele>657.576000</ele><time>2009-07-28T09:45:49Z</time></trkpt><trkpt lat="43.508240000" lon="12.926736000"><ele>657.717000</ele><time>2009-07-28T09:45:51Z</time></trkpt><trkpt lat="43.508257000" lon="12.926763000"><ele>657.830000</ele><time>2009-07-28T09:45:55Z</time></trkpt><trkpt lat="43.508290000" lon="12.926788000"><ele>657.750000</ele><time>2009-07-28T09:45:57Z</time></trkpt><trkpt lat="43.508344000" lon="12.926869000"><ele>657.620000</ele><time>2009-07-28T09:46:01Z</time></trkpt><trkpt lat="43.508356000" lon="12.926888000"><ele>657.631000</ele><time>2009-07-28T09:46:03Z</time></trkpt><trkpt lat="43.508390000" lon="12.926913000"><ele>657.768000</ele><time>2009-07-28T09:46:07Z</time></trkpt><trkpt lat="43.508414000" lon="12.926915000"><ele>657.739000</ele><time>2009-07-28T09:46:09Z</time></trkpt><trkpt lat="43.508458000" lon="12.926925000"><ele>657.813000</ele><time>2009-07-28T09:46:13Z</time></trkpt><trkpt lat="43.508476000" lon="12.926933000"><ele>657.859000</ele><time>2009-07-28T09:46:15Z</time></trkpt><trkpt lat="43.508527000" lon="12.926958000"><ele>657.870000</ele><time>2009-07-28T09:46:19Z</time></trkpt><trkpt lat="43.508538000" lon="12.926980000"><ele>657.887000</ele><time>2009-07-28T09:46:21Z</time></trkpt><trkpt lat="43.508570000" lon="12.927015000"><ele>658.012000</ele><time>2009-07-28T09:46:25Z</time></trkpt><trkpt lat="43.508604000" lon="12.927015000"><ele>658.113000</ele><time>2009-07-28T09:46:27Z</time></trkpt><trkpt lat="43.508659000" lon="12.926996000"><ele>658.325000</ele><time>2009-07-28T09:46:31Z</time></trkpt><trkpt lat="43.508693000" lon="12.927020000"><ele>658.351000</ele><time>2009-07-28T09:46:33Z</time></trkpt><trkpt lat="43.508714000" lon="12.927042000"><ele>658.426000</ele><time>2009-07-28T09:46:37Z</time></trkpt><trkpt lat="43.508727000" lon="12.927049000"><ele>658.330000</ele><time>2009-07-28T09:46:39Z</time></trkpt><trkpt lat="43.508758000" lon="12.927056000"><ele>658.236000</ele><time>2009-07-28T09:46:43Z</time></trkpt><trkpt lat="43.508754000" lon="12.927109000"><ele>658.114000</ele><time>2009-07-28T09:46:45Z</time></trkpt><trkpt lat="43.508786000" lon="12.927112000"><ele>658.133000</ele><time>2009-07-28T09:46:49Z</time></trkpt><trkpt lat="43.508816000" lon="12.927130000"><ele>658.188000</ele><time>2009-07-28T09:46:51Z</time></trkpt><trkpt lat="43.508862000" lon="12.927153000"><ele>658.220000</ele><time>2009-07-28T09:46:55Z</time></trkpt><trkpt lat="43.508879000" lon="12.927150000"><ele>658.295000</ele><time>2009-07-28T09:46:57Z</time></trkpt><trkpt lat="43.508934000" lon="12.927131000"><ele>658.304000</ele><time>2009-07-28T09:47:01Z</time></trkpt><trkpt lat="43.508956000" lon="12.927132000"><ele>658.491000</ele><time>2009-07-28T09:47:03Z</time></trkpt><trkpt lat="43.508980000" lon="12.927175000"><ele>658.438000</ele><time>2009-07-28T09:47:07Z</time></trkpt><trkpt lat="43.508995000" lon="12.927182000"><ele>658.447000</ele><time>2009-07-28T09:47:09Z</time></trkpt><trkpt lat="43.509051000" lon="12.927186000"><ele>658.473000</ele><time>2009-07-28T09:47:13Z</time></trkpt><trkpt lat="43.509062000" lon="12.927183000"><ele>657.844000</ele><time>2009-07-28T09:47:15Z</time></trkpt><trkpt lat="43.509101000" lon="12.927188000"><ele>657.763000</ele><time>2009-07-28T09:47:19Z</time></trkpt><trkpt lat="43.509132000" lon="12.927200000"><ele>657.647000</ele><time>2009-07-28T09:47:21Z</time></trkpt><trkpt lat="43.509182000" lon="12.927213000"><ele>657.662000</ele><time>2009-07-28T09:47:25Z</time></trkpt><trkpt lat="43.509198000" lon="12.927211000"><ele>657.714000</ele><time>2009-07-28T09:47:27Z</time></trkpt><trkpt lat="43.509220000" lon="12.927216000"><ele>657.694000</ele><time>2009-07-28T09:47:31Z</time></trkpt><trkpt lat="43.509267000" lon="12.927218000"><ele>657.355000</ele><time>2009-07-28T09:47:33Z</time></trkpt><trkpt lat="43.509336000" lon="12.927238000"><ele>657.359000</ele><time>2009-07-28T09:47:37Z</time></trkpt><trkpt lat="43.509356000" lon="12.927243000"><ele>657.494000</ele><time>2009-07-28T09:47:39Z</time></trkpt><trkpt lat="43.509387000" lon="12.927248000"><ele>657.051000</ele><time>2009-07-28T09:47:43Z</time></trkpt><trkpt lat="43.509422000" lon="12.927301000"><ele>656.046000</ele><time>2009-07-28T09:47:45Z</time></trkpt><trkpt lat="43.509464000" lon="12.927295000"><ele>654.275000</ele><time>2009-07-28T09:47:49Z</time></trkpt><trkpt lat="43.509479000" lon="12.927308000"><ele>653.701000</ele><time>2009-07-28T09:47:51Z</time></trkpt><trkpt lat="43.509476000" lon="12.927355000"><ele>652.715000</ele><time>2009-07-28T09:47:55Z</time></trkpt><trkpt lat="43.509514000" lon="12.927374000"><ele>652.867000</ele><time>2009-07-28T09:47:57Z</time></trkpt><trkpt lat="43.509548000" lon="12.927404000"><ele>651.945000</ele><time>2009-07-28T09:48:01Z</time></trkpt><trkpt lat="43.509574000" lon="12.927415000"><ele>651.231000</ele><time>2009-07-28T09:48:03Z</time></trkpt><trkpt lat="43.509649000" lon="12.927423000"><ele>651.147000</ele><time>2009-07-28T09:48:07Z</time></trkpt><trkpt lat="43.509665000" lon="12.927427000"><ele>651.153000</ele><time>2009-07-28T09:48:09Z</time></trkpt><trkpt lat="43.509691000" lon="12.927479000"><ele>650.980000</ele><time>2009-07-28T09:48:13Z</time></trkpt><trkpt lat="43.509705000" lon="12.927493000"><ele>651.237000</ele><time>2009-07-28T09:48:15Z</time></trkpt><trkpt lat="43.509771000" lon="12.927515000"><ele>650.727000</ele><time>2009-07-28T09:48:19Z</time></trkpt><trkpt lat="43.509788000" lon="12.927537000"><ele>650.496000</ele><time>2009-07-28T09:48:21Z</time></trkpt><trkpt lat="43.509824000" lon="12.927600000"><ele>649.122000</ele><time>2009-07-28T09:48:25Z</time></trkpt><trkpt lat="43.509832000" lon="12.927639000"><ele>648.549000</ele><time>2009-07-28T09:48:27Z</time></trkpt><trkpt lat="43.509869000" lon="12.927700000"><ele>648.171000</ele><time>2009-07-28T09:48:31Z</time></trkpt><trkpt lat="43.509850000" lon="12.927770000"><ele>647.750000</ele><time>2009-07-28T09:48:33Z</time></trkpt><trkpt lat="43.509873000" lon="12.927812000"><ele>647.924000</ele><time>2009-07-28T09:48:37Z</time></trkpt><trkpt lat="43.509905000" lon="12.927825000"><ele>647.979000</ele><time>2009-07-28T09:48:39Z</time></trkpt><trkpt lat="43.509933000" lon="12.927859000"><ele>648.024000</ele><time>2009-07-28T09:48:43Z</time></trkpt><trkpt lat="43.509919000" lon="12.927895000"><ele>647.719000</ele><time>2009-07-28T09:48:45Z</time></trkpt><trkpt lat="43.509945000" lon="12.927950000"><ele>647.554000</ele><time>2009-07-28T09:48:49Z</time></trkpt><trkpt lat="43.509943000" lon="12.927982000"><ele>647.451000</ele><time>2009-07-28T09:48:51Z</time></trkpt><trkpt lat="43.509974000" lon="12.928037000"><ele>647.411000</ele><time>2009-07-28T09:48:55Z</time></trkpt><trkpt lat="43.510024000" lon="12.928042000"><ele>647.530000</ele><time>2009-07-28T09:48:57Z</time></trkpt><trkpt lat="43.510043000" lon="12.928077000"><ele>647.521000</ele><time>2009-07-28T09:49:01Z</time></trkpt><trkpt lat="43.510082000" lon="12.928080000"><ele>645.366000</ele><time>2009-07-28T09:49:03Z</time></trkpt><trkpt lat="43.510085000" lon="12.928148000"><ele>645.253000</ele><time>2009-07-28T09:49:07Z</time></trkpt><trkpt lat="43.510102000" lon="12.928161000"><ele>645.192000</ele><time>2009-07-28T09:49:09Z</time></trkpt><trkpt lat="43.510116000" lon="12.928213000"><ele>644.985000</ele><time>2009-07-28T09:49:13Z</time></trkpt><trkpt lat="43.510125000" lon="12.928221000"><ele>644.052000</ele><time>2009-07-28T09:49:15Z</time></trkpt><trkpt lat="43.510157000" lon="12.928272000"><ele>643.612000</ele><time>2009-07-28T09:49:19Z</time></trkpt><trkpt lat="43.510178000" lon="12.928303000"><ele>642.362000</ele><time>2009-07-28T09:49:21Z</time></trkpt><trkpt lat="43.510186000" lon="12.928345000"><ele>642.387000</ele><time>2009-07-28T09:49:25Z</time></trkpt><trkpt lat="43.510186000" lon="12.928360000"><ele>642.510000</ele><time>2009-07-28T09:49:27Z</time></trkpt><trkpt lat="43.510201000" lon="12.928395000"><ele>642.478000</ele><time>2009-07-28T09:49:31Z</time></trkpt><trkpt lat="43.510203000" lon="12.928416000"><ele>642.704000</ele><time>2009-07-28T09:49:33Z</time></trkpt><trkpt lat="43.510215000" lon="12.928460000"><ele>642.763000</ele><time>2009-07-28T09:49:37Z</time></trkpt><trkpt lat="43.510187000" lon="12.928517000"><ele>642.532000</ele><time>2009-07-28T09:49:39Z</time></trkpt><trkpt lat="43.510195000" lon="12.928541000"><ele>643.104000</ele><time>2009-07-28T09:49:43Z</time></trkpt><trkpt lat="43.510212000" lon="12.928543000"><ele>643.311000</ele><time>2009-07-28T09:49:45Z</time></trkpt><trkpt lat="43.510273000" lon="12.928538000"><ele>644.172000</ele><time>2009-07-28T09:49:49Z</time></trkpt><trkpt lat="43.510288000" lon="12.928534000"><ele>644.396000</ele><time>2009-07-28T09:49:51Z</time></trkpt><trkpt lat="43.510287000" lon="12.928539000"><ele>644.379000</ele><time>2009-07-28T09:49:55Z</time></trkpt><trkpt lat="43.510298000" lon="12.928539000"><ele>644.349000</ele><time>2009-07-28T09:49:57Z</time></trkpt><trkpt lat="43.510326000" lon="12.928552000"><ele>644.737000</ele><time>2009-07-28T09:50:01Z</time></trkpt><trkpt lat="43.510338000" lon="12.928550000"><ele>644.972000</ele><time>2009-07-28T09:50:03Z</time></trkpt><trkpt lat="43.510389000" lon="12.928558000"><ele>645.259000</ele><time>2009-07-28T09:50:07Z</time></trkpt><trkpt lat="43.510418000" lon="12.928562000"><ele>645.334000</ele><time>2009-07-28T09:50:09Z</time></trkpt><trkpt lat="43.510451000" lon="12.928567000"><ele>645.543000</ele><time>2009-07-28T09:50:13Z</time></trkpt><trkpt lat="43.510486000" lon="12.928569000"><ele>645.679000</ele><time>2009-07-28T09:50:15Z</time></trkpt><trkpt lat="43.510516000" lon="12.928573000"><ele>645.884000</ele><time>2009-07-28T09:50:19Z</time></trkpt><trkpt lat="43.510532000" lon="12.928558000"><ele>646.094000</ele><time>2009-07-28T09:50:21Z</time></trkpt><trkpt lat="43.510601000" lon="12.928542000"><ele>646.263000</ele><time>2009-07-28T09:50:25Z</time></trkpt><trkpt lat="43.510595000" lon="12.928557000"><ele>646.327000</ele><time>2009-07-28T09:50:27Z</time></trkpt><trkpt lat="43.510631000" lon="12.928536000"><ele>646.641000</ele><time>2009-07-28T09:50:31Z</time></trkpt><trkpt lat="43.510613000" lon="12.928543000"><ele>646.709000</ele><time>2009-07-28T09:50:33Z</time></trkpt><trkpt lat="43.510641000" lon="12.928552000"><ele>646.995000</ele><time>2009-07-28T09:50:37Z</time></trkpt><trkpt lat="43.510678000" lon="12.928540000"><ele>647.247000</ele><time>2009-07-28T09:50:39Z</time></trkpt><trkpt lat="43.510718000" lon="12.928539000"><ele>647.488000</ele><time>2009-07-28T09:50:43Z</time></trkpt><trkpt lat="43.510766000" lon="12.928543000"><ele>647.561000</ele><time>2009-07-28T09:50:45Z</time></trkpt><trkpt lat="43.510814000" lon="12.928557000"><ele>647.646000</ele><time>2009-07-28T09:50:49Z</time></trkpt><trkpt lat="43.510843000" lon="12.928556000"><ele>647.863000</ele><time>2009-07-28T09:50:51Z</time></trkpt><trkpt lat="43.510901000" lon="12.928579000"><ele>648.170000</ele><time>2009-07-28T09:50:55Z</time></trkpt><trkpt lat="43.510917000" lon="12.928581000"><ele>648.174000</ele><time>2009-07-28T09:50:57Z</time></trkpt><trkpt lat="43.510970000" lon="12.928593000"><ele>647.971000</ele><time>2009-07-28T09:51:01Z</time></trkpt><trkpt lat="43.511003000" lon="12.928588000"><ele>647.871000</ele><time>2009-07-28T09:51:03Z</time></trkpt><trkpt lat="43.511066000" lon="12.928592000"><ele>647.646000</ele><time>2009-07-28T09:51:07Z</time></trkpt><trkpt lat="43.511085000" lon="12.928590000"><ele>647.675000</ele><time>2009-07-28T09:51:09Z</time></trkpt><trkpt lat="43.511121000" lon="12.928613000"><ele>647.549000</ele><time>2009-07-28T09:51:13Z</time></trkpt><trkpt lat="43.511137000" lon="12.928615000"><ele>647.574000</ele><time>2009-07-28T09:51:15Z</time></trkpt><trkpt lat="43.511174000" lon="12.928624000"><ele>647.559000</ele><time>2009-07-28T09:51:19Z</time></trkpt><trkpt lat="43.511180000" lon="12.928657000"><ele>647.150000</ele><time>2009-07-28T09:51:21Z</time></trkpt><trkpt lat="43.511225000" lon="12.928665000"><ele>646.450000</ele><time>2009-07-28T09:51:25Z</time></trkpt><trkpt lat="43.511256000" lon="12.928667000"><ele>646.248000</ele><time>2009-07-28T09:51:27Z</time></trkpt><trkpt lat="43.511304000" lon="12.928677000"><ele>646.033000</ele><time>2009-07-28T09:51:31Z</time></trkpt><trkpt lat="43.511359000" lon="12.928678000"><ele>645.710000</ele><time>2009-07-28T09:51:33Z</time></trkpt><trkpt lat="43.511409000" lon="12.928728000"><ele>644.832000</ele><time>2009-07-28T09:51:37Z</time></trkpt><trkpt lat="43.511439000" lon="12.928751000"><ele>644.472000</ele><time>2009-07-28T09:51:39Z</time></trkpt><trkpt lat="43.511492000" lon="12.928802000"><ele>643.984000</ele><time>2009-07-28T09:51:43Z</time></trkpt><trkpt lat="43.511513000" lon="12.928814000"><ele>643.767000</ele><time>2009-07-28T09:51:45Z</time></trkpt><trkpt lat="43.511552000" lon="12.928856000"><ele>642.823000</ele><time>2009-07-28T09:51:49Z</time></trkpt><trkpt lat="43.511568000" lon="12.928869000"><ele>643.011000</ele><time>2009-07-28T09:51:51Z</time></trkpt><trkpt lat="43.511645000" lon="12.928886000"><ele>643.236000</ele><time>2009-07-28T09:51:55Z</time></trkpt><trkpt lat="43.511662000" lon="12.928881000"><ele>642.962000</ele><time>2009-07-28T09:51:57Z</time></trkpt><trkpt lat="43.511707000" lon="12.928905000"><ele>642.693000</ele><time>2009-07-28T09:52:01Z</time></trkpt><trkpt lat="43.511729000" lon="12.928924000"><ele>642.620000</ele><time>2009-07-28T09:52:03Z</time></trkpt><trkpt lat="43.511752000" lon="12.928963000"><ele>642.256000</ele><time>2009-07-28T09:52:07Z</time></trkpt><trkpt lat="43.511771000" lon="12.928974000"><ele>642.187000</ele><time>2009-07-28T09:52:09Z</time></trkpt><trkpt lat="43.511810000" lon="12.928986000"><ele>641.419000</ele><time>2009-07-28T09:52:13Z</time></trkpt><trkpt lat="43.511836000" lon="12.928991000"><ele>641.783000</ele><time>2009-07-28T09:52:15Z</time></trkpt><trkpt lat="43.511863000" lon="12.929006000"><ele>643.016000</ele><time>2009-07-28T09:52:19Z</time></trkpt><trkpt lat="43.511923000" lon="12.929013000"><ele>643.299000</ele><time>2009-07-28T09:52:21Z</time></trkpt><trkpt lat="43.511955000" lon="12.929044000"><ele>643.648000</ele><time>2009-07-28T09:52:25Z</time></trkpt><trkpt lat="43.511950000" lon="12.929078000"><ele>643.399000</ele><time>2009-07-28T09:52:27Z</time></trkpt><trkpt lat="43.511996000" lon="12.929116000"><ele>643.450000</ele><time>2009-07-28T09:52:31Z</time></trkpt><trkpt lat="43.512009000" lon="12.929112000"><ele>643.490000</ele><time>2009-07-28T09:52:33Z</time></trkpt><trkpt lat="43.512012000" lon="12.929135000"><ele>642.492000</ele><time>2009-07-28T09:52:37Z</time></trkpt><trkpt lat="43.512034000" lon="12.929121000"><ele>642.183000</ele><time>2009-07-28T09:52:39Z</time></trkpt><trkpt lat="43.512102000" lon="12.929116000"><ele>641.399000</ele><time>2009-07-28T09:52:43Z</time></trkpt><trkpt lat="43.512116000" lon="12.929119000"><ele>641.150000</ele><time>2009-07-28T09:52:45Z</time></trkpt><trkpt lat="43.512143000" lon="12.929127000"><ele>640.521000</ele><time>2009-07-28T09:52:49Z</time></trkpt><trkpt lat="43.512157000" lon="12.929179000"><ele>639.867000</ele><time>2009-07-28T09:52:51Z</time></trkpt><trkpt lat="43.512218000" lon="12.929174000"><ele>639.308000</ele><time>2009-07-28T09:52:55Z</time></trkpt><trkpt lat="43.512236000" lon="12.929173000"><ele>638.704000</ele><time>2009-07-28T09:52:57Z</time></trkpt><trkpt lat="43.512283000" lon="12.929194000"><ele>637.959000</ele><time>2009-07-28T09:53:01Z</time></trkpt><trkpt lat="43.512282000" lon="12.929182000"><ele>637.166000</ele><time>2009-07-28T09:53:03Z</time></trkpt><trkpt lat="43.512284000" lon="12.929184000"><ele>637.098000</ele><time>2009-07-28T09:53:07Z</time></trkpt><trkpt lat="43.512287000" lon="12.929186000"><ele>637.096000</ele><time>2009-07-28T09:53:09Z</time></trkpt><trkpt lat="43.512302000" lon="12.929206000"><ele>636.800000</ele><time>2009-07-28T09:53:13Z</time></trkpt><trkpt lat="43.512315000" lon="12.929229000"><ele>636.325000</ele><time>2009-07-28T09:53:15Z</time></trkpt><trkpt lat="43.512350000" lon="12.929272000"><ele>635.702000</ele><time>2009-07-28T09:53:19Z</time></trkpt><trkpt lat="43.512351000" lon="12.929280000"><ele>635.714000</ele><time>2009-07-28T09:53:21Z</time></trkpt><trkpt lat="43.512360000" lon="12.929329000"><ele>634.264000</ele><time>2009-07-28T09:53:25Z</time></trkpt><trkpt lat="43.512374000" lon="12.929352000"><ele>634.052000</ele><time>2009-07-28T09:53:27Z</time></trkpt><trkpt lat="43.512394000" lon="12.929389000"><ele>634.077000</ele><time>2009-07-28T09:53:31Z</time></trkpt><trkpt lat="43.512391000" lon="12.929421000"><ele>633.668000</ele><time>2009-07-28T09:53:33Z</time></trkpt><trkpt lat="43.512417000" lon="12.929485000"><ele>632.748000</ele><time>2009-07-28T09:53:37Z</time></trkpt><trkpt lat="43.512432000" lon="12.929522000"><ele>632.630000</ele><time>2009-07-28T09:53:39Z</time></trkpt><trkpt lat="43.512476000" lon="12.929587000"><ele>632.047000</ele><time>2009-07-28T09:53:43Z</time></trkpt><trkpt lat="43.512498000" lon="12.929603000"><ele>630.299000</ele><time>2009-07-28T09:53:45Z</time></trkpt><trkpt lat="43.512515000" lon="12.929642000"><ele>629.802000</ele><time>2009-07-28T09:53:49Z</time></trkpt><trkpt lat="43.512513000" lon="12.929678000"><ele>629.889000</ele><time>2009-07-28T09:53:51Z</time></trkpt><trkpt lat="43.512521000" lon="12.929736000"><ele>630.346000</ele><time>2009-07-28T09:53:55Z</time></trkpt><trkpt lat="43.512521000" lon="12.929786000"><ele>630.290000</ele><time>2009-07-28T09:53:57Z</time></trkpt><trkpt lat="43.512530000" lon="12.929843000"><ele>629.406000</ele><time>2009-07-28T09:54:01Z</time></trkpt><trkpt lat="43.512532000" lon="12.929893000"><ele>628.313000</ele><time>2009-07-28T09:54:03Z</time></trkpt><trkpt lat="43.512572000" lon="12.929922000"><ele>626.439000</ele><time>2009-07-28T09:54:07Z</time></trkpt><trkpt lat="43.512585000" lon="12.929935000"><ele>625.916000</ele><time>2009-07-28T09:54:09Z</time></trkpt><trkpt lat="43.512570000" lon="12.930009000"><ele>624.901000</ele><time>2009-07-28T09:54:13Z</time></trkpt><trkpt lat="43.512567000" lon="12.930028000"><ele>624.852000</ele><time>2009-07-28T09:54:15Z</time></trkpt><trkpt lat="43.512572000" lon="12.930076000"><ele>624.640000</ele><time>2009-07-28T09:54:19Z</time></trkpt><trkpt lat="43.512556000" lon="12.930117000"><ele>623.392000</ele><time>2009-07-28T09:54:21Z</time></trkpt><trkpt lat="43.512567000" lon="12.930163000"><ele>623.127000</ele><time>2009-07-28T09:54:25Z</time></trkpt><trkpt lat="43.512571000" lon="12.930189000"><ele>623.142000</ele><time>2009-07-28T09:54:27Z</time></trkpt><trkpt lat="43.512566000" lon="12.930238000"><ele>623.203000</ele><time>2009-07-28T09:54:31Z</time></trkpt><trkpt lat="43.512570000" lon="12.930266000"><ele>623.218000</ele><time>2009-07-28T09:54:33Z</time></trkpt><trkpt lat="43.512617000" lon="12.930286000"><ele>623.213000</ele><time>2009-07-28T09:54:37Z</time></trkpt><trkpt lat="43.512629000" lon="12.930284000"><ele>623.065000</ele><time>2009-07-28T09:54:39Z</time></trkpt><trkpt lat="43.512665000" lon="12.930311000"><ele>622.958000</ele><time>2009-07-28T09:54:43Z</time></trkpt><trkpt lat="43.512683000" lon="12.930312000"><ele>622.865000</ele><time>2009-07-28T09:54:45Z</time></trkpt><trkpt lat="43.512686000" lon="12.930331000"><ele>622.877000</ele><time>2009-07-28T09:54:49Z</time></trkpt><trkpt lat="43.512694000" lon="12.930333000"><ele>622.856000</ele><time>2009-07-28T09:54:51Z</time></trkpt><trkpt lat="43.512747000" lon="12.930353000"><ele>622.559000</ele><time>2009-07-28T09:54:55Z</time></trkpt><trkpt lat="43.512759000" lon="12.930370000"><ele>622.564000</ele><time>2009-07-28T09:54:57Z</time></trkpt><trkpt lat="43.512798000" lon="12.930385000"><ele>622.588000</ele><time>2009-07-28T09:55:01Z</time></trkpt><trkpt lat="43.512839000" lon="12.930392000"><ele>622.663000</ele><time>2009-07-28T09:55:03Z</time></trkpt><trkpt lat="43.512881000" lon="12.930418000"><ele>622.488000</ele><time>2009-07-28T09:55:07Z</time></trkpt><trkpt lat="43.512901000" lon="12.930422000"><ele>622.385000</ele><time>2009-07-28T09:55:09Z</time></trkpt><trkpt lat="43.512953000" lon="12.930443000"><ele>622.173000</ele><time>2009-07-28T09:55:13Z</time></trkpt><trkpt lat="43.512983000" lon="12.930460000"><ele>621.784000</ele><time>2009-07-28T09:55:15Z</time></trkpt><trkpt lat="43.513008000" lon="12.930471000"><ele>621.737000</ele><time>2009-07-28T09:55:19Z</time></trkpt><trkpt lat="43.513030000" lon="12.930473000"><ele>621.721000</ele><time>2009-07-28T09:55:21Z</time></trkpt><trkpt lat="43.513074000" lon="12.930473000"><ele>621.396000</ele><time>2009-07-28T09:55:25Z</time></trkpt><trkpt lat="43.513094000" lon="12.930476000"><ele>621.300000</ele><time>2009-07-28T09:55:27Z</time></trkpt><trkpt lat="43.513128000" lon="12.930495000"><ele>621.163000</ele><time>2009-07-28T09:55:31Z</time></trkpt><trkpt lat="43.513176000" lon="12.930543000"><ele>621.005000</ele><time>2009-07-28T09:55:33Z</time></trkpt><trkpt lat="43.513233000" lon="12.930611000"><ele>619.794000</ele><time>2009-07-28T09:55:37Z</time></trkpt><trkpt lat="43.513249000" lon="12.930625000"><ele>619.685000</ele><time>2009-07-28T09:55:39Z</time></trkpt><trkpt lat="43.513267000" lon="12.930667000"><ele>619.540000</ele><time>2009-07-28T09:55:43Z</time></trkpt><trkpt lat="43.513289000" lon="12.930686000"><ele>619.397000</ele><time>2009-07-28T09:55:45Z</time></trkpt><trkpt lat="43.513312000" lon="12.930709000"><ele>619.096000</ele><time>2009-07-28T09:55:49Z</time></trkpt><trkpt lat="43.513328000" lon="12.930720000"><ele>618.972000</ele><time>2009-07-28T09:55:51Z</time></trkpt><trkpt lat="43.513340000" lon="12.930746000"><ele>618.889000</ele><time>2009-07-28T09:55:55Z</time></trkpt><trkpt lat="43.513341000" lon="12.930768000"><ele>618.773000</ele><time>2009-07-28T09:55:57Z</time></trkpt><trkpt lat="43.513360000" lon="12.930814000"><ele>618.374000</ele><time>2009-07-28T09:56:01Z</time></trkpt><trkpt lat="43.513372000" lon="12.930831000"><ele>618.349000</ele><time>2009-07-28T09:56:03Z</time></trkpt><trkpt lat="43.513384000" lon="12.930890000"><ele>618.309000</ele><time>2009-07-28T09:56:07Z</time></trkpt><trkpt lat="43.513387000" lon="12.930925000"><ele>618.255000</ele><time>2009-07-28T09:56:09Z</time></trkpt><trkpt lat="43.513395000" lon="12.930980000"><ele>617.762000</ele><time>2009-07-28T09:56:13Z</time></trkpt><trkpt lat="43.513442000" lon="12.931001000"><ele>616.470000</ele><time>2009-07-28T09:56:15Z</time></trkpt><trkpt lat="43.513467000" lon="12.931058000"><ele>615.945000</ele><time>2009-07-28T09:56:19Z</time></trkpt><trkpt lat="43.513474000" lon="12.931081000"><ele>615.943000</ele><time>2009-07-28T09:56:21Z</time></trkpt><trkpt lat="43.513479000" lon="12.931132000"><ele>615.713000</ele><time>2009-07-28T09:56:25Z</time></trkpt><trkpt lat="43.513493000" lon="12.931140000"><ele>615.518000</ele><time>2009-07-28T09:56:27Z</time></trkpt><trkpt lat="43.513513000" lon="12.931160000"><ele>615.282000</ele><time>2009-07-28T09:56:31Z</time></trkpt><trkpt lat="43.513521000" lon="12.931170000"><ele>615.251000</ele><time>2009-07-28T09:56:33Z</time></trkpt><trkpt lat="43.513508000" lon="12.931255000"><ele>614.872000</ele><time>2009-07-28T09:56:37Z</time></trkpt><trkpt lat="43.513531000" lon="12.931251000"><ele>614.179000</ele><time>2009-07-28T09:56:39Z</time></trkpt><trkpt lat="43.513588000" lon="12.931325000"><ele>613.387000</ele><time>2009-07-28T09:56:43Z</time></trkpt><trkpt lat="43.513598000" lon="12.931365000"><ele>613.317000</ele><time>2009-07-28T09:56:45Z</time></trkpt><trkpt lat="43.513612000" lon="12.931389000"><ele>612.671000</ele><time>2009-07-28T09:56:49Z</time></trkpt><trkpt lat="43.513591000" lon="12.931410000"><ele>612.247000</ele><time>2009-07-28T09:56:51Z</time></trkpt><trkpt lat="43.513622000" lon="12.931469000"><ele>612.105000</ele><time>2009-07-28T09:56:55Z</time></trkpt><trkpt lat="43.513661000" lon="12.931488000"><ele>612.145000</ele><time>2009-07-28T09:56:57Z</time></trkpt><trkpt lat="43.513691000" lon="12.931525000"><ele>611.767000</ele><time>2009-07-28T09:57:01Z</time></trkpt><trkpt lat="43.513718000" lon="12.931526000"><ele>611.419000</ele><time>2009-07-28T09:57:03Z</time></trkpt><trkpt lat="43.513759000" lon="12.931556000"><ele>611.043000</ele><time>2009-07-28T09:57:07Z</time></trkpt><trkpt lat="43.513784000" lon="12.931571000"><ele>611.055000</ele><time>2009-07-28T09:57:09Z</time></trkpt><trkpt lat="43.513857000" lon="12.931581000"><ele>609.743000</ele><time>2009-07-28T09:57:13Z</time></trkpt><trkpt lat="43.513872000" lon="12.931606000"><ele>609.954000</ele><time>2009-07-28T09:57:15Z</time></trkpt><trkpt lat="43.513893000" lon="12.931648000"><ele>609.611000</ele><time>2009-07-28T09:57:19Z</time></trkpt><trkpt lat="43.513894000" lon="12.931682000"><ele>609.676000</ele><time>2009-07-28T09:57:21Z</time></trkpt><trkpt lat="43.513909000" lon="12.931737000"><ele>609.770000</ele><time>2009-07-28T09:57:25Z</time></trkpt><trkpt lat="43.513896000" lon="12.931780000"><ele>609.506000</ele><time>2009-07-28T09:57:27Z</time></trkpt><trkpt lat="43.513937000" lon="12.931809000"><ele>609.786000</ele><time>2009-07-28T09:57:31Z</time></trkpt><trkpt lat="43.513953000" lon="12.931813000"><ele>609.794000</ele><time>2009-07-28T09:57:33Z</time></trkpt><trkpt lat="43.513965000" lon="12.931833000"><ele>609.970000</ele><time>2009-07-28T09:57:37Z</time></trkpt><trkpt lat="43.513995000" lon="12.931833000"><ele>610.069000</ele><time>2009-07-28T09:57:39Z</time></trkpt><trkpt lat="43.514044000" lon="12.931855000"><ele>610.345000</ele><time>2009-07-28T09:57:43Z</time></trkpt><trkpt lat="43.514065000" lon="12.931881000"><ele>610.421000</ele><time>2009-07-28T09:57:45Z</time></trkpt><trkpt lat="43.514101000" lon="12.931943000"><ele>610.599000</ele><time>2009-07-28T09:57:49Z</time></trkpt><trkpt lat="43.514076000" lon="12.932020000"><ele>610.460000</ele><time>2009-07-28T09:57:51Z</time></trkpt><trkpt lat="43.514122000" lon="12.932116000"><ele>610.250000</ele><time>2009-07-28T09:57:55Z</time></trkpt><trkpt lat="43.514131000" lon="12.932185000"><ele>609.750000</ele><time>2009-07-28T09:57:57Z</time></trkpt><trkpt lat="43.514188000" lon="12.932219000"><ele>609.354000</ele><time>2009-07-28T09:58:01Z</time></trkpt><trkpt lat="43.514270000" lon="12.932223000"><ele>609.363000</ele><time>2009-07-28T09:58:03Z</time></trkpt><trkpt lat="43.514323000" lon="12.932229000"><ele>608.953000</ele><time>2009-07-28T09:58:07Z</time></trkpt><trkpt lat="43.514336000" lon="12.932231000"><ele>609.010000</ele><time>2009-07-28T09:58:09Z</time></trkpt><trkpt lat="43.514363000" lon="12.932241000"><ele>609.226000</ele><time>2009-07-28T09:58:13Z</time></trkpt><trkpt lat="43.514391000" lon="12.932278000"><ele>609.296000</ele><time>2009-07-28T09:58:15Z</time></trkpt><trkpt lat="43.514444000" lon="12.932269000"><ele>608.268000</ele><time>2009-07-28T09:58:19Z</time></trkpt><trkpt lat="43.514460000" lon="12.932275000"><ele>608.396000</ele><time>2009-07-28T09:58:21Z</time></trkpt><trkpt lat="43.514531000" lon="12.932290000"><ele>608.655000</ele><time>2009-07-28T09:58:25Z</time></trkpt><trkpt lat="43.514571000" lon="12.932294000"><ele>608.747000</ele><time>2009-07-28T09:58:27Z</time></trkpt><trkpt lat="43.514616000" lon="12.932295000"><ele>608.950000</ele><time>2009-07-28T09:58:31Z</time></trkpt><trkpt lat="43.514649000" lon="12.932286000"><ele>609.045000</ele><time>2009-07-28T09:58:33Z</time></trkpt><trkpt lat="43.514693000" lon="12.932280000"><ele>609.192000</ele><time>2009-07-28T09:58:37Z</time></trkpt><trkpt lat="43.514712000" lon="12.932293000"><ele>609.264000</ele><time>2009-07-28T09:58:39Z</time></trkpt><trkpt lat="43.514761000" lon="12.932334000"><ele>609.305000</ele><time>2009-07-28T09:58:43Z</time></trkpt><trkpt lat="43.514751000" lon="12.932376000"><ele>609.156000</ele><time>2009-07-28T09:58:45Z</time></trkpt><trkpt lat="43.514774000" lon="12.932405000"><ele>609.478000</ele><time>2009-07-28T09:58:49Z</time></trkpt><trkpt lat="43.514781000" lon="12.932421000"><ele>609.605000</ele><time>2009-07-28T09:58:51Z</time></trkpt><trkpt lat="43.514824000" lon="12.932538000"><ele>609.270000</ele><time>2009-07-28T09:58:55Z</time></trkpt><trkpt lat="43.514837000" lon="12.932563000"><ele>609.243000</ele><time>2009-07-28T09:58:57Z</time></trkpt><trkpt lat="43.514882000" lon="12.932587000"><ele>608.570000</ele><time>2009-07-28T09:59:01Z</time></trkpt><trkpt lat="43.514901000" lon="12.932580000"><ele>608.435000</ele><time>2009-07-28T09:59:03Z</time></trkpt><trkpt lat="43.514952000" lon="12.932570000"><ele>608.187000</ele><time>2009-07-28T09:59:07Z</time></trkpt><trkpt lat="43.514961000" lon="12.932565000"><ele>608.044000</ele><time>2009-07-28T09:59:09Z</time></trkpt><trkpt lat="43.514975000" lon="12.932558000"><ele>607.712000</ele><time>2009-07-28T09:59:13Z</time></trkpt><trkpt lat="43.514887000" lon="12.932624000"><ele>607.395000</ele><time>2009-07-28T09:59:15Z</time></trkpt><trkpt lat="43.514855000" lon="12.932630000"><ele>607.110000</ele><time>2009-07-28T09:59:19Z</time></trkpt><trkpt lat="43.514852000" lon="12.932634000"><ele>607.058000</ele><time>2009-07-28T09:59:21Z</time></trkpt><trkpt lat="43.514842000" lon="12.932604000"><ele>607.100000</ele><time>2009-07-28T09:59:25Z</time></trkpt><trkpt lat="43.514847000" lon="12.932590000"><ele>606.954000</ele><time>2009-07-28T09:59:27Z</time></trkpt><trkpt lat="43.514833000" lon="12.932595000"><ele>607.005000</ele><time>2009-07-28T09:59:31Z</time></trkpt><trkpt lat="43.514833000" lon="12.932596000"><ele>607.026000</ele><time>2009-07-28T09:59:33Z</time></trkpt><trkpt lat="43.514832000" lon="12.932595000"><ele>607.029000</ele><time>2009-07-28T09:59:37Z</time></trkpt><trkpt lat="43.514834000" lon="12.932596000"><ele>607.027000</ele><time>2009-07-28T09:59:39Z</time></trkpt><trkpt lat="43.514891000" lon="12.932601000"><ele>606.890000</ele><time>2009-07-28T09:59:43Z</time></trkpt><trkpt lat="43.514891000" lon="12.932596000"><ele>606.808000</ele><time>2009-07-28T09:59:45Z</time></trkpt><trkpt lat="43.514918000" lon="12.932609000"><ele>605.628000</ele><time>2009-07-28T09:59:49Z</time></trkpt><trkpt lat="43.514917000" lon="12.932609000"><ele>605.517000</ele><time>2009-07-28T09:59:51Z</time></trkpt><trkpt lat="43.514910000" lon="12.932602000"><ele>605.388000</ele><time>2009-07-28T09:59:55Z</time></trkpt><trkpt lat="43.514990000" lon="12.932576000"><ele>602.961000</ele><time>2009-07-28T09:59:57Z</time></trkpt><trkpt lat="43.514964000" lon="12.932576000"><ele>602.819000</ele><time>2009-07-28T10:00:01Z</time></trkpt><trkpt lat="43.514944000" lon="12.932581000"><ele>602.735000</ele><time>2009-07-28T10:00:03Z</time></trkpt><trkpt lat="43.514928000" lon="12.932578000"><ele>602.546000</ele><time>2009-07-28T10:00:07Z</time></trkpt><trkpt lat="43.514935000" lon="12.932557000"><ele>602.459000</ele><time>2009-07-28T10:00:09Z</time></trkpt><trkpt lat="43.514929000" lon="12.932532000"><ele>602.373000</ele><time>2009-07-28T10:00:13Z</time></trkpt><trkpt lat="43.514944000" lon="12.932585000"><ele>602.238000</ele><time>2009-07-28T10:00:15Z</time></trkpt><trkpt lat="43.514961000" lon="12.932591000"><ele>602.090000</ele><time>2009-07-28T10:00:19Z</time></trkpt><trkpt lat="43.514958000" lon="12.932596000"><ele>602.036000</ele><time>2009-07-28T10:00:21Z</time></trkpt><trkpt lat="43.514947000" lon="12.932604000"><ele>601.765000</ele><time>2009-07-28T10:00:25Z</time></trkpt><trkpt lat="43.514934000" lon="12.932613000"><ele>601.499000</ele><time>2009-07-28T10:00:27Z</time></trkpt><trkpt lat="43.514917000" lon="12.932598000"><ele>601.339000</ele><time>2009-07-28T10:00:31Z</time></trkpt><trkpt lat="43.514914000" lon="12.932596000"><ele>601.331000</ele><time>2009-07-28T10:00:33Z</time></trkpt><trkpt lat="43.514916000" lon="12.932594000"><ele>601.265000</ele><time>2009-07-28T10:00:37Z</time></trkpt><trkpt lat="43.514915000" lon="12.932592000"><ele>601.223000</ele><time>2009-07-28T10:00:39Z</time></trkpt><trkpt lat="43.514915000" lon="12.932578000"><ele>600.761000</ele><time>2009-07-28T10:00:43Z</time></trkpt><trkpt lat="43.514916000" lon="12.932577000"><ele>600.739000</ele><time>2009-07-28T10:00:45Z</time></trkpt><trkpt lat="43.514923000" lon="12.932564000"><ele>600.638000</ele><time>2009-07-28T10:00:49Z</time></trkpt><trkpt lat="43.514921000" lon="12.932561000"><ele>600.627000</ele><time>2009-07-28T10:00:51Z</time></trkpt><trkpt lat="43.514921000" lon="12.932559000"><ele>600.609000</ele><time>2009-07-28T10:00:55Z</time></trkpt><trkpt lat="43.514922000" lon="12.932558000"><ele>600.604000</ele><time>2009-07-28T10:00:57Z</time></trkpt><trkpt lat="43.514947000" lon="12.932511000"><ele>599.321000</ele><time>2009-07-28T10:01:01Z</time></trkpt><trkpt lat="43.514957000" lon="12.932521000"><ele>599.027000</ele><time>2009-07-28T10:01:03Z</time></trkpt><trkpt lat="43.514967000" lon="12.932569000"><ele>597.069000</ele><time>2009-07-28T10:01:07Z</time></trkpt><trkpt lat="43.514962000" lon="12.932605000"><ele>595.648000</ele><time>2009-07-28T10:01:09Z</time></trkpt><trkpt lat="43.514952000" lon="12.932673000"><ele>593.966000</ele><time>2009-07-28T10:01:13Z</time></trkpt><trkpt lat="43.514959000" lon="12.932695000"><ele>593.646000</ele><time>2009-07-28T10:01:15Z</time></trkpt><trkpt lat="43.514946000" lon="12.932747000"><ele>592.030000</ele><time>2009-07-28T10:01:19Z</time></trkpt><trkpt lat="43.514933000" lon="12.932773000"><ele>591.658000</ele><time>2009-07-28T10:01:21Z</time></trkpt><trkpt lat="43.514893000" lon="12.932803000"><ele>589.991000</ele><time>2009-07-28T10:01:25Z</time></trkpt><trkpt lat="43.514911000" lon="12.932824000"><ele>589.341000</ele><time>2009-07-28T10:01:27Z</time></trkpt><trkpt lat="43.514950000" lon="12.932895000"><ele>587.779000</ele><time>2009-07-28T10:01:31Z</time></trkpt><trkpt lat="43.514966000" lon="12.932921000"><ele>587.208000</ele><time>2009-07-28T10:01:33Z</time></trkpt><trkpt lat="43.514995000" lon="12.932982000"><ele>585.620000</ele><time>2009-07-28T10:01:37Z</time></trkpt><trkpt lat="43.515030000" lon="12.932992000"><ele>584.983000</ele><time>2009-07-28T10:01:39Z</time></trkpt><trkpt lat="43.515079000" lon="12.933046000"><ele>584.007000</ele><time>2009-07-28T10:01:43Z</time></trkpt><trkpt lat="43.515152000" lon="12.933046000"><ele>582.956000</ele><time>2009-07-28T10:01:45Z</time></trkpt><trkpt lat="43.515221000" lon="12.933068000"><ele>582.167000</ele><time>2009-07-28T10:01:49Z</time></trkpt><trkpt lat="43.515239000" lon="12.933069000"><ele>581.933000</ele><time>2009-07-28T10:01:51Z</time></trkpt><trkpt lat="43.515237000" lon="12.933136000"><ele>580.418000</ele><time>2009-07-28T10:01:55Z</time></trkpt><trkpt lat="43.515264000" lon="12.933171000"><ele>580.147000</ele><time>2009-07-28T10:01:57Z</time></trkpt><trkpt lat="43.515298000" lon="12.933220000"><ele>579.116000</ele><time>2009-07-28T10:02:01Z</time></trkpt><trkpt lat="43.515309000" lon="12.933233000"><ele>578.731000</ele><time>2009-07-28T10:02:03Z</time></trkpt><trkpt lat="43.515337000" lon="12.933294000"><ele>578.007000</ele><time>2009-07-28T10:02:07Z</time></trkpt><trkpt lat="43.515366000" lon="12.933304000"><ele>577.617000</ele><time>2009-07-28T10:02:09Z</time></trkpt><trkpt lat="43.515406000" lon="12.933364000"><ele>576.665000</ele><time>2009-07-28T10:02:13Z</time></trkpt><trkpt lat="43.515417000" lon="12.933391000"><ele>576.042000</ele><time>2009-07-28T10:02:15Z</time></trkpt><trkpt lat="43.515445000" lon="12.933446000"><ele>575.249000</ele><time>2009-07-28T10:02:19Z</time></trkpt><trkpt lat="43.515469000" lon="12.933463000"><ele>574.994000</ele><time>2009-07-28T10:02:21Z</time></trkpt><trkpt lat="43.515491000" lon="12.933518000"><ele>573.793000</ele><time>2009-07-28T10:02:25Z</time></trkpt><trkpt lat="43.515500000" lon="12.933540000"><ele>573.582000</ele><time>2009-07-28T10:02:27Z</time></trkpt><trkpt lat="43.515536000" lon="12.933593000"><ele>572.860000</ele><time>2009-07-28T10:02:31Z</time></trkpt><trkpt lat="43.515540000" lon="12.933627000"><ele>572.858000</ele><time>2009-07-28T10:02:33Z</time></trkpt><trkpt lat="43.515580000" lon="12.933698000"><ele>572.225000</ele><time>2009-07-28T10:02:37Z</time></trkpt><trkpt lat="43.515581000" lon="12.933736000"><ele>571.226000</ele><time>2009-07-28T10:02:39Z</time></trkpt><trkpt lat="43.515614000" lon="12.933808000"><ele>570.534000</ele><time>2009-07-28T10:02:43Z</time></trkpt><trkpt lat="43.515640000" lon="12.933843000"><ele>570.430000</ele><time>2009-07-28T10:02:45Z</time></trkpt><trkpt lat="43.515681000" lon="12.933911000"><ele>570.085000</ele><time>2009-07-28T10:02:49Z</time></trkpt><trkpt lat="43.515701000" lon="12.933930000"><ele>569.819000</ele><time>2009-07-28T10:02:51Z</time></trkpt><trkpt lat="43.515718000" lon="12.934000000"><ele>569.008000</ele><time>2009-07-28T10:02:55Z</time></trkpt><trkpt lat="43.515743000" lon="12.934031000"><ele>568.544000</ele><time>2009-07-28T10:02:57Z</time></trkpt><trkpt lat="43.515777000" lon="12.934074000"><ele>567.669000</ele><time>2009-07-28T10:03:01Z</time></trkpt><trkpt lat="43.515829000" lon="12.934134000"><ele>566.820000</ele><time>2009-07-28T10:03:03Z</time></trkpt><trkpt lat="43.515874000" lon="12.934162000"><ele>566.122000</ele><time>2009-07-28T10:03:07Z</time></trkpt><trkpt lat="43.515895000" lon="12.934175000"><ele>566.645000</ele><time>2009-07-28T10:03:09Z</time></trkpt><trkpt lat="43.515930000" lon="12.934223000"><ele>568.014000</ele><time>2009-07-28T10:03:13Z</time></trkpt><trkpt lat="43.515934000" lon="12.934244000"><ele>568.747000</ele><time>2009-07-28T10:03:15Z</time></trkpt><trkpt lat="43.515937000" lon="12.934273000"><ele>569.985000</ele><time>2009-07-28T10:03:19Z</time></trkpt><trkpt lat="43.515974000" lon="12.934283000"><ele>569.329000</ele><time>2009-07-28T10:03:21Z</time></trkpt><trkpt lat="43.516077000" lon="12.934287000"><ele>569.681000</ele><time>2009-07-28T10:03:25Z</time></trkpt><trkpt lat="43.516101000" lon="12.934308000"><ele>569.352000</ele><time>2009-07-28T10:03:27Z</time></trkpt><trkpt lat="43.516103000" lon="12.934392000"><ele>569.216000</ele><time>2009-07-28T10:03:31Z</time></trkpt><trkpt lat="43.516108000" lon="12.934438000"><ele>569.071000</ele><time>2009-07-28T10:03:33Z</time></trkpt><trkpt lat="43.516106000" lon="12.934504000"><ele>569.010000</ele><time>2009-07-28T10:03:37Z</time></trkpt><trkpt lat="43.516097000" lon="12.934551000"><ele>568.971000</ele><time>2009-07-28T10:03:39Z</time></trkpt><trkpt lat="43.516097000" lon="12.934624000"><ele>566.441000</ele><time>2009-07-28T10:03:43Z</time></trkpt><trkpt lat="43.516113000" lon="12.934650000"><ele>566.630000</ele><time>2009-07-28T10:03:45Z</time></trkpt><trkpt lat="43.516073000" lon="12.934760000"><ele>564.234000</ele><time>2009-07-28T10:03:49Z</time></trkpt><trkpt lat="43.516062000" lon="12.934809000"><ele>560.921000</ele><time>2009-07-28T10:03:51Z</time></trkpt><trkpt lat="43.516053000" lon="12.934829000"><ele>560.009000</ele><time>2009-07-28T10:03:55Z</time></trkpt><trkpt lat="43.516056000" lon="12.934830000"><ele>560.113000</ele><time>2009-07-28T10:03:57Z</time></trkpt><trkpt lat="43.516100000" lon="12.934837000"><ele>559.266000</ele><time>2009-07-28T10:04:01Z</time></trkpt><trkpt lat="43.516127000" lon="12.934854000"><ele>558.418000</ele><time>2009-07-28T10:04:03Z</time></trkpt><trkpt lat="43.516174000" lon="12.934889000"><ele>557.406000</ele><time>2009-07-28T10:04:07Z</time></trkpt><trkpt lat="43.516189000" lon="12.934902000"><ele>557.627000</ele><time>2009-07-28T10:04:09Z</time></trkpt><trkpt lat="43.516216000" lon="12.934929000"><ele>557.054000</ele><time>2009-07-28T10:04:13Z</time></trkpt><trkpt lat="43.516231000" lon="12.934953000"><ele>556.750000</ele><time>2009-07-28T10:04:15Z</time></trkpt><trkpt lat="43.516201000" lon="12.935032000"><ele>554.993000</ele><time>2009-07-28T10:04:19Z</time></trkpt><trkpt lat="43.516180000" lon="12.935115000"><ele>552.929000</ele><time>2009-07-28T10:04:22Z</time></trkpt><trkpt lat="43.516204000" lon="12.935175000"><ele>552.649000</ele><time>2009-07-28T10:04:26Z</time></trkpt><trkpt lat="43.516215000" lon="12.935202000"><ele>552.804000</ele><time>2009-07-28T10:04:28Z</time></trkpt><trkpt lat="43.516235000" lon="12.935248000"><ele>552.780000</ele><time>2009-07-28T10:04:32Z</time></trkpt><trkpt lat="43.516254000" lon="12.935272000"><ele>552.791000</ele><time>2009-07-28T10:04:34Z</time></trkpt><trkpt lat="43.516263000" lon="12.935309000"><ele>552.525000</ele><time>2009-07-28T10:04:38Z</time></trkpt><trkpt lat="43.516252000" lon="12.935319000"><ele>552.714000</ele><time>2009-07-28T10:04:40Z</time></trkpt><trkpt lat="43.516281000" lon="12.935350000"><ele>552.038000</ele><time>2009-07-28T10:04:44Z</time></trkpt><trkpt lat="43.516285000" lon="12.935373000"><ele>551.606000</ele><time>2009-07-28T10:04:46Z</time></trkpt><trkpt lat="43.516316000" lon="12.935419000"><ele>550.599000</ele><time>2009-07-28T10:04:50Z</time></trkpt><trkpt lat="43.516338000" lon="12.935440000"><ele>550.477000</ele><time>2009-07-28T10:04:52Z</time></trkpt><trkpt lat="43.516367000" lon="12.935469000"><ele>550.262000</ele><time>2009-07-28T10:04:56Z</time></trkpt><trkpt lat="43.516395000" lon="12.935482000"><ele>550.098000</ele><time>2009-07-28T10:04:58Z</time></trkpt><trkpt lat="43.516430000" lon="12.935497000"><ele>549.696000</ele><time>2009-07-28T10:05:02Z</time></trkpt><trkpt lat="43.516544000" lon="12.935441000"><ele>548.823000</ele><time>2009-07-28T10:05:04Z</time></trkpt><trkpt lat="43.516521000" lon="12.935412000"><ele>547.366000</ele><time>2009-07-28T10:05:08Z</time></trkpt><trkpt lat="43.516517000" lon="12.935383000"><ele>546.966000</ele><time>2009-07-28T10:05:10Z</time></trkpt><trkpt lat="43.516509000" lon="12.935314000"><ele>546.331000</ele><time>2009-07-28T10:05:14Z</time></trkpt><trkpt lat="43.516508000" lon="12.935278000"><ele>546.248000</ele><time>2009-07-28T10:05:16Z</time></trkpt><trkpt lat="43.516490000" lon="12.935199000"><ele>544.691000</ele><time>2009-07-28T10:05:20Z</time></trkpt><trkpt lat="43.516479000" lon="12.935168000"><ele>544.380000</ele><time>2009-07-28T10:05:22Z</time></trkpt><trkpt lat="43.516502000" lon="12.935095000"><ele>543.468000</ele><time>2009-07-28T10:05:26Z</time></trkpt><trkpt lat="43.516513000" lon="12.935069000"><ele>542.826000</ele><time>2009-07-28T10:05:28Z</time></trkpt><trkpt lat="43.516513000" lon="12.935009000"><ele>541.766000</ele><time>2009-07-28T10:05:32Z</time></trkpt><trkpt lat="43.516497000" lon="12.934984000"><ele>540.814000</ele><time>2009-07-28T10:05:34Z</time></trkpt><trkpt lat="43.516509000" lon="12.934936000"><ele>538.804000</ele><time>2009-07-28T10:05:38Z</time></trkpt><trkpt lat="43.516470000" lon="12.934921000"><ele>536.291000</ele><time>2009-07-28T10:05:40Z</time></trkpt><trkpt lat="43.516455000" lon="12.934882000"><ele>534.827000</ele><time>2009-07-28T10:05:44Z</time></trkpt><trkpt lat="43.516449000" lon="12.934850000"><ele>534.411000</ele><time>2009-07-28T10:05:46Z</time></trkpt><trkpt lat="43.516442000" lon="12.934827000"><ele>533.280000</ele><time>2009-07-28T10:05:50Z</time></trkpt><trkpt lat="43.516445000" lon="12.934798000"><ele>532.492000</ele><time>2009-07-28T10:05:52Z</time></trkpt><trkpt lat="43.516444000" lon="12.934748000"><ele>531.473000</ele><time>2009-07-28T10:05:56Z</time></trkpt><trkpt lat="43.516440000" lon="12.934722000"><ele>531.356000</ele><time>2009-07-28T10:05:58Z</time></trkpt><trkpt lat="43.516436000" lon="12.934676000"><ele>530.708000</ele><time>2009-07-28T10:06:02Z</time></trkpt><trkpt lat="43.516446000" lon="12.934653000"><ele>530.163000</ele><time>2009-07-28T10:06:04Z</time></trkpt><trkpt lat="43.516430000" lon="12.934625000"><ele>529.130000</ele><time>2009-07-28T10:06:08Z</time></trkpt><trkpt lat="43.516427000" lon="12.934619000"><ele>528.889000</ele><time>2009-07-28T10:06:10Z</time></trkpt><trkpt lat="43.516412000" lon="12.934579000"><ele>525.418000</ele><time>2009-07-28T10:06:14Z</time></trkpt><trkpt lat="43.516407000" lon="12.934548000"><ele>525.122000</ele><time>2009-07-28T10:06:16Z</time></trkpt><trkpt lat="43.516388000" lon="12.934482000"><ele>525.017000</ele><time>2009-07-28T10:06:20Z</time></trkpt><trkpt lat="43.516389000" lon="12.934447000"><ele>524.937000</ele><time>2009-07-28T10:06:22Z</time></trkpt><trkpt lat="43.516389000" lon="12.934401000"><ele>524.377000</ele><time>2009-07-28T10:06:26Z</time></trkpt><trkpt lat="43.516385000" lon="12.934373000"><ele>524.160000</ele><time>2009-07-28T10:06:28Z</time></trkpt><trkpt lat="43.516357000" lon="12.934333000"><ele>523.968000</ele><time>2009-07-28T10:06:32Z</time></trkpt><trkpt lat="43.516337000" lon="12.934319000"><ele>523.283000</ele><time>2009-07-28T10:06:34Z</time></trkpt><trkpt lat="43.516321000" lon="12.934272000"><ele>522.339000</ele><time>2009-07-28T10:06:38Z</time></trkpt><trkpt lat="43.516323000" lon="12.934238000"><ele>521.965000</ele><time>2009-07-28T10:06:40Z</time></trkpt><trkpt lat="43.516344000" lon="12.934173000"><ele>521.138000</ele><time>2009-07-28T10:06:44Z</time></trkpt><trkpt lat="43.516349000" lon="12.934154000"><ele>521.437000</ele><time>2009-07-28T10:06:46Z</time></trkpt><trkpt lat="43.516382000" lon="12.934179000"><ele>521.071000</ele><time>2009-07-28T10:06:50Z</time></trkpt><trkpt lat="43.516398000" lon="12.934195000"><ele>521.021000</ele><time>2009-07-28T10:06:52Z</time></trkpt><trkpt lat="43.516431000" lon="12.934245000"><ele>520.782000</ele><time>2009-07-28T10:06:56Z</time></trkpt><trkpt lat="43.516455000" lon="12.934249000"><ele>520.540000</ele><time>2009-07-28T10:06:58Z</time></trkpt><trkpt lat="43.516489000" lon="12.934271000"><ele>520.230000</ele><time>2009-07-28T10:07:02Z</time></trkpt><trkpt lat="43.516506000" lon="12.934293000"><ele>520.013000</ele><time>2009-07-28T10:07:04Z</time></trkpt><trkpt lat="43.516540000" lon="12.934335000"><ele>519.577000</ele><time>2009-07-28T10:07:08Z</time></trkpt><trkpt lat="43.516561000" lon="12.934365000"><ele>519.417000</ele><time>2009-07-28T10:07:10Z</time></trkpt><trkpt lat="43.516590000" lon="12.934400000"><ele>518.928000</ele><time>2009-07-28T10:07:14Z</time></trkpt><trkpt lat="43.516614000" lon="12.934428000"><ele>518.769000</ele><time>2009-07-28T10:07:16Z</time></trkpt><trkpt lat="43.516658000" lon="12.934479000"><ele>518.043000</ele><time>2009-07-28T10:07:20Z</time></trkpt><trkpt lat="43.516669000" lon="12.934509000"><ele>517.779000</ele><time>2009-07-28T10:07:22Z</time></trkpt><trkpt lat="43.516712000" lon="12.934551000"><ele>517.529000</ele><time>2009-07-28T10:07:26Z</time></trkpt><trkpt lat="43.516707000" lon="12.934566000"><ele>517.536000</ele><time>2009-07-28T10:07:28Z</time></trkpt><trkpt lat="43.516715000" lon="12.934617000"><ele>517.247000</ele><time>2009-07-28T10:07:32Z</time></trkpt><trkpt lat="43.516716000" lon="12.934640000"><ele>516.604000</ele><time>2009-07-28T10:07:34Z</time></trkpt><trkpt lat="43.516735000" lon="12.934698000"><ele>516.127000</ele><time>2009-07-28T10:07:38Z</time></trkpt><trkpt lat="43.516745000" lon="12.934726000"><ele>515.939000</ele><time>2009-07-28T10:07:40Z</time></trkpt><trkpt lat="43.516751000" lon="12.934785000"><ele>515.514000</ele><time>2009-07-28T10:07:44Z</time></trkpt><trkpt lat="43.516761000" lon="12.934800000"><ele>515.492000</ele><time>2009-07-28T10:07:46Z</time></trkpt><trkpt lat="43.516778000" lon="12.934836000"><ele>515.167000</ele><time>2009-07-28T10:07:50Z</time></trkpt><trkpt lat="43.516798000" lon="12.934863000"><ele>515.211000</ele><time>2009-07-28T10:07:52Z</time></trkpt><trkpt lat="43.516835000" lon="12.934888000"><ele>514.711000</ele><time>2009-07-28T10:07:56Z</time></trkpt><trkpt lat="43.516850000" lon="12.934909000"><ele>514.625000</ele><time>2009-07-28T10:07:58Z</time></trkpt><trkpt lat="43.516869000" lon="12.934969000"><ele>514.548000</ele><time>2009-07-28T10:08:02Z</time></trkpt><trkpt lat="43.516876000" lon="12.934998000"><ele>514.534000</ele><time>2009-07-28T10:08:04Z</time></trkpt><trkpt lat="43.516892000" lon="12.935055000"><ele>514.411000</ele><time>2009-07-28T10:08:08Z</time></trkpt><trkpt lat="43.516893000" lon="12.935071000"><ele>514.337000</ele><time>2009-07-28T10:08:10Z</time></trkpt><trkpt lat="43.516912000" lon="12.935130000"><ele>514.005000</ele><time>2009-07-28T10:08:14Z</time></trkpt><trkpt lat="43.516934000" lon="12.935140000"><ele>513.991000</ele><time>2009-07-28T10:08:16Z</time></trkpt><trkpt lat="43.516973000" lon="12.935186000"><ele>513.922000</ele><time>2009-07-28T10:08:20Z</time></trkpt><trkpt lat="43.516982000" lon="12.935213000"><ele>513.794000</ele><time>2009-07-28T10:08:22Z</time></trkpt><trkpt lat="43.517009000" lon="12.935253000"><ele>513.700000</ele><time>2009-07-28T10:08:26Z</time></trkpt><trkpt lat="43.517015000" lon="12.935281000"><ele>513.616000</ele><time>2009-07-28T10:08:28Z</time></trkpt><trkpt lat="43.517019000" lon="12.935331000"><ele>513.235000</ele><time>2009-07-28T10:08:32Z</time></trkpt><trkpt lat="43.517033000" lon="12.935349000"><ele>513.102000</ele><time>2009-07-28T10:08:34Z</time></trkpt><trkpt lat="43.517040000" lon="12.935408000"><ele>512.815000</ele><time>2009-07-28T10:08:38Z</time></trkpt><trkpt lat="43.517061000" lon="12.935423000"><ele>512.653000</ele><time>2009-07-28T10:08:40Z</time></trkpt><trkpt lat="43.517094000" lon="12.935479000"><ele>512.441000</ele><time>2009-07-28T10:08:44Z</time></trkpt><trkpt lat="43.517083000" lon="12.935497000"><ele>512.063000</ele><time>2009-07-28T10:08:46Z</time></trkpt><trkpt lat="43.517120000" lon="12.935539000"><ele>512.064000</ele><time>2009-07-28T10:08:50Z</time></trkpt><trkpt lat="43.517130000" lon="12.935565000"><ele>511.900000</ele><time>2009-07-28T10:08:52Z</time></trkpt><trkpt lat="43.517152000" lon="12.935607000"><ele>511.481000</ele><time>2009-07-28T10:08:56Z</time></trkpt><trkpt lat="43.517185000" lon="12.935631000"><ele>511.212000</ele><time>2009-07-28T10:08:58Z</time></trkpt><trkpt lat="43.517220000" lon="12.935665000"><ele>510.796000</ele><time>2009-07-28T10:09:02Z</time></trkpt><trkpt lat="43.517218000" lon="12.935691000"><ele>510.690000</ele><time>2009-07-28T10:09:04Z</time></trkpt><trkpt lat="43.517241000" lon="12.935741000"><ele>510.178000</ele><time>2009-07-28T10:09:08Z</time></trkpt><trkpt lat="43.517251000" lon="12.935760000"><ele>510.158000</ele><time>2009-07-28T10:09:10Z</time></trkpt><trkpt lat="43.517253000" lon="12.935794000"><ele>510.051000</ele><time>2009-07-28T10:09:14Z</time></trkpt><trkpt lat="43.517262000" lon="12.935825000"><ele>509.765000</ele><time>2009-07-28T10:09:16Z</time></trkpt><trkpt lat="43.517278000" lon="12.935883000"><ele>509.655000</ele><time>2009-07-28T10:09:20Z</time></trkpt><trkpt lat="43.517254000" lon="12.935932000"><ele>508.419000</ele><time>2009-07-28T10:09:22Z</time></trkpt><trkpt lat="43.517295000" lon="12.935972000"><ele>508.505000</ele><time>2009-07-28T10:09:26Z</time></trkpt><trkpt lat="43.517314000" lon="12.936002000"><ele>508.553000</ele><time>2009-07-28T10:09:28Z</time></trkpt><trkpt lat="43.517348000" lon="12.936058000"><ele>508.537000</ele><time>2009-07-28T10:09:32Z</time></trkpt><trkpt lat="43.517359000" lon="12.936077000"><ele>508.560000</ele><time>2009-07-28T10:09:34Z</time></trkpt><trkpt lat="43.517376000" lon="12.936118000"><ele>508.419000</ele><time>2009-07-28T10:09:38Z</time></trkpt><trkpt lat="43.517389000" lon="12.936142000"><ele>508.327000</ele><time>2009-07-28T10:09:40Z</time></trkpt><trkpt lat="43.517396000" lon="12.936192000"><ele>508.184000</ele><time>2009-07-28T10:09:44Z</time></trkpt><trkpt lat="43.517413000" lon="12.936205000"><ele>508.241000</ele><time>2009-07-28T10:09:46Z</time></trkpt><trkpt lat="43.517432000" lon="12.936245000"><ele>508.414000</ele><time>2009-07-28T10:09:50Z</time></trkpt><trkpt lat="43.517439000" lon="12.936266000"><ele>508.523000</ele><time>2009-07-28T10:09:52Z</time></trkpt><trkpt lat="43.517465000" lon="12.936313000"><ele>508.686000</ele><time>2009-07-28T10:09:56Z</time></trkpt><trkpt lat="43.517478000" lon="12.936341000"><ele>508.712000</ele><time>2009-07-28T10:09:58Z</time></trkpt><trkpt lat="43.517499000" lon="12.936379000"><ele>509.110000</ele><time>2009-07-28T10:10:02Z</time></trkpt><trkpt lat="43.517507000" lon="12.936401000"><ele>509.318000</ele><time>2009-07-28T10:10:04Z</time></trkpt><trkpt lat="43.517511000" lon="12.936432000"><ele>509.743000</ele><time>2009-07-28T10:10:08Z</time></trkpt><trkpt lat="43.517513000" lon="12.936443000"><ele>510.053000</ele><time>2009-07-28T10:10:10Z</time></trkpt><trkpt lat="43.517546000" lon="12.936487000"><ele>510.307000</ele><time>2009-07-28T10:10:14Z</time></trkpt><trkpt lat="43.517551000" lon="12.936504000"><ele>510.460000</ele><time>2009-07-28T10:10:16Z</time></trkpt><trkpt lat="43.517590000" lon="12.936559000"><ele>510.622000</ele><time>2009-07-28T10:10:20Z</time></trkpt><trkpt lat="43.517611000" lon="12.936572000"><ele>510.624000</ele><time>2009-07-28T10:10:22Z</time></trkpt><trkpt lat="43.517785000" lon="12.936618000"><ele>510.350000</ele><time>2009-07-28T10:10:25Z</time></trkpt><trkpt lat="43.517806000" lon="12.936627000"><ele>510.334000</ele><time>2009-07-28T10:10:27Z</time></trkpt><trkpt lat="43.517805000" lon="12.936633000"><ele>510.560000</ele><time>2009-07-28T10:10:31Z</time></trkpt><trkpt lat="43.517797000" lon="12.936638000"><ele>510.603000</ele><time>2009-07-28T10:10:33Z</time></trkpt><trkpt lat="43.517825000" lon="12.936688000"><ele>510.607000</ele><time>2009-07-28T10:10:37Z</time></trkpt><trkpt lat="43.517825000" lon="12.936707000"><ele>510.605000</ele><time>2009-07-28T10:10:39Z</time></trkpt><trkpt lat="43.517909000" lon="12.936698000"><ele>508.722000</ele><time>2009-07-28T10:10:43Z</time></trkpt><trkpt lat="43.517909000" lon="12.936701000"><ele>508.486000</ele><time>2009-07-28T10:10:45Z</time></trkpt><trkpt lat="43.517928000" lon="12.936698000"><ele>508.054000</ele><time>2009-07-28T10:10:49Z</time></trkpt><trkpt lat="43.517904000" lon="12.936700000"><ele>507.532000</ele><time>2009-07-28T10:10:51Z</time></trkpt><trkpt lat="43.517921000" lon="12.936704000"><ele>507.024000</ele><time>2009-07-28T10:10:55Z</time></trkpt><trkpt lat="43.517912000" lon="12.936735000"><ele>506.266000</ele><time>2009-07-28T10:10:57Z</time></trkpt><trkpt lat="43.517948000" lon="12.936740000"><ele>505.945000</ele><time>2009-07-28T10:11:01Z</time></trkpt><trkpt lat="43.517962000" lon="12.936739000"><ele>505.525000</ele><time>2009-07-28T10:11:03Z</time></trkpt><trkpt lat="43.517968000" lon="12.936729000"><ele>503.656000</ele><time>2009-07-28T10:11:07Z</time></trkpt><trkpt lat="43.517962000" lon="12.936716000"><ele>502.969000</ele><time>2009-07-28T10:11:09Z</time></trkpt><trkpt lat="43.517963000" lon="12.936717000"><ele>502.981000</ele><time>2009-07-28T10:11:13Z</time></trkpt><trkpt lat="43.517975000" lon="12.936719000"><ele>502.787000</ele><time>2009-07-28T10:11:15Z</time></trkpt><trkpt lat="43.518022000" lon="12.936701000"><ele>501.749000</ele><time>2009-07-28T10:11:19Z</time></trkpt><trkpt lat="43.518049000" lon="12.936693000"><ele>500.874000</ele><time>2009-07-28T10:11:21Z</time></trkpt><trkpt lat="43.518085000" lon="12.936717000"><ele>499.499000</ele><time>2009-07-28T10:11:25Z</time></trkpt><trkpt lat="43.518064000" lon="12.936754000"><ele>497.592000</ele><time>2009-07-28T10:11:27Z</time></trkpt><trkpt lat="43.518090000" lon="12.936762000"><ele>497.070000</ele><time>2009-07-28T10:11:31Z</time></trkpt><trkpt lat="43.518107000" lon="12.936776000"><ele>496.607000</ele><time>2009-07-28T10:11:33Z</time></trkpt><trkpt lat="43.518172000" lon="12.936753000"><ele>493.879000</ele><time>2009-07-28T10:11:37Z</time></trkpt><trkpt lat="43.518178000" lon="12.936753000"><ele>493.179000</ele><time>2009-07-28T10:11:39Z</time></trkpt><trkpt lat="43.518207000" lon="12.936773000"><ele>492.219000</ele><time>2009-07-28T10:11:43Z</time></trkpt><trkpt lat="43.518247000" lon="12.936810000"><ele>491.326000</ele><time>2009-07-28T10:11:45Z</time></trkpt><trkpt lat="43.518260000" lon="12.936832000"><ele>489.361000</ele><time>2009-07-28T10:11:49Z</time></trkpt><trkpt lat="43.518269000" lon="12.936841000"><ele>488.830000</ele><time>2009-07-28T10:11:51Z</time></trkpt><trkpt lat="43.518290000" lon="12.936852000"><ele>488.124000</ele><time>2009-07-28T10:11:55Z</time></trkpt><trkpt lat="43.518311000" lon="12.936845000"><ele>487.890000</ele><time>2009-07-28T10:11:57Z</time></trkpt><trkpt lat="43.518354000" lon="12.936864000"><ele>485.417000</ele><time>2009-07-28T10:12:01Z</time></trkpt><trkpt lat="43.518359000" lon="12.936875000"><ele>484.095000</ele><time>2009-07-28T10:12:03Z</time></trkpt><trkpt lat="43.518402000" lon="12.936874000"><ele>482.658000</ele><time>2009-07-28T10:12:07Z</time></trkpt><trkpt lat="43.518413000" lon="12.936865000"><ele>481.803000</ele><time>2009-07-28T10:12:09Z</time></trkpt><trkpt lat="43.518429000" lon="12.936885000"><ele>479.412000</ele><time>2009-07-28T10:12:13Z</time></trkpt><trkpt lat="43.518440000" lon="12.936892000"><ele>477.706000</ele><time>2009-07-28T10:12:15Z</time></trkpt><trkpt lat="43.518466000" lon="12.936926000"><ele>474.705000</ele><time>2009-07-28T10:12:19Z</time></trkpt><trkpt lat="43.518489000" lon="12.936931000"><ele>474.036000</ele><time>2009-07-28T10:12:21Z</time></trkpt><trkpt lat="43.518529000" lon="12.936941000"><ele>472.713000</ele><time>2009-07-28T10:12:25Z</time></trkpt><trkpt lat="43.518547000" lon="12.936944000"><ele>472.196000</ele><time>2009-07-28T10:12:27Z</time></trkpt><trkpt lat="43.518613000" lon="12.936968000"><ele>470.424000</ele><time>2009-07-28T10:12:31Z</time></trkpt><trkpt lat="43.518628000" lon="12.936972000"><ele>470.434000</ele><time>2009-07-28T10:12:33Z</time></trkpt><trkpt lat="43.518671000" lon="12.936964000"><ele>470.310000</ele><time>2009-07-28T10:12:37Z</time></trkpt><trkpt lat="43.518676000" lon="12.936981000"><ele>470.049000</ele><time>2009-07-28T10:12:39Z</time></trkpt><trkpt lat="43.518717000" lon="12.936999000"><ele>470.257000</ele><time>2009-07-28T10:12:43Z</time></trkpt><trkpt lat="43.518730000" lon="12.937009000"><ele>469.564000</ele><time>2009-07-28T10:12:45Z</time></trkpt><trkpt lat="43.518782000" lon="12.937023000"><ele>468.456000</ele><time>2009-07-28T10:12:49Z</time></trkpt><trkpt lat="43.518802000" lon="12.937029000"><ele>467.630000</ele><time>2009-07-28T10:12:51Z</time></trkpt><trkpt lat="43.518818000" lon="12.937055000"><ele>466.394000</ele><time>2009-07-28T10:12:55Z</time></trkpt><trkpt lat="43.518834000" lon="12.937063000"><ele>465.984000</ele><time>2009-07-28T10:12:57Z</time></trkpt><trkpt lat="43.518859000" lon="12.937070000"><ele>464.517000</ele><time>2009-07-28T10:13:01Z</time></trkpt><trkpt lat="43.518911000" lon="12.937058000"><ele>463.540000</ele><time>2009-07-28T10:13:03Z</time></trkpt><trkpt lat="43.518934000" lon="12.937076000"><ele>463.244000</ele><time>2009-07-28T10:13:07Z</time></trkpt><trkpt lat="43.518946000" lon="12.937089000"><ele>461.315000</ele><time>2009-07-28T10:13:09Z</time></trkpt><trkpt lat="43.519010000" lon="12.937079000"><ele>460.440000</ele><time>2009-07-28T10:13:13Z</time></trkpt><trkpt lat="43.519029000" lon="12.937084000"><ele>460.111000</ele><time>2009-07-28T10:13:15Z</time></trkpt><trkpt lat="43.519059000" lon="12.937113000"><ele>458.373000</ele><time>2009-07-28T10:13:19Z</time></trkpt><trkpt lat="43.519064000" lon="12.937123000"><ele>457.996000</ele><time>2009-07-28T10:13:21Z</time></trkpt><trkpt lat="43.519091000" lon="12.937138000"><ele>456.467000</ele><time>2009-07-28T10:13:25Z</time></trkpt><trkpt lat="43.519118000" lon="12.937142000"><ele>456.366000</ele><time>2009-07-28T10:13:27Z</time></trkpt><trkpt lat="43.519162000" lon="12.937159000"><ele>455.681000</ele><time>2009-07-28T10:13:31Z</time></trkpt><trkpt lat="43.519182000" lon="12.937181000"><ele>454.899000</ele><time>2009-07-28T10:13:33Z</time></trkpt><trkpt lat="43.519221000" lon="12.937201000"><ele>453.301000</ele><time>2009-07-28T10:13:37Z</time></trkpt><trkpt lat="43.519252000" lon="12.937213000"><ele>452.830000</ele><time>2009-07-28T10:13:39Z</time></trkpt><trkpt lat="43.519297000" lon="12.937246000"><ele>451.907000</ele><time>2009-07-28T10:13:43Z</time></trkpt><trkpt lat="43.519296000" lon="12.937269000"><ele>449.703000</ele><time>2009-07-28T10:13:45Z</time></trkpt><trkpt lat="43.519356000" lon="12.937300000"><ele>447.295000</ele><time>2009-07-28T10:13:49Z</time></trkpt><trkpt lat="43.519365000" lon="12.937323000"><ele>447.140000</ele><time>2009-07-28T10:13:51Z</time></trkpt><trkpt lat="43.519399000" lon="12.937334000"><ele>447.122000</ele><time>2009-07-28T10:13:55Z</time></trkpt><trkpt lat="43.519433000" lon="12.937331000"><ele>446.337000</ele><time>2009-07-28T10:13:57Z</time></trkpt><trkpt lat="43.519476000" lon="12.937352000"><ele>444.933000</ele><time>2009-07-28T10:14:01Z</time></trkpt><trkpt lat="43.519486000" lon="12.937368000"><ele>445.014000</ele><time>2009-07-28T10:14:03Z</time></trkpt><trkpt lat="43.519492000" lon="12.937400000"><ele>444.180000</ele><time>2009-07-28T10:14:07Z</time></trkpt><trkpt lat="43.519512000" lon="12.937431000"><ele>443.602000</ele><time>2009-07-28T10:14:09Z</time></trkpt><trkpt lat="43.519542000" lon="12.937458000"><ele>443.864000</ele><time>2009-07-28T10:14:13Z</time></trkpt><trkpt lat="43.519557000" lon="12.937477000"><ele>444.131000</ele><time>2009-07-28T10:14:15Z</time></trkpt><trkpt lat="43.519625000" lon="12.937501000"><ele>443.517000</ele><time>2009-07-28T10:14:19Z</time></trkpt><trkpt lat="43.519653000" lon="12.937507000"><ele>443.574000</ele><time>2009-07-28T10:14:21Z</time></trkpt><trkpt lat="43.519688000" lon="12.937540000"><ele>443.386000</ele><time>2009-07-28T10:14:25Z</time></trkpt><trkpt lat="43.519698000" lon="12.937546000"><ele>443.368000</ele><time>2009-07-28T10:14:27Z</time></trkpt><trkpt lat="43.519740000" lon="12.937559000"><ele>443.491000</ele><time>2009-07-28T10:14:31Z</time></trkpt><trkpt lat="43.519751000" lon="12.937567000"><ele>443.351000</ele><time>2009-07-28T10:14:33Z</time></trkpt><trkpt lat="43.519775000" lon="12.937608000"><ele>442.773000</ele><time>2009-07-28T10:14:37Z</time></trkpt><trkpt lat="43.519779000" lon="12.937636000"><ele>442.508000</ele><time>2009-07-28T10:14:39Z</time></trkpt><trkpt lat="43.519814000" lon="12.937667000"><ele>442.159000</ele><time>2009-07-28T10:14:43Z</time></trkpt><trkpt lat="43.519831000" lon="12.937682000"><ele>441.898000</ele><time>2009-07-28T10:14:45Z</time></trkpt><trkpt lat="43.519851000" lon="12.937703000"><ele>441.820000</ele><time>2009-07-28T10:14:49Z</time></trkpt><trkpt lat="43.519869000" lon="12.937725000"><ele>441.559000</ele><time>2009-07-28T10:14:51Z</time></trkpt><trkpt lat="43.519915000" lon="12.937745000"><ele>441.483000</ele><time>2009-07-28T10:14:55Z</time></trkpt><trkpt lat="43.519926000" lon="12.937760000"><ele>441.190000</ele><time>2009-07-28T10:14:57Z</time></trkpt><trkpt lat="43.519965000" lon="12.937773000"><ele>441.209000</ele><time>2009-07-28T10:15:01Z</time></trkpt><trkpt lat="43.519993000" lon="12.937775000"><ele>441.079000</ele><time>2009-07-28T10:15:03Z</time></trkpt><trkpt lat="43.520025000" lon="12.937784000"><ele>441.113000</ele><time>2009-07-28T10:15:07Z</time></trkpt><trkpt lat="43.520060000" lon="12.937789000"><ele>441.076000</ele><time>2009-07-28T10:15:09Z</time></trkpt><trkpt lat="43.520097000" lon="12.937824000"><ele>441.043000</ele><time>2009-07-28T10:15:13Z</time></trkpt><trkpt lat="43.520120000" lon="12.937875000"><ele>440.761000</ele><time>2009-07-28T10:15:15Z</time></trkpt><trkpt lat="43.520187000" lon="12.937890000"><ele>440.166000</ele><time>2009-07-28T10:15:19Z</time></trkpt><trkpt lat="43.520216000" lon="12.937897000"><ele>440.027000</ele><time>2009-07-28T10:15:21Z</time></trkpt><trkpt lat="43.520255000" lon="12.937913000"><ele>439.628000</ele><time>2009-07-28T10:15:25Z</time></trkpt><trkpt lat="43.520279000" lon="12.937916000"><ele>439.346000</ele><time>2009-07-28T10:15:27Z</time></trkpt><trkpt lat="43.520319000" lon="12.937956000"><ele>439.039000</ele><time>2009-07-28T10:15:31Z</time></trkpt><trkpt lat="43.520309000" lon="12.937974000"><ele>437.689000</ele><time>2009-07-28T10:15:33Z</time></trkpt><trkpt lat="43.520345000" lon="12.937992000"><ele>437.648000</ele><time>2009-07-28T10:15:37Z</time></trkpt><trkpt lat="43.520380000" lon="12.937995000"><ele>437.636000</ele><time>2009-07-28T10:15:39Z</time></trkpt><trkpt lat="43.520402000" lon="12.938024000"><ele>437.428000</ele><time>2009-07-28T10:15:43Z</time></trkpt><trkpt lat="43.520426000" lon="12.938030000"><ele>436.566000</ele><time>2009-07-28T10:15:45Z</time></trkpt><trkpt lat="43.520448000" lon="12.938018000"><ele>436.372000</ele><time>2009-07-28T10:15:49Z</time></trkpt><trkpt lat="43.520450000" lon="12.938016000"><ele>434.359000</ele><time>2009-07-28T10:15:51Z</time></trkpt><trkpt lat="43.520480000" lon="12.938040000"><ele>434.216000</ele><time>2009-07-28T10:15:55Z</time></trkpt><trkpt lat="43.520487000" lon="12.938043000"><ele>433.647000</ele><time>2009-07-28T10:15:57Z</time></trkpt><trkpt lat="43.520522000" lon="12.938049000"><ele>433.743000</ele><time>2009-07-28T10:16:01Z</time></trkpt><trkpt lat="43.520549000" lon="12.938052000"><ele>433.579000</ele><time>2009-07-28T10:16:03Z</time></trkpt><trkpt lat="43.520555000" lon="12.938071000"><ele>432.979000</ele><time>2009-07-28T10:16:07Z</time></trkpt><trkpt lat="43.520573000" lon="12.938080000"><ele>432.956000</ele><time>2009-07-28T10:16:09Z</time></trkpt><trkpt lat="43.520605000" lon="12.938091000"><ele>432.930000</ele><time>2009-07-28T10:16:13Z</time></trkpt><trkpt lat="43.520632000" lon="12.938101000"><ele>432.633000</ele><time>2009-07-28T10:16:15Z</time></trkpt><trkpt lat="43.520649000" lon="12.938128000"><ele>431.200000</ele><time>2009-07-28T10:16:19Z</time></trkpt><trkpt lat="43.520647000" lon="12.938134000"><ele>430.284000</ele><time>2009-07-28T10:16:21Z</time></trkpt><trkpt lat="43.520679000" lon="12.938141000"><ele>429.911000</ele><time>2009-07-28T10:16:25Z</time></trkpt><trkpt lat="43.520689000" lon="12.938146000"><ele>429.500000</ele><time>2009-07-28T10:16:27Z</time></trkpt><trkpt lat="43.520752000" lon="12.938158000"><ele>429.705000</ele><time>2009-07-28T10:16:31Z</time></trkpt><trkpt lat="43.520795000" lon="12.938159000"><ele>429.965000</ele><time>2009-07-28T10:16:33Z</time></trkpt><trkpt lat="43.520823000" lon="12.938179000"><ele>429.028000</ele><time>2009-07-28T10:16:37Z</time></trkpt><trkpt lat="43.520847000" lon="12.938194000"><ele>428.523000</ele><time>2009-07-28T10:16:39Z</time></trkpt><trkpt lat="43.520896000" lon="12.938212000"><ele>428.333000</ele><time>2009-07-28T10:16:43Z</time></trkpt><trkpt lat="43.520911000" lon="12.938223000"><ele>428.317000</ele><time>2009-07-28T10:16:45Z</time></trkpt><trkpt lat="43.520957000" lon="12.938227000"><ele>428.720000</ele><time>2009-07-28T10:16:49Z</time></trkpt><trkpt lat="43.520969000" lon="12.938234000"><ele>428.272000</ele><time>2009-07-28T10:16:51Z</time></trkpt><trkpt lat="43.520988000" lon="12.938260000"><ele>428.095000</ele><time>2009-07-28T10:16:55Z</time></trkpt><trkpt lat="43.521003000" lon="12.938266000"><ele>428.141000</ele><time>2009-07-28T10:16:57Z</time></trkpt><trkpt lat="43.521020000" lon="12.938288000"><ele>427.441000</ele><time>2009-07-28T10:17:01Z</time></trkpt><trkpt lat="43.521044000" lon="12.938304000"><ele>427.177000</ele><time>2009-07-28T10:17:03Z</time></trkpt><trkpt lat="43.521083000" lon="12.938314000"><ele>427.529000</ele><time>2009-07-28T10:17:07Z</time></trkpt><trkpt lat="43.521112000" lon="12.938310000"><ele>427.618000</ele><time>2009-07-28T10:17:09Z</time></trkpt><trkpt lat="43.521156000" lon="12.938313000"><ele>428.254000</ele><time>2009-07-28T10:17:13Z</time></trkpt><trkpt lat="43.521152000" lon="12.938339000"><ele>427.920000</ele><time>2009-07-28T10:17:15Z</time></trkpt><trkpt lat="43.521190000" lon="12.938340000"><ele>428.263000</ele><time>2009-07-28T10:17:19Z</time></trkpt><trkpt lat="43.521222000" lon="12.938357000"><ele>428.209000</ele><time>2009-07-28T10:17:21Z</time></trkpt><trkpt lat="43.521258000" lon="12.938337000"><ele>428.070000</ele><time>2009-07-28T10:17:25Z</time></trkpt><trkpt lat="43.521261000" lon="12.938343000"><ele>428.063000</ele><time>2009-07-28T10:17:27Z</time></trkpt><trkpt lat="43.521286000" lon="12.938355000"><ele>428.144000</ele><time>2009-07-28T10:17:31Z</time></trkpt><trkpt lat="43.521301000" lon="12.938362000"><ele>428.260000</ele><time>2009-07-28T10:17:33Z</time></trkpt><trkpt lat="43.521351000" lon="12.938382000"><ele>428.473000</ele><time>2009-07-28T10:17:37Z</time></trkpt><trkpt lat="43.521355000" lon="12.938414000"><ele>428.381000</ele><time>2009-07-28T10:17:39Z</time></trkpt><trkpt lat="43.521400000" lon="12.938426000"><ele>428.391000</ele><time>2009-07-28T10:17:43Z</time></trkpt><trkpt lat="43.521394000" lon="12.938460000"><ele>428.128000</ele><time>2009-07-28T10:17:45Z</time></trkpt><trkpt lat="43.521436000" lon="12.938516000"><ele>427.611000</ele><time>2009-07-28T10:17:49Z</time></trkpt><trkpt lat="43.521463000" lon="12.938532000"><ele>427.583000</ele><time>2009-07-28T10:17:51Z</time></trkpt><trkpt lat="43.521529000" lon="12.938570000"><ele>427.553000</ele><time>2009-07-28T10:17:55Z</time></trkpt><trkpt lat="43.521539000" lon="12.938586000"><ele>427.626000</ele><time>2009-07-28T10:17:57Z</time></trkpt><trkpt lat="43.521584000" lon="12.938613000"><ele>427.612000</ele><time>2009-07-28T10:18:01Z</time></trkpt><trkpt lat="43.521602000" lon="12.938630000"><ele>427.693000</ele><time>2009-07-28T10:18:03Z</time></trkpt><trkpt lat="43.521628000" lon="12.938656000"><ele>427.762000</ele><time>2009-07-28T10:18:07Z</time></trkpt><trkpt lat="43.521658000" lon="12.938661000"><ele>427.878000</ele><time>2009-07-28T10:18:09Z</time></trkpt><trkpt lat="43.521707000" lon="12.938675000"><ele>428.208000</ele><time>2009-07-28T10:18:13Z</time></trkpt><trkpt lat="43.521720000" lon="12.938671000"><ele>427.874000</ele><time>2009-07-28T10:18:15Z</time></trkpt><trkpt lat="43.521741000" lon="12.938689000"><ele>428.100000</ele><time>2009-07-28T10:18:19Z</time></trkpt><trkpt lat="43.521748000" lon="12.938707000"><ele>428.073000</ele><time>2009-07-28T10:18:21Z</time></trkpt><trkpt lat="43.521776000" lon="12.938753000"><ele>427.210000</ele><time>2009-07-28T10:18:25Z</time></trkpt><trkpt lat="43.521777000" lon="12.938780000"><ele>427.219000</ele><time>2009-07-28T10:18:27Z</time></trkpt><trkpt lat="43.521816000" lon="12.938756000"><ele>427.432000</ele><time>2009-07-28T10:18:31Z</time></trkpt><trkpt lat="43.521824000" lon="12.938758000"><ele>427.553000</ele><time>2009-07-28T10:18:33Z</time></trkpt><trkpt lat="43.521857000" lon="12.938747000"><ele>427.401000</ele><time>2009-07-28T10:18:37Z</time></trkpt><trkpt lat="43.521866000" lon="12.938778000"><ele>427.415000</ele><time>2009-07-28T10:18:39Z</time></trkpt><trkpt lat="43.521907000" lon="12.938791000"><ele>427.559000</ele><time>2009-07-28T10:18:43Z</time></trkpt><trkpt lat="43.521921000" lon="12.938792000"><ele>427.718000</ele><time>2009-07-28T10:18:45Z</time></trkpt><trkpt lat="43.521947000" lon="12.938781000"><ele>427.224000</ele><time>2009-07-28T10:18:49Z</time></trkpt><trkpt lat="43.521965000" lon="12.938803000"><ele>427.651000</ele><time>2009-07-28T10:18:51Z</time></trkpt><trkpt lat="43.522006000" lon="12.938824000"><ele>427.645000</ele><time>2009-07-28T10:18:55Z</time></trkpt><trkpt lat="43.522021000" lon="12.938830000"><ele>427.762000</ele><time>2009-07-28T10:18:57Z</time></trkpt><trkpt lat="43.522043000" lon="12.938844000"><ele>427.833000</ele><time>2009-07-28T10:19:01Z</time></trkpt><trkpt lat="43.522058000" lon="12.938825000"><ele>428.220000</ele><time>2009-07-28T10:19:03Z</time></trkpt><trkpt lat="43.522105000" lon="12.938816000"><ele>427.855000</ele><time>2009-07-28T10:19:07Z</time></trkpt><trkpt lat="43.522114000" lon="12.938836000"><ele>427.900000</ele><time>2009-07-28T10:19:09Z</time></trkpt><trkpt lat="43.522152000" lon="12.938838000"><ele>428.038000</ele><time>2009-07-28T10:19:13Z</time></trkpt><trkpt lat="43.522175000" lon="12.938845000"><ele>428.209000</ele><time>2009-07-28T10:19:15Z</time></trkpt><trkpt lat="43.522244000" lon="12.938864000"><ele>428.430000</ele><time>2009-07-28T10:19:19Z</time></trkpt><trkpt lat="43.522266000" lon="12.938873000"><ele>428.499000</ele><time>2009-07-28T10:19:21Z</time></trkpt><trkpt lat="43.522296000" lon="12.938892000"><ele>428.485000</ele><time>2009-07-28T10:19:25Z</time></trkpt><trkpt lat="43.522309000" lon="12.938898000"><ele>428.449000</ele><time>2009-07-28T10:19:27Z</time></trkpt><trkpt lat="43.522365000" lon="12.938896000"><ele>428.443000</ele><time>2009-07-28T10:19:31Z</time></trkpt><trkpt lat="43.522369000" lon="12.938929000"><ele>428.440000</ele><time>2009-07-28T10:19:33Z</time></trkpt><trkpt lat="43.522436000" lon="12.939016000"><ele>428.705000</ele><time>2009-07-28T10:19:37Z</time></trkpt><trkpt lat="43.522468000" lon="12.939026000"><ele>427.225000</ele><time>2009-07-28T10:19:39Z</time></trkpt><trkpt lat="43.522513000" lon="12.939056000"><ele>427.042000</ele><time>2009-07-28T10:19:43Z</time></trkpt><trkpt lat="43.522521000" lon="12.939070000"><ele>426.571000</ele><time>2009-07-28T10:19:45Z</time></trkpt><trkpt lat="43.522558000" lon="12.939121000"><ele>424.730000</ele><time>2009-07-28T10:19:49Z</time></trkpt><trkpt lat="43.522577000" lon="12.939094000"><ele>423.665000</ele><time>2009-07-28T10:19:51Z</time></trkpt><trkpt lat="43.522582000" lon="12.939124000"><ele>422.402000</ele><time>2009-07-28T10:19:55Z</time></trkpt><trkpt lat="43.522624000" lon="12.939094000"><ele>422.186000</ele><time>2009-07-28T10:19:57Z</time></trkpt><trkpt lat="43.522668000" lon="12.939044000"><ele>418.873000</ele><time>2009-07-28T10:20:01Z</time></trkpt><trkpt lat="43.522666000" lon="12.939048000"><ele>418.265000</ele><time>2009-07-28T10:20:03Z</time></trkpt><trkpt lat="43.522680000" lon="12.939042000"><ele>418.164000</ele><time>2009-07-28T10:20:07Z</time></trkpt><trkpt lat="43.522686000" lon="12.939019000"><ele>418.250000</ele><time>2009-07-28T10:20:09Z</time></trkpt><trkpt lat="43.522698000" lon="12.938999000"><ele>418.295000</ele><time>2009-07-28T10:20:13Z</time></trkpt><trkpt lat="43.522729000" lon="12.938975000"><ele>418.206000</ele><time>2009-07-28T10:20:15Z</time></trkpt><trkpt lat="43.522771000" lon="12.938922000"><ele>418.275000</ele><time>2009-07-28T10:20:19Z</time></trkpt><trkpt lat="43.522820000" lon="12.938906000"><ele>418.332000</ele><time>2009-07-28T10:20:21Z</time></trkpt><trkpt lat="43.522875000" lon="12.938902000"><ele>417.977000</ele><time>2009-07-28T10:20:25Z</time></trkpt><trkpt lat="43.522907000" lon="12.938907000"><ele>417.898000</ele><time>2009-07-28T10:20:27Z</time></trkpt><trkpt lat="43.522974000" lon="12.938978000"><ele>417.836000</ele><time>2009-07-28T10:20:31Z</time></trkpt><trkpt lat="43.523000000" lon="12.938954000"><ele>417.640000</ele><time>2009-07-28T10:20:33Z</time></trkpt><trkpt lat="43.523068000" lon="12.938918000"><ele>417.376000</ele><time>2009-07-28T10:20:37Z</time></trkpt><trkpt lat="43.523087000" lon="12.938926000"><ele>417.458000</ele><time>2009-07-28T10:20:39Z</time></trkpt><trkpt lat="43.523131000" lon="12.938928000"><ele>417.065000</ele><time>2009-07-28T10:20:43Z</time></trkpt><trkpt lat="43.523164000" lon="12.938932000"><ele>417.029000</ele><time>2009-07-28T10:20:45Z</time></trkpt><trkpt lat="43.523210000" lon="12.938936000"><ele>416.223000</ele><time>2009-07-28T10:20:49Z</time></trkpt><trkpt lat="43.523225000" lon="12.938943000"><ele>416.003000</ele><time>2009-07-28T10:20:51Z</time></trkpt><trkpt lat="43.523272000" lon="12.938986000"><ele>415.150000</ele><time>2009-07-28T10:20:55Z</time></trkpt><trkpt lat="43.523288000" lon="12.939014000"><ele>414.284000</ele><time>2009-07-28T10:20:57Z</time></trkpt><trkpt lat="43.523331000" lon="12.939050000"><ele>413.397000</ele><time>2009-07-28T10:21:01Z</time></trkpt><trkpt lat="43.523344000" lon="12.939077000"><ele>413.292000</ele><time>2009-07-28T10:21:03Z</time></trkpt><trkpt lat="43.523383000" lon="12.939104000"><ele>411.975000</ele><time>2009-07-28T10:21:07Z</time></trkpt><trkpt lat="43.523401000" lon="12.939122000"><ele>411.994000</ele><time>2009-07-28T10:21:09Z</time></trkpt><trkpt lat="43.523443000" lon="12.939172000"><ele>411.682000</ele><time>2009-07-28T10:21:13Z</time></trkpt><trkpt lat="43.523465000" lon="12.939171000"><ele>411.884000</ele><time>2009-07-28T10:21:15Z</time></trkpt><trkpt lat="43.523505000" lon="12.939202000"><ele>411.854000</ele><time>2009-07-28T10:21:19Z</time></trkpt><trkpt lat="43.523529000" lon="12.939212000"><ele>411.355000</ele><time>2009-07-28T10:21:21Z</time></trkpt><trkpt lat="43.523580000" lon="12.939241000"><ele>410.761000</ele><time>2009-07-28T10:21:25Z</time></trkpt><trkpt lat="43.523587000" lon="12.939273000"><ele>410.779000</ele><time>2009-07-28T10:21:27Z</time></trkpt><trkpt lat="43.523611000" lon="12.939265000"><ele>410.714000</ele><time>2009-07-28T10:21:31Z</time></trkpt><trkpt lat="43.523630000" lon="12.939261000"><ele>410.631000</ele><time>2009-07-28T10:21:33Z</time></trkpt><trkpt lat="43.523632000" lon="12.939261000"><ele>410.573000</ele><time>2009-07-28T10:21:37Z</time></trkpt><trkpt lat="43.523624000" lon="12.939271000"><ele>410.533000</ele><time>2009-07-28T10:21:39Z</time></trkpt><trkpt lat="43.523627000" lon="12.939273000"><ele>410.428000</ele><time>2009-07-28T10:21:43Z</time></trkpt><trkpt lat="43.523629000" lon="12.939275000"><ele>410.385000</ele><time>2009-07-28T10:21:45Z</time></trkpt><trkpt lat="43.523643000" lon="12.939284000"><ele>410.416000</ele><time>2009-07-28T10:21:49Z</time></trkpt><trkpt lat="43.523630000" lon="12.939327000"><ele>409.997000</ele><time>2009-07-28T10:21:51Z</time></trkpt><trkpt lat="43.523637000" lon="12.939339000"><ele>409.236000</ele><time>2009-07-28T10:21:55Z</time></trkpt><trkpt lat="43.523644000" lon="12.939320000"><ele>408.523000</ele><time>2009-07-28T10:21:57Z</time></trkpt><trkpt lat="43.523642000" lon="12.939330000"><ele>408.684000</ele><time>2009-07-28T10:22:01Z</time></trkpt><trkpt lat="43.523638000" lon="12.939348000"><ele>408.810000</ele><time>2009-07-28T10:22:03Z</time></trkpt><trkpt lat="43.523645000" lon="12.939358000"><ele>408.482000</ele><time>2009-07-28T10:22:07Z</time></trkpt><trkpt lat="43.523666000" lon="12.939338000"><ele>408.468000</ele><time>2009-07-28T10:22:09Z</time></trkpt><trkpt lat="43.523676000" lon="12.939331000"><ele>408.494000</ele><time>2009-07-28T10:22:13Z</time></trkpt><trkpt lat="43.523675000" lon="12.939334000"><ele>408.535000</ele><time>2009-07-28T10:22:15Z</time></trkpt><trkpt lat="43.523672000" lon="12.939327000"><ele>408.617000</ele><time>2009-07-28T10:22:19Z</time></trkpt><trkpt lat="43.523665000" lon="12.939327000"><ele>408.651000</ele><time>2009-07-28T10:22:21Z</time></trkpt><trkpt lat="43.523651000" lon="12.939334000"><ele>407.540000</ele><time>2009-07-28T10:22:25Z</time></trkpt><trkpt lat="43.523666000" lon="12.939294000"><ele>406.989000</ele><time>2009-07-28T10:22:27Z</time></trkpt><trkpt lat="43.523659000" lon="12.939295000"><ele>406.473000</ele><time>2009-07-28T10:22:31Z</time></trkpt><trkpt lat="43.523658000" lon="12.939294000"><ele>406.421000</ele><time>2009-07-28T10:22:33Z</time></trkpt><trkpt lat="43.523656000" lon="12.939293000"><ele>406.360000</ele><time>2009-07-28T10:22:37Z</time></trkpt><trkpt lat="43.523658000" lon="12.939295000"><ele>406.334000</ele><time>2009-07-28T10:22:39Z</time></trkpt><trkpt lat="43.523661000" lon="12.939297000"><ele>406.318000</ele><time>2009-07-28T10:22:43Z</time></trkpt><trkpt lat="43.523661000" lon="12.939297000"><ele>406.308000</ele><time>2009-07-28T10:22:45Z</time></trkpt><trkpt lat="43.523661000" lon="12.939295000"><ele>406.382000</ele><time>2009-07-28T10:22:49Z</time></trkpt><trkpt lat="43.523660000" lon="12.939294000"><ele>406.409000</ele><time>2009-07-28T10:22:51Z</time></trkpt><trkpt lat="43.523663000" lon="12.939296000"><ele>406.445000</ele><time>2009-07-28T10:22:55Z</time></trkpt><trkpt lat="43.523664000" lon="12.939297000"><ele>406.440000</ele><time>2009-07-28T10:22:57Z</time></trkpt><trkpt lat="43.523665000" lon="12.939297000"><ele>406.425000</ele><time>2009-07-28T10:23:01Z</time></trkpt><trkpt lat="43.523664000" lon="12.939296000"><ele>406.423000</ele><time>2009-07-28T10:23:03Z</time></trkpt><trkpt lat="43.523670000" lon="12.939300000"><ele>406.374000</ele><time>2009-07-28T10:23:07Z</time></trkpt><trkpt lat="43.523673000" lon="12.939317000"><ele>406.160000</ele><time>2009-07-28T10:23:09Z</time></trkpt><trkpt lat="43.523686000" lon="12.939337000"><ele>406.133000</ele><time>2009-07-28T10:23:13Z</time></trkpt><trkpt lat="43.523679000" lon="12.939338000"><ele>406.017000</ele><time>2009-07-28T10:23:15Z</time></trkpt><trkpt lat="43.523682000" lon="12.939339000"><ele>405.899000</ele><time>2009-07-28T10:23:19Z</time></trkpt><trkpt lat="43.523684000" lon="12.939340000"><ele>405.837000</ele><time>2009-07-28T10:23:21Z</time></trkpt><trkpt lat="43.523683000" lon="12.939338000"><ele>405.741000</ele><time>2009-07-28T10:23:25Z</time></trkpt><trkpt lat="43.523685000" lon="12.939340000"><ele>405.689000</ele><time>2009-07-28T10:23:27Z</time></trkpt><trkpt lat="43.523686000" lon="12.939339000"><ele>405.608000</ele><time>2009-07-28T10:23:31Z</time></trkpt><trkpt lat="43.523687000" lon="12.939341000"><ele>405.606000</ele><time>2009-07-28T10:23:33Z</time></trkpt><trkpt lat="43.523670000" lon="12.939348000"><ele>405.617000</ele><time>2009-07-28T10:23:37Z</time></trkpt><trkpt lat="43.523664000" lon="12.939351000"><ele>405.691000</ele><time>2009-07-28T10:23:39Z</time></trkpt><trkpt lat="43.523657000" lon="12.939356000"><ele>405.743000</ele><time>2009-07-28T10:23:43Z</time></trkpt><trkpt lat="43.523657000" lon="12.939357000"><ele>405.682000</ele><time>2009-07-28T10:23:45Z</time></trkpt><trkpt lat="43.523665000" lon="12.939334000"><ele>405.149000</ele><time>2009-07-28T10:23:49Z</time></trkpt><trkpt lat="43.523661000" lon="12.939325000"><ele>405.073000</ele><time>2009-07-28T10:23:51Z</time></trkpt><trkpt lat="43.523659000" lon="12.939340000"><ele>404.885000</ele><time>2009-07-28T10:23:55Z</time></trkpt><trkpt lat="43.523655000" lon="12.939330000"><ele>404.549000</ele><time>2009-07-28T10:23:57Z</time></trkpt><trkpt lat="43.523642000" lon="12.939293000"><ele>403.778000</ele><time>2009-07-28T10:24:01Z</time></trkpt><trkpt lat="43.523647000" lon="12.939281000"><ele>403.925000</ele><time>2009-07-28T10:24:03Z</time></trkpt><trkpt lat="43.523656000" lon="12.939239000"><ele>404.197000</ele><time>2009-07-28T10:24:07Z</time></trkpt><trkpt lat="43.523664000" lon="12.939234000"><ele>404.204000</ele><time>2009-07-28T10:24:09Z</time></trkpt><trkpt lat="43.523681000" lon="12.939230000"><ele>404.206000</ele><time>2009-07-28T10:24:13Z</time></trkpt><trkpt lat="43.523700000" lon="12.939285000"><ele>403.960000</ele><time>2009-07-28T10:24:15Z</time></trkpt><trkpt lat="43.523736000" lon="12.939322000"><ele>404.614000</ele><time>2009-07-28T10:24:19Z</time></trkpt><trkpt lat="43.523759000" lon="12.939344000"><ele>403.772000</ele><time>2009-07-28T10:24:21Z</time></trkpt><trkpt lat="43.523795000" lon="12.939356000"><ele>403.586000</ele><time>2009-07-28T10:24:25Z</time></trkpt><trkpt lat="43.523832000" lon="12.939380000"><ele>403.529000</ele><time>2009-07-28T10:24:27Z</time></trkpt><trkpt lat="43.523902000" lon="12.939404000"><ele>402.125000</ele><time>2009-07-28T10:24:31Z</time></trkpt><trkpt lat="43.523905000" lon="12.939398000"><ele>402.301000</ele><time>2009-07-28T10:24:33Z</time></trkpt><trkpt lat="43.523963000" lon="12.939404000"><ele>401.424000</ele><time>2009-07-28T10:24:37Z</time></trkpt><trkpt lat="43.523976000" lon="12.939425000"><ele>400.838000</ele><time>2009-07-28T10:24:39Z</time></trkpt><trkpt lat="43.524018000" lon="12.939430000"><ele>400.194000</ele><time>2009-07-28T10:24:43Z</time></trkpt><trkpt lat="43.524067000" lon="12.939421000"><ele>399.636000</ele><time>2009-07-28T10:24:45Z</time></trkpt><trkpt lat="43.524103000" lon="12.939422000"><ele>400.410000</ele><time>2009-07-28T10:24:49Z</time></trkpt><trkpt lat="43.524160000" lon="12.939432000"><ele>400.999000</ele><time>2009-07-28T10:24:51Z</time></trkpt><trkpt lat="43.524179000" lon="12.939464000"><ele>401.457000</ele><time>2009-07-28T10:24:55Z</time></trkpt><trkpt lat="43.524195000" lon="12.939475000"><ele>401.682000</ele><time>2009-07-28T10:24:57Z</time></trkpt><trkpt lat="43.524203000" lon="12.939515000"><ele>402.056000</ele><time>2009-07-28T10:25:01Z</time></trkpt><trkpt lat="43.524228000" lon="12.939545000"><ele>401.939000</ele><time>2009-07-28T10:25:03Z</time></trkpt><trkpt lat="43.524246000" lon="12.939580000"><ele>401.864000</ele><time>2009-07-28T10:25:07Z</time></trkpt><trkpt lat="43.524268000" lon="12.939587000"><ele>402.012000</ele><time>2009-07-28T10:25:09Z</time></trkpt><trkpt lat="43.524289000" lon="12.939593000"><ele>402.077000</ele><time>2009-07-28T10:25:13Z</time></trkpt><trkpt lat="43.524291000" lon="12.939624000"><ele>402.284000</ele><time>2009-07-28T10:25:15Z</time></trkpt><trkpt lat="43.524343000" lon="12.939638000"><ele>402.612000</ele><time>2009-07-28T10:25:19Z</time></trkpt><trkpt lat="43.524364000" lon="12.939642000"><ele>402.607000</ele><time>2009-07-28T10:25:21Z</time></trkpt><trkpt lat="43.524406000" lon="12.939642000"><ele>403.155000</ele><time>2009-07-28T10:25:25Z</time></trkpt><trkpt lat="43.524426000" lon="12.939642000"><ele>403.423000</ele><time>2009-07-28T10:25:27Z</time></trkpt><trkpt lat="43.524500000" lon="12.939666000"><ele>403.821000</ele><time>2009-07-28T10:25:31Z</time></trkpt><trkpt lat="43.524522000" lon="12.939666000"><ele>404.306000</ele><time>2009-07-28T10:25:33Z</time></trkpt><trkpt lat="43.524559000" lon="12.939677000"><ele>404.832000</ele><time>2009-07-28T10:25:37Z</time></trkpt><trkpt lat="43.524575000" lon="12.939673000"><ele>405.251000</ele><time>2009-07-28T10:25:39Z</time></trkpt><trkpt lat="43.524609000" lon="12.939676000"><ele>406.390000</ele><time>2009-07-28T10:25:43Z</time></trkpt><trkpt lat="43.524629000" lon="12.939672000"><ele>407.023000</ele><time>2009-07-28T10:25:45Z</time></trkpt><trkpt lat="43.524662000" lon="12.939613000"><ele>406.346000</ele><time>2009-07-28T10:25:49Z</time></trkpt><trkpt lat="43.524692000" lon="12.939570000"><ele>404.988000</ele><time>2009-07-28T10:25:51Z</time></trkpt><trkpt lat="43.524720000" lon="12.939534000"><ele>402.643000</ele><time>2009-07-28T10:25:55Z</time></trkpt><trkpt lat="43.524800000" lon="12.939490000"><ele>401.484000</ele><time>2009-07-28T10:25:57Z</time></trkpt><trkpt lat="43.524840000" lon="12.939428000"><ele>400.983000</ele><time>2009-07-28T10:26:01Z</time></trkpt><trkpt lat="43.524855000" lon="12.939409000"><ele>400.977000</ele><time>2009-07-28T10:26:03Z</time></trkpt><trkpt lat="43.524864000" lon="12.939372000"><ele>401.059000</ele><time>2009-07-28T10:26:07Z</time></trkpt><trkpt lat="43.524871000" lon="12.939345000"><ele>400.894000</ele><time>2009-07-28T10:26:09Z</time></trkpt><trkpt lat="43.524885000" lon="12.939305000"><ele>400.444000</ele><time>2009-07-28T10:26:13Z</time></trkpt><trkpt lat="43.524890000" lon="12.939278000"><ele>400.346000</ele><time>2009-07-28T10:26:15Z</time></trkpt><trkpt lat="43.524895000" lon="12.939252000"><ele>400.235000</ele><time>2009-07-28T10:26:19Z</time></trkpt><trkpt lat="43.524890000" lon="12.939256000"><ele>400.127000</ele><time>2009-07-28T10:26:21Z</time></trkpt><trkpt lat="43.524889000" lon="12.939253000"><ele>400.072000</ele><time>2009-07-28T10:26:25Z</time></trkpt><trkpt lat="43.524890000" lon="12.939254000"><ele>400.080000</ele><time>2009-07-28T10:26:27Z</time></trkpt><trkpt lat="43.524891000" lon="12.939254000"><ele>400.103000</ele><time>2009-07-28T10:26:31Z</time></trkpt><trkpt lat="43.524891000" lon="12.939254000"><ele>400.090000</ele><time>2009-07-28T10:26:33Z</time></trkpt><trkpt lat="43.524889000" lon="12.939253000"><ele>400.045000</ele><time>2009-07-28T10:26:37Z</time></trkpt><trkpt lat="43.524887000" lon="12.939251000"><ele>400.029000</ele><time>2009-07-28T10:26:39Z</time></trkpt><trkpt lat="43.524884000" lon="12.939250000"><ele>399.981000</ele><time>2009-07-28T10:26:43Z</time></trkpt><trkpt lat="43.524882000" lon="12.939249000"><ele>399.955000</ele><time>2009-07-28T10:26:45Z</time></trkpt><trkpt lat="43.524879000" lon="12.939246000"><ele>399.933000</ele><time>2009-07-28T10:26:49Z</time></trkpt><trkpt lat="43.524877000" lon="12.939245000"><ele>399.917000</ele><time>2009-07-28T10:26:51Z</time></trkpt><trkpt lat="43.524876000" lon="12.939244000"><ele>399.874000</ele><time>2009-07-28T10:26:55Z</time></trkpt><trkpt lat="43.524875000" lon="12.939244000"><ele>399.852000</ele><time>2009-07-28T10:26:57Z</time></trkpt><trkpt lat="43.524874000" lon="12.939243000"><ele>399.818000</ele><time>2009-07-28T10:27:01Z</time></trkpt><trkpt lat="43.524861000" lon="12.939230000"><ele>399.649000</ele><time>2009-07-28T10:27:03Z</time></trkpt><trkpt lat="43.524864000" lon="12.939233000"><ele>398.494000</ele><time>2009-07-28T10:27:07Z</time></trkpt><trkpt lat="43.524863000" lon="12.939232000"><ele>398.490000</ele><time>2009-07-28T10:27:09Z</time></trkpt><trkpt lat="43.524860000" lon="12.939230000"><ele>398.479000</ele><time>2009-07-28T10:27:13Z</time></trkpt><trkpt lat="43.524859000" lon="12.939229000"><ele>398.464000</ele><time>2009-07-28T10:27:15Z</time></trkpt><trkpt lat="43.524859000" lon="12.939230000"><ele>398.430000</ele><time>2009-07-28T10:27:19Z</time></trkpt><trkpt lat="43.524859000" lon="12.939230000"><ele>398.411000</ele><time>2009-07-28T10:27:21Z</time></trkpt><trkpt lat="43.524863000" lon="12.939233000"><ele>398.371000</ele><time>2009-07-28T10:27:25Z</time></trkpt><trkpt lat="43.524864000" lon="12.939234000"><ele>398.357000</ele><time>2009-07-28T10:27:27Z</time></trkpt><trkpt lat="43.524863000" lon="12.939233000"><ele>398.333000</ele><time>2009-07-28T10:27:31Z</time></trkpt><trkpt lat="43.524861000" lon="12.939232000"><ele>398.325000</ele><time>2009-07-28T10:27:33Z</time></trkpt><trkpt lat="43.524858000" lon="12.939230000"><ele>398.307000</ele><time>2009-07-28T10:27:37Z</time></trkpt><trkpt lat="43.524858000" lon="12.939229000"><ele>398.303000</ele><time>2009-07-28T10:27:39Z</time></trkpt><trkpt lat="43.524858000" lon="12.939231000"><ele>398.269000</ele><time>2009-07-28T10:27:43Z</time></trkpt><trkpt lat="43.524858000" lon="12.939232000"><ele>398.268000</ele><time>2009-07-28T10:27:45Z</time></trkpt><trkpt lat="43.524859000" lon="12.939232000"><ele>398.265000</ele><time>2009-07-28T10:27:49Z</time></trkpt><trkpt lat="43.524859000" lon="12.939233000"><ele>398.262000</ele><time>2009-07-28T10:27:51Z</time></trkpt><trkpt lat="43.524862000" lon="12.939236000"><ele>398.253000</ele><time>2009-07-28T10:27:55Z</time></trkpt><trkpt lat="43.524775000" lon="12.939205000"><ele>397.945000</ele><time>2009-07-28T10:27:57Z</time></trkpt><trkpt lat="43.524749000" lon="12.939234000"><ele>397.762000</ele><time>2009-07-28T10:28:01Z</time></trkpt><trkpt lat="43.524718000" lon="12.939255000"><ele>398.063000</ele><time>2009-07-28T10:28:03Z</time></trkpt><trkpt lat="43.524759000" lon="12.939263000"><ele>398.117000</ele><time>2009-07-28T10:28:07Z</time></trkpt><trkpt lat="43.524768000" lon="12.939266000"><ele>398.148000</ele><time>2009-07-28T10:28:09Z</time></trkpt><trkpt lat="43.524799000" lon="12.939253000"><ele>397.980000</ele><time>2009-07-28T10:28:13Z</time></trkpt><trkpt lat="43.524850000" lon="12.939251000"><ele>397.780000</ele><time>2009-07-28T10:28:15Z</time></trkpt><trkpt lat="43.524836000" lon="12.939241000"><ele>396.052000</ele><time>2009-07-28T10:28:19Z</time></trkpt><trkpt lat="43.524846000" lon="12.939231000"><ele>395.779000</ele><time>2009-07-28T10:28:21Z</time></trkpt><trkpt lat="43.524846000" lon="12.939243000"><ele>394.478000</ele><time>2009-07-28T10:28:25Z</time></trkpt><trkpt lat="43.524853000" lon="12.939248000"><ele>394.438000</ele><time>2009-07-28T10:28:27Z</time></trkpt><trkpt lat="43.524851000" lon="12.939254000"><ele>394.110000</ele><time>2009-07-28T10:28:31Z</time></trkpt><trkpt lat="43.524863000" lon="12.939252000"><ele>393.779000</ele><time>2009-07-28T10:28:33Z</time></trkpt><trkpt lat="43.524889000" lon="12.939260000"><ele>394.073000</ele><time>2009-07-28T10:28:37Z</time></trkpt><trkpt lat="43.524889000" lon="12.939267000"><ele>394.255000</ele><time>2009-07-28T10:28:39Z</time></trkpt><trkpt lat="43.524902000" lon="12.939269000"><ele>394.118000</ele><time>2009-07-28T10:28:43Z</time></trkpt><trkpt lat="43.524903000" lon="12.939270000"><ele>394.068000</ele><time>2009-07-28T10:28:45Z</time></trkpt><trkpt lat="43.524906000" lon="12.939272000"><ele>394.011000</ele><time>2009-07-28T10:28:49Z</time></trkpt><trkpt lat="43.524904000" lon="12.939270000"><ele>394.010000</ele><time>2009-07-28T10:28:51Z</time></trkpt><trkpt lat="43.524897000" lon="12.939266000"><ele>394.008000</ele><time>2009-07-28T10:28:55Z</time></trkpt><trkpt lat="43.524895000" lon="12.939265000"><ele>394.014000</ele><time>2009-07-28T10:28:57Z</time></trkpt><trkpt lat="43.524894000" lon="12.939264000"><ele>394.035000</ele><time>2009-07-28T10:29:01Z</time></trkpt><trkpt lat="43.524893000" lon="12.939264000"><ele>394.039000</ele><time>2009-07-28T10:29:03Z</time></trkpt><trkpt lat="43.524895000" lon="12.939265000"><ele>394.045000</ele><time>2009-07-28T10:29:07Z</time></trkpt><trkpt lat="43.524899000" lon="12.939267000"><ele>394.047000</ele><time>2009-07-28T10:29:09Z</time></trkpt><trkpt lat="43.524907000" lon="12.939272000"><ele>394.048000</ele><time>2009-07-28T10:29:13Z</time></trkpt><trkpt lat="43.524910000" lon="12.939274000"><ele>394.048000</ele><time>2009-07-28T10:29:15Z</time></trkpt><trkpt lat="43.524915000" lon="12.939278000"><ele>394.052000</ele><time>2009-07-28T10:29:19Z</time></trkpt></trkseg></trk></gpx>
